<?xml version="1.0" encoding="UTF-8"?>
<gpx version="1.1" creator="https://www.youtrack.es" xsi:schemaLocation="http://www.topografix.com/GPX/1/1 http://www.topografix.com/GPX/1/1/gpx.xsd http://www.garmin.com/xmlschemas/GpxExtensions/v3 http://www.garmin.com/xmlschemas/GpxExtensionsv3.xsd http://www.garmin.com/xmlschemas/TrackPointExtension/v1 http://www.garmin.com/xmlschemas/TrackPointExtensionv1.xsd" xmlns:gpxtpx="http://www.garmin.com/xmlschemas/TrackPointExtension/v1" xmlns:gpxx="http://www.garmin.com/xmlschemas/GpxExtensions/v3" xmlns:xsi="http://www.w3.org/2001/XMLSchema-instance">
  <metadata>
    <author>
      <name>Enrik Yus</name>
      <email id="enrikyus" domain="hotmail.com"/>
    </author>
    <link href="https://www.youtrack.es">
      <text>YouTrack.es</text>
    </link>
    <time>2026-05-07T22:47:40Z</time>
  </metadata>
  <trk>
    <src>https://www.youtrack.es</src>
    <link href="https://www.youtrack.es/ruta/6751-camino-de-la-vera-cruz">
      <text>YouTrack.es</text>
    </link>
    <trkseg>
      <trkpt lat="42.811276" lon="-1.645116">
        <ele>446.216</ele>
        <time>2012-06-07T03:30:30Z</time>
      </trkpt>
      <trkpt lat="42.810941" lon="-1.645008">
        <ele>447.276</ele>
        <time>2012-06-07T03:34:06Z</time>
      </trkpt>
      <trkpt lat="42.811080" lon="-1.644614">
        <ele>447.213</ele>
        <time>2012-06-07T03:34:21Z</time>
      </trkpt>
      <trkpt lat="42.814572" lon="-1.646331">
        <ele>444.307</ele>
        <time>2012-06-07T03:36:48Z</time>
      </trkpt>
      <trkpt lat="42.815485" lon="-1.647990">
        <ele>444.374</ele>
        <time>2012-06-07T03:37:17Z</time>
      </trkpt>
      <trkpt lat="42.816726" lon="-1.649268">
        <ele>442.811</ele>
        <time>2012-06-07T03:37:54Z</time>
      </trkpt>
      <trkpt lat="42.816700" lon="-1.649635">
        <ele>443.324</ele>
        <time>2012-06-07T03:38:14Z</time>
      </trkpt>
      <trkpt lat="42.815276" lon="-1.651839">
        <ele>443.344</ele>
        <time>2012-06-07T03:39:04Z</time>
      </trkpt>
      <trkpt lat="42.812693" lon="-1.654609">
        <ele>442.368</ele>
        <time>2012-06-07T03:40:54Z</time>
      </trkpt>
      <trkpt lat="42.811988" lon="-1.654572">
        <ele>443.324</ele>
        <time>2012-06-07T03:41:19Z</time>
      </trkpt>
      <trkpt lat="42.809758" lon="-1.653079">
        <ele>445.735</ele>
        <time>2012-06-07T03:42:17Z</time>
      </trkpt>
      <trkpt lat="42.808592" lon="-1.654042">
        <ele>445.795</ele>
        <time>2012-06-07T03:42:59Z</time>
      </trkpt>
      <trkpt lat="42.806319" lon="-1.658301">
        <ele>442.349</ele>
        <time>2012-06-07T03:44:13Z</time>
      </trkpt>
      <trkpt lat="42.804724" lon="-1.660320">
        <ele>428.423</ele>
        <time>2012-06-07T03:44:59Z</time>
      </trkpt>
      <trkpt lat="42.802091" lon="-1.662797">
        <ele>415.407</ele>
        <time>2012-06-07T03:45:54Z</time>
      </trkpt>
      <trkpt lat="42.801555" lon="-1.663870">
        <ele>411.642</ele>
        <time>2012-06-07T03:46:11Z</time>
      </trkpt>
      <trkpt lat="42.801306" lon="-1.664983">
        <ele>410.179</ele>
        <time>2012-06-07T03:46:30Z</time>
      </trkpt>
      <trkpt lat="42.798298" lon="-1.666634">
        <ele>411.632</ele>
        <time>2012-06-07T03:52:27Z</time>
      </trkpt>
      <trkpt lat="42.796940" lon="-1.668071">
        <ele>412.572</ele>
        <time>2012-06-07T03:53:03Z</time>
      </trkpt>
      <trkpt lat="42.796999" lon="-1.668476">
        <ele>412.596</ele>
        <time>2012-06-07T03:53:13Z</time>
      </trkpt>
      <trkpt lat="42.795907" lon="-1.669457">
        <ele>415.922</ele>
        <time>2012-06-07T03:53:47Z</time>
      </trkpt>
      <trkpt lat="42.795288" lon="-1.671214">
        <ele>419.873</ele>
        <time>2012-06-07T03:54:29Z</time>
      </trkpt>
      <trkpt lat="42.793899" lon="-1.673118">
        <ele>419.897</ele>
        <time>2012-06-07T03:55:25Z</time>
      </trkpt>
      <trkpt lat="42.790731" lon="-1.674795">
        <ele>439.923</ele>
        <time>2012-06-07T03:57:44Z</time>
      </trkpt>
      <trkpt lat="42.788403" lon="-1.675229">
        <ele>459.225</ele>
        <time>2012-06-07T03:59:19Z</time>
      </trkpt>
      <trkpt lat="42.787899" lon="-1.676176">
        <ele>463.507</ele>
        <time>2012-06-07T03:59:49Z</time>
      </trkpt>
      <trkpt lat="42.786326" lon="-1.677150">
        <ele>456.862</ele>
        <time>2012-06-07T04:00:30Z</time>
      </trkpt>
      <trkpt lat="42.785849" lon="-1.678495">
        <ele>454.889</ele>
        <time>2012-06-07T04:01:08Z</time>
      </trkpt>
      <trkpt lat="42.784200" lon="-1.680300">
        <ele>440.952</ele>
        <time>2012-06-07T04:01:52Z</time>
      </trkpt>
      <trkpt lat="42.782906" lon="-1.681304">
        <ele>435.622</ele>
        <time>2012-06-07T04:02:25Z</time>
      </trkpt>
      <trkpt lat="42.781903" lon="-1.682629">
        <ele>434.286</ele>
        <time>2012-06-07T04:03:11Z</time>
      </trkpt>
      <trkpt lat="42.779775" lon="-1.686388">
        <ele>439.982</ele>
        <time>2012-06-07T04:04:40Z</time>
      </trkpt>
      <trkpt lat="42.778272" lon="-1.688457">
        <ele>444.853</ele>
        <time>2012-06-07T04:06:05Z</time>
      </trkpt>
      <trkpt lat="42.777989" lon="-1.689885">
        <ele>444.875</ele>
        <time>2012-06-07T04:06:39Z</time>
      </trkpt>
      <trkpt lat="42.775465" lon="-1.691148">
        <ele>460.128</ele>
        <time>2012-06-07T04:11:54Z</time>
      </trkpt>
      <trkpt lat="42.772719" lon="-1.694225">
        <ele>477.020</ele>
        <time>2012-06-07T04:14:28Z</time>
      </trkpt>
      <trkpt lat="42.771392" lon="-1.696772">
        <ele>493.807</ele>
        <time>2012-06-07T04:16:10Z</time>
      </trkpt>
      <trkpt lat="42.771142" lon="-1.698023">
        <ele>496.280</ele>
        <time>2012-06-07T04:16:44Z</time>
      </trkpt>
      <trkpt lat="42.770407" lon="-1.699197">
        <ele>492.317</ele>
        <time>2012-06-07T04:17:06Z</time>
      </trkpt>
      <trkpt lat="42.769110" lon="-1.700536">
        <ele>490.480</ele>
        <time>2012-06-07T04:17:36Z</time>
      </trkpt>
      <trkpt lat="42.767432" lon="-1.701571">
        <ele>491.920</ele>
        <time>2012-06-07T04:20:03Z</time>
      </trkpt>
      <trkpt lat="42.765372" lon="-1.705013">
        <ele>490.974</ele>
        <time>2012-06-07T04:23:10Z</time>
      </trkpt>
      <trkpt lat="42.764452" lon="-1.707869">
        <ele>497.630</ele>
        <time>2012-06-07T04:24:21Z</time>
      </trkpt>
      <trkpt lat="42.763129" lon="-1.709244">
        <ele>498.651</ele>
        <time>2012-06-07T04:25:09Z</time>
      </trkpt>
      <trkpt lat="42.762981" lon="-1.710088">
        <ele>502.496</ele>
        <time>2012-06-07T04:25:32Z</time>
      </trkpt>
      <trkpt lat="42.761435" lon="-1.712456">
        <ele>515.931</ele>
        <time>2012-06-07T04:27:07Z</time>
      </trkpt>
      <trkpt lat="42.756724" lon="-1.715178">
        <ele>547.124</ele>
        <time>2012-06-07T04:30:40Z</time>
      </trkpt>
      <trkpt lat="42.753385" lon="-1.718063">
        <ele>580.307</ele>
        <time>2012-06-07T04:33:40Z</time>
      </trkpt>
      <trkpt lat="42.752331" lon="-1.718548">
        <ele>595.272</ele>
        <time>2012-06-07T04:34:49Z</time>
      </trkpt>
      <trkpt lat="42.751387" lon="-1.719605">
        <ele>602.419</ele>
        <time>2012-06-07T04:35:43Z</time>
      </trkpt>
      <trkpt lat="42.750089" lon="-1.719745">
        <ele>597.612</ele>
        <time>2012-06-07T04:36:14Z</time>
      </trkpt>
      <trkpt lat="42.747953" lon="-1.723069">
        <ele>619.272</ele>
        <time>2012-06-07T04:38:34Z</time>
      </trkpt>
      <trkpt lat="42.746138" lon="-1.723621">
        <ele>627.986</ele>
        <time>2012-06-07T04:39:38Z</time>
      </trkpt>
      <trkpt lat="42.743270" lon="-1.726056">
        <ele>624.062</ele>
        <time>2012-06-07T04:40:55Z</time>
      </trkpt>
      <trkpt lat="42.743185" lon="-1.726408">
        <ele>625.083</ele>
        <time>2012-06-07T04:41:08Z</time>
      </trkpt>
      <trkpt lat="42.742038" lon="-1.727398">
        <ele>653.413</ele>
        <time>2012-06-07T04:43:12Z</time>
      </trkpt>
      <trkpt lat="42.741935" lon="-1.728434">
        <ele>662.543</ele>
        <time>2012-06-07T04:44:26Z</time>
      </trkpt>
      <trkpt lat="42.741260" lon="-1.729285">
        <ele>668.707</ele>
        <time>2012-06-07T04:45:13Z</time>
      </trkpt>
      <trkpt lat="42.740676" lon="-1.729606">
        <ele>675.907</ele>
        <time>2012-06-07T04:46:09Z</time>
      </trkpt>
      <trkpt lat="42.740398" lon="-1.731037">
        <ele>687.064</ele>
        <time>2012-06-07T04:47:57Z</time>
      </trkpt>
      <trkpt lat="42.739610" lon="-1.732143">
        <ele>695.261</ele>
        <time>2012-06-07T04:49:00Z</time>
      </trkpt>
      <trkpt lat="42.738038" lon="-1.735631">
        <ele>710.684</ele>
        <time>2012-06-07T04:51:11Z</time>
      </trkpt>
      <trkpt lat="42.737161" lon="-1.738948">
        <ele>726.934</ele>
        <time>2012-06-07T04:55:37Z</time>
      </trkpt>
      <trkpt lat="42.736523" lon="-1.739730">
        <ele>738.968</ele>
        <time>2012-06-07T04:56:25Z</time>
      </trkpt>
      <trkpt lat="42.735855" lon="-1.742629">
        <ele>762.074</ele>
        <time>2012-06-07T05:02:05Z</time>
      </trkpt>
      <trkpt lat="42.735410" lon="-1.742839">
        <ele>754.815</ele>
        <time>2012-06-07T05:03:49Z</time>
      </trkpt>
      <trkpt lat="42.735044" lon="-1.743967">
        <ele>735.643</ele>
        <time>2012-06-07T05:05:08Z</time>
      </trkpt>
      <trkpt lat="42.734933" lon="-1.745713">
        <ele>716.364</ele>
        <time>2012-06-07T05:06:10Z</time>
      </trkpt>
      <trkpt lat="42.734557" lon="-1.746762">
        <ele>698.110</ele>
        <time>2012-06-07T05:07:18Z</time>
      </trkpt>
      <trkpt lat="42.733014" lon="-1.748399">
        <ele>663.907</ele>
        <time>2012-06-07T05:09:11Z</time>
      </trkpt>
      <trkpt lat="42.732537" lon="-1.749228">
        <ele>647.117</ele>
        <time>2012-06-07T05:10:08Z</time>
      </trkpt>
      <trkpt lat="42.732232" lon="-1.748967">
        <ele>640.934</ele>
        <time>2012-06-07T05:10:35Z</time>
      </trkpt>
      <trkpt lat="42.730792" lon="-1.749181">
        <ele>615.437</ele>
        <time>2012-06-07T05:11:51Z</time>
      </trkpt>
      <trkpt lat="42.728996" lon="-1.748825">
        <ele>584.197</ele>
        <time>2012-06-07T05:13:56Z</time>
      </trkpt>
      <trkpt lat="42.726176" lon="-1.749657">
        <ele>567.841</ele>
        <time>2012-06-07T05:14:58Z</time>
      </trkpt>
      <trkpt lat="42.723291" lon="-1.749611">
        <ele>544.227</ele>
        <time>2012-06-07T05:15:51Z</time>
      </trkpt>
      <trkpt lat="42.721788" lon="-1.750990">
        <ele>533.248</ele>
        <time>2012-06-07T05:16:18Z</time>
      </trkpt>
      <trkpt lat="42.720416" lon="-1.752807">
        <ele>512.059</ele>
        <time>2012-06-07T05:16:48Z</time>
      </trkpt>
      <trkpt lat="42.719619" lon="-1.753421">
        <ele>506.803</ele>
        <time>2012-06-07T05:17:00Z</time>
      </trkpt>
      <trkpt lat="42.717113" lon="-1.753588">
        <ele>497.123</ele>
        <time>2012-06-07T05:17:40Z</time>
      </trkpt>
      <trkpt lat="42.715835" lon="-1.754478">
        <ele>501.007</ele>
        <time>2012-06-07T05:18:16Z</time>
      </trkpt>
      <trkpt lat="42.715169" lon="-1.755721">
        <ele>507.288</ele>
        <time>2012-06-07T05:18:56Z</time>
      </trkpt>
      <trkpt lat="42.713970" lon="-1.756712">
        <ele>508.235</ele>
        <time>2012-06-07T05:19:34Z</time>
      </trkpt>
      <trkpt lat="42.711042" lon="-1.757975">
        <ele>500.528</ele>
        <time>2012-06-07T05:20:42Z</time>
      </trkpt>
      <trkpt lat="42.708650" lon="-1.761388">
        <ele>491.468</ele>
        <time>2012-06-07T05:21:55Z</time>
      </trkpt>
      <trkpt lat="42.707931" lon="-1.761324">
        <ele>489.512</ele>
        <time>2012-06-07T05:22:17Z</time>
      </trkpt>
      <trkpt lat="42.708054" lon="-1.761102">
        <ele>490.458</ele>
        <time>2012-06-07T05:22:27Z</time>
      </trkpt>
      <trkpt lat="42.707787" lon="-1.760759">
        <ele>490.469</ele>
        <time>2012-06-07T05:22:38Z</time>
      </trkpt>
      <trkpt lat="42.705899" lon="-1.760917">
        <ele>485.136</ele>
        <time>2012-06-07T05:23:15Z</time>
      </trkpt>
      <trkpt lat="42.705331" lon="-1.759565">
        <ele>468.817</ele>
        <time>2012-06-07T05:23:42Z</time>
      </trkpt>
      <trkpt lat="42.704765" lon="-1.760156">
        <ele>466.918</ele>
        <time>2012-06-07T05:23:57Z</time>
      </trkpt>
      <trkpt lat="42.703254" lon="-1.760440">
        <ele>470.707</ele>
        <time>2012-06-07T05:24:36Z</time>
      </trkpt>
      <trkpt lat="42.702287" lon="-1.761101">
        <ele>480.826</ele>
        <time>2012-06-07T05:25:17Z</time>
      </trkpt>
      <trkpt lat="42.701569" lon="-1.761178">
        <ele>479.483</ele>
        <time>2012-06-07T05:25:41Z</time>
      </trkpt>
      <trkpt lat="42.700915" lon="-1.761701">
        <ele>478.996</ele>
        <time>2012-06-07T05:26:00Z</time>
      </trkpt>
      <trkpt lat="42.700232" lon="-1.762835">
        <ele>475.546</ele>
        <time>2012-06-07T05:26:20Z</time>
      </trkpt>
      <trkpt lat="42.698445" lon="-1.763761">
        <ele>470.760</ele>
        <time>2012-06-07T05:26:55Z</time>
      </trkpt>
      <trkpt lat="42.697749" lon="-1.764805">
        <ele>467.326</ele>
        <time>2012-06-07T05:27:19Z</time>
      </trkpt>
      <trkpt lat="42.695086" lon="-1.767639">
        <ele>459.757</ele>
        <time>2012-06-07T05:28:31Z</time>
      </trkpt>
      <trkpt lat="42.691670" lon="-1.769349">
        <ele>451.585</ele>
        <time>2012-06-07T05:29:40Z</time>
      </trkpt>
      <trkpt lat="42.690383" lon="-1.770710">
        <ele>446.789</ele>
        <time>2012-06-07T05:30:13Z</time>
      </trkpt>
      <trkpt lat="42.687763" lon="-1.772632">
        <ele>436.617</ele>
        <time>2012-06-07T05:31:15Z</time>
      </trkpt>
      <trkpt lat="42.687641" lon="-1.773195">
        <ele>428.907</ele>
        <time>2012-06-07T05:31:29Z</time>
      </trkpt>
      <trkpt lat="42.686762" lon="-1.774467">
        <ele>415.471</ele>
        <time>2012-06-07T05:31:49Z</time>
      </trkpt>
      <trkpt lat="42.684968" lon="-1.776238">
        <ele>402.598</ele>
        <time>2012-06-07T05:32:17Z</time>
      </trkpt>
      <trkpt lat="42.682420" lon="-1.780494">
        <ele>406.821</ele>
        <time>2012-06-07T05:33:57Z</time>
      </trkpt>
      <trkpt lat="42.681385" lon="-1.781563">
        <ele>418.831</ele>
        <time>2012-06-07T05:34:47Z</time>
      </trkpt>
      <trkpt lat="42.681297" lon="-1.784281">
        <ele>419.375</ele>
        <time>2012-06-07T05:35:47Z</time>
      </trkpt>
      <trkpt lat="42.680858" lon="-1.784634">
        <ele>418.331</ele>
        <time>2012-06-07T05:36:02Z</time>
      </trkpt>
      <trkpt lat="42.680941" lon="-1.785185">
        <ele>417.442</ele>
        <time>2012-06-07T05:36:15Z</time>
      </trkpt>
      <trkpt lat="42.679425" lon="-1.786150">
        <ele>416.488</ele>
        <time>2012-06-07T05:40:47Z</time>
      </trkpt>
      <trkpt lat="42.679371" lon="-1.786798">
        <ele>415.424</ele>
        <time>2012-06-07T05:41:08Z</time>
      </trkpt>
      <trkpt lat="42.678942" lon="-1.787712">
        <ele>412.526</ele>
        <time>2012-06-07T05:42:03Z</time>
      </trkpt>
      <trkpt lat="42.679350" lon="-1.789954">
        <ele>410.107</ele>
        <time>2012-06-07T05:42:40Z</time>
      </trkpt>
      <trkpt lat="42.679351" lon="-1.791171">
        <ele>408.251</ele>
        <time>2012-06-07T05:42:56Z</time>
      </trkpt>
      <trkpt lat="42.678411" lon="-1.793331">
        <ele>401.528</ele>
        <time>2012-06-07T05:43:35Z</time>
      </trkpt>
      <trkpt lat="42.677624" lon="-1.798565">
        <ele>365.021</ele>
        <time>2012-06-07T05:45:25Z</time>
      </trkpt>
      <trkpt lat="42.676858" lon="-1.800310">
        <ele>360.681</ele>
        <time>2012-06-07T05:46:06Z</time>
      </trkpt>
      <trkpt lat="42.677072" lon="-1.801957">
        <ele>360.235</ele>
        <time>2012-06-07T05:46:43Z</time>
      </trkpt>
      <trkpt lat="42.676535" lon="-1.805923">
        <ele>358.261</ele>
        <time>2012-06-07T05:47:55Z</time>
      </trkpt>
      <trkpt lat="42.676709" lon="-1.806413">
        <ele>360.242</ele>
        <time>2012-06-07T05:48:16Z</time>
      </trkpt>
      <trkpt lat="42.674041" lon="-1.809819">
        <ele>357.829</ele>
        <time>2012-06-07T05:49:31Z</time>
      </trkpt>
      <trkpt lat="42.673726" lon="-1.810549">
        <ele>357.300</ele>
        <time>2012-06-07T05:49:44Z</time>
      </trkpt>
      <trkpt lat="42.673303" lon="-1.812957">
        <ele>353.920</ele>
        <time>2012-06-07T05:50:22Z</time>
      </trkpt>
      <trkpt lat="42.670486" lon="-1.812261">
        <ele>352.907</ele>
        <time>2012-06-07T06:25:33Z</time>
      </trkpt>
      <trkpt lat="42.668572" lon="-1.811131">
        <ele>377.995</ele>
        <time>2012-06-07T06:27:24Z</time>
      </trkpt>
      <trkpt lat="42.666624" lon="-1.812687">
        <ele>406.342</ele>
        <time>2012-06-07T06:32:02Z</time>
      </trkpt>
      <trkpt lat="42.664312" lon="-1.809992">
        <ele>423.675</ele>
        <time>2012-06-07T06:40:25Z</time>
      </trkpt>
      <trkpt lat="42.664482" lon="-1.808757">
        <ele>431.345</ele>
        <time>2012-06-07T06:42:02Z</time>
      </trkpt>
      <trkpt lat="42.664282" lon="-1.808384">
        <ele>433.739</ele>
        <time>2012-06-07T06:42:15Z</time>
      </trkpt>
      <trkpt lat="42.662357" lon="-1.807684">
        <ele>439.565</ele>
        <time>2012-06-07T06:43:28Z</time>
      </trkpt>
      <trkpt lat="42.658773" lon="-1.809938">
        <ele>427.436</ele>
        <time>2012-06-07T06:45:01Z</time>
      </trkpt>
      <trkpt lat="42.655405" lon="-1.813491">
        <ele>408.231</ele>
        <time>2012-06-07T06:46:26Z</time>
      </trkpt>
      <trkpt lat="42.653839" lon="-1.814174">
        <ele>398.661</ele>
        <time>2012-06-07T06:46:49Z</time>
      </trkpt>
      <trkpt lat="42.650886" lon="-1.817331">
        <ele>392.407</ele>
        <time>2012-06-07T06:47:50Z</time>
      </trkpt>
      <trkpt lat="42.647008" lon="-1.822794">
        <ele>357.307</ele>
        <time>2012-06-07T06:49:27Z</time>
      </trkpt>
      <trkpt lat="42.646722" lon="-1.822874">
        <ele>355.366</ele>
        <time>2012-06-07T06:49:34Z</time>
      </trkpt>
      <trkpt lat="42.646037" lon="-1.821114">
        <ele>350.563</ele>
        <time>2012-06-07T06:50:02Z</time>
      </trkpt>
      <trkpt lat="42.645598" lon="-1.817116">
        <ele>350.126</ele>
        <time>2012-06-07T06:51:54Z</time>
      </trkpt>
      <trkpt lat="42.644533" lon="-1.814253">
        <ele>351.596</ele>
        <time>2012-06-07T06:52:44Z</time>
      </trkpt>
      <trkpt lat="42.643735" lon="-1.813691">
        <ele>352.990</ele>
        <time>2012-06-07T06:53:09Z</time>
      </trkpt>
      <trkpt lat="42.641065" lon="-1.814485">
        <ele>370.226</ele>
        <time>2012-06-07T06:54:49Z</time>
      </trkpt>
      <trkpt lat="42.639732" lon="-1.816650">
        <ele>388.547</ele>
        <time>2012-06-07T06:56:27Z</time>
      </trkpt>
      <trkpt lat="42.639711" lon="-1.817570">
        <ele>390.061</ele>
        <time>2012-06-07T06:56:41Z</time>
      </trkpt>
      <trkpt lat="42.639057" lon="-1.818365">
        <ele>396.721</ele>
        <time>2012-06-07T06:57:09Z</time>
      </trkpt>
      <trkpt lat="42.638123" lon="-1.818104">
        <ele>390.413</ele>
        <time>2012-06-07T06:58:14Z</time>
      </trkpt>
      <trkpt lat="42.637834" lon="-1.818357">
        <ele>387.607</ele>
        <time>2012-06-07T06:58:19Z</time>
      </trkpt>
      <trkpt lat="42.637483" lon="-1.820338">
        <ele>392.449</ele>
        <time>2012-06-07T06:58:51Z</time>
      </trkpt>
      <trkpt lat="42.635768" lon="-1.822224">
        <ele>386.676</ele>
        <time>2012-06-07T06:59:38Z</time>
      </trkpt>
      <trkpt lat="42.634476" lon="-1.822557">
        <ele>378.969</ele>
        <time>2012-06-07T06:59:57Z</time>
      </trkpt>
      <trkpt lat="42.633738" lon="-1.822166">
        <ele>371.749</ele>
        <time>2012-06-07T07:00:09Z</time>
      </trkpt>
      <trkpt lat="42.632709" lon="-1.822781">
        <ele>356.343</ele>
        <time>2012-06-07T07:00:22Z</time>
      </trkpt>
      <trkpt lat="42.630691" lon="-1.826420">
        <ele>358.789</ele>
        <time>2012-06-07T07:06:07Z</time>
      </trkpt>
      <trkpt lat="42.630583" lon="-1.827818">
        <ele>365.950</ele>
        <time>2012-06-07T07:07:05Z</time>
      </trkpt>
      <trkpt lat="42.629066" lon="-1.828666">
        <ele>378.467</ele>
        <time>2012-06-07T07:08:02Z</time>
      </trkpt>
      <trkpt lat="42.628303" lon="-1.830050">
        <ele>387.681</ele>
        <time>2012-06-07T07:08:56Z</time>
      </trkpt>
      <trkpt lat="42.627869" lon="-1.826784">
        <ele>382.319</ele>
        <time>2012-06-07T07:22:38Z</time>
      </trkpt>
      <trkpt lat="42.627829" lon="-1.824777">
        <ele>377.507</ele>
        <time>2012-06-07T07:23:21Z</time>
      </trkpt>
      <trkpt lat="42.627474" lon="-1.822536">
        <ele>364.039</ele>
        <time>2012-06-07T07:23:50Z</time>
      </trkpt>
      <trkpt lat="42.626696" lon="-1.820190">
        <ele>361.116</ele>
        <time>2012-06-07T07:24:30Z</time>
      </trkpt>
      <trkpt lat="42.626232" lon="-1.817020">
        <ele>377.069</ele>
        <time>2012-06-07T07:25:57Z</time>
      </trkpt>
      <trkpt lat="42.626259" lon="-1.815036">
        <ele>386.649</ele>
        <time>2012-06-07T07:26:54Z</time>
      </trkpt>
      <trkpt lat="42.627036" lon="-1.811432">
        <ele>403.973</ele>
        <time>2012-06-07T07:28:47Z</time>
      </trkpt>
      <trkpt lat="42.626711" lon="-1.810420">
        <ele>407.739</ele>
        <time>2012-06-07T07:29:13Z</time>
      </trkpt>
      <trkpt lat="42.626290" lon="-1.805311">
        <ele>414.010</ele>
        <time>2012-06-07T07:30:54Z</time>
      </trkpt>
      <trkpt lat="42.625791" lon="-1.803331">
        <ele>417.459</ele>
        <time>2012-06-07T07:31:36Z</time>
      </trkpt>
      <trkpt lat="42.625642" lon="-1.799906">
        <ele>419.303</ele>
        <time>2012-06-07T07:33:07Z</time>
      </trkpt>
      <trkpt lat="42.625436" lon="-1.799380">
        <ele>419.323</ele>
        <time>2012-06-07T07:33:18Z</time>
      </trkpt>
      <trkpt lat="42.624286" lon="-1.798378">
        <ele>418.307</ele>
        <time>2012-06-07T07:33:52Z</time>
      </trkpt>
      <trkpt lat="42.624000" lon="-1.797097">
        <ele>415.418</ele>
        <time>2012-06-07T07:34:17Z</time>
      </trkpt>
      <trkpt lat="42.620521" lon="-1.798538">
        <ele>394.895</ele>
        <time>2012-06-07T07:36:35Z</time>
      </trkpt>
      <trkpt lat="42.620464" lon="-1.799885">
        <ele>390.918</ele>
        <time>2012-06-07T07:38:06Z</time>
      </trkpt>
      <trkpt lat="42.619979" lon="-1.802060">
        <ele>393.388</ele>
        <time>2012-06-07T07:38:39Z</time>
      </trkpt>
      <trkpt lat="42.619342" lon="-1.803311">
        <ele>389.522</ele>
        <time>2012-06-07T07:38:59Z</time>
      </trkpt>
      <trkpt lat="42.618898" lon="-1.802583">
        <ele>391.488</ele>
        <time>2012-06-07T07:39:25Z</time>
      </trkpt>
      <trkpt lat="42.618810" lon="-1.799479">
        <ele>397.679</ele>
        <time>2012-06-07T07:40:38Z</time>
      </trkpt>
      <trkpt lat="42.618065" lon="-1.796176">
        <ele>406.396</ele>
        <time>2012-06-07T07:42:04Z</time>
      </trkpt>
      <trkpt lat="42.618112" lon="-1.795522">
        <ele>405.831</ele>
        <time>2012-06-07T07:43:18Z</time>
      </trkpt>
      <trkpt lat="42.617197" lon="-1.795016">
        <ele>401.024</ele>
        <time>2012-06-07T07:45:52Z</time>
      </trkpt>
      <trkpt lat="42.615690" lon="-1.792167">
        <ele>392.807</ele>
        <time>2012-06-07T07:47:06Z</time>
      </trkpt>
      <trkpt lat="42.614339" lon="-1.791900">
        <ele>390.032</ele>
        <time>2012-06-07T07:47:29Z</time>
      </trkpt>
      <trkpt lat="42.613197" lon="-1.790452">
        <ele>392.499</ele>
        <time>2012-06-07T07:48:10Z</time>
      </trkpt>
      <trkpt lat="42.612895" lon="-1.789211">
        <ele>396.242</ele>
        <time>2012-06-07T07:48:41Z</time>
      </trkpt>
      <trkpt lat="42.611452" lon="-1.787520">
        <ele>396.292</ele>
        <time>2012-06-07T07:49:38Z</time>
      </trkpt>
      <trkpt lat="42.609710" lon="-1.786855">
        <ele>387.636</ele>
        <time>2012-06-07T07:50:13Z</time>
      </trkpt>
      <trkpt lat="42.607099" lon="-1.786681">
        <ele>383.292</ele>
        <time>2012-06-07T07:51:04Z</time>
      </trkpt>
      <trkpt lat="42.605589" lon="-1.785322">
        <ele>391.493</ele>
        <time>2012-06-07T07:51:57Z</time>
      </trkpt>
      <trkpt lat="42.603366" lon="-1.779602">
        <ele>393.894</ele>
        <time>2012-06-07T07:54:24Z</time>
      </trkpt>
      <trkpt lat="42.601150" lon="-1.777388">
        <ele>403.457</ele>
        <time>2012-06-07T07:55:45Z</time>
      </trkpt>
      <trkpt lat="42.599960" lon="-1.777422">
        <ele>409.722</ele>
        <time>2012-06-07T07:56:23Z</time>
      </trkpt>
      <trkpt lat="42.599305" lon="-1.777147">
        <ele>414.507</ele>
        <time>2012-06-07T07:56:52Z</time>
      </trkpt>
      <trkpt lat="42.598475" lon="-1.775189">
        <ele>413.562</ele>
        <time>2012-06-07T08:07:14Z</time>
      </trkpt>
      <trkpt lat="42.597047" lon="-1.773757">
        <ele>418.899</ele>
        <time>2012-06-07T08:08:08Z</time>
      </trkpt>
      <trkpt lat="42.595307" lon="-1.769190">
        <ele>408.272</ele>
        <time>2012-06-07T08:09:28Z</time>
      </trkpt>
      <trkpt lat="42.592802" lon="-1.766942">
        <ele>438.572</ele>
        <time>2012-06-07T08:11:49Z</time>
      </trkpt>
      <trkpt lat="42.592175" lon="-1.767412">
        <ele>436.186</ele>
        <time>2012-06-07T08:15:59Z</time>
      </trkpt>
      <trkpt lat="42.590885" lon="-1.767369">
        <ele>424.112</ele>
        <time>2012-06-07T08:16:57Z</time>
      </trkpt>
      <trkpt lat="42.590650" lon="-1.767044">
        <ele>424.183</ele>
        <time>2012-06-07T08:17:09Z</time>
      </trkpt>
      <trkpt lat="42.590328" lon="-1.764343">
        <ele>420.771</ele>
        <time>2012-06-07T08:18:26Z</time>
      </trkpt>
      <trkpt lat="42.589876" lon="-1.764007">
        <ele>419.841</ele>
        <time>2012-06-07T08:29:06Z</time>
      </trkpt>
      <trkpt lat="42.587463" lon="-1.764897">
        <ele>399.615</ele>
        <time>2012-06-07T08:30:24Z</time>
      </trkpt>
      <trkpt lat="42.587268" lon="-1.764482">
        <ele>399.607</ele>
        <time>2012-06-07T08:31:42Z</time>
      </trkpt>
      <trkpt lat="42.585527" lon="-1.765968">
        <ele>395.280</ele>
        <time>2012-06-07T08:37:58Z</time>
      </trkpt>
      <trkpt lat="42.583946" lon="-1.764265">
        <ele>395.777</ele>
        <time>2012-06-07T08:44:20Z</time>
      </trkpt>
      <trkpt lat="42.581373" lon="-1.763701">
        <ele>387.120</ele>
        <time>2012-06-07T08:45:09Z</time>
      </trkpt>
      <trkpt lat="42.579399" lon="-1.764025">
        <ele>381.380</ele>
        <time>2012-06-07T08:45:39Z</time>
      </trkpt>
      <trkpt lat="42.578124" lon="-1.763513">
        <ele>380.394</ele>
        <time>2012-06-07T08:46:03Z</time>
      </trkpt>
      <trkpt lat="42.576507" lon="-1.763489">
        <ele>377.940</ele>
        <time>2012-06-07T08:46:37Z</time>
      </trkpt>
      <trkpt lat="42.575237" lon="-1.764115">
        <ele>377.581</ele>
        <time>2012-06-07T08:47:08Z</time>
      </trkpt>
      <trkpt lat="42.573809" lon="-1.764333">
        <ele>377.028</ele>
        <time>2012-06-07T08:47:39Z</time>
      </trkpt>
      <trkpt lat="42.572902" lon="-1.764946">
        <ele>374.189</ele>
        <time>2012-06-07T08:48:27Z</time>
      </trkpt>
      <trkpt lat="42.571443" lon="-1.764444">
        <ele>372.717</ele>
        <time>2012-06-07T08:49:05Z</time>
      </trkpt>
      <trkpt lat="42.569507" lon="-1.765403">
        <ele>367.407</ele>
        <time>2012-06-07T08:49:42Z</time>
      </trkpt>
      <trkpt lat="42.563686" lon="-1.765571">
        <ele>373.155</ele>
        <time>2012-06-07T08:52:12Z</time>
      </trkpt>
      <trkpt lat="42.562161" lon="-1.767111">
        <ele>367.442</ele>
        <time>2012-06-07T08:52:44Z</time>
      </trkpt>
      <trkpt lat="42.560823" lon="-1.768003">
        <ele>368.815</ele>
        <time>2012-06-07T08:53:19Z</time>
      </trkpt>
      <trkpt lat="42.556057" lon="-1.769676">
        <ele>362.165</ele>
        <time>2012-06-07T08:54:58Z</time>
      </trkpt>
      <trkpt lat="42.553363" lon="-1.771467">
        <ele>373.639</ele>
        <time>2012-06-07T08:56:29Z</time>
      </trkpt>
      <trkpt lat="42.552546" lon="-1.771260">
        <ele>377.975</ele>
        <time>2012-06-07T08:56:56Z</time>
      </trkpt>
      <trkpt lat="42.551670" lon="-1.771884">
        <ele>383.786</ele>
        <time>2012-06-07T08:57:38Z</time>
      </trkpt>
      <trkpt lat="42.550950" lon="-1.772978">
        <ele>382.762</ele>
        <time>2012-06-07T08:58:10Z</time>
      </trkpt>
      <trkpt lat="42.549323" lon="-1.772962">
        <ele>392.483</ele>
        <time>2012-06-07T08:59:08Z</time>
      </trkpt>
      <trkpt lat="42.546462" lon="-1.773779">
        <ele>414.511</ele>
        <time>2012-06-07T09:01:24Z</time>
      </trkpt>
      <trkpt lat="42.545252" lon="-1.772359">
        <ele>415.407</ele>
        <time>2012-06-07T09:09:53Z</time>
      </trkpt>
      <trkpt lat="42.542251" lon="-1.771961">
        <ele>395.229</ele>
        <time>2012-06-07T09:12:03Z</time>
      </trkpt>
      <trkpt lat="42.541814" lon="-1.772199">
        <ele>393.876</ele>
        <time>2012-06-07T09:18:00Z</time>
      </trkpt>
      <trkpt lat="42.541311" lon="-1.771678">
        <ele>394.339</ele>
        <time>2012-06-07T09:18:38Z</time>
      </trkpt>
      <trkpt lat="42.539340" lon="-1.771625">
        <ele>385.689</ele>
        <time>2012-06-07T09:19:35Z</time>
      </trkpt>
      <trkpt lat="42.538024" lon="-1.772523">
        <ele>382.393</ele>
        <time>2012-06-07T09:20:16Z</time>
      </trkpt>
      <trkpt lat="42.536957" lon="-1.772802">
        <ele>380.899</ele>
        <time>2012-06-07T09:20:52Z</time>
      </trkpt>
      <trkpt lat="42.536749" lon="-1.772579">
        <ele>379.910</ele>
        <time>2012-06-07T09:24:40Z</time>
      </trkpt>
      <trkpt lat="42.536628" lon="-1.772968">
        <ele>377.035</ele>
        <time>2012-06-07T09:26:40Z</time>
      </trkpt>
      <trkpt lat="42.535816" lon="-1.773106">
        <ele>374.686</ele>
        <time>2012-06-07T09:28:03Z</time>
      </trkpt>
      <trkpt lat="42.535403" lon="-1.772816">
        <ele>376.514</ele>
        <time>2012-06-07T09:28:38Z</time>
      </trkpt>
      <trkpt lat="42.533602" lon="-1.773188">
        <ele>368.807</ele>
        <time>2012-06-07T09:29:56Z</time>
      </trkpt>
      <trkpt lat="42.533263" lon="-1.773017">
        <ele>368.846</ele>
        <time>2012-06-07T09:44:54Z</time>
      </trkpt>
      <trkpt lat="42.530330" lon="-1.773699">
        <ele>365.013</ele>
        <time>2012-06-07T09:46:02Z</time>
      </trkpt>
      <trkpt lat="42.529534" lon="-1.773597">
        <ele>363.516</ele>
        <time>2012-06-07T09:46:19Z</time>
      </trkpt>
      <trkpt lat="42.526811" lon="-1.774531">
        <ele>365.046</ele>
        <time>2012-06-07T09:47:22Z</time>
      </trkpt>
      <trkpt lat="42.525088" lon="-1.775568">
        <ele>364.070</ele>
        <time>2012-06-07T09:48:05Z</time>
      </trkpt>
      <trkpt lat="42.522515" lon="-1.776004">
        <ele>355.826</ele>
        <time>2012-06-07T09:48:47Z</time>
      </trkpt>
      <trkpt lat="42.520182" lon="-1.777202">
        <ele>349.657</ele>
        <time>2012-06-07T09:49:25Z</time>
      </trkpt>
      <trkpt lat="42.515984" lon="-1.777778">
        <ele>343.335</ele>
        <time>2012-06-07T09:50:44Z</time>
      </trkpt>
      <trkpt lat="42.513231" lon="-1.777145">
        <ele>340.986</ele>
        <time>2012-06-07T09:51:36Z</time>
      </trkpt>
      <trkpt lat="42.510995" lon="-1.776036">
        <ele>333.214</ele>
        <time>2012-06-07T09:52:12Z</time>
      </trkpt>
      <trkpt lat="42.507855" lon="-1.775698">
        <ele>332.307</ele>
        <time>2012-06-07T09:53:09Z</time>
      </trkpt>
      <trkpt lat="42.506326" lon="-1.774821">
        <ele>332.336</ele>
        <time>2012-06-07T09:53:38Z</time>
      </trkpt>
      <trkpt lat="42.504072" lon="-1.772425">
        <ele>332.343</ele>
        <time>2012-06-07T09:54:31Z</time>
      </trkpt>
      <trkpt lat="42.501614" lon="-1.771109">
        <ele>334.756</ele>
        <time>2012-06-07T09:55:27Z</time>
      </trkpt>
      <trkpt lat="42.496085" lon="-1.769757">
        <ele>353.986</ele>
        <time>2012-06-07T09:58:23Z</time>
      </trkpt>
      <trkpt lat="42.493656" lon="-1.769505">
        <ele>348.140</ele>
        <time>2012-06-07T09:59:01Z</time>
      </trkpt>
      <trkpt lat="42.487172" lon="-1.763615">
        <ele>336.166</ele>
        <time>2012-06-07T10:00:58Z</time>
      </trkpt>
      <trkpt lat="42.485633" lon="-1.762676">
        <ele>338.057</ele>
        <time>2012-06-07T10:01:28Z</time>
      </trkpt>
      <trkpt lat="42.483357" lon="-1.761930">
        <ele>340.055</ele>
        <time>2012-06-07T10:02:16Z</time>
      </trkpt>
      <trkpt lat="42.480518" lon="-1.761471">
        <ele>336.107</ele>
        <time>2012-06-07T10:03:03Z</time>
      </trkpt>
      <trkpt lat="42.476328" lon="-1.759678">
        <ele>343.817</ele>
        <time>2012-06-07T10:04:30Z</time>
      </trkpt>
      <trkpt lat="42.474777" lon="-1.759449">
        <ele>342.407</ele>
        <time>2012-06-07T10:05:02Z</time>
      </trkpt>
      <trkpt lat="42.470783" lon="-1.759588">
        <ele>350.528</ele>
        <time>2012-06-07T10:06:46Z</time>
      </trkpt>
      <trkpt lat="42.468897" lon="-1.759102">
        <ele>352.565</ele>
        <time>2012-06-07T10:07:37Z</time>
      </trkpt>
      <trkpt lat="42.466335" lon="-1.757209">
        <ele>359.228</ele>
        <time>2012-06-07T10:08:55Z</time>
      </trkpt>
      <trkpt lat="42.464647" lon="-1.755486">
        <ele>370.288</ele>
        <time>2012-06-07T10:10:06Z</time>
      </trkpt>
      <trkpt lat="42.460555" lon="-1.752883">
        <ele>384.242</ele>
        <time>2012-06-07T10:12:26Z</time>
      </trkpt>
      <trkpt lat="42.458219" lon="-1.749204">
        <ele>383.758</ele>
        <time>2012-06-07T10:13:38Z</time>
      </trkpt>
      <trkpt lat="42.455719" lon="-1.746091">
        <ele>388.019</ele>
        <time>2012-06-07T10:14:40Z</time>
      </trkpt>
      <trkpt lat="42.454274" lon="-1.745115">
        <ele>387.148</ele>
        <time>2012-06-07T10:15:09Z</time>
      </trkpt>
      <trkpt lat="42.452997" lon="-1.743413">
        <ele>391.961</ele>
        <time>2012-06-07T10:15:54Z</time>
      </trkpt>
      <trkpt lat="42.452578" lon="-1.743266">
        <ele>392.817</ele>
        <time>2012-06-07T10:16:04Z</time>
      </trkpt>
      <trkpt lat="42.451884" lon="-1.741929">
        <ele>396.707</ele>
        <time>2012-06-07T10:16:32Z</time>
      </trkpt>
      <trkpt lat="42.450967" lon="-1.741330">
        <ele>401.537</ele>
        <time>2012-06-07T10:17:03Z</time>
      </trkpt>
      <trkpt lat="42.449752" lon="-1.741045">
        <ele>409.774</ele>
        <time>2012-06-07T10:17:47Z</time>
      </trkpt>
      <trkpt lat="42.445459" lon="-1.736339">
        <ele>404.487</ele>
        <time>2012-06-07T10:20:06Z</time>
      </trkpt>
      <trkpt lat="42.444699" lon="-1.736197">
        <ele>404.917</ele>
        <time>2012-06-07T10:20:19Z</time>
      </trkpt>
      <trkpt lat="42.440457" lon="-1.731244">
        <ele>395.231</ele>
        <time>2012-06-07T10:21:39Z</time>
      </trkpt>
      <trkpt lat="42.438340" lon="-1.727565">
        <ele>392.437</ele>
        <time>2012-06-07T10:23:14Z</time>
      </trkpt>
      <trkpt lat="42.437363" lon="-1.726495">
        <ele>392.428</ele>
        <time>2012-06-07T10:23:39Z</time>
      </trkpt>
      <trkpt lat="42.435861" lon="-1.725538">
        <ele>397.696</ele>
        <time>2012-06-07T10:24:24Z</time>
      </trkpt>
      <trkpt lat="42.432968" lon="-1.722050">
        <ele>393.331</ele>
        <time>2012-06-07T10:25:50Z</time>
      </trkpt>
      <trkpt lat="42.430888" lon="-1.720206">
        <ele>390.424</ele>
        <time>2012-06-07T10:26:30Z</time>
      </trkpt>
      <trkpt lat="42.429221" lon="-1.717838">
        <ele>396.707</ele>
        <time>2012-06-07T10:27:31Z</time>
      </trkpt>
      <trkpt lat="42.426136" lon="-1.715671">
        <ele>399.192</ele>
        <time>2012-06-07T10:29:09Z</time>
      </trkpt>
      <trkpt lat="42.424954" lon="-1.715479">
        <ele>394.869</ele>
        <time>2012-06-07T10:29:33Z</time>
      </trkpt>
      <trkpt lat="42.421854" lon="-1.714025">
        <ele>404.482</ele>
        <time>2012-06-07T10:31:22Z</time>
      </trkpt>
      <trkpt lat="42.420990" lon="-1.714133">
        <ele>395.212</ele>
        <time>2012-06-07T10:31:42Z</time>
      </trkpt>
      <trkpt lat="42.419705" lon="-1.712716">
        <ele>385.246</ele>
        <time>2012-06-07T10:32:14Z</time>
      </trkpt>
      <trkpt lat="42.419647" lon="-1.712250">
        <ele>384.282</ele>
        <time>2012-06-07T10:32:23Z</time>
      </trkpt>
      <trkpt lat="42.418335" lon="-1.711468">
        <ele>376.593</ele>
        <time>2012-06-07T10:32:48Z</time>
      </trkpt>
      <trkpt lat="42.416611" lon="-1.709907">
        <ele>371.748</ele>
        <time>2012-06-07T10:33:33Z</time>
      </trkpt>
      <trkpt lat="42.416326" lon="-1.708771">
        <ele>372.261</ele>
        <time>2012-06-07T10:35:09Z</time>
      </trkpt>
      <trkpt lat="42.415770" lon="-1.708877">
        <ele>372.717</ele>
        <time>2012-06-07T10:35:25Z</time>
      </trkpt>
      <trkpt lat="42.414456" lon="-1.707986">
        <ele>368.807</ele>
        <time>2012-06-07T10:36:25Z</time>
      </trkpt>
      <trkpt lat="42.413164" lon="-1.708260">
        <ele>370.227</ele>
        <time>2012-06-07T10:36:54Z</time>
      </trkpt>
      <trkpt lat="42.412308" lon="-1.707002">
        <ele>371.244</ele>
        <time>2012-06-07T10:37:24Z</time>
      </trkpt>
      <trkpt lat="42.409903" lon="-1.706771">
        <ele>358.787</ele>
        <time>2012-06-07T10:38:00Z</time>
      </trkpt>
      <trkpt lat="42.403922" lon="-1.706965">
        <ele>356.367</ele>
        <time>2012-06-07T10:40:12Z</time>
      </trkpt>
      <trkpt lat="42.400808" lon="-1.706061">
        <ele>352.031</ele>
        <time>2012-06-07T10:41:09Z</time>
      </trkpt>
      <trkpt lat="42.399833" lon="-1.705515">
        <ele>351.087</ele>
        <time>2012-06-07T10:41:28Z</time>
      </trkpt>
      <trkpt lat="42.397310" lon="-1.704928">
        <ele>347.778</ele>
        <time>2012-06-07T10:42:13Z</time>
      </trkpt>
      <trkpt lat="42.391632" lon="-1.702029">
        <ele>337.652</ele>
        <time>2012-06-07T10:43:59Z</time>
      </trkpt>
      <trkpt lat="42.388755" lon="-1.701452">
        <ele>333.253</ele>
        <time>2012-06-07T10:44:45Z</time>
      </trkpt>
      <trkpt lat="42.386467" lon="-1.699781">
        <ele>331.308</ele>
        <time>2012-06-07T10:45:30Z</time>
      </trkpt>
      <trkpt lat="42.384832" lon="-1.699167">
        <ele>329.907</ele>
        <time>2012-06-07T10:46:00Z</time>
      </trkpt>
      <trkpt lat="42.382136" lon="-1.698723">
        <ele>327.028</ele>
        <time>2012-06-07T10:46:48Z</time>
      </trkpt>
      <trkpt lat="42.380566" lon="-1.699077">
        <ele>323.615</ele>
        <time>2012-06-07T10:47:18Z</time>
      </trkpt>
      <trkpt lat="42.378881" lon="-1.698881">
        <ele>322.738</ele>
        <time>2012-06-07T10:47:45Z</time>
      </trkpt>
      <trkpt lat="42.378082" lon="-1.699123">
        <ele>320.728</ele>
        <time>2012-06-07T10:48:02Z</time>
      </trkpt>
      <trkpt lat="42.377799" lon="-1.698044">
        <ele>322.262</ele>
        <time>2012-06-07T10:49:15Z</time>
      </trkpt>
      <trkpt lat="42.374986" lon="-1.696925">
        <ele>317.948</ele>
        <time>2012-06-07T10:50:49Z</time>
      </trkpt>
      <trkpt lat="42.373520" lon="-1.696924">
        <ele>316.449</ele>
        <time>2012-06-07T10:51:16Z</time>
      </trkpt>
      <trkpt lat="42.372386" lon="-1.696503">
        <ele>315.991</ele>
        <time>2012-06-07T10:51:43Z</time>
      </trkpt>
      <trkpt lat="42.370980" lon="-1.696659">
        <ele>315.081</ele>
        <time>2012-06-07T10:52:16Z</time>
      </trkpt>
      <trkpt lat="42.364779" lon="-1.694653">
        <ele>315.519</ele>
        <time>2012-06-07T10:56:04Z</time>
      </trkpt>
      <trkpt lat="42.364416" lon="-1.694814">
        <ele>315.907</ele>
        <time>2012-06-07T10:57:09Z</time>
      </trkpt>
      <trkpt lat="42.361428" lon="-1.693688">
        <ele>315.052</ele>
        <time>2012-06-07T10:58:11Z</time>
      </trkpt>
      <trkpt lat="42.361030" lon="-1.692530">
        <ele>309.259</ele>
        <time>2012-06-07T10:58:30Z</time>
      </trkpt>
      <trkpt lat="42.360575" lon="-1.692035">
        <ele>305.492</ele>
        <time>2012-06-07T10:58:38Z</time>
      </trkpt>
      <trkpt lat="42.359317" lon="-1.692470">
        <ele>303.932</ele>
        <time>2012-06-07T10:59:15Z</time>
      </trkpt>
      <trkpt lat="42.351552" lon="-1.693286">
        <ele>299.176</ele>
        <time>2012-06-07T11:01:59Z</time>
      </trkpt>
      <trkpt lat="42.348147" lon="-1.699028">
        <ele>298.272</ele>
        <time>2012-06-07T11:04:11Z</time>
      </trkpt>
      <trkpt lat="42.346935" lon="-1.705853">
        <ele>296.253</ele>
        <time>2012-06-07T11:06:07Z</time>
      </trkpt>
      <trkpt lat="42.347035" lon="-1.706719">
        <ele>295.336</ele>
        <time>2012-06-07T11:06:25Z</time>
      </trkpt>
      <trkpt lat="42.344857" lon="-1.705258">
        <ele>303.017</ele>
        <time>2012-06-07T11:07:46Z</time>
      </trkpt>
      <trkpt lat="42.342280" lon="-1.702450">
        <ele>296.218</ele>
        <time>2012-06-07T11:08:47Z</time>
      </trkpt>
      <trkpt lat="42.340641" lon="-1.705807">
        <ele>295.707</ele>
        <time>2012-06-07T11:09:50Z</time>
      </trkpt>
      <trkpt lat="42.339700" lon="-1.709657">
        <ele>296.256</ele>
        <time>2012-06-07T11:11:03Z</time>
      </trkpt>
      <trkpt lat="42.339260" lon="-1.710309">
        <ele>297.213</ele>
        <time>2012-06-07T11:11:28Z</time>
      </trkpt>
      <trkpt lat="42.339661" lon="-1.710656">
        <ele>300.196</ele>
        <time>2012-06-07T11:12:34Z</time>
      </trkpt>
      <trkpt lat="42.339641" lon="-1.713490">
        <ele>303.916</ele>
        <time>2012-06-07T11:13:28Z</time>
      </trkpt>
      <trkpt lat="42.339212" lon="-1.715280">
        <ele>299.690</ele>
        <time>2012-06-07T11:13:51Z</time>
      </trkpt>
      <trkpt lat="42.337898" lon="-1.717533">
        <ele>294.316</ele>
        <time>2012-06-07T11:14:18Z</time>
      </trkpt>
      <trkpt lat="42.336162" lon="-1.718926">
        <ele>294.367</ele>
        <time>2012-06-07T11:14:49Z</time>
      </trkpt>
      <trkpt lat="42.335064" lon="-1.719300">
        <ele>292.985</ele>
        <time>2012-06-07T11:15:07Z</time>
      </trkpt>
      <trkpt lat="42.334476" lon="-1.720197">
        <ele>292.989</ele>
        <time>2012-06-07T11:15:29Z</time>
      </trkpt>
      <trkpt lat="42.332370" lon="-1.730008">
        <ele>292.417</ele>
        <time>2012-06-07T11:17:51Z</time>
      </trkpt>
      <trkpt lat="42.329820" lon="-1.735594">
        <ele>290.907</ele>
        <time>2012-06-07T11:20:37Z</time>
      </trkpt>
      <trkpt lat="42.322537" lon="-1.730589">
        <ele>286.691</ele>
        <time>2012-06-07T11:24:14Z</time>
      </trkpt>
      <trkpt lat="42.321561" lon="-1.729135">
        <ele>287.188</ele>
        <time>2012-06-07T11:24:39Z</time>
      </trkpt>
      <trkpt lat="42.320006" lon="-1.727812">
        <ele>285.711</ele>
        <time>2012-06-07T11:32:43Z</time>
      </trkpt>
      <trkpt lat="42.313431" lon="-1.732536">
        <ele>287.151</ele>
        <time>2012-06-07T11:40:03Z</time>
      </trkpt>
      <trkpt lat="42.303571" lon="-1.736650">
        <ele>293.385</ele>
        <time>2012-06-07T11:47:30Z</time>
      </trkpt>
      <trkpt lat="42.303567" lon="-1.737477">
        <ele>294.861</ele>
        <time>2012-06-07T11:47:50Z</time>
      </trkpt>
      <trkpt lat="42.301641" lon="-1.737337">
        <ele>294.362</ele>
        <time>2012-06-07T11:49:58Z</time>
      </trkpt>
      <trkpt lat="42.281470" lon="-1.745437">
        <ele>297.742</ele>
        <time>2012-06-07T13:26:52Z</time>
      </trkpt>
      <trkpt lat="42.281293" lon="-1.745709">
        <ele>298.622</ele>
        <time>2012-06-07T13:27:00Z</time>
      </trkpt>
      <trkpt lat="42.278570" lon="-1.746496">
        <ele>301.514</ele>
        <time>2012-06-07T13:28:08Z</time>
      </trkpt>
      <trkpt lat="42.277698" lon="-1.747295">
        <ele>304.907</ele>
        <time>2012-06-07T13:28:41Z</time>
      </trkpt>
      <trkpt lat="42.276417" lon="-1.747380">
        <ele>303.427</ele>
        <time>2012-06-07T13:29:16Z</time>
      </trkpt>
      <trkpt lat="42.275442" lon="-1.747073">
        <ele>297.724</ele>
        <time>2012-06-07T13:29:31Z</time>
      </trkpt>
      <trkpt lat="42.272426" lon="-1.748106">
        <ele>292.487</ele>
        <time>2012-06-07T13:30:39Z</time>
      </trkpt>
      <trkpt lat="42.271225" lon="-1.748179">
        <ele>291.457</ele>
        <time>2012-06-07T13:31:02Z</time>
      </trkpt>
      <trkpt lat="42.269671" lon="-1.747459">
        <ele>292.411</ele>
        <time>2012-06-07T13:31:35Z</time>
      </trkpt>
      <trkpt lat="42.268505" lon="-1.745665">
        <ele>290.587</ele>
        <time>2012-06-07T13:32:09Z</time>
      </trkpt>
      <trkpt lat="42.263222" lon="-1.743547">
        <ele>287.658</ele>
        <time>2012-06-07T13:34:01Z</time>
      </trkpt>
      <trkpt lat="42.263009" lon="-1.743691">
        <ele>287.629</ele>
        <time>2012-06-07T13:34:07Z</time>
      </trkpt>
      <trkpt lat="42.262748" lon="-1.744881">
        <ele>287.100</ele>
        <time>2012-06-07T13:34:38Z</time>
      </trkpt>
      <trkpt lat="42.262634" lon="-1.744536">
        <ele>287.620</ele>
        <time>2012-06-07T13:35:10Z</time>
      </trkpt>
      <trkpt lat="42.250432" lon="-1.739534">
        <ele>282.807</ele>
        <time>2012-06-07T13:39:25Z</time>
      </trkpt>
      <trkpt lat="42.250296" lon="-1.739205">
        <ele>283.385</ele>
        <time>2012-06-07T13:39:34Z</time>
      </trkpt>
      <trkpt lat="42.250759" lon="-1.737160">
        <ele>282.812</ele>
        <time>2012-06-07T13:40:12Z</time>
      </trkpt>
      <trkpt lat="42.241308" lon="-1.733252">
        <ele>282.315</ele>
        <time>2012-06-07T13:43:38Z</time>
      </trkpt>
      <trkpt lat="42.241082" lon="-1.733353">
        <ele>283.325</ele>
        <time>2012-06-07T13:44:14Z</time>
      </trkpt>
      <trkpt lat="42.240056" lon="-1.742033">
        <ele>277.569</ele>
        <time>2012-06-07T14:31:59Z</time>
      </trkpt>
      <trkpt lat="42.235158" lon="-1.752805">
        <ele>276.575</ele>
        <time>2012-06-07T14:34:55Z</time>
      </trkpt>
      <trkpt lat="42.234865" lon="-1.752817">
        <ele>275.616</ele>
        <time>2012-06-07T14:35:02Z</time>
      </trkpt>
      <trkpt lat="42.233811" lon="-1.751901">
        <ele>275.618</ele>
        <time>2012-06-07T14:35:26Z</time>
      </trkpt>
      <trkpt lat="42.232930" lon="-1.751678">
        <ele>276.598</ele>
        <time>2012-06-07T14:35:43Z</time>
      </trkpt>
      <trkpt lat="42.232065" lon="-1.750655">
        <ele>275.617</ele>
        <time>2012-06-07T14:36:28Z</time>
      </trkpt>
      <trkpt lat="42.229859" lon="-1.749676">
        <ele>277.007</ele>
        <time>2012-06-07T14:37:32Z</time>
      </trkpt>
      <trkpt lat="42.227800" lon="-1.750023">
        <ele>277.054</ele>
        <time>2012-06-07T14:38:15Z</time>
      </trkpt>
      <trkpt lat="42.226154" lon="-1.750646">
        <ele>276.041</ele>
        <time>2012-06-07T14:38:54Z</time>
      </trkpt>
      <trkpt lat="42.223323" lon="-1.752314">
        <ele>275.684</ele>
        <time>2012-06-07T14:41:32Z</time>
      </trkpt>
      <trkpt lat="42.223046" lon="-1.752126">
        <ele>275.684</ele>
        <time>2012-06-07T14:43:24Z</time>
      </trkpt>
      <trkpt lat="42.220414" lon="-1.753126">
        <ele>275.688</ele>
        <time>2012-06-07T14:44:29Z</time>
      </trkpt>
      <trkpt lat="42.218345" lon="-1.752505">
        <ele>275.644</ele>
        <time>2012-06-07T14:45:14Z</time>
      </trkpt>
      <trkpt lat="42.217516" lon="-1.750533">
        <ele>274.645</ele>
        <time>2012-06-07T14:47:05Z</time>
      </trkpt>
      <trkpt lat="42.215685" lon="-1.749684">
        <ele>275.144</ele>
        <time>2012-06-07T14:47:49Z</time>
      </trkpt>
      <trkpt lat="42.215005" lon="-1.748568">
        <ele>275.605</ele>
        <time>2012-06-07T14:48:15Z</time>
      </trkpt>
      <trkpt lat="42.214515" lon="-1.748283">
        <ele>275.115</ele>
        <time>2012-06-07T14:48:26Z</time>
      </trkpt>
      <trkpt lat="42.214051" lon="-1.746969">
        <ele>274.107</ele>
        <time>2012-06-07T14:48:51Z</time>
      </trkpt>
      <trkpt lat="42.213417" lon="-1.747102">
        <ele>274.687</ele>
        <time>2012-06-07T14:49:15Z</time>
      </trkpt>
      <trkpt lat="42.212376" lon="-1.745799">
        <ele>275.114</ele>
        <time>2012-06-07T14:49:45Z</time>
      </trkpt>
      <trkpt lat="42.210875" lon="-1.743247">
        <ele>274.657</ele>
        <time>2012-06-07T14:50:36Z</time>
      </trkpt>
      <trkpt lat="42.210078" lon="-1.742505">
        <ele>273.627</ele>
        <time>2012-06-07T14:50:56Z</time>
      </trkpt>
      <trkpt lat="42.208224" lon="-1.741698">
        <ele>274.111</ele>
        <time>2012-06-07T14:51:38Z</time>
      </trkpt>
      <trkpt lat="42.207659" lon="-1.740880">
        <ele>273.687</ele>
        <time>2012-06-07T14:51:54Z</time>
      </trkpt>
      <trkpt lat="42.207384" lon="-1.739906">
        <ele>272.798</ele>
        <time>2012-06-07T14:52:10Z</time>
      </trkpt>
      <trkpt lat="42.205715" lon="-1.737493">
        <ele>273.261</ele>
        <time>2012-06-07T14:53:01Z</time>
      </trkpt>
      <trkpt lat="42.204919" lon="-1.736826">
        <ele>273.221</ele>
        <time>2012-06-07T14:53:23Z</time>
      </trkpt>
      <trkpt lat="42.202634" lon="-1.735721">
        <ele>273.213</ele>
        <time>2012-06-07T14:54:47Z</time>
      </trkpt>
      <trkpt lat="42.202049" lon="-1.734089">
        <ele>273.207</ele>
        <time>2012-06-07T14:55:16Z</time>
      </trkpt>
      <trkpt lat="42.202161" lon="-1.730751">
        <ele>273.239</ele>
        <time>2012-06-07T14:56:12Z</time>
      </trkpt>
      <trkpt lat="42.201782" lon="-1.728669">
        <ele>273.256</ele>
        <time>2012-06-07T14:56:46Z</time>
      </trkpt>
      <trkpt lat="42.201825" lon="-1.727740">
        <ele>273.229</ele>
        <time>2012-06-07T14:57:01Z</time>
      </trkpt>
      <trkpt lat="42.200853" lon="-1.726083">
        <ele>273.269</ele>
        <time>2012-06-07T14:57:34Z</time>
      </trkpt>
      <trkpt lat="42.200864" lon="-1.723938">
        <ele>273.273</ele>
        <time>2012-06-07T14:58:07Z</time>
      </trkpt>
      <trkpt lat="42.200060" lon="-1.721818">
        <ele>273.219</ele>
        <time>2012-06-07T14:58:43Z</time>
      </trkpt>
      <trkpt lat="42.199363" lon="-1.721164">
        <ele>273.270</ele>
        <time>2012-06-07T14:59:00Z</time>
      </trkpt>
      <trkpt lat="42.196483" lon="-1.720174">
        <ele>272.742</ele>
        <time>2012-06-07T15:00:03Z</time>
      </trkpt>
      <trkpt lat="42.195734" lon="-1.719391">
        <ele>272.722</ele>
        <time>2012-06-07T15:00:23Z</time>
      </trkpt>
      <trkpt lat="42.195156" lon="-1.718324">
        <ele>272.214</ele>
        <time>2012-06-07T15:00:44Z</time>
      </trkpt>
      <trkpt lat="42.194209" lon="-1.717442">
        <ele>273.207</ele>
        <time>2012-06-07T15:01:11Z</time>
      </trkpt>
      <trkpt lat="42.191885" lon="-1.717562">
        <ele>271.797</ele>
        <time>2012-06-07T15:02:15Z</time>
      </trkpt>
      <trkpt lat="42.191354" lon="-1.716655">
        <ele>272.754</ele>
        <time>2012-06-07T15:04:40Z</time>
      </trkpt>
      <trkpt lat="42.189458" lon="-1.715635">
        <ele>272.787</ele>
        <time>2012-06-07T15:05:24Z</time>
      </trkpt>
      <trkpt lat="42.190255" lon="-1.710670">
        <ele>272.287</ele>
        <time>2012-06-07T15:06:44Z</time>
      </trkpt>
      <trkpt lat="42.190024" lon="-1.709524">
        <ele>272.721</ele>
        <time>2012-06-07T15:07:03Z</time>
      </trkpt>
      <trkpt lat="42.188275" lon="-1.706075">
        <ele>272.217</ele>
        <time>2012-06-07T15:08:09Z</time>
      </trkpt>
      <trkpt lat="42.187065" lon="-1.704370">
        <ele>271.288</ele>
        <time>2012-06-07T15:08:45Z</time>
      </trkpt>
      <trkpt lat="42.186987" lon="-1.703365">
        <ele>270.847</ele>
        <time>2012-06-07T15:09:01Z</time>
      </trkpt>
      <trkpt lat="42.187289" lon="-1.702880">
        <ele>270.329</ele>
        <time>2012-06-07T15:10:50Z</time>
      </trkpt>
      <trkpt lat="42.186416" lon="-1.700687">
        <ele>269.321</ele>
        <time>2012-06-07T15:28:54Z</time>
      </trkpt>
      <trkpt lat="42.184640" lon="-1.699113">
        <ele>269.307</ele>
        <time>2012-06-07T15:29:40Z</time>
      </trkpt>
      <trkpt lat="42.182026" lon="-1.694950">
        <ele>268.427</ele>
        <time>2012-06-07T15:31:03Z</time>
      </trkpt>
      <trkpt lat="42.181663" lon="-1.692293">
        <ele>268.424</ele>
        <time>2012-06-07T15:31:51Z</time>
      </trkpt>
      <trkpt lat="42.181066" lon="-1.678494">
        <ele>267.957</ele>
        <time>2012-06-07T15:35:45Z</time>
      </trkpt>
      <trkpt lat="42.180483" lon="-1.676200">
        <ele>267.957</ele>
        <time>2012-06-07T15:36:26Z</time>
      </trkpt>
      <trkpt lat="42.179873" lon="-1.674990">
        <ele>267.931</ele>
        <time>2012-06-07T15:36:50Z</time>
      </trkpt>
      <trkpt lat="42.179112" lon="-1.674243">
        <ele>267.987</ele>
        <time>2012-06-07T15:37:11Z</time>
      </trkpt>
      <trkpt lat="42.175169" lon="-1.672281">
        <ele>266.988</ele>
        <time>2012-06-07T15:38:52Z</time>
      </trkpt>
      <trkpt lat="42.174331" lon="-1.670969">
        <ele>264.015</ele>
        <time>2012-06-07T15:43:41Z</time>
      </trkpt>
      <trkpt lat="42.174471" lon="-1.670641">
        <ele>266.965</ele>
        <time>2012-06-07T15:44:01Z</time>
      </trkpt>
      <trkpt lat="42.174336" lon="-1.668760">
        <ele>266.911</ele>
        <time>2012-06-07T15:44:39Z</time>
      </trkpt>
      <trkpt lat="42.174693" lon="-1.662299">
        <ele>266.407</ele>
        <time>2012-06-07T15:46:30Z</time>
      </trkpt>
      <trkpt lat="42.175146" lon="-1.660603">
        <ele>265.964</ele>
        <time>2012-06-07T15:47:00Z</time>
      </trkpt>
      <trkpt lat="42.175623" lon="-1.659676">
        <ele>266.471</ele>
        <time>2012-06-07T15:47:27Z</time>
      </trkpt>
      <trkpt lat="42.175756" lon="-1.659804">
        <ele>265.944</ele>
        <time>2012-06-07T15:47:49Z</time>
      </trkpt>
      <trkpt lat="42.178295" lon="-1.657304">
        <ele>265.934</ele>
        <time>2012-06-07T15:49:10Z</time>
      </trkpt>
      <trkpt lat="42.180511" lon="-1.657085">
        <ele>265.018</ele>
        <time>2012-06-07T15:50:08Z</time>
      </trkpt>
      <trkpt lat="42.181740" lon="-1.655734">
        <ele>264.574</ele>
        <time>2012-06-07T15:50:46Z</time>
      </trkpt>
      <trkpt lat="42.182705" lon="-1.653095">
        <ele>264.575</ele>
        <time>2012-06-07T15:51:39Z</time>
      </trkpt>
      <trkpt lat="42.182867" lon="-1.651387">
        <ele>264.532</ele>
        <time>2012-06-07T15:52:10Z</time>
      </trkpt>
      <trkpt lat="42.182393" lon="-1.648556">
        <ele>264.592</ele>
        <time>2012-06-07T15:53:03Z</time>
      </trkpt>
      <trkpt lat="42.181006" lon="-1.645895">
        <ele>264.511</ele>
        <time>2012-06-07T15:55:01Z</time>
      </trkpt>
      <trkpt lat="42.181028" lon="-1.644816">
        <ele>264.507</ele>
        <time>2012-06-07T15:55:19Z</time>
      </trkpt>
      <trkpt lat="42.180709" lon="-1.643497">
        <ele>265.066</ele>
        <time>2012-06-07T15:55:45Z</time>
      </trkpt>
      <trkpt lat="42.180284" lon="-1.642950">
        <ele>264.553</ele>
        <time>2012-06-07T15:56:00Z</time>
      </trkpt>
      <trkpt lat="42.178631" lon="-1.642684">
        <ele>265.036</ele>
        <time>2012-06-07T15:56:39Z</time>
      </trkpt>
      <trkpt lat="42.174248" lon="-1.641164">
        <ele>265.066</ele>
        <time>2012-06-07T15:58:20Z</time>
      </trkpt>
      <trkpt lat="42.170673" lon="-1.640689">
        <ele>265.020</ele>
        <time>2012-06-07T16:01:24Z</time>
      </trkpt>
      <trkpt lat="42.167740" lon="-1.639406">
        <ele>264.566</ele>
        <time>2012-06-07T16:02:34Z</time>
      </trkpt>
      <trkpt lat="42.166751" lon="-1.637644">
        <ele>265.037</ele>
        <time>2012-06-07T16:03:08Z</time>
      </trkpt>
      <trkpt lat="42.163284" lon="-1.637556">
        <ele>264.074</ele>
        <time>2012-06-07T16:04:22Z</time>
      </trkpt>
      <trkpt lat="42.159850" lon="-1.638957">
        <ele>263.156</ele>
        <time>2012-06-07T16:05:48Z</time>
      </trkpt>
      <trkpt lat="42.158395" lon="-1.637361">
        <ele>262.621</ele>
        <time>2012-06-07T16:06:34Z</time>
      </trkpt>
      <trkpt lat="42.157078" lon="-1.634341">
        <ele>263.507</ele>
        <time>2012-06-07T16:07:31Z</time>
      </trkpt>
      <trkpt lat="42.155998" lon="-1.632517">
        <ele>263.110</ele>
        <time>2012-06-07T16:08:08Z</time>
      </trkpt>
      <trkpt lat="42.154995" lon="-1.629997">
        <ele>263.167</ele>
        <time>2012-06-07T16:08:56Z</time>
      </trkpt>
      <trkpt lat="42.142146" lon="-1.608458">
        <ele>263.580</ele>
        <time>2012-06-07T16:26:19Z</time>
      </trkpt>
      <trkpt lat="42.142230" lon="-1.608613">
        <ele>261.670</ele>
        <time>2012-06-07T16:26:29Z</time>
      </trkpt>
      <trkpt lat="42.141521" lon="-1.607218">
        <ele>259.764</ele>
        <time>2012-06-07T16:26:58Z</time>
      </trkpt>
      <trkpt lat="42.136918" lon="-1.602439">
        <ele>257.820</ele>
        <time>2012-06-07T16:28:36Z</time>
      </trkpt>
      <trkpt lat="42.133207" lon="-1.596882">
        <ele>256.821</ele>
        <time>2012-06-07T16:30:09Z</time>
      </trkpt>
      <trkpt lat="42.131743" lon="-1.594149">
        <ele>257.879</ele>
        <time>2012-06-07T16:30:52Z</time>
      </trkpt>
      <trkpt lat="42.128683" lon="-1.589919">
        <ele>254.405</ele>
        <time>2012-06-07T16:32:15Z</time>
      </trkpt>
      <trkpt lat="42.128855" lon="-1.589974">
        <ele>256.325</ele>
        <time>2012-06-07T16:32:38Z</time>
      </trkpt>
      <trkpt lat="42.129168" lon="-1.589408">
        <ele>255.407</ele>
        <time>2012-06-07T16:32:59Z</time>
      </trkpt>
      <trkpt lat="42.128900" lon="-1.589101">
        <ele>254.950</ele>
        <time>2012-06-07T16:33:09Z</time>
      </trkpt>
      <trkpt lat="42.128501" lon="-1.589503">
        <ele>256.387</ele>
        <time>2012-06-07T16:33:20Z</time>
      </trkpt>
      <trkpt lat="42.127260" lon="-1.588751">
        <ele>257.380</ele>
        <time>2012-06-07T16:33:45Z</time>
      </trkpt>
      <trkpt lat="42.125568" lon="-1.588493">
        <ele>257.360</ele>
        <time>2012-06-07T16:34:14Z</time>
      </trkpt>
      <trkpt lat="42.120570" lon="-1.589721">
        <ele>256.844</ele>
        <time>2012-06-07T16:35:43Z</time>
      </trkpt>
      <trkpt lat="42.115042" lon="-1.589907">
        <ele>256.820</ele>
        <time>2012-06-07T16:37:19Z</time>
      </trkpt>
      <trkpt lat="42.114085" lon="-1.589637">
        <ele>256.361</ele>
        <time>2012-06-07T16:37:36Z</time>
      </trkpt>
      <trkpt lat="42.113937" lon="-1.589283">
        <ele>256.332</ele>
        <time>2012-06-07T16:37:42Z</time>
      </trkpt>
      <trkpt lat="42.114734" lon="-1.579090">
        <ele>256.392</ele>
        <time>2012-06-07T16:40:18Z</time>
      </trkpt>
      <trkpt lat="42.114141" lon="-1.578906">
        <ele>257.811</ele>
        <time>2012-06-07T16:48:54Z</time>
      </trkpt>
      <trkpt lat="42.113553" lon="-1.587584">
        <ele>258.307</ele>
        <time>2012-06-07T16:51:11Z</time>
      </trkpt>
      <trkpt lat="42.111569" lon="-1.590592">
        <ele>257.866</ele>
        <time>2012-06-07T16:52:17Z</time>
      </trkpt>
      <trkpt lat="42.111162" lon="-1.590551">
        <ele>257.873</ele>
        <time>2012-06-07T16:52:28Z</time>
      </trkpt>
      <trkpt lat="42.110780" lon="-1.590933">
        <ele>257.826</ele>
        <time>2012-06-07T16:52:38Z</time>
      </trkpt>
      <trkpt lat="42.109932" lon="-1.591014">
        <ele>257.866</ele>
        <time>2012-06-07T16:52:54Z</time>
      </trkpt>
      <trkpt lat="42.107408" lon="-1.592304">
        <ele>258.330</ele>
        <time>2012-06-07T16:54:15Z</time>
      </trkpt>
      <trkpt lat="42.101744" lon="-1.590065">
        <ele>257.876</ele>
        <time>2012-06-07T16:56:19Z</time>
      </trkpt>
      <trkpt lat="42.097052" lon="-1.589848">
        <ele>256.847</ele>
        <time>2012-06-07T16:57:52Z</time>
      </trkpt>
      <trkpt lat="42.094775" lon="-1.590774">
        <ele>256.384</ele>
        <time>2012-06-07T16:58:43Z</time>
      </trkpt>
      <trkpt lat="42.094210" lon="-1.590574">
        <ele>256.807</ele>
        <time>2012-06-07T16:58:56Z</time>
      </trkpt>
      <trkpt lat="42.094097" lon="-1.590210">
        <ele>256.317</ele>
        <time>2012-06-07T17:00:57Z</time>
      </trkpt>
      <trkpt lat="42.093295" lon="-1.592915">
        <ele>254.907</ele>
        <time>2012-06-07T17:01:53Z</time>
      </trkpt>
      <trkpt lat="42.092432" lon="-1.597814">
        <ele>255.471</ele>
        <time>2012-06-07T17:03:06Z</time>
      </trkpt>
      <trkpt lat="42.088478" lon="-1.600877">
        <ele>255.988</ele>
        <time>2012-06-07T17:04:38Z</time>
      </trkpt>
      <trkpt lat="42.085905" lon="-1.600371">
        <ele>255.981</ele>
        <time>2012-06-07T17:05:30Z</time>
      </trkpt>
      <trkpt lat="42.085085" lon="-1.599421">
        <ele>255.991</ele>
        <time>2012-06-07T17:05:50Z</time>
      </trkpt>
      <trkpt lat="42.083149" lon="-1.598392">
        <ele>255.975</ele>
        <time>2012-06-07T17:06:30Z</time>
      </trkpt>
      <trkpt lat="42.082384" lon="-1.597288">
        <ele>256.361</ele>
        <time>2012-06-07T17:06:52Z</time>
      </trkpt>
      <trkpt lat="42.081368" lon="-1.596672">
        <ele>255.992</ele>
        <time>2012-06-07T17:07:12Z</time>
      </trkpt>
      <trkpt lat="42.080353" lon="-1.596471">
        <ele>256.345</ele>
        <time>2012-06-07T17:07:32Z</time>
      </trkpt>
      <trkpt lat="42.078591" lon="-1.598007">
        <ele>255.947</ele>
        <time>2012-06-07T17:08:14Z</time>
      </trkpt>
      <trkpt lat="42.071911" lon="-1.599026">
        <ele>253.911</ele>
        <time>2012-06-07T17:10:19Z</time>
      </trkpt>
      <trkpt lat="42.068847" lon="-1.600366">
        <ele>254.907</ele>
        <time>2012-06-07T17:11:27Z</time>
      </trkpt>
      <trkpt lat="42.067358" lon="-1.600453">
        <ele>253.997</ele>
        <time>2012-06-07T17:11:59Z</time>
      </trkpt>
      <trkpt lat="42.066948" lon="-1.600241">
        <ele>253.964</ele>
        <time>2012-06-07T17:12:12Z</time>
      </trkpt>
      <trkpt lat="42.065321" lon="-1.603369">
        <ele>255.467</ele>
        <time>2012-06-07T17:17:30Z</time>
      </trkpt>
      <trkpt lat="42.061253" lon="-1.599306">
        <ele>255.967</ele>
        <time>2012-06-07T17:20:18Z</time>
      </trkpt>
      <trkpt lat="42.061313" lon="-1.599808">
        <ele>255.941</ele>
        <time>2012-06-07T17:20:50Z</time>
      </trkpt>
      <trkpt lat="42.061114" lon="-1.599883">
        <ele>256.347</ele>
        <time>2012-06-07T17:21:05Z</time>
      </trkpt>
      <trkpt lat="42.058090" lon="-1.596811">
        <ele>262.678</ele>
        <time>2012-06-07T17:23:11Z</time>
      </trkpt>
      <trkpt lat="42.057532" lon="-1.596761">
        <ele>264.026</ele>
        <time>2012-06-07T17:23:26Z</time>
      </trkpt>
      <trkpt lat="42.056678" lon="-1.597318">
        <ele>265.547</ele>
        <time>2012-06-07T17:23:51Z</time>
      </trkpt>
      <trkpt lat="42.056379" lon="-1.596247">
        <ele>266.411</ele>
        <time>2012-06-07T17:24:59Z</time>
      </trkpt>
      <trkpt lat="42.055595" lon="-1.595628">
        <ele>266.407</ele>
        <time>2012-06-07T17:27:42Z</time>
      </trkpt>
      <trkpt lat="42.054903" lon="-1.597132">
        <ele>266.915</ele>
        <time>2012-06-07T17:28:28Z</time>
      </trkpt>
      <trkpt lat="42.054721" lon="-1.597229">
        <ele>268.017</ele>
        <time>2012-06-08T05:43:51Z</time>
      </trkpt>
      <trkpt lat="42.054140" lon="-1.596643">
        <ele>268.187</ele>
        <time>2012-06-08T05:46:54Z</time>
      </trkpt>
      <trkpt lat="42.055016" lon="-1.594223">
        <ele>268.015</ele>
        <time>2012-06-08T05:47:52Z</time>
      </trkpt>
      <trkpt lat="42.054302" lon="-1.592669">
        <ele>268.107</ele>
        <time>2012-06-08T05:49:53Z</time>
      </trkpt>
      <trkpt lat="42.052988" lon="-1.591650">
        <ele>266.014</ele>
        <time>2012-06-08T05:55:02Z</time>
      </trkpt>
      <trkpt lat="42.051547" lon="-1.591520">
        <ele>266.711</ele>
        <time>2012-06-08T05:55:39Z</time>
      </trkpt>
      <trkpt lat="42.050604" lon="-1.591878">
        <ele>268.084</ele>
        <time>2012-06-08T05:56:01Z</time>
      </trkpt>
      <trkpt lat="42.049707" lon="-1.592595">
        <ele>269.026</ele>
        <time>2012-06-08T05:56:25Z</time>
      </trkpt>
      <trkpt lat="42.049037" lon="-1.593563">
        <ele>270.587</ele>
        <time>2012-06-08T05:56:49Z</time>
      </trkpt>
      <trkpt lat="42.019143" lon="-1.650919">
        <ele>320.320</ele>
        <time>2012-06-08T06:19:03Z</time>
      </trkpt>
      <trkpt lat="42.000833" lon="-1.669598">
        <ele>343.063</ele>
        <time>2012-06-08T06:30:46Z</time>
      </trkpt>
      <trkpt lat="41.998587" lon="-1.671730">
        <ele>344.954</ele>
        <time>2012-06-08T06:31:57Z</time>
      </trkpt>
      <trkpt lat="41.993867" lon="-1.673746">
        <ele>353.056</ele>
        <time>2012-06-08T06:38:42Z</time>
      </trkpt>
      <trkpt lat="41.993964" lon="-1.673767">
        <ele>352.811</ele>
        <time>2012-06-08T06:42:30Z</time>
      </trkpt>
      <trkpt lat="41.991670" lon="-1.674640">
        <ele>354.007</ele>
        <time>2012-06-08T06:46:28Z</time>
      </trkpt>
      <trkpt lat="41.990871" lon="-1.674718">
        <ele>355.028</ele>
        <time>2012-06-08T06:46:46Z</time>
      </trkpt>
      <trkpt lat="41.985977" lon="-1.673026">
        <ele>360.645</ele>
        <time>2012-06-08T06:48:45Z</time>
      </trkpt>
      <trkpt lat="41.984518" lon="-1.672935">
        <ele>363.898</ele>
        <time>2012-06-08T06:49:20Z</time>
      </trkpt>
      <trkpt lat="41.974733" lon="-1.674913">
        <ele>374.380</ele>
        <time>2012-06-08T06:53:09Z</time>
      </trkpt>
      <trkpt lat="41.973843" lon="-1.674710">
        <ele>375.061</ele>
        <time>2012-06-08T06:53:30Z</time>
      </trkpt>
      <trkpt lat="41.970733" lon="-1.673289">
        <ele>378.194</ele>
        <time>2012-06-08T06:54:42Z</time>
      </trkpt>
      <trkpt lat="41.969429" lon="-1.673074">
        <ele>380.927</ele>
        <time>2012-06-08T06:55:12Z</time>
      </trkpt>
      <trkpt lat="41.968799" lon="-1.673148">
        <ele>380.767</ele>
        <time>2012-06-08T06:55:26Z</time>
      </trkpt>
      <trkpt lat="41.949778" lon="-1.678832">
        <ele>411.881</ele>
        <time>2012-06-08T07:02:41Z</time>
      </trkpt>
      <trkpt lat="41.948137" lon="-1.679712">
        <ele>412.419</ele>
        <time>2012-06-08T07:07:06Z</time>
      </trkpt>
      <trkpt lat="41.946724" lon="-1.680814">
        <ele>412.107</ele>
        <time>2012-06-08T07:08:33Z</time>
      </trkpt>
      <trkpt lat="41.940334" lon="-1.687155">
        <ele>423.089</ele>
        <time>2012-06-08T07:11:33Z</time>
      </trkpt>
      <trkpt lat="41.938742" lon="-1.688389">
        <ele>430.516</ele>
        <time>2012-06-08T07:12:15Z</time>
      </trkpt>
      <trkpt lat="41.922916" lon="-1.695344">
        <ele>450.879</ele>
        <time>2012-06-08T07:18:16Z</time>
      </trkpt>
      <trkpt lat="41.921793" lon="-1.696278">
        <ele>452.311</ele>
        <time>2012-06-08T07:18:44Z</time>
      </trkpt>
      <trkpt lat="41.920601" lon="-1.697635">
        <ele>454.632</ele>
        <time>2012-06-08T07:19:19Z</time>
      </trkpt>
      <trkpt lat="41.919815" lon="-1.698836">
        <ele>456.725</ele>
        <time>2012-06-08T07:19:46Z</time>
      </trkpt>
      <trkpt lat="41.914126" lon="-1.710528">
        <ele>469.128</ele>
        <time>2012-06-08T07:23:34Z</time>
      </trkpt>
      <trkpt lat="41.913576" lon="-1.711357">
        <ele>467.548</ele>
        <time>2012-06-08T07:23:51Z</time>
      </trkpt>
      <trkpt lat="41.909139" lon="-1.715715">
        <ele>474.161</ele>
        <time>2012-06-08T07:25:51Z</time>
      </trkpt>
      <trkpt lat="41.905699" lon="-1.720375">
        <ele>485.117</ele>
        <time>2012-06-08T07:27:51Z</time>
      </trkpt>
      <trkpt lat="41.905792" lon="-1.720650">
        <ele>485.107</ele>
        <time>2012-06-08T07:28:34Z</time>
      </trkpt>
      <trkpt lat="41.905476" lon="-1.721048">
        <ele>485.017</ele>
        <time>2012-06-08T07:29:32Z</time>
      </trkpt>
      <trkpt lat="41.904361" lon="-1.719786">
        <ele>495.444</ele>
        <time>2012-06-08T07:30:54Z</time>
      </trkpt>
      <trkpt lat="41.903474" lon="-1.719748">
        <ele>495.517</ele>
        <time>2012-06-08T07:31:23Z</time>
      </trkpt>
      <trkpt lat="41.902670" lon="-1.719972">
        <ele>496.059</ele>
        <time>2012-06-08T07:32:05Z</time>
      </trkpt>
      <trkpt lat="41.902714" lon="-1.720279">
        <ele>495.020</ele>
        <time>2012-06-08T07:32:20Z</time>
      </trkpt>
      <trkpt lat="41.901886" lon="-1.721105">
        <ele>497.253</ele>
        <time>2012-06-08T07:32:49Z</time>
      </trkpt>
      <trkpt lat="41.900912" lon="-1.721458">
        <ele>499.756</ele>
        <time>2012-06-08T07:33:19Z</time>
      </trkpt>
      <trkpt lat="41.900924" lon="-1.724372">
        <ele>496.042</ele>
        <time>2012-06-08T07:34:16Z</time>
      </trkpt>
      <trkpt lat="41.900243" lon="-1.724550">
        <ele>500.022</ele>
        <time>2012-06-08T07:34:42Z</time>
      </trkpt>
      <trkpt lat="41.896355" lon="-1.723649">
        <ele>510.914</ele>
        <time>2012-06-08T07:36:27Z</time>
      </trkpt>
      <trkpt lat="41.896105" lon="-1.723455">
        <ele>510.607</ele>
        <time>2012-06-08T07:37:58Z</time>
      </trkpt>
      <trkpt lat="41.895963" lon="-1.723726">
        <ele>510.027</ele>
        <time>2012-06-08T07:38:27Z</time>
      </trkpt>
      <trkpt lat="41.892283" lon="-1.724104">
        <ele>521.314</ele>
        <time>2012-06-08T07:39:58Z</time>
      </trkpt>
      <trkpt lat="41.891678" lon="-1.724419">
        <ele>523.937</ele>
        <time>2012-06-08T07:40:38Z</time>
      </trkpt>
      <trkpt lat="41.890182" lon="-1.724473">
        <ele>527.319</ele>
        <time>2012-06-08T07:41:15Z</time>
      </trkpt>
      <trkpt lat="41.889413" lon="-1.724223">
        <ele>530.950</ele>
        <time>2012-06-08T07:41:46Z</time>
      </trkpt>
      <trkpt lat="41.888026" lon="-1.723437">
        <ele>548.453</ele>
        <time>2012-06-08T07:46:18Z</time>
      </trkpt>
      <trkpt lat="41.886778" lon="-1.723627">
        <ele>552.956</ele>
        <time>2012-06-08T07:47:15Z</time>
      </trkpt>
      <trkpt lat="41.886228" lon="-1.723350">
        <ele>551.625</ele>
        <time>2012-06-08T07:47:29Z</time>
      </trkpt>
      <trkpt lat="41.884660" lon="-1.723565">
        <ele>559.126</ele>
        <time>2012-06-08T07:48:21Z</time>
      </trkpt>
      <trkpt lat="41.882212" lon="-1.722864">
        <ele>562.008</ele>
        <time>2012-06-08T07:49:22Z</time>
      </trkpt>
      <trkpt lat="41.882227" lon="-1.722714">
        <ele>562.007</ele>
        <time>2012-06-08T07:50:31Z</time>
      </trkpt>
      <trkpt lat="41.879867" lon="-1.722090">
        <ele>573.715</ele>
        <time>2012-06-08T07:51:41Z</time>
      </trkpt>
      <trkpt lat="41.879395" lon="-1.721732">
        <ele>576.382</ele>
        <time>2012-06-08T07:52:07Z</time>
      </trkpt>
      <trkpt lat="41.878925" lon="-1.721790">
        <ele>576.775</ele>
        <time>2012-06-08T07:53:07Z</time>
      </trkpt>
      <trkpt lat="41.877897" lon="-1.722389">
        <ele>582.987</ele>
        <time>2012-06-08T07:56:19Z</time>
      </trkpt>
      <trkpt lat="41.876546" lon="-1.722614">
        <ele>586.618</ele>
        <time>2012-06-08T07:57:03Z</time>
      </trkpt>
      <trkpt lat="41.875952" lon="-1.722284">
        <ele>588.331</ele>
        <time>2012-06-08T07:57:24Z</time>
      </trkpt>
      <trkpt lat="41.875743" lon="-1.722341">
        <ele>588.094</ele>
        <time>2012-06-08T07:57:31Z</time>
      </trkpt>
      <trkpt lat="41.874604" lon="-1.724148">
        <ele>593.513</ele>
        <time>2012-06-08T07:59:02Z</time>
      </trkpt>
      <trkpt lat="41.872724" lon="-1.725871">
        <ele>607.243</ele>
        <time>2012-06-08T08:00:38Z</time>
      </trkpt>
      <trkpt lat="41.871853" lon="-1.727136">
        <ele>619.807</ele>
        <time>2012-06-08T08:01:56Z</time>
      </trkpt>
      <trkpt lat="41.870979" lon="-1.727473">
        <ele>625.807</ele>
        <time>2012-06-08T08:03:44Z</time>
      </trkpt>
      <trkpt lat="41.869865" lon="-1.725986">
        <ele>625.684</ele>
        <time>2012-06-08T08:05:06Z</time>
      </trkpt>
      <trkpt lat="41.869353" lon="-1.724782">
        <ele>632.171</ele>
        <time>2012-06-08T08:05:45Z</time>
      </trkpt>
      <trkpt lat="41.869276" lon="-1.722973">
        <ele>631.924</ele>
        <time>2012-06-08T08:07:07Z</time>
      </trkpt>
      <trkpt lat="41.868785" lon="-1.721641">
        <ele>634.756</ele>
        <time>2012-06-08T08:07:57Z</time>
      </trkpt>
      <trkpt lat="41.869344" lon="-1.720907">
        <ele>631.057</ele>
        <time>2012-06-08T08:08:17Z</time>
      </trkpt>
      <trkpt lat="41.869790" lon="-1.720762">
        <ele>624.240</ele>
        <time>2012-06-08T08:08:26Z</time>
      </trkpt>
      <trkpt lat="41.869884" lon="-1.720526">
        <ele>622.293</ele>
        <time>2012-06-08T08:08:31Z</time>
      </trkpt>
      <trkpt lat="41.869415" lon="-1.720194">
        <ele>623.899</ele>
        <time>2012-06-08T08:13:07Z</time>
      </trkpt>
      <trkpt lat="41.868519" lon="-1.720119">
        <ele>625.407</ele>
        <time>2012-06-08T08:14:23Z</time>
      </trkpt>
      <trkpt lat="41.868395" lon="-1.719943">
        <ele>623.327</ele>
        <time>2012-06-08T08:14:27Z</time>
      </trkpt>
      <trkpt lat="41.868327" lon="-1.717442">
        <ele>611.607</ele>
        <time>2012-06-08T08:14:56Z</time>
      </trkpt>
      <trkpt lat="41.867662" lon="-1.714776">
        <ele>610.182</ele>
        <time>2012-06-08T08:15:28Z</time>
      </trkpt>
      <trkpt lat="41.865854" lon="-1.713688">
        <ele>616.029</ele>
        <time>2012-06-08T08:16:07Z</time>
      </trkpt>
      <trkpt lat="41.864141" lon="-1.711738">
        <ele>618.462</ele>
        <time>2012-06-08T08:20:00Z</time>
      </trkpt>
      <trkpt lat="41.863136" lon="-1.711357">
        <ele>618.084</ele>
        <time>2012-06-08T08:20:45Z</time>
      </trkpt>
      <trkpt lat="41.862831" lon="-1.711089">
        <ele>618.565</ele>
        <time>2012-06-08T08:31:36Z</time>
      </trkpt>
      <trkpt lat="41.862629" lon="-1.710480">
        <ele>621.178</ele>
        <time>2012-06-08T08:32:37Z</time>
      </trkpt>
      <trkpt lat="41.861814" lon="-1.710419">
        <ele>635.371</ele>
        <time>2012-06-08T08:33:33Z</time>
      </trkpt>
      <trkpt lat="41.861550" lon="-1.710081">
        <ele>639.965</ele>
        <time>2012-06-08T08:34:00Z</time>
      </trkpt>
      <trkpt lat="41.861427" lon="-1.709301">
        <ele>644.168</ele>
        <time>2012-06-08T08:34:39Z</time>
      </trkpt>
      <trkpt lat="41.860907" lon="-1.708872">
        <ele>647.814</ele>
        <time>2012-06-08T08:35:07Z</time>
      </trkpt>
      <trkpt lat="41.860179" lon="-1.708899">
        <ele>655.907</ele>
        <time>2012-06-08T08:35:38Z</time>
      </trkpt>
      <trkpt lat="41.859902" lon="-1.708758">
        <ele>658.979</ele>
        <time>2012-06-08T08:35:51Z</time>
      </trkpt>
      <trkpt lat="41.858205" lon="-1.706775">
        <ele>682.146</ele>
        <time>2012-06-08T08:37:54Z</time>
      </trkpt>
      <trkpt lat="41.858090" lon="-1.706284">
        <ele>685.959</ele>
        <time>2012-06-08T08:38:16Z</time>
      </trkpt>
      <trkpt lat="41.858181" lon="-1.705784">
        <ele>683.051</ele>
        <time>2012-06-08T08:38:37Z</time>
      </trkpt>
      <trkpt lat="41.857120" lon="-1.705160">
        <ele>692.052</ele>
        <time>2012-06-08T08:39:32Z</time>
      </trkpt>
      <trkpt lat="41.855964" lon="-1.704125">
        <ele>697.075</ele>
        <time>2012-06-08T08:40:11Z</time>
      </trkpt>
      <trkpt lat="41.855173" lon="-1.703127">
        <ele>711.498</ele>
        <time>2012-06-08T08:41:07Z</time>
      </trkpt>
      <trkpt lat="41.854505" lon="-1.701518">
        <ele>715.039</ele>
        <time>2012-06-08T08:42:03Z</time>
      </trkpt>
      <trkpt lat="41.853366" lon="-1.700437">
        <ele>712.401</ele>
        <time>2012-06-08T08:42:40Z</time>
      </trkpt>
      <trkpt lat="41.852826" lon="-1.700201">
        <ele>715.621</ele>
        <time>2012-06-08T08:42:53Z</time>
      </trkpt>
      <trkpt lat="41.849599" lon="-1.699883">
        <ele>716.407</ele>
        <time>2012-06-08T08:44:47Z</time>
      </trkpt>
      <trkpt lat="41.848958" lon="-1.700220">
        <ele>708.946</ele>
        <time>2012-06-08T08:45:20Z</time>
      </trkpt>
      <trkpt lat="41.846961" lon="-1.700542">
        <ele>678.483</ele>
        <time>2012-06-08T08:48:07Z</time>
      </trkpt>
      <trkpt lat="41.845892" lon="-1.700201">
        <ele>665.866</ele>
        <time>2012-06-08T08:55:05Z</time>
      </trkpt>
      <trkpt lat="41.843615" lon="-1.699926">
        <ele>653.068</ele>
        <time>2012-06-08T08:55:51Z</time>
      </trkpt>
      <trkpt lat="41.842224" lon="-1.698610">
        <ele>647.039</ele>
        <time>2012-06-08T08:56:34Z</time>
      </trkpt>
      <trkpt lat="41.841315" lon="-1.698120">
        <ele>644.672</ele>
        <time>2012-06-08T08:56:52Z</time>
      </trkpt>
      <trkpt lat="41.840643" lon="-1.697054">
        <ele>639.375</ele>
        <time>2012-06-08T08:57:15Z</time>
      </trkpt>
      <trkpt lat="41.840317" lon="-1.696789">
        <ele>634.748</ele>
        <time>2012-06-08T08:57:25Z</time>
      </trkpt>
      <trkpt lat="41.838647" lon="-1.696158">
        <ele>623.261</ele>
        <time>2012-06-08T08:58:01Z</time>
      </trkpt>
      <trkpt lat="41.838085" lon="-1.695567">
        <ele>624.817</ele>
        <time>2012-06-08T08:58:22Z</time>
      </trkpt>
      <trkpt lat="41.836682" lon="-1.694774">
        <ele>626.107</ele>
        <time>2012-06-08T08:59:05Z</time>
      </trkpt>
      <trkpt lat="41.835013" lon="-1.694370">
        <ele>624.737</ele>
        <time>2012-06-08T08:59:48Z</time>
      </trkpt>
      <trkpt lat="41.833651" lon="-1.692461">
        <ele>621.934</ele>
        <time>2012-06-08T09:00:33Z</time>
      </trkpt>
      <trkpt lat="41.832528" lon="-1.692493">
        <ele>622.117</ele>
        <time>2012-06-08T09:01:02Z</time>
      </trkpt>
      <trkpt lat="41.831303" lon="-1.692125">
        <ele>624.379</ele>
        <time>2012-06-08T09:01:32Z</time>
      </trkpt>
      <trkpt lat="41.830861" lon="-1.691761">
        <ele>625.070</ele>
        <time>2012-06-08T09:01:46Z</time>
      </trkpt>
      <trkpt lat="41.830459" lon="-1.691157">
        <ele>625.333</ele>
        <time>2012-06-08T09:02:03Z</time>
      </trkpt>
      <trkpt lat="41.830290" lon="-1.690228">
        <ele>622.026</ele>
        <time>2012-06-08T09:02:20Z</time>
      </trkpt>
      <trkpt lat="41.829386" lon="-1.687953">
        <ele>618.069</ele>
        <time>2012-06-08T09:03:02Z</time>
      </trkpt>
      <trkpt lat="41.828543" lon="-1.686607">
        <ele>619.304</ele>
        <time>2012-06-08T09:03:32Z</time>
      </trkpt>
      <trkpt lat="41.827590" lon="-1.685868">
        <ele>614.324</ele>
        <time>2012-06-08T09:04:38Z</time>
      </trkpt>
      <trkpt lat="41.826423" lon="-1.685309">
        <ele>615.907</ele>
        <time>2012-06-08T09:05:09Z</time>
      </trkpt>
      <trkpt lat="41.825921" lon="-1.685448">
        <ele>621.489</ele>
        <time>2012-06-08T09:05:32Z</time>
      </trkpt>
      <trkpt lat="41.824762" lon="-1.686699">
        <ele>630.236</ele>
        <time>2012-06-08T09:06:26Z</time>
      </trkpt>
      <trkpt lat="41.824404" lon="-1.687305">
        <ele>633.339</ele>
        <time>2012-06-08T09:06:44Z</time>
      </trkpt>
      <trkpt lat="41.821901" lon="-1.689181">
        <ele>629.911</ele>
        <time>2012-06-08T09:08:08Z</time>
      </trkpt>
      <trkpt lat="41.820783" lon="-1.690522">
        <ele>629.342</ele>
        <time>2012-06-08T09:08:49Z</time>
      </trkpt>
      <trkpt lat="41.820809" lon="-1.690724">
        <ele>628.565</ele>
        <time>2012-06-08T09:09:15Z</time>
      </trkpt>
      <trkpt lat="41.820665" lon="-1.690676">
        <ele>629.258</ele>
        <time>2012-06-08T09:11:27Z</time>
      </trkpt>
      <trkpt lat="41.819496" lon="-1.691907">
        <ele>632.127</ele>
        <time>2012-06-08T09:12:07Z</time>
      </trkpt>
      <trkpt lat="41.812010" lon="-1.696042">
        <ele>658.468</ele>
        <time>2012-06-08T09:22:56Z</time>
      </trkpt>
      <trkpt lat="41.811430" lon="-1.696078">
        <ele>657.814</ele>
        <time>2012-06-08T09:23:10Z</time>
      </trkpt>
      <trkpt lat="41.804384" lon="-1.694401">
        <ele>675.407</ele>
        <time>2012-06-08T09:25:56Z</time>
      </trkpt>
      <trkpt lat="41.803678" lon="-1.693748">
        <ele>679.375</ele>
        <time>2012-06-08T09:26:25Z</time>
      </trkpt>
      <trkpt lat="41.801335" lon="-1.694220">
        <ele>685.682</ele>
        <time>2012-06-08T09:27:38Z</time>
      </trkpt>
      <trkpt lat="41.797168" lon="-1.696616">
        <ele>708.225</ele>
        <time>2012-06-08T09:30:00Z</time>
      </trkpt>
      <trkpt lat="41.793360" lon="-1.698289">
        <ele>710.557</ele>
        <time>2012-06-08T09:31:36Z</time>
      </trkpt>
      <trkpt lat="41.792813" lon="-1.699124">
        <ele>710.188</ele>
        <time>2012-06-08T09:31:52Z</time>
      </trkpt>
      <trkpt lat="41.790927" lon="-1.699638">
        <ele>717.091</ele>
        <time>2012-06-08T09:32:36Z</time>
      </trkpt>
      <trkpt lat="41.790547" lon="-1.699992">
        <ele>722.854</ele>
        <time>2012-06-08T09:32:47Z</time>
      </trkpt>
      <trkpt lat="41.790253" lon="-1.699693">
        <ele>714.676</ele>
        <time>2012-06-08T09:32:56Z</time>
      </trkpt>
      <trkpt lat="41.789556" lon="-1.699897">
        <ele>711.890</ele>
        <time>2012-06-08T09:33:34Z</time>
      </trkpt>
      <trkpt lat="41.789240" lon="-1.699800">
        <ele>706.519</ele>
        <time>2011-10-14T12:28:06Z</time>
      </trkpt>
      <trkpt lat="41.788730" lon="-1.697770">
        <ele>699.607</ele>
        <time>2011-10-14T12:28:06Z</time>
      </trkpt>
      <trkpt lat="41.788710" lon="-1.695380">
        <ele>710.070</ele>
        <time>2011-10-14T12:28:06Z</time>
      </trkpt>
      <trkpt lat="41.788430" lon="-1.694910">
        <ele>711.617</ele>
        <time>2011-10-14T12:28:06Z</time>
      </trkpt>
      <trkpt lat="41.787110" lon="-1.694400">
        <ele>723.350</ele>
        <time>2011-10-14T12:28:06Z</time>
      </trkpt>
      <trkpt lat="41.786970" lon="-1.695140">
        <ele>737.922</ele>
        <time>2011-10-14T12:28:06Z</time>
      </trkpt>
      <trkpt lat="41.786260" lon="-1.695690">
        <ele>750.913</ele>
        <time>2011-10-14T12:28:06Z</time>
      </trkpt>
      <trkpt lat="41.786330" lon="-1.696070">
        <ele>753.576</ele>
        <time>2011-10-14T12:28:06Z</time>
      </trkpt>
      <trkpt lat="41.785810" lon="-1.696770">
        <ele>756.379</ele>
        <time>2011-10-14T12:28:06Z</time>
      </trkpt>
      <trkpt lat="41.782600" lon="-1.699852">
        <ele>773.411</ele>
        <time>2012-06-08T10:18:48Z</time>
      </trkpt>
      <trkpt lat="41.782324" lon="-1.699894">
        <ele>776.321</ele>
        <time>2012-06-08T10:19:02Z</time>
      </trkpt>
      <trkpt lat="41.781249" lon="-1.699479">
        <ele>790.603</ele>
        <time>2012-06-08T10:19:53Z</time>
      </trkpt>
      <trkpt lat="41.779739" lon="-1.699662">
        <ele>798.307</ele>
        <time>2012-06-08T10:20:53Z</time>
      </trkpt>
      <trkpt lat="41.777293" lon="-1.699335">
        <ele>803.724</ele>
        <time>2012-06-08T10:21:50Z</time>
      </trkpt>
      <trkpt lat="41.775357" lon="-1.698664">
        <ele>792.041</ele>
        <time>2012-06-08T10:22:29Z</time>
      </trkpt>
      <trkpt lat="41.773829" lon="-1.699906">
        <ele>782.594</ele>
        <time>2012-06-08T10:22:52Z</time>
      </trkpt>
      <trkpt lat="41.773251" lon="-1.699764">
        <ele>780.036</ele>
        <time>2012-06-08T10:23:01Z</time>
      </trkpt>
      <trkpt lat="41.771611" lon="-1.698848">
        <ele>799.827</ele>
        <time>2012-06-08T10:24:27Z</time>
      </trkpt>
      <trkpt lat="41.770742" lon="-1.698654">
        <ele>809.880</ele>
        <time>2012-06-08T10:25:25Z</time>
      </trkpt>
      <trkpt lat="41.770099" lon="-1.698049">
        <ele>816.023</ele>
        <time>2012-06-08T10:26:05Z</time>
      </trkpt>
      <trkpt lat="41.769213" lon="-1.697760">
        <ele>817.183</ele>
        <time>2012-06-08T10:26:32Z</time>
      </trkpt>
      <trkpt lat="41.767355" lon="-1.697969">
        <ele>824.225</ele>
        <time>2012-06-08T10:27:25Z</time>
      </trkpt>
      <trkpt lat="41.765889" lon="-1.698926">
        <ele>835.317</ele>
        <time>2012-06-08T10:28:20Z</time>
      </trkpt>
      <trkpt lat="41.764071" lon="-1.699692">
        <ele>839.907</ele>
        <time>2012-06-08T10:29:18Z</time>
      </trkpt>
      <trkpt lat="41.760730" lon="-1.702019">
        <ele>861.371</ele>
        <time>2012-06-08T10:31:23Z</time>
      </trkpt>
      <trkpt lat="41.759567" lon="-1.702662">
        <ele>865.348</ele>
        <time>2012-06-08T10:32:05Z</time>
      </trkpt>
      <trkpt lat="41.757047" lon="-1.705556">
        <ele>884.441</ele>
        <time>2012-06-08T10:33:52Z</time>
      </trkpt>
      <trkpt lat="41.756091" lon="-1.706082">
        <ele>886.613</ele>
        <time>2012-06-08T10:35:17Z</time>
      </trkpt>
      <trkpt lat="41.755166" lon="-1.705982">
        <ele>888.494</ele>
        <time>2012-06-08T10:42:38Z</time>
      </trkpt>
      <trkpt lat="41.754322" lon="-1.705467">
        <ele>892.327</ele>
        <time>2012-06-08T10:43:11Z</time>
      </trkpt>
      <trkpt lat="41.753412" lon="-1.704497">
        <ele>894.970</ele>
        <time>2012-06-08T10:43:41Z</time>
      </trkpt>
      <trkpt lat="41.752796" lon="-1.703583">
        <ele>891.119</ele>
        <time>2012-06-08T10:43:56Z</time>
      </trkpt>
      <trkpt lat="41.752336" lon="-1.702486">
        <ele>887.409</ele>
        <time>2012-06-08T10:44:11Z</time>
      </trkpt>
      <trkpt lat="41.751948" lon="-1.697350">
        <ele>852.419</ele>
        <time>2012-06-08T10:45:18Z</time>
      </trkpt>
      <trkpt lat="41.751667" lon="-1.695967">
        <ele>844.007</ele>
        <time>2012-06-08T10:45:32Z</time>
      </trkpt>
      <trkpt lat="41.750817" lon="-1.694965">
        <ele>855.384</ele>
        <time>2012-06-08T10:46:07Z</time>
      </trkpt>
      <trkpt lat="41.750758" lon="-1.693366">
        <ele>863.561</ele>
        <time>2012-06-08T10:46:50Z</time>
      </trkpt>
      <trkpt lat="41.750585" lon="-1.692991">
        <ele>867.264</ele>
        <time>2012-06-08T10:47:05Z</time>
      </trkpt>
      <trkpt lat="41.749578" lon="-1.692000">
        <ele>876.956</ele>
        <time>2012-06-08T10:48:16Z</time>
      </trkpt>
      <trkpt lat="41.748344" lon="-1.691749">
        <ele>890.667</ele>
        <time>2012-06-08T10:49:18Z</time>
      </trkpt>
      <trkpt lat="41.746884" lon="-1.691029">
        <ele>907.670</ele>
        <time>2012-06-08T10:50:49Z</time>
      </trkpt>
      <trkpt lat="41.745800" lon="-1.689920">
        <ele>925.663</ele>
        <time>2012-06-08T10:52:15Z</time>
      </trkpt>
      <trkpt lat="41.744732" lon="-1.689472">
        <ele>942.949</ele>
        <time>2012-06-08T10:53:30Z</time>
      </trkpt>
      <trkpt lat="41.742918" lon="-1.688227">
        <ele>972.002</ele>
        <time>2012-06-08T10:56:08Z</time>
      </trkpt>
      <trkpt lat="41.741792" lon="-1.686756">
        <ele>989.722</ele>
        <time>2012-06-08T10:57:22Z</time>
      </trkpt>
      <trkpt lat="41.740928" lon="-1.686906">
        <ele>993.807</ele>
        <time>2012-06-08T10:58:07Z</time>
      </trkpt>
      <trkpt lat="41.740237" lon="-1.686454">
        <ele>995.427</ele>
        <time>2012-06-08T10:58:30Z</time>
      </trkpt>
      <trkpt lat="41.739812" lon="-1.685830">
        <ele>999.334</ele>
        <time>2012-06-08T10:58:43Z</time>
      </trkpt>
      <trkpt lat="41.739580" lon="-1.685743">
        <ele>999.757</ele>
        <time>2012-06-08T10:58:49Z</time>
      </trkpt>
      <trkpt lat="41.739056" lon="-1.686414">
        <ele>1002.829</ele>
        <time>2012-06-08T10:59:24Z</time>
      </trkpt>
      <trkpt lat="41.738756" lon="-1.686447">
        <ele>1007.670</ele>
        <time>2012-06-08T10:59:42Z</time>
      </trkpt>
      <trkpt lat="41.737532" lon="-1.685706">
        <ele>1004.653</ele>
        <time>2012-06-08T11:05:12Z</time>
      </trkpt>
      <trkpt lat="41.736443" lon="-1.683961">
        <ele>982.116</ele>
        <time>2012-06-08T11:05:34Z</time>
      </trkpt>
      <trkpt lat="41.736217" lon="-1.683878">
        <ele>979.027</ele>
        <time>2012-06-08T11:05:38Z</time>
      </trkpt>
      <trkpt lat="41.735894" lon="-1.684549">
        <ele>981.768</ele>
        <time>2012-06-08T11:05:48Z</time>
      </trkpt>
      <trkpt lat="41.735614" lon="-1.684506">
        <ele>980.514</ele>
        <time>2012-06-08T11:05:54Z</time>
      </trkpt>
      <trkpt lat="41.734950" lon="-1.683001">
        <ele>967.007</ele>
        <time>2012-06-08T11:06:12Z</time>
      </trkpt>
      <trkpt lat="41.734849" lon="-1.681666">
        <ele>949.315</ele>
        <time>2012-06-08T11:06:29Z</time>
      </trkpt>
      <trkpt lat="41.733803" lon="-1.679693">
        <ele>929.832</ele>
        <time>2012-06-08T11:06:52Z</time>
      </trkpt>
      <trkpt lat="41.732594" lon="-1.677964">
        <ele>913.125</ele>
        <time>2012-06-08T11:07:17Z</time>
      </trkpt>
      <trkpt lat="41.731851" lon="-1.676132">
        <ele>896.977</ele>
        <time>2012-06-08T11:07:41Z</time>
      </trkpt>
      <trkpt lat="41.731489" lon="-1.675567">
        <ele>882.928</ele>
        <time>2012-06-08T11:07:57Z</time>
      </trkpt>
      <trkpt lat="41.731356" lon="-1.675579">
        <ele>882.761</ele>
        <time>2012-06-08T11:08:36Z</time>
      </trkpt>
      <trkpt lat="41.731205" lon="-1.677552">
        <ele>890.024</ele>
        <time>2012-06-08T11:15:43Z</time>
      </trkpt>
      <trkpt lat="41.731035" lon="-1.678008">
        <ele>884.222</ele>
        <time>2012-06-08T11:16:23Z</time>
      </trkpt>
      <trkpt lat="41.730328" lon="-1.677967">
        <ele>870.262</ele>
        <time>2012-06-08T11:17:30Z</time>
      </trkpt>
      <trkpt lat="41.729997" lon="-1.678358">
        <ele>871.108</ele>
        <time>2012-06-08T11:18:12Z</time>
      </trkpt>
      <trkpt lat="41.729550" lon="-1.678142">
        <ele>870.307</ele>
        <time>2012-06-08T11:23:15Z</time>
      </trkpt>
      <trkpt lat="41.729170" lon="-1.678428">
        <ele>875.395</ele>
        <time>2012-06-08T11:23:42Z</time>
      </trkpt>
      <trkpt lat="41.728885" lon="-1.678323">
        <ele>880.022</ele>
        <time>2012-06-08T11:24:06Z</time>
      </trkpt>
      <trkpt lat="41.728413" lon="-1.678502">
        <ele>884.555</ele>
        <time>2012-06-08T11:24:44Z</time>
      </trkpt>
      <trkpt lat="41.727842" lon="-1.678244">
        <ele>893.157</ele>
        <time>2012-06-08T11:25:57Z</time>
      </trkpt>
      <trkpt lat="41.727106" lon="-1.678435">
        <ele>911.848</ele>
        <time>2012-06-08T11:28:32Z</time>
      </trkpt>
      <trkpt lat="41.727437" lon="-1.677200">
        <ele>906.381</ele>
        <time>2012-06-08T11:29:31Z</time>
      </trkpt>
      <trkpt lat="41.727478" lon="-1.675732">
        <ele>912.094</ele>
        <time>2012-06-08T11:30:04Z</time>
      </trkpt>
      <trkpt lat="41.727918" lon="-1.674542">
        <ele>902.072</ele>
        <time>2012-06-08T11:30:30Z</time>
      </trkpt>
      <trkpt lat="41.727928" lon="-1.673836">
        <ele>899.513</ele>
        <time>2012-06-08T11:30:38Z</time>
      </trkpt>
      <trkpt lat="41.727576" lon="-1.672674">
        <ele>889.914</ele>
        <time>2012-06-08T11:30:52Z</time>
      </trkpt>
      <trkpt lat="41.727244" lon="-1.672503">
        <ele>887.007</ele>
        <time>2012-06-08T11:30:59Z</time>
      </trkpt>
      <trkpt lat="41.726231" lon="-1.672753">
        <ele>898.270</ele>
        <time>2012-06-08T11:31:18Z</time>
      </trkpt>
      <trkpt lat="41.726098" lon="-1.672514">
        <ele>896.687</ele>
        <time>2012-06-08T11:31:25Z</time>
      </trkpt>
      <trkpt lat="41.726491" lon="-1.671084">
        <ele>885.050</ele>
        <time>2012-06-08T11:31:42Z</time>
      </trkpt>
      <trkpt lat="41.726568" lon="-1.669004">
        <ele>866.852</ele>
        <time>2012-06-08T11:32:04Z</time>
      </trkpt>
      <trkpt lat="41.726427" lon="-1.668600">
        <ele>862.373</ele>
        <time>2012-06-08T11:32:10Z</time>
      </trkpt>
      <trkpt lat="41.725958" lon="-1.668122">
        <ele>871.366</ele>
        <time>2012-06-08T11:32:20Z</time>
      </trkpt>
      <trkpt lat="41.725989" lon="-1.667636">
        <ele>868.479</ele>
        <time>2012-06-08T11:32:27Z</time>
      </trkpt>
      <trkpt lat="41.726446" lon="-1.667312">
        <ele>860.434</ele>
        <time>2012-06-08T11:32:36Z</time>
      </trkpt>
      <trkpt lat="41.726601" lon="-1.666978">
        <ele>853.955</ele>
        <time>2012-06-08T11:32:42Z</time>
      </trkpt>
      <trkpt lat="41.726223" lon="-1.664676">
        <ele>843.510</ele>
        <time>2012-06-08T11:33:05Z</time>
      </trkpt>
      <trkpt lat="41.725676" lon="-1.663910">
        <ele>839.007</ele>
        <time>2012-06-08T11:33:24Z</time>
      </trkpt>
      <trkpt lat="41.726105" lon="-1.663533">
        <ele>832.646</ele>
        <time>2012-06-08T11:34:10Z</time>
      </trkpt>
      <trkpt lat="41.726180" lon="-1.663252">
        <ele>833.873</ele>
        <time>2012-06-08T11:34:21Z</time>
      </trkpt>
      <trkpt lat="41.725769" lon="-1.662024">
        <ele>847.696</ele>
        <time>2012-06-08T11:35:11Z</time>
      </trkpt>
      <trkpt lat="41.725016" lon="-1.660462">
        <ele>857.198</ele>
        <time>2012-06-08T11:36:23Z</time>
      </trkpt>
      <trkpt lat="41.724515" lon="-1.660515">
        <ele>865.269</ele>
        <time>2012-06-08T11:36:47Z</time>
      </trkpt>
      <trkpt lat="41.724158" lon="-1.660337">
        <ele>864.382</ele>
        <time>2012-06-08T11:37:02Z</time>
      </trkpt>
      <trkpt lat="41.723889" lon="-1.659924">
        <ele>868.335</ele>
        <time>2012-06-08T11:37:48Z</time>
      </trkpt>
      <trkpt lat="41.722925" lon="-1.659356">
        <ele>860.547</ele>
        <time>2012-06-08T11:38:17Z</time>
      </trkpt>
      <trkpt lat="41.722217" lon="-1.659522">
        <ele>864.029</ele>
        <time>2012-06-08T11:38:31Z</time>
      </trkpt>
      <trkpt lat="41.721985" lon="-1.659378">
        <ele>866.821</ele>
        <time>2012-06-08T11:38:42Z</time>
      </trkpt>
      <trkpt lat="41.722181" lon="-1.658296">
        <ele>863.907</ele>
        <time>2012-06-08T11:39:20Z</time>
      </trkpt>
      <trkpt lat="41.721580" lon="-1.656622">
        <ele>882.347</ele>
        <time>2012-06-08T11:40:49Z</time>
      </trkpt>
      <trkpt lat="41.721312" lon="-1.656260">
        <ele>881.744</ele>
        <time>2012-06-08T11:41:05Z</time>
      </trkpt>
      <trkpt lat="41.720917" lon="-1.656201">
        <ele>880.417</ele>
        <time>2012-06-08T11:41:13Z</time>
      </trkpt>
      <trkpt lat="41.719881" lon="-1.656591">
        <ele>886.149</ele>
        <time>2012-06-08T11:42:13Z</time>
      </trkpt>
      <trkpt lat="41.719671" lon="-1.656401">
        <ele>887.030</ele>
        <time>2012-06-08T11:42:28Z</time>
      </trkpt>
      <trkpt lat="41.716241" lon="-1.655638">
        <ele>878.033</ele>
        <time>2012-06-08T11:44:34Z</time>
      </trkpt>
      <trkpt lat="41.715883" lon="-1.654681">
        <ele>888.656</ele>
        <time>2012-06-08T11:45:51Z</time>
      </trkpt>
      <trkpt lat="41.715955" lon="-1.653087">
        <ele>903.143</ele>
        <time>2012-06-08T11:48:05Z</time>
      </trkpt>
      <trkpt lat="41.715506" lon="-1.653382">
        <ele>907.064</ele>
        <time>2012-06-08T11:48:29Z</time>
      </trkpt>
      <trkpt lat="41.712015" lon="-1.659666">
        <ele>957.810</ele>
        <time>2012-06-08T11:54:49Z</time>
      </trkpt>
      <trkpt lat="41.710272" lon="-1.664120">
        <ele>1019.507</ele>
        <time>2012-06-08T12:03:01Z</time>
      </trkpt>
      <trkpt lat="41.709468" lon="-1.665150">
        <ele>1044.947</ele>
        <time>2012-06-08T12:04:25Z</time>
      </trkpt>
      <trkpt lat="41.708836" lon="-1.664968">
        <ele>1050.034</ele>
        <time>2012-06-08T12:05:15Z</time>
      </trkpt>
      <trkpt lat="41.708497" lon="-1.665094">
        <ele>1052.427</ele>
        <time>2012-06-08T12:05:43Z</time>
      </trkpt>
      <trkpt lat="41.708101" lon="-1.666354">
        <ele>1063.459</ele>
        <time>2012-06-08T12:07:02Z</time>
      </trkpt>
      <trkpt lat="41.708124" lon="-1.667374">
        <ele>1082.340</ele>
        <time>2012-06-08T12:09:07Z</time>
      </trkpt>
      <trkpt lat="41.707519" lon="-1.668846">
        <ele>1102.073</ele>
        <time>2012-06-08T12:14:39Z</time>
      </trkpt>
      <trkpt lat="41.706145" lon="-1.671051">
        <ele>1129.116</ele>
        <time>2012-06-08T12:22:29Z</time>
      </trkpt>
      <trkpt lat="41.704215" lon="-1.671487">
        <ele>1141.081</ele>
        <time>2012-06-08T12:24:14Z</time>
      </trkpt>
      <trkpt lat="41.703393" lon="-1.671050">
        <ele>1143.461</ele>
        <time>2012-06-08T12:24:47Z</time>
      </trkpt>
      <trkpt lat="41.703161" lon="-1.670290">
        <ele>1137.017</ele>
        <time>2012-06-08T12:25:03Z</time>
      </trkpt>
      <trkpt lat="41.703141" lon="-1.669452">
        <ele>1137.107</ele>
        <time>2012-06-08T12:25:20Z</time>
      </trkpt>
      <trkpt lat="41.702949" lon="-1.669260">
        <ele>1137.931</ele>
        <time>2012-06-08T12:25:31Z</time>
      </trkpt>
      <trkpt lat="41.702225" lon="-1.669335">
        <ele>1142.268</ele>
        <time>2012-06-08T12:25:55Z</time>
      </trkpt>
      <trkpt lat="41.700646" lon="-1.669005">
        <ele>1143.311</ele>
        <time>2012-06-08T12:26:38Z</time>
      </trkpt>
      <trkpt lat="41.698595" lon="-1.669162">
        <ele>1156.083</ele>
        <time>2012-06-08T12:27:46Z</time>
      </trkpt>
      <trkpt lat="41.698271" lon="-1.668890">
        <ele>1152.594</ele>
        <time>2012-06-08T12:27:58Z</time>
      </trkpt>
      <trkpt lat="41.697351" lon="-1.668802">
        <ele>1148.897</ele>
        <time>2012-06-08T12:30:31Z</time>
      </trkpt>
      <trkpt lat="41.696988" lon="-1.667913">
        <ele>1146.920</ele>
        <time>2012-06-08T12:30:45Z</time>
      </trkpt>
      <trkpt lat="41.696174" lon="-1.667928">
        <ele>1143.846</ele>
        <time>2012-06-08T12:31:01Z</time>
      </trkpt>
      <trkpt lat="41.695419" lon="-1.667634">
        <ele>1140.888</ele>
        <time>2012-06-08T12:31:14Z</time>
      </trkpt>
      <trkpt lat="41.694962" lon="-1.667678">
        <ele>1138.816</ele>
        <time>2012-06-08T12:31:25Z</time>
      </trkpt>
      <trkpt lat="41.693509" lon="-1.666093">
        <ele>1138.607</ele>
        <time>2012-06-08T12:32:33Z</time>
      </trkpt>
      <trkpt lat="41.692319" lon="-1.665727">
        <ele>1122.297</ele>
        <time>2012-06-08T12:32:56Z</time>
      </trkpt>
      <trkpt lat="41.692111" lon="-1.665454">
        <ele>1120.714</ele>
        <time>2012-06-08T12:33:03Z</time>
      </trkpt>
      <trkpt lat="41.691757" lon="-1.663823">
        <ele>1117.177</ele>
        <time>2012-06-08T12:33:24Z</time>
      </trkpt>
      <trkpt lat="41.691436" lon="-1.663690">
        <ele>1112.119</ele>
        <time>2012-06-08T12:33:30Z</time>
      </trkpt>
      <trkpt lat="41.690168" lon="-1.664015">
        <ele>1098.420</ele>
        <time>2012-06-08T12:33:49Z</time>
      </trkpt>
      <trkpt lat="41.689384" lon="-1.663961">
        <ele>1090.053</ele>
        <time>2012-06-08T12:34:03Z</time>
      </trkpt>
      <trkpt lat="41.689434" lon="-1.664220">
        <ele>1083.446</ele>
        <time>2012-06-08T12:34:09Z</time>
      </trkpt>
      <trkpt lat="41.690202" lon="-1.664602">
        <ele>1080.635</ele>
        <time>2012-06-08T12:34:24Z</time>
      </trkpt>
      <trkpt lat="41.690382" lon="-1.664846">
        <ele>1079.586</ele>
        <time>2012-06-08T12:36:13Z</time>
      </trkpt>
      <trkpt lat="41.689064" lon="-1.665252">
        <ele>1053.014</ele>
        <time>2012-06-08T12:36:36Z</time>
      </trkpt>
      <trkpt lat="41.688699" lon="-1.665225">
        <ele>1047.907</ele>
        <time>2012-06-08T12:36:43Z</time>
      </trkpt>
      <trkpt lat="41.687573" lon="-1.664272">
        <ele>1032.616</ele>
        <time>2012-06-08T12:37:10Z</time>
      </trkpt>
      <trkpt lat="41.686816" lon="-1.664210">
        <ele>1022.173</ele>
        <time>2012-06-08T12:37:24Z</time>
      </trkpt>
      <trkpt lat="41.683762" lon="-1.662132">
        <ele>1010.156</ele>
        <time>2012-06-08T12:38:16Z</time>
      </trkpt>
      <trkpt lat="41.683131" lon="-1.661404">
        <ele>1012.998</ele>
        <time>2012-06-08T12:38:37Z</time>
      </trkpt>
      <trkpt lat="41.682364" lon="-1.660886">
        <ele>1011.569</ele>
        <time>2012-06-08T12:39:21Z</time>
      </trkpt>
      <trkpt lat="41.681670" lon="-1.660868">
        <ele>1018.032</ele>
        <time>2012-06-08T12:39:38Z</time>
      </trkpt>
      <trkpt lat="41.680783" lon="-1.660177">
        <ele>1011.265</ele>
        <time>2012-06-08T12:39:52Z</time>
      </trkpt>
      <trkpt lat="41.680197" lon="-1.659930">
        <ele>1018.538</ele>
        <time>2012-06-08T12:40:08Z</time>
      </trkpt>
      <trkpt lat="41.679330" lon="-1.658990">
        <ele>1011.270</ele>
        <time>2012-06-08T12:40:41Z</time>
      </trkpt>
      <trkpt lat="41.678531" lon="-1.658565">
        <ele>1007.517</ele>
        <time>2012-06-08T12:40:58Z</time>
      </trkpt>
      <trkpt lat="41.678304" lon="-1.658979">
        <ele>1017.407</ele>
        <time>2012-06-08T12:41:10Z</time>
      </trkpt>
      <trkpt lat="41.677702" lon="-1.659414">
        <ele>1017.386</ele>
        <time>2012-06-08T12:41:36Z</time>
      </trkpt>
      <trkpt lat="41.677465" lon="-1.659415">
        <ele>1017.823</ele>
        <time>2012-06-08T12:41:47Z</time>
      </trkpt>
      <trkpt lat="41.676760" lon="-1.658825">
        <ele>1017.426</ele>
        <time>2012-06-08T12:42:12Z</time>
      </trkpt>
      <trkpt lat="41.676684" lon="-1.658930">
        <ele>1016.188</ele>
        <time>2012-06-08T12:42:30Z</time>
      </trkpt>
      <trkpt lat="41.676699" lon="-1.658727">
        <ele>1017.849</ele>
        <time>2012-06-08T12:42:45Z</time>
      </trkpt>
      <trkpt lat="41.676249" lon="-1.658200">
        <ele>1012.462</ele>
        <time>2012-06-08T12:43:05Z</time>
      </trkpt>
      <trkpt lat="41.675951" lon="-1.657085">
        <ele>1020.645</ele>
        <time>2012-06-08T12:43:25Z</time>
      </trkpt>
      <trkpt lat="41.674625" lon="-1.655635">
        <ele>1018.532</ele>
        <time>2012-06-08T12:43:58Z</time>
      </trkpt>
      <trkpt lat="41.674439" lon="-1.655260">
        <ele>1020.992</ele>
        <time>2012-06-08T12:44:10Z</time>
      </trkpt>
      <trkpt lat="41.674553" lon="-1.654608">
        <ele>1016.511</ele>
        <time>2012-06-08T12:44:29Z</time>
      </trkpt>
      <trkpt lat="41.673279" lon="-1.653467">
        <ele>990.007</ele>
        <time>2012-06-08T12:44:59Z</time>
      </trkpt>
      <trkpt lat="41.672651" lon="-1.652572">
        <ele>977.346</ele>
        <time>2012-06-08T12:45:15Z</time>
      </trkpt>
      <trkpt lat="41.670976" lon="-1.651441">
        <ele>967.033</ele>
        <time>2012-06-08T12:45:41Z</time>
      </trkpt>
      <trkpt lat="41.670438" lon="-1.651263">
        <ele>962.776</ele>
        <time>2012-06-08T12:45:50Z</time>
      </trkpt>
      <trkpt lat="41.669637" lon="-1.651742">
        <ele>955.238</ele>
        <time>2012-06-08T12:46:05Z</time>
      </trkpt>
      <trkpt lat="41.668835" lon="-1.651972">
        <ele>952.189</ele>
        <time>2012-06-08T12:46:36Z</time>
      </trkpt>
      <trkpt lat="41.667561" lon="-1.651409">
        <ele>932.972</ele>
        <time>2012-06-08T12:48:28Z</time>
      </trkpt>
      <trkpt lat="41.666601" lon="-1.649429">
        <ele>902.215</ele>
        <time>2012-06-08T12:51:28Z</time>
      </trkpt>
      <trkpt lat="41.666363" lon="-1.649268">
        <ele>897.556</ele>
        <time>2012-06-08T12:51:35Z</time>
      </trkpt>
      <trkpt lat="41.665676" lon="-1.649290">
        <ele>893.259</ele>
        <time>2012-06-08T12:51:51Z</time>
      </trkpt>
      <trkpt lat="41.665084" lon="-1.648181">
        <ele>876.414</ele>
        <time>2012-06-08T12:52:14Z</time>
      </trkpt>
      <trkpt lat="41.664296" lon="-1.648013">
        <ele>867.707</ele>
        <time>2012-06-08T12:52:33Z</time>
      </trkpt>
      <trkpt lat="41.663479" lon="-1.648357">
        <ele>858.068</ele>
        <time>2012-06-08T12:52:50Z</time>
      </trkpt>
      <trkpt lat="41.662086" lon="-1.648282">
        <ele>842.125</ele>
        <time>2012-06-08T12:53:15Z</time>
      </trkpt>
      <trkpt lat="41.661685" lon="-1.648606">
        <ele>839.368</ele>
        <time>2012-06-08T12:53:28Z</time>
      </trkpt>
      <trkpt lat="41.660976" lon="-1.648523">
        <ele>823.710</ele>
        <time>2012-06-08T12:53:44Z</time>
      </trkpt>
      <trkpt lat="41.659028" lon="-1.647225">
        <ele>803.521</ele>
        <time>2012-06-08T12:54:19Z</time>
      </trkpt>
      <trkpt lat="41.658545" lon="-1.646403">
        <ele>795.764</ele>
        <time>2012-06-08T12:54:33Z</time>
      </trkpt>
      <trkpt lat="41.657622" lon="-1.647568">
        <ele>781.517</ele>
        <time>2012-06-08T12:54:56Z</time>
      </trkpt>
      <trkpt lat="41.656404" lon="-1.647573">
        <ele>768.269</ele>
        <time>2012-06-08T12:55:17Z</time>
      </trkpt>
      <trkpt lat="41.656071" lon="-1.647369">
        <ele>764.004</ele>
        <time>2012-06-08T12:55:24Z</time>
      </trkpt>
      <trkpt lat="41.655790" lon="-1.647424">
        <ele>761.824</ele>
        <time>2012-06-08T12:55:37Z</time>
      </trkpt>
      <trkpt lat="41.654018" lon="-1.645913">
        <ele>742.307</ele>
        <time>2012-06-08T12:56:21Z</time>
      </trkpt>
      <trkpt lat="41.650996" lon="-1.645136">
        <ele>737.159</ele>
        <time>2012-06-08T12:57:11Z</time>
      </trkpt>
      <trkpt lat="41.650307" lon="-1.644722">
        <ele>731.946</ele>
        <time>2012-06-08T12:57:25Z</time>
      </trkpt>
      <trkpt lat="41.649501" lon="-1.643949">
        <ele>727.959</ele>
        <time>2012-06-08T12:57:45Z</time>
      </trkpt>
      <trkpt lat="41.647943" lon="-1.643193">
        <ele>723.451</ele>
        <time>2012-06-08T12:59:41Z</time>
      </trkpt>
      <trkpt lat="41.647067" lon="-1.643623">
        <ele>717.812</ele>
        <time>2012-06-08T13:00:37Z</time>
      </trkpt>
      <trkpt lat="41.645927" lon="-1.643514">
        <ele>713.775</ele>
        <time>2012-06-08T13:00:55Z</time>
      </trkpt>
      <trkpt lat="41.645485" lon="-1.643967">
        <ele>706.798</ele>
        <time>2012-06-08T13:01:05Z</time>
      </trkpt>
      <trkpt lat="41.645365" lon="-1.644653">
        <ele>698.813</ele>
        <time>2012-06-08T13:01:23Z</time>
      </trkpt>
      <trkpt lat="41.644536" lon="-1.644635">
        <ele>691.043</ele>
        <time>2012-06-08T13:01:44Z</time>
      </trkpt>
      <trkpt lat="41.644281" lon="-1.644189">
        <ele>689.907</ele>
        <time>2012-06-08T13:01:50Z</time>
      </trkpt>
      <trkpt lat="41.644323" lon="-1.642432">
        <ele>686.807</ele>
        <time>2012-06-08T13:02:15Z</time>
      </trkpt>
      <trkpt lat="41.643865" lon="-1.641329">
        <ele>681.354</ele>
        <time>2012-06-08T13:04:56Z</time>
      </trkpt>
      <trkpt lat="41.644017" lon="-1.640930">
        <ele>678.951</ele>
        <time>2012-07-05T06:53:00Z</time>
      </trkpt>
      <trkpt lat="41.644709" lon="-1.640609">
        <ele>676.064</ele>
        <time>2012-07-05T06:53:40Z</time>
      </trkpt>
      <trkpt lat="41.644722" lon="-1.640239">
        <ele>678.646</ele>
        <time>2012-07-05T06:54:40Z</time>
      </trkpt>
      <trkpt lat="41.643289" lon="-1.639040">
        <ele>663.837</ele>
        <time>2012-07-05T06:57:00Z</time>
      </trkpt>
      <trkpt lat="41.642885" lon="-1.639266">
        <ele>660.090</ele>
        <time>2012-07-05T06:58:00Z</time>
      </trkpt>
      <trkpt lat="41.642386" lon="-1.639101">
        <ele>657.913</ele>
        <time>2012-07-05T06:58:40Z</time>
      </trkpt>
      <trkpt lat="41.641173" lon="-1.637620">
        <ele>659.085</ele>
        <time>2012-07-05T07:01:20Z</time>
      </trkpt>
      <trkpt lat="41.639426" lon="-1.636597">
        <ele>663.489</ele>
        <time>2012-07-05T07:02:20Z</time>
      </trkpt>
      <trkpt lat="41.637543" lon="-1.635188">
        <ele>645.117</ele>
        <time>2012-07-05T07:04:00Z</time>
      </trkpt>
      <trkpt lat="41.637179" lon="-1.634409">
        <ele>641.707</ele>
        <time>2012-07-05T07:05:00Z</time>
      </trkpt>
      <trkpt lat="41.636609" lon="-1.633751">
        <ele>642.111</ele>
        <time>2012-07-05T07:06:00Z</time>
      </trkpt>
      <trkpt lat="41.636285" lon="-1.632928">
        <ele>643.718</ele>
        <time>2012-07-05T07:06:40Z</time>
      </trkpt>
      <trkpt lat="41.635508" lon="-1.632259">
        <ele>641.021</ele>
        <time>2012-07-05T07:07:40Z</time>
      </trkpt>
      <trkpt lat="41.635018" lon="-1.631569">
        <ele>635.223</ele>
        <time>2012-07-05T07:08:00Z</time>
      </trkpt>
      <trkpt lat="41.634538" lon="-1.629585">
        <ele>639.764</ele>
        <time>2012-07-05T07:09:00Z</time>
      </trkpt>
      <trkpt lat="41.632961" lon="-1.628634">
        <ele>635.447</ele>
        <time>2012-07-05T07:11:00Z</time>
      </trkpt>
      <trkpt lat="41.632363" lon="-1.626938">
        <ele>641.370</ele>
        <time>2012-07-05T07:12:20Z</time>
      </trkpt>
      <trkpt lat="41.631563" lon="-1.626258">
        <ele>634.876</ele>
        <time>2012-07-05T07:13:40Z</time>
      </trkpt>
      <trkpt lat="41.630791" lon="-1.625059">
        <ele>627.390</ele>
        <time>2012-07-05T07:14:40Z</time>
      </trkpt>
      <trkpt lat="41.630813" lon="-1.624810">
        <ele>627.219</ele>
        <time>2012-07-05T07:15:20Z</time>
      </trkpt>
      <trkpt lat="41.631361" lon="-1.624495">
        <ele>631.007</ele>
        <time>2012-07-05T07:16:40Z</time>
      </trkpt>
      <trkpt lat="41.631114" lon="-1.623832">
        <ele>633.040</ele>
        <time>2012-07-05T07:18:00Z</time>
      </trkpt>
      <trkpt lat="41.630395" lon="-1.623744">
        <ele>640.077</ele>
        <time>2012-07-05T07:19:40Z</time>
      </trkpt>
      <trkpt lat="41.629672" lon="-1.623169">
        <ele>639.990</ele>
        <time>2012-07-05T07:21:00Z</time>
      </trkpt>
      <trkpt lat="41.629043" lon="-1.622025">
        <ele>663.532</ele>
        <time>2012-07-05T07:22:40Z</time>
      </trkpt>
      <trkpt lat="41.628791" lon="-1.623108">
        <ele>652.393</ele>
        <time>2012-07-05T07:24:20Z</time>
      </trkpt>
      <trkpt lat="41.628576" lon="-1.623241">
        <ele>655.086</ele>
        <time>2012-07-05T07:24:40Z</time>
      </trkpt>
      <trkpt lat="41.628198" lon="-1.623064">
        <ele>657.489</ele>
        <time>2012-07-05T07:25:00Z</time>
      </trkpt>
      <trkpt lat="41.627601" lon="-1.623213">
        <ele>654.849</ele>
        <time>2012-07-05T07:26:00Z</time>
      </trkpt>
      <trkpt lat="41.627462" lon="-1.623108">
        <ele>657.502</ele>
        <time>2012-07-05T07:26:20Z</time>
      </trkpt>
      <trkpt lat="41.626963" lon="-1.623611">
        <ele>654.822</ele>
        <time>2012-07-05T07:27:00Z</time>
      </trkpt>
      <trkpt lat="41.626199" lon="-1.623550">
        <ele>651.007</ele>
        <time>2012-07-05T07:28:40Z</time>
      </trkpt>
      <trkpt lat="41.625831" lon="-1.623710">
        <ele>644.277</ele>
        <time>2012-07-05T07:29:40Z</time>
      </trkpt>
      <trkpt lat="41.625359" lon="-1.623617">
        <ele>636.114</ele>
        <time>2012-07-05T07:30:40Z</time>
      </trkpt>
      <trkpt lat="41.625035" lon="-1.623186">
        <ele>639.237</ele>
        <time>2012-07-05T07:32:00Z</time>
      </trkpt>
      <trkpt lat="41.624887" lon="-1.622235">
        <ele>641.969</ele>
        <time>2012-07-05T07:33:00Z</time>
      </trkpt>
      <trkpt lat="41.624168" lon="-1.621434">
        <ele>637.770</ele>
        <time>2012-07-05T07:34:20Z</time>
      </trkpt>
      <trkpt lat="41.624096" lon="-1.620621">
        <ele>635.563</ele>
        <time>2012-07-05T07:35:00Z</time>
      </trkpt>
      <trkpt lat="41.623917" lon="-1.620295">
        <ele>634.416</ele>
        <time>2012-07-05T07:35:20Z</time>
      </trkpt>
      <trkpt lat="41.622663" lon="-1.619721">
        <ele>622.689</ele>
        <time>2012-07-05T07:37:20Z</time>
      </trkpt>
      <trkpt lat="41.622905" lon="-1.619212">
        <ele>626.206</ele>
        <time>2012-06-08T14:59:33Z</time>
      </trkpt>
      <trkpt lat="41.622704" lon="-1.619009">
        <ele>627.226</ele>
        <time>2012-06-08T14:59:39Z</time>
      </trkpt>
      <trkpt lat="41.621650" lon="-1.619010">
        <ele>624.307</ele>
        <time>2012-06-08T15:00:03Z</time>
      </trkpt>
      <trkpt lat="41.621234" lon="-1.618769">
        <ele>629.741</ele>
        <time>2012-06-08T15:00:14Z</time>
      </trkpt>
      <trkpt lat="41.620959" lon="-1.619106">
        <ele>625.848</ele>
        <time>2012-06-08T15:00:26Z</time>
      </trkpt>
      <trkpt lat="41.620536" lon="-1.619158">
        <ele>631.161</ele>
        <time>2012-06-08T15:00:39Z</time>
      </trkpt>
      <trkpt lat="41.618482" lon="-1.617326">
        <ele>631.353</ele>
        <time>2012-06-08T15:01:37Z</time>
      </trkpt>
      <trkpt lat="41.616551" lon="-1.616423">
        <ele>619.994</ele>
        <time>2012-06-08T15:01:59Z</time>
      </trkpt>
      <trkpt lat="41.616323" lon="-1.615438">
        <ele>623.287</ele>
        <time>2012-06-08T15:02:10Z</time>
      </trkpt>
      <trkpt lat="41.615438" lon="-1.616040">
        <ele>612.270</ele>
        <time>2012-06-08T15:02:24Z</time>
      </trkpt>
      <trkpt lat="41.614982" lon="-1.616023">
        <ele>610.521</ele>
        <time>2012-06-08T15:02:49Z</time>
      </trkpt>
      <trkpt lat="41.612570" lon="-1.611261">
        <ele>603.941</ele>
        <time>2012-06-08T15:04:07Z</time>
      </trkpt>
      <trkpt lat="41.612204" lon="-1.610995">
        <ele>601.205</ele>
        <time>2012-06-08T15:04:14Z</time>
      </trkpt>
      <trkpt lat="41.611040" lon="-1.609458">
        <ele>600.807</ele>
        <time>2012-06-08T15:04:43Z</time>
      </trkpt>
      <trkpt lat="41.610755" lon="-1.609312">
        <ele>598.545</ele>
        <time>2012-06-08T15:04:48Z</time>
      </trkpt>
      <trkpt lat="41.609551" lon="-1.610044">
        <ele>595.872</ele>
        <time>2012-06-08T15:05:03Z</time>
      </trkpt>
      <trkpt lat="41.608732" lon="-1.610032">
        <ele>596.285</ele>
        <time>2012-06-08T15:05:15Z</time>
      </trkpt>
      <trkpt lat="41.608506" lon="-1.609856">
        <ele>596.937</ele>
        <time>2012-06-08T15:05:21Z</time>
      </trkpt>
      <trkpt lat="41.608292" lon="-1.609038">
        <ele>600.958</ele>
        <time>2012-06-08T15:05:32Z</time>
      </trkpt>
      <trkpt lat="41.608350" lon="-1.608014">
        <ele>601.571</ele>
        <time>2012-06-08T15:06:20Z</time>
      </trkpt>
      <trkpt lat="41.608215" lon="-1.607757">
        <ele>602.964</ele>
        <time>2012-06-08T15:06:29Z</time>
      </trkpt>
      <trkpt lat="41.607926" lon="-1.607871">
        <ele>603.811</ele>
        <time>2012-06-08T15:07:30Z</time>
      </trkpt>
      <trkpt lat="41.607815" lon="-1.609058">
        <ele>600.321</ele>
        <time>2012-06-08T15:07:51Z</time>
      </trkpt>
      <trkpt lat="41.607409" lon="-1.609584">
        <ele>596.203</ele>
        <time>2012-06-08T15:08:00Z</time>
      </trkpt>
      <trkpt lat="41.607033" lon="-1.609420">
        <ele>593.807</ele>
        <time>2012-06-08T15:09:37Z</time>
      </trkpt>
      <trkpt lat="41.606677" lon="-1.608691">
        <ele>598.444</ele>
        <time>2012-06-08T15:11:22Z</time>
      </trkpt>
      <trkpt lat="41.605890" lon="-1.607979">
        <ele>592.261</ele>
        <time>2012-06-08T15:11:40Z</time>
      </trkpt>
      <trkpt lat="41.605578" lon="-1.606474">
        <ele>593.524</ele>
        <time>2012-06-08T15:12:11Z</time>
      </trkpt>
      <trkpt lat="41.605276" lon="-1.605939">
        <ele>588.486</ele>
        <time>2012-06-08T15:12:21Z</time>
      </trkpt>
      <trkpt lat="41.604597" lon="-1.605611">
        <ele>588.867</ele>
        <time>2012-06-08T15:12:38Z</time>
      </trkpt>
      <trkpt lat="41.603310" lon="-1.605621">
        <ele>589.790</ele>
        <time>2012-06-08T15:14:30Z</time>
      </trkpt>
      <trkpt lat="41.602791" lon="-1.605926">
        <ele>573.743</ele>
        <time>2012-06-08T15:14:39Z</time>
      </trkpt>
      <trkpt lat="41.601767" lon="-1.605982">
        <ele>585.896</ele>
        <time>2012-06-08T15:15:00Z</time>
      </trkpt>
      <trkpt lat="41.600476" lon="-1.605268">
        <ele>580.031</ele>
        <time>2012-06-08T15:15:30Z</time>
      </trkpt>
      <trkpt lat="41.599298" lon="-1.605508">
        <ele>589.124</ele>
        <time>2012-06-08T15:15:57Z</time>
      </trkpt>
      <trkpt lat="41.598635" lon="-1.606028">
        <ele>591.207</ele>
        <time>2012-06-08T15:16:24Z</time>
      </trkpt>
      <trkpt lat="41.598686" lon="-1.606183">
        <ele>593.962</ele>
        <time>2012-06-08T15:33:11Z</time>
      </trkpt>
      <trkpt lat="41.597636" lon="-1.608355">
        <ele>603.829</ele>
        <time>2012-06-08T15:34:11Z</time>
      </trkpt>
      <trkpt lat="41.597429" lon="-1.609344">
        <ele>609.252</ele>
        <time>2012-06-08T15:34:36Z</time>
      </trkpt>
      <trkpt lat="41.596421" lon="-1.610531">
        <ele>613.224</ele>
        <time>2012-06-08T15:35:20Z</time>
      </trkpt>
      <trkpt lat="41.595984" lon="-1.610620">
        <ele>613.735</ele>
        <time>2012-06-08T15:35:34Z</time>
      </trkpt>
      <trkpt lat="41.595710" lon="-1.610425">
        <ele>615.938</ele>
        <time>2012-06-08T15:35:45Z</time>
      </trkpt>
      <trkpt lat="41.595659" lon="-1.609705">
        <ele>626.271</ele>
        <time>2012-06-08T15:36:04Z</time>
      </trkpt>
      <trkpt lat="41.596025" lon="-1.608854">
        <ele>624.665</ele>
        <time>2012-06-08T15:36:30Z</time>
      </trkpt>
      <trkpt lat="41.596474" lon="-1.608455">
        <ele>620.368</ele>
        <time>2012-06-08T15:36:50Z</time>
      </trkpt>
      <trkpt lat="41.596711" lon="-1.607684">
        <ele>624.114</ele>
        <time>2012-06-08T15:37:14Z</time>
      </trkpt>
      <trkpt lat="41.596128" lon="-1.606077">
        <ele>637.807</ele>
        <time>2012-06-08T15:38:05Z</time>
      </trkpt>
      <trkpt lat="41.595322" lon="-1.605818">
        <ele>645.819</ele>
        <time>2012-06-08T15:38:36Z</time>
      </trkpt>
      <trkpt lat="41.594244" lon="-1.606924">
        <ele>654.146</ele>
        <time>2012-06-08T15:39:24Z</time>
      </trkpt>
      <trkpt lat="41.593873" lon="-1.606934">
        <ele>654.479</ele>
        <time>2012-06-08T15:39:37Z</time>
      </trkpt>
      <trkpt lat="41.593568" lon="-1.607211">
        <ele>662.231</ele>
        <time>2012-06-08T15:39:50Z</time>
      </trkpt>
      <trkpt lat="41.593206" lon="-1.607916">
        <ele>665.552</ele>
        <time>2012-06-08T15:40:15Z</time>
      </trkpt>
      <trkpt lat="41.592816" lon="-1.606741">
        <ele>659.985</ele>
        <time>2012-06-08T15:40:52Z</time>
      </trkpt>
      <trkpt lat="41.592648" lon="-1.606553">
        <ele>661.918</ele>
        <time>2012-06-08T15:41:00Z</time>
      </trkpt>
      <trkpt lat="41.592405" lon="-1.606684">
        <ele>668.744</ele>
        <time>2012-06-08T15:41:10Z</time>
      </trkpt>
      <trkpt lat="41.591818" lon="-1.608042">
        <ele>673.305</ele>
        <time>2012-06-08T15:41:47Z</time>
      </trkpt>
      <trkpt lat="41.591522" lon="-1.609613">
        <ele>670.915</ele>
        <time>2012-06-08T15:42:07Z</time>
      </trkpt>
      <trkpt lat="41.590799" lon="-1.610782">
        <ele>670.007</ele>
        <time>2012-06-08T15:42:22Z</time>
      </trkpt>
      <trkpt lat="41.589601" lon="-1.611674">
        <ele>665.617</ele>
        <time>2012-06-08T15:42:41Z</time>
      </trkpt>
      <trkpt lat="41.588730" lon="-1.613570">
        <ele>665.974</ele>
        <time>2012-06-08T15:43:08Z</time>
      </trkpt>
      <trkpt lat="41.586922" lon="-1.614795">
        <ele>669.597</ele>
        <time>2012-06-08T15:43:47Z</time>
      </trkpt>
      <trkpt lat="41.586619" lon="-1.615722">
        <ele>670.259</ele>
        <time>2012-06-08T15:44:02Z</time>
      </trkpt>
      <trkpt lat="41.586670" lon="-1.618143">
        <ele>681.430</ele>
        <time>2012-06-08T15:44:57Z</time>
      </trkpt>
      <trkpt lat="41.586368" lon="-1.618813">
        <ele>679.713</ele>
        <time>2012-06-08T15:45:13Z</time>
      </trkpt>
      <trkpt lat="41.585282" lon="-1.619545">
        <ele>687.926</ele>
        <time>2012-06-08T15:45:51Z</time>
      </trkpt>
      <trkpt lat="41.584124" lon="-1.620028">
        <ele>693.522</ele>
        <time>2012-06-08T15:46:30Z</time>
      </trkpt>
      <trkpt lat="41.583792" lon="-1.620992">
        <ele>695.362</ele>
        <time>2012-06-08T15:46:55Z</time>
      </trkpt>
      <trkpt lat="41.583343" lon="-1.621340">
        <ele>696.708</ele>
        <time>2012-06-08T15:47:11Z</time>
      </trkpt>
      <trkpt lat="41.582309" lon="-1.621373">
        <ele>704.307</ele>
        <time>2012-06-08T15:47:42Z</time>
      </trkpt>
      <trkpt lat="41.581327" lon="-1.621789">
        <ele>705.775</ele>
        <time>2012-06-08T15:48:12Z</time>
      </trkpt>
      <trkpt lat="41.579630" lon="-1.622997">
        <ele>701.572</ele>
        <time>2012-06-08T15:48:58Z</time>
      </trkpt>
      <trkpt lat="41.579479" lon="-1.623859">
        <ele>701.685</ele>
        <time>2012-06-08T15:49:08Z</time>
      </trkpt>
      <trkpt lat="41.579185" lon="-1.624426">
        <ele>698.167</ele>
        <time>2012-06-08T15:49:15Z</time>
      </trkpt>
      <trkpt lat="41.577234" lon="-1.625012">
        <ele>702.048</ele>
        <time>2012-06-08T15:49:57Z</time>
      </trkpt>
      <trkpt lat="41.573449" lon="-1.625368">
        <ele>711.631</ele>
        <time>2012-06-08T15:51:21Z</time>
      </trkpt>
      <trkpt lat="41.572331" lon="-1.624930">
        <ele>712.184</ele>
        <time>2012-06-08T15:51:43Z</time>
      </trkpt>
      <trkpt lat="41.571821" lon="-1.624948">
        <ele>713.111</ele>
        <time>2012-06-08T15:51:55Z</time>
      </trkpt>
      <trkpt lat="41.569497" lon="-1.625643">
        <ele>716.521</ele>
        <time>2012-06-08T15:52:51Z</time>
      </trkpt>
      <trkpt lat="41.567516" lon="-1.626476">
        <ele>712.303</ele>
        <time>2012-06-08T15:53:21Z</time>
      </trkpt>
      <trkpt lat="41.566713" lon="-1.627189">
        <ele>710.807</ele>
        <time>2012-06-08T15:53:33Z</time>
      </trkpt>
      <trkpt lat="41.563633" lon="-1.628570">
        <ele>691.554</ele>
        <time>2012-06-08T15:54:04Z</time>
      </trkpt>
      <trkpt lat="41.562788" lon="-1.629552">
        <ele>687.611</ele>
        <time>2012-06-08T15:54:16Z</time>
      </trkpt>
      <trkpt lat="41.561908" lon="-1.629809">
        <ele>683.844</ele>
        <time>2012-06-08T15:54:25Z</time>
      </trkpt>
      <trkpt lat="41.559700" lon="-1.630049">
        <ele>677.186</ele>
        <time>2012-06-08T15:54:48Z</time>
      </trkpt>
      <trkpt lat="41.558774" lon="-1.629921">
        <ele>669.297</ele>
        <time>2012-06-08T15:55:03Z</time>
      </trkpt>
      <trkpt lat="41.557861" lon="-1.629012">
        <ele>663.760</ele>
        <time>2012-06-08T15:55:16Z</time>
      </trkpt>
      <trkpt lat="41.556895" lon="-1.627128">
        <ele>653.193</ele>
        <time>2012-06-08T15:55:44Z</time>
      </trkpt>
      <trkpt lat="41.556169" lon="-1.626054">
        <ele>649.716</ele>
        <time>2012-06-08T15:56:00Z</time>
      </trkpt>
      <trkpt lat="41.556116" lon="-1.624544">
        <ele>640.876</ele>
        <time>2012-06-08T15:56:14Z</time>
      </trkpt>
      <trkpt lat="41.555852" lon="-1.624033">
        <ele>636.013</ele>
        <time>2012-06-08T15:56:20Z</time>
      </trkpt>
      <trkpt lat="41.554718" lon="-1.624280">
        <ele>633.207</ele>
        <time>2012-06-08T15:56:45Z</time>
      </trkpt>
      <trkpt lat="41.554727" lon="-1.624064">
        <ele>635.954</ele>
        <time>2012-06-08T16:05:39Z</time>
      </trkpt>
      <trkpt lat="41.554488" lon="-1.624331">
        <ele>631.641</ele>
        <time>2012-06-08T16:09:39Z</time>
      </trkpt>
      <trkpt lat="41.553832" lon="-1.625934">
        <ele>629.784</ele>
        <time>2012-06-08T16:10:00Z</time>
      </trkpt>
      <trkpt lat="41.552781" lon="-1.626609">
        <ele>621.366</ele>
        <time>2012-06-08T16:10:13Z</time>
      </trkpt>
      <trkpt lat="41.552128" lon="-1.627282">
        <ele>612.867</ele>
        <time>2012-06-08T16:10:22Z</time>
      </trkpt>
      <trkpt lat="41.551122" lon="-1.627549">
        <ele>613.050</ele>
        <time>2012-06-08T16:10:33Z</time>
      </trkpt>
      <trkpt lat="41.550522" lon="-1.627472">
        <ele>610.383</ele>
        <time>2012-06-08T16:10:39Z</time>
      </trkpt>
      <trkpt lat="41.549731" lon="-1.627658">
        <ele>610.213</ele>
        <time>2012-06-08T16:10:47Z</time>
      </trkpt>
      <trkpt lat="41.548838" lon="-1.627272">
        <ele>607.443</ele>
        <time>2012-06-08T16:10:57Z</time>
      </trkpt>
      <trkpt lat="41.548065" lon="-1.627723">
        <ele>595.807</ele>
        <time>2012-06-08T16:11:06Z</time>
      </trkpt>
      <trkpt lat="41.547177" lon="-1.627898">
        <ele>599.207</ele>
        <time>2012-06-08T16:11:16Z</time>
      </trkpt>
      <trkpt lat="41.546922" lon="-1.628883">
        <ele>592.374</ele>
        <time>2012-06-08T16:11:25Z</time>
      </trkpt>
      <trkpt lat="41.545860" lon="-1.629844">
        <ele>599.821</ele>
        <time>2012-06-08T16:11:41Z</time>
      </trkpt>
      <trkpt lat="41.545335" lon="-1.630874">
        <ele>586.434</ele>
        <time>2012-06-08T16:11:53Z</time>
      </trkpt>
      <trkpt lat="41.544129" lon="-1.631940">
        <ele>583.846</ele>
        <time>2012-06-08T16:12:35Z</time>
      </trkpt>
      <trkpt lat="41.543039" lon="-1.631561">
        <ele>585.527</ele>
        <time>2012-06-08T16:12:54Z</time>
      </trkpt>
      <trkpt lat="41.541747" lon="-1.631716">
        <ele>583.310</ele>
        <time>2012-06-08T16:13:09Z</time>
      </trkpt>
      <trkpt lat="41.540848" lon="-1.631251">
        <ele>585.043</ele>
        <time>2012-06-08T16:13:22Z</time>
      </trkpt>
      <trkpt lat="41.540080" lon="-1.631332">
        <ele>587.664</ele>
        <time>2012-06-08T16:13:33Z</time>
      </trkpt>
      <trkpt lat="41.538158" lon="-1.632128">
        <ele>580.506</ele>
        <time>2012-06-08T16:14:18Z</time>
      </trkpt>
      <trkpt lat="41.537673" lon="-1.631701">
        <ele>580.616</ele>
        <time>2012-06-08T16:14:42Z</time>
      </trkpt>
      <trkpt lat="41.537511" lon="-1.631324">
        <ele>578.307</ele>
        <time>2012-06-08T16:14:52Z</time>
      </trkpt>
      <trkpt lat="41.537157" lon="-1.628786">
        <ele>579.039</ele>
        <time>2012-06-08T16:17:45Z</time>
      </trkpt>
      <trkpt lat="41.537225" lon="-1.629053">
        <ele>545.727</ele>
        <time>2012-06-09T05:46:12Z</time>
      </trkpt>
      <trkpt lat="41.537055" lon="-1.628820">
        <ele>560.168</ele>
        <time>2012-06-09T05:46:25Z</time>
      </trkpt>
      <trkpt lat="41.535999" lon="-1.629541">
        <ele>569.214</ele>
        <time>2012-06-09T05:46:55Z</time>
      </trkpt>
      <trkpt lat="41.535821" lon="-1.629993">
        <ele>567.807</ele>
        <time>2012-06-09T05:47:53Z</time>
      </trkpt>
      <trkpt lat="41.535962" lon="-1.630536">
        <ele>566.865</ele>
        <time>2012-06-09T05:48:48Z</time>
      </trkpt>
      <trkpt lat="41.535388" lon="-1.631246">
        <ele>567.342</ele>
        <time>2012-06-09T05:50:50Z</time>
      </trkpt>
      <trkpt lat="41.534907" lon="-1.632780">
        <ele>577.945</ele>
        <time>2012-06-09T05:51:48Z</time>
      </trkpt>
      <trkpt lat="41.532887" lon="-1.633542">
        <ele>584.687</ele>
        <time>2012-06-09T05:52:57Z</time>
      </trkpt>
      <trkpt lat="41.532183" lon="-1.633099">
        <ele>588.521</ele>
        <time>2012-06-09T05:53:27Z</time>
      </trkpt>
      <trkpt lat="41.529233" lon="-1.633364">
        <ele>623.141</ele>
        <time>2012-06-09T05:58:57Z</time>
      </trkpt>
      <trkpt lat="41.528895" lon="-1.634075">
        <ele>630.895</ele>
        <time>2012-06-09T05:59:35Z</time>
      </trkpt>
      <trkpt lat="41.528005" lon="-1.634884">
        <ele>640.473</ele>
        <time>2012-06-09T06:00:35Z</time>
      </trkpt>
      <trkpt lat="41.526633" lon="-1.637339">
        <ele>646.685</ele>
        <time>2012-06-09T06:01:49Z</time>
      </trkpt>
      <trkpt lat="41.524880" lon="-1.638595">
        <ele>663.913</ele>
        <time>2012-06-09T06:03:28Z</time>
      </trkpt>
      <trkpt lat="41.523226" lon="-1.640656">
        <ele>684.107</ele>
        <time>2012-06-09T06:05:29Z</time>
      </trkpt>
      <trkpt lat="41.521894" lon="-1.641798">
        <ele>698.170</ele>
        <time>2012-06-09T06:06:52Z</time>
      </trkpt>
      <trkpt lat="41.521130" lon="-1.642102">
        <ele>704.377</ele>
        <time>2012-06-09T06:07:33Z</time>
      </trkpt>
      <trkpt lat="41.519588" lon="-1.641938">
        <ele>723.520</ele>
        <time>2012-06-09T06:09:03Z</time>
      </trkpt>
      <trkpt lat="41.518851" lon="-1.642141">
        <ele>734.112</ele>
        <time>2012-06-09T06:09:50Z</time>
      </trkpt>
      <trkpt lat="41.517706" lon="-1.641841">
        <ele>742.366</ele>
        <time>2012-06-09T06:11:20Z</time>
      </trkpt>
      <trkpt lat="41.516288" lon="-1.642706">
        <ele>761.516</ele>
        <time>2012-06-09T06:13:40Z</time>
      </trkpt>
      <trkpt lat="41.513770" lon="-1.642540">
        <ele>796.660</ele>
        <time>2012-06-09T06:17:24Z</time>
      </trkpt>
      <trkpt lat="41.512850" lon="-1.643061">
        <ele>808.671</ele>
        <time>2012-06-09T06:19:04Z</time>
      </trkpt>
      <trkpt lat="41.512653" lon="-1.641049">
        <ele>810.541</ele>
        <time>2012-06-09T06:20:06Z</time>
      </trkpt>
      <trkpt lat="41.512049" lon="-1.640309">
        <ele>821.115</ele>
        <time>2012-06-09T06:20:59Z</time>
      </trkpt>
      <trkpt lat="41.512338" lon="-1.639181">
        <ele>820.607</ele>
        <time>2012-06-09T06:21:47Z</time>
      </trkpt>
      <trkpt lat="41.512388" lon="-1.637899">
        <ele>810.140</ele>
        <time>2012-06-09T06:24:11Z</time>
      </trkpt>
      <trkpt lat="41.511183" lon="-1.635938">
        <ele>814.917</ele>
        <time>2012-06-09T06:28:13Z</time>
      </trkpt>
      <trkpt lat="41.509771" lon="-1.634948">
        <ele>816.330</ele>
        <time>2012-06-09T06:29:50Z</time>
      </trkpt>
      <trkpt lat="41.508448" lon="-1.636263">
        <ele>814.422</ele>
        <time>2012-06-09T06:30:49Z</time>
      </trkpt>
      <trkpt lat="41.507850" lon="-1.638417">
        <ele>819.786</ele>
        <time>2012-06-09T06:31:47Z</time>
      </trkpt>
      <trkpt lat="41.507681" lon="-1.638402">
        <ele>820.156</ele>
        <time>2012-06-09T06:31:54Z</time>
      </trkpt>
      <trkpt lat="41.507331" lon="-1.637068">
        <ele>830.790</ele>
        <time>2012-06-09T06:32:51Z</time>
      </trkpt>
      <trkpt lat="41.507043" lon="-1.636617">
        <ele>837.095</ele>
        <time>2012-06-09T06:33:27Z</time>
      </trkpt>
      <trkpt lat="41.506834" lon="-1.637480">
        <ele>843.749</ele>
        <time>2012-06-09T06:34:20Z</time>
      </trkpt>
      <trkpt lat="41.504087" lon="-1.638598">
        <ele>825.023</ele>
        <time>2012-06-09T06:40:19Z</time>
      </trkpt>
      <trkpt lat="41.503194" lon="-1.638256">
        <ele>821.107</ele>
        <time>2012-06-09T06:41:00Z</time>
      </trkpt>
      <trkpt lat="41.504177" lon="-1.636956">
        <ele>800.932</ele>
        <time>2012-06-09T06:41:57Z</time>
      </trkpt>
      <trkpt lat="41.504656" lon="-1.635725">
        <ele>791.359</ele>
        <time>2012-06-09T06:42:42Z</time>
      </trkpt>
      <trkpt lat="41.506011" lon="-1.633279">
        <ele>778.372</ele>
        <time>2012-06-09T06:43:36Z</time>
      </trkpt>
      <trkpt lat="41.506014" lon="-1.631691">
        <ele>768.254</ele>
        <time>2012-06-09T06:46:57Z</time>
      </trkpt>
      <trkpt lat="41.505492" lon="-1.630839">
        <ele>757.798</ele>
        <time>2012-06-09T06:52:04Z</time>
      </trkpt>
      <trkpt lat="41.503985" lon="-1.629694">
        <ele>750.068</ele>
        <time>2012-06-09T06:52:40Z</time>
      </trkpt>
      <trkpt lat="41.504478" lon="-1.628125">
        <ele>734.152</ele>
        <time>2012-06-09T06:53:19Z</time>
      </trkpt>
      <trkpt lat="41.504032" lon="-1.626108">
        <ele>714.963</ele>
        <time>2012-06-09T06:54:17Z</time>
      </trkpt>
      <trkpt lat="41.503707" lon="-1.625849">
        <ele>713.044</ele>
        <time>2012-06-09T06:54:38Z</time>
      </trkpt>
      <trkpt lat="41.503375" lon="-1.624954">
        <ele>707.218</ele>
        <time>2012-06-09T06:55:01Z</time>
      </trkpt>
      <trkpt lat="41.502972" lon="-1.624821">
        <ele>706.707</ele>
        <time>2012-06-09T06:55:19Z</time>
      </trkpt>
      <trkpt lat="41.501365" lon="-1.623299">
        <ele>703.319</ele>
        <time>2012-06-09T06:56:00Z</time>
      </trkpt>
      <trkpt lat="41.501038" lon="-1.622727">
        <ele>704.816</ele>
        <time>2012-06-09T06:56:13Z</time>
      </trkpt>
      <trkpt lat="41.498432" lon="-1.622004">
        <ele>704.359</ele>
        <time>2012-06-09T06:57:19Z</time>
      </trkpt>
      <trkpt lat="41.496169" lon="-1.622327">
        <ele>698.131</ele>
        <time>2012-06-09T06:58:47Z</time>
      </trkpt>
      <trkpt lat="41.495235" lon="-1.621944">
        <ele>706.795</ele>
        <time>2012-06-09T06:59:26Z</time>
      </trkpt>
      <trkpt lat="41.493085" lon="-1.622774">
        <ele>700.535</ele>
        <time>2012-06-09T07:00:17Z</time>
      </trkpt>
      <trkpt lat="41.491214" lon="-1.622910">
        <ele>685.659</ele>
        <time>2012-06-09T07:00:57Z</time>
      </trkpt>
      <trkpt lat="41.489919" lon="-1.623694">
        <ele>667.872</ele>
        <time>2012-06-09T07:02:06Z</time>
      </trkpt>
      <trkpt lat="41.487715" lon="-1.626883">
        <ele>680.813</ele>
        <time>2012-06-09T07:04:21Z</time>
      </trkpt>
      <trkpt lat="41.487319" lon="-1.627739">
        <ele>683.614</ele>
        <time>2012-06-09T07:04:50Z</time>
      </trkpt>
      <trkpt lat="41.486330" lon="-1.628774">
        <ele>681.207</ele>
        <time>2012-06-09T07:05:45Z</time>
      </trkpt>
      <trkpt lat="41.484914" lon="-1.632130">
        <ele>718.220</ele>
        <time>2012-06-09T07:09:32Z</time>
      </trkpt>
      <trkpt lat="41.484876" lon="-1.632742">
        <ele>725.097</ele>
        <time>2012-06-09T07:10:10Z</time>
      </trkpt>
      <trkpt lat="41.484289" lon="-1.633417">
        <ele>738.050</ele>
        <time>2012-06-09T07:12:08Z</time>
      </trkpt>
      <trkpt lat="41.484586" lon="-1.632659">
        <ele>740.812</ele>
        <time>2012-06-09T07:22:11Z</time>
      </trkpt>
      <trkpt lat="41.483572" lon="-1.630947">
        <ele>762.536</ele>
        <time>2012-06-09T07:24:58Z</time>
      </trkpt>
      <trkpt lat="41.483565" lon="-1.631441">
        <ele>765.826</ele>
        <time>2012-06-09T07:25:25Z</time>
      </trkpt>
      <trkpt lat="41.483373" lon="-1.631014">
        <ele>771.150</ele>
        <time>2012-06-09T07:25:55Z</time>
      </trkpt>
      <trkpt lat="41.483593" lon="-1.630721">
        <ele>770.246</ele>
        <time>2012-06-09T07:26:07Z</time>
      </trkpt>
      <trkpt lat="41.483980" lon="-1.630694">
        <ele>769.788</ele>
        <time>2012-06-09T07:26:24Z</time>
      </trkpt>
      <trkpt lat="41.483541" lon="-1.630560">
        <ele>775.416</ele>
        <time>2012-06-09T07:26:47Z</time>
      </trkpt>
      <trkpt lat="41.483274" lon="-1.630730">
        <ele>779.307</ele>
        <time>2012-06-09T07:27:32Z</time>
      </trkpt>
      <trkpt lat="41.483220" lon="-1.631423">
        <ele>782.227</ele>
        <time>2012-06-09T07:27:56Z</time>
      </trkpt>
      <trkpt lat="41.483672" lon="-1.632590">
        <ele>789.484</ele>
        <time>2012-06-09T07:28:36Z</time>
      </trkpt>
      <trkpt lat="41.483251" lon="-1.633231">
        <ele>795.677</ele>
        <time>2012-06-09T07:29:10Z</time>
      </trkpt>
      <trkpt lat="41.482378" lon="-1.632998">
        <ele>802.439</ele>
        <time>2012-06-09T07:29:50Z</time>
      </trkpt>
      <trkpt lat="41.480747" lon="-1.634313">
        <ele>816.833</ele>
        <time>2012-06-09T07:31:17Z</time>
      </trkpt>
      <trkpt lat="41.480111" lon="-1.633776">
        <ele>822.123</ele>
        <time>2012-06-09T07:31:50Z</time>
      </trkpt>
      <trkpt lat="41.478404" lon="-1.634404">
        <ele>835.537</ele>
        <time>2012-06-09T07:33:11Z</time>
      </trkpt>
      <trkpt lat="41.475298" lon="-1.633955">
        <ele>858.137</ele>
        <time>2012-06-09T07:35:30Z</time>
      </trkpt>
      <trkpt lat="41.473855" lon="-1.635429">
        <ele>872.149</ele>
        <time>2012-06-09T07:36:55Z</time>
      </trkpt>
      <trkpt lat="41.472922" lon="-1.635780">
        <ele>878.313</ele>
        <time>2012-06-09T07:37:38Z</time>
      </trkpt>
      <trkpt lat="41.472718" lon="-1.636051">
        <ele>879.707</ele>
        <time>2012-06-09T07:37:51Z</time>
      </trkpt>
      <trkpt lat="41.472805" lon="-1.636318">
        <ele>881.716</ele>
        <time>2012-06-09T07:38:02Z</time>
      </trkpt>
      <trkpt lat="41.474054" lon="-1.636511">
        <ele>888.963</ele>
        <time>2012-06-09T07:38:56Z</time>
      </trkpt>
      <trkpt lat="41.474440" lon="-1.637107">
        <ele>894.216</ele>
        <time>2012-06-09T07:40:02Z</time>
      </trkpt>
      <trkpt lat="41.474753" lon="-1.637205">
        <ele>899.588</ele>
        <time>2012-06-09T07:41:01Z</time>
      </trkpt>
      <trkpt lat="41.474340" lon="-1.638349">
        <ele>908.172</ele>
        <time>2012-06-09T07:45:26Z</time>
      </trkpt>
      <trkpt lat="41.475125" lon="-1.638971">
        <ele>911.022</ele>
        <time>2012-06-09T07:46:15Z</time>
      </trkpt>
      <trkpt lat="41.475278" lon="-1.639857">
        <ele>918.756</ele>
        <time>2012-06-09T07:47:03Z</time>
      </trkpt>
      <trkpt lat="41.474520" lon="-1.640924">
        <ele>933.628</ele>
        <time>2012-06-09T07:48:23Z</time>
      </trkpt>
      <trkpt lat="41.475388" lon="-1.641983">
        <ele>944.689</ele>
        <time>2012-06-09T07:49:35Z</time>
      </trkpt>
      <trkpt lat="41.476960" lon="-1.645240">
        <ele>959.517</ele>
        <time>2012-06-09T07:53:36Z</time>
      </trkpt>
      <trkpt lat="41.477001" lon="-1.646292">
        <ele>971.107</ele>
        <time>2012-06-09T07:54:31Z</time>
      </trkpt>
      <trkpt lat="41.476617" lon="-1.648673">
        <ele>989.835</ele>
        <time>2012-06-09T07:56:29Z</time>
      </trkpt>
      <trkpt lat="41.476242" lon="-1.649804">
        <ele>995.682</ele>
        <time>2012-06-09T07:57:28Z</time>
      </trkpt>
      <trkpt lat="41.477579" lon="-1.650304">
        <ele>1007.135</ele>
        <time>2012-06-09T07:58:49Z</time>
      </trkpt>
      <trkpt lat="41.477845" lon="-1.650614">
        <ele>1013.447</ele>
        <time>2012-06-09T07:59:17Z</time>
      </trkpt>
      <trkpt lat="41.477353" lon="-1.650957">
        <ele>1019.111</ele>
        <time>2012-06-09T08:00:00Z</time>
      </trkpt>
      <trkpt lat="41.478507" lon="-1.654148">
        <ele>1048.531</ele>
        <time>2012-06-09T08:03:00Z</time>
      </trkpt>
      <trkpt lat="41.477001" lon="-1.652793">
        <ele>1048.555</ele>
        <time>2012-06-09T08:04:36Z</time>
      </trkpt>
      <trkpt lat="41.476215" lon="-1.652368">
        <ele>1047.594</ele>
        <time>2012-06-09T08:04:56Z</time>
      </trkpt>
      <trkpt lat="41.475594" lon="-1.652317">
        <ele>1048.957</ele>
        <time>2012-06-09T08:05:13Z</time>
      </trkpt>
      <trkpt lat="41.474474" lon="-1.651563">
        <ele>1054.722</ele>
        <time>2012-06-09T08:05:55Z</time>
      </trkpt>
      <trkpt lat="41.473317" lon="-1.650098">
        <ele>1059.007</ele>
        <time>2012-06-09T08:06:55Z</time>
      </trkpt>
      <trkpt lat="41.472501" lon="-1.648611">
        <ele>1075.442</ele>
        <time>2012-06-09T08:08:11Z</time>
      </trkpt>
      <trkpt lat="41.471809" lon="-1.647884">
        <ele>1084.559</ele>
        <time>2012-06-09T08:09:00Z</time>
      </trkpt>
      <trkpt lat="41.470317" lon="-1.647796">
        <ele>1100.422</ele>
        <time>2012-06-09T08:11:59Z</time>
      </trkpt>
      <trkpt lat="41.468972" lon="-1.646421">
        <ele>1111.494</ele>
        <time>2012-06-09T08:13:25Z</time>
      </trkpt>
      <trkpt lat="41.466587" lon="-1.646752">
        <ele>1120.128</ele>
        <time>2012-06-09T08:14:57Z</time>
      </trkpt>
      <trkpt lat="41.466462" lon="-1.647210">
        <ele>1118.298</ele>
        <time>2012-06-09T08:22:56Z</time>
      </trkpt>
      <trkpt lat="41.466161" lon="-1.647365">
        <ele>1113.832</ele>
        <time>2012-06-09T08:24:55Z</time>
      </trkpt>
      <trkpt lat="41.464528" lon="-1.650834">
        <ele>1084.583</ele>
        <time>2012-06-09T08:26:13Z</time>
      </trkpt>
      <trkpt lat="41.464207" lon="-1.652285">
        <ele>1081.125</ele>
        <time>2012-06-09T08:26:36Z</time>
      </trkpt>
      <trkpt lat="41.464499" lon="-1.654135">
        <ele>1069.617</ele>
        <time>2012-06-09T08:28:52Z</time>
      </trkpt>
      <trkpt lat="41.465318" lon="-1.656299">
        <ele>1059.507</ele>
        <time>2012-06-09T08:29:27Z</time>
      </trkpt>
      <trkpt lat="41.465382" lon="-1.658854">
        <ele>1040.361</ele>
        <time>2012-06-09T08:30:34Z</time>
      </trkpt>
      <trkpt lat="41.466137" lon="-1.658348">
        <ele>1030.798</ele>
        <time>2012-06-09T08:30:59Z</time>
      </trkpt>
      <trkpt lat="41.466399" lon="-1.658722">
        <ele>1023.971</ele>
        <time>2012-06-09T08:31:12Z</time>
      </trkpt>
      <trkpt lat="41.466217" lon="-1.662216">
        <ele>987.463</ele>
        <time>2012-06-09T08:33:14Z</time>
      </trkpt>
      <trkpt lat="41.465339" lon="-1.663599">
        <ele>980.237</ele>
        <time>2012-06-09T08:33:49Z</time>
      </trkpt>
      <trkpt lat="41.464057" lon="-1.664225">
        <ele>980.747</ele>
        <time>2012-06-09T08:34:17Z</time>
      </trkpt>
      <trkpt lat="41.463933" lon="-1.665318">
        <ele>976.841</ele>
        <time>2012-06-09T08:35:07Z</time>
      </trkpt>
      <trkpt lat="41.463415" lon="-1.665780">
        <ele>965.815</ele>
        <time>2012-06-09T08:35:41Z</time>
      </trkpt>
      <trkpt lat="41.461767" lon="-1.666086">
        <ele>947.565</ele>
        <time>2012-06-09T08:36:54Z</time>
      </trkpt>
      <trkpt lat="41.462091" lon="-1.666836">
        <ele>941.811</ele>
        <time>2012-06-09T08:37:22Z</time>
      </trkpt>
      <trkpt lat="41.461839" lon="-1.667895">
        <ele>942.707</ele>
        <time>2012-06-09T08:37:51Z</time>
      </trkpt>
      <trkpt lat="41.461421" lon="-1.668552">
        <ele>940.814</ele>
        <time>2012-06-09T08:38:07Z</time>
      </trkpt>
      <trkpt lat="41.460029" lon="-1.669308">
        <ele>924.521</ele>
        <time>2012-06-09T08:38:56Z</time>
      </trkpt>
      <trkpt lat="41.459423" lon="-1.670025">
        <ele>912.064</ele>
        <time>2012-06-09T08:39:31Z</time>
      </trkpt>
      <trkpt lat="41.457307" lon="-1.676380">
        <ele>872.566</ele>
        <time>2012-06-09T08:41:51Z</time>
      </trkpt>
      <trkpt lat="41.457236" lon="-1.675760">
        <ele>875.910</ele>
        <time>2012-06-09T08:42:21Z</time>
      </trkpt>
      <trkpt lat="41.456302" lon="-1.675191">
        <ele>892.750</ele>
        <time>2012-06-09T08:44:13Z</time>
      </trkpt>
      <trkpt lat="41.455950" lon="-1.674498">
        <ele>899.544</ele>
        <time>2012-06-09T08:45:07Z</time>
      </trkpt>
      <trkpt lat="41.455404" lon="-1.674055">
        <ele>903.854</ele>
        <time>2012-06-09T08:45:40Z</time>
      </trkpt>
      <trkpt lat="41.454967" lon="-1.674230">
        <ele>903.356</ele>
        <time>2012-06-09T08:45:55Z</time>
      </trkpt>
      <trkpt lat="41.454371" lon="-1.673880">
        <ele>904.311</ele>
        <time>2012-06-09T08:46:37Z</time>
      </trkpt>
      <trkpt lat="41.451963" lon="-1.674380">
        <ele>876.407</ele>
        <time>2012-06-09T08:47:24Z</time>
      </trkpt>
      <trkpt lat="41.450644" lon="-1.675145">
        <ele>866.818</ele>
        <time>2012-06-09T08:47:45Z</time>
      </trkpt>
      <trkpt lat="41.450019" lon="-1.676240">
        <ele>860.095</ele>
        <time>2012-06-09T08:48:02Z</time>
      </trkpt>
      <trkpt lat="41.449702" lon="-1.677579">
        <ele>849.918</ele>
        <time>2012-06-09T08:48:20Z</time>
      </trkpt>
      <trkpt lat="41.448805" lon="-1.678582">
        <ele>837.520</ele>
        <time>2012-06-09T08:48:39Z</time>
      </trkpt>
      <trkpt lat="41.446924" lon="-1.679281">
        <ele>825.424</ele>
        <time>2012-06-09T08:49:35Z</time>
      </trkpt>
      <trkpt lat="41.446066" lon="-1.680908">
        <ele>826.954</ele>
        <time>2012-06-09T08:50:16Z</time>
      </trkpt>
      <trkpt lat="41.444360" lon="-1.683087">
        <ele>816.398</ele>
        <time>2012-06-09T08:51:29Z</time>
      </trkpt>
      <trkpt lat="41.443826" lon="-1.684275">
        <ele>799.524</ele>
        <time>2012-06-09T08:52:01Z</time>
      </trkpt>
      <trkpt lat="41.442973" lon="-1.685526">
        <ele>792.304</ele>
        <time>2012-06-09T08:53:11Z</time>
      </trkpt>
      <trkpt lat="41.442671" lon="-1.686298">
        <ele>789.914</ele>
        <time>2012-06-09T08:53:24Z</time>
      </trkpt>
      <trkpt lat="41.441748" lon="-1.687426">
        <ele>778.807</ele>
        <time>2012-06-09T08:53:47Z</time>
      </trkpt>
      <trkpt lat="41.441334" lon="-1.688535">
        <ele>763.415</ele>
        <time>2012-06-09T08:54:14Z</time>
      </trkpt>
      <trkpt lat="41.440794" lon="-1.688716">
        <ele>755.762</ele>
        <time>2012-06-09T08:54:32Z</time>
      </trkpt>
      <trkpt lat="41.440096" lon="-1.688564">
        <ele>747.625</ele>
        <time>2012-06-09T08:54:50Z</time>
      </trkpt>
      <trkpt lat="41.439770" lon="-1.687917">
        <ele>745.217</ele>
        <time>2012-06-09T08:55:04Z</time>
      </trkpt>
      <trkpt lat="41.439479" lon="-1.687814">
        <ele>742.821</ele>
        <time>2012-06-09T08:55:10Z</time>
      </trkpt>
      <trkpt lat="41.437694" lon="-1.688268">
        <ele>729.811</ele>
        <time>2012-06-09T08:55:54Z</time>
      </trkpt>
      <trkpt lat="41.436247" lon="-1.687471">
        <ele>725.055</ele>
        <time>2012-06-09T08:56:22Z</time>
      </trkpt>
      <trkpt lat="41.436170" lon="-1.687147">
        <ele>724.031</ele>
        <time>2012-06-09T08:56:28Z</time>
      </trkpt>
      <trkpt lat="41.436458" lon="-1.685962">
        <ele>718.761</ele>
        <time>2012-06-09T08:56:49Z</time>
      </trkpt>
      <trkpt lat="41.435701" lon="-1.685047">
        <ele>714.407</ele>
        <time>2012-06-09T08:57:06Z</time>
      </trkpt>
      <trkpt lat="41.434473" lon="-1.684443">
        <ele>706.707</ele>
        <time>2012-06-09T08:57:30Z</time>
      </trkpt>
      <trkpt lat="41.433805" lon="-1.684376">
        <ele>702.956</ele>
        <time>2012-06-09T08:57:42Z</time>
      </trkpt>
      <trkpt lat="41.433085" lon="-1.683751">
        <ele>698.533</ele>
        <time>2012-06-09T08:57:57Z</time>
      </trkpt>
      <trkpt lat="41.432269" lon="-1.683390">
        <ele>694.276</ele>
        <time>2012-06-09T08:58:13Z</time>
      </trkpt>
      <trkpt lat="41.431410" lon="-1.683501">
        <ele>690.818</ele>
        <time>2012-06-09T08:58:30Z</time>
      </trkpt>
      <trkpt lat="41.430099" lon="-1.684420">
        <ele>687.542</ele>
        <time>2012-06-09T08:58:57Z</time>
      </trkpt>
      <trkpt lat="41.429511" lon="-1.684448">
        <ele>685.192</ele>
        <time>2012-06-09T08:59:08Z</time>
      </trkpt>
      <trkpt lat="41.428680" lon="-1.683978">
        <ele>679.896</ele>
        <time>2012-06-09T08:59:22Z</time>
      </trkpt>
      <trkpt lat="41.426579" lon="-1.684026">
        <ele>669.794</ele>
        <time>2012-06-09T08:59:58Z</time>
      </trkpt>
      <trkpt lat="41.424140" lon="-1.685607">
        <ele>663.557</ele>
        <time>2012-06-09T09:09:08Z</time>
      </trkpt>
      <trkpt lat="41.422983" lon="-1.685684">
        <ele>664.422</ele>
        <time>2012-06-09T09:09:32Z</time>
      </trkpt>
      <trkpt lat="41.422550" lon="-1.685396">
        <ele>662.507</ele>
        <time>2012-06-09T09:09:42Z</time>
      </trkpt>
      <trkpt lat="41.422063" lon="-1.685587">
        <ele>661.072</ele>
        <time>2012-06-09T09:09:53Z</time>
      </trkpt>
      <trkpt lat="41.419408" lon="-1.683675">
        <ele>654.899</ele>
        <time>2012-06-09T09:11:31Z</time>
      </trkpt>
      <trkpt lat="41.419235" lon="-1.683726">
        <ele>655.832</ele>
        <time>2012-06-09T09:11:41Z</time>
      </trkpt>
      <trkpt lat="41.419170" lon="-1.684149">
        <ele>656.764</ele>
        <time>2012-06-09T09:12:03Z</time>
      </trkpt>
      <trkpt lat="41.418776" lon="-1.683799">
        <ele>653.498</ele>
        <time>2012-06-09T09:12:32Z</time>
      </trkpt>
      <trkpt lat="41.418739" lon="-1.684132">
        <ele>652.418</ele>
        <time>2012-06-09T09:13:11Z</time>
      </trkpt>
      <trkpt lat="41.418184" lon="-1.684383">
        <ele>651.052</ele>
        <time>2012-06-09T09:13:36Z</time>
      </trkpt>
      <trkpt lat="41.417582" lon="-1.684249">
        <ele>647.155</ele>
        <time>2012-06-09T09:16:31Z</time>
      </trkpt>
      <trkpt lat="41.417477" lon="-1.683795">
        <ele>646.607</ele>
        <time>2012-06-09T09:24:36Z</time>
      </trkpt>
      <trkpt lat="41.417683" lon="-1.683950">
        <ele>656.217</ele>
        <time>2012-06-09T09:55:58Z</time>
      </trkpt>
      <trkpt lat="41.417807" lon="-1.683721">
        <ele>658.607</ele>
        <time>2012-06-09T10:01:04Z</time>
      </trkpt>
      <trkpt lat="41.417662" lon="-1.683204">
        <ele>655.338</ele>
        <time>2012-06-09T10:01:27Z</time>
      </trkpt>
      <trkpt lat="41.418421" lon="-1.682666">
        <ele>654.815</ele>
        <time>2012-06-09T10:02:31Z</time>
      </trkpt>
      <trkpt lat="41.418228" lon="-1.680800">
        <ele>647.638</ele>
        <time>2012-06-09T10:03:26Z</time>
      </trkpt>
      <trkpt lat="41.418886" lon="-1.679897">
        <ele>650.510</ele>
        <time>2012-06-09T10:05:37Z</time>
      </trkpt>
      <trkpt lat="41.420996" lon="-1.679073">
        <ele>661.074</ele>
        <time>2012-06-09T10:08:05Z</time>
      </trkpt>
      <trkpt lat="41.419910" lon="-1.678209">
        <ele>664.424</ele>
        <time>2012-06-09T10:08:46Z</time>
      </trkpt>
      <trkpt lat="41.418781" lon="-1.676916">
        <ele>675.548</ele>
        <time>2012-06-09T10:09:48Z</time>
      </trkpt>
      <trkpt lat="41.418387" lon="-1.676705">
        <ele>673.128</ele>
        <time>2012-06-09T10:11:21Z</time>
      </trkpt>
      <trkpt lat="41.416677" lon="-1.674186">
        <ele>656.289</ele>
        <time>2012-06-09T10:14:10Z</time>
      </trkpt>
      <trkpt lat="41.415081" lon="-1.672895">
        <ele>645.217</ele>
        <time>2012-06-09T10:14:36Z</time>
      </trkpt>
      <trkpt lat="41.414808" lon="-1.671997">
        <ele>641.807</ele>
        <time>2012-06-09T10:14:51Z</time>
      </trkpt>
      <trkpt lat="41.412811" lon="-1.671117">
        <ele>639.985</ele>
        <time>2012-06-09T10:15:35Z</time>
      </trkpt>
      <trkpt lat="41.411973" lon="-1.671178">
        <ele>635.662</ele>
        <time>2012-06-09T10:15:52Z</time>
      </trkpt>
      <trkpt lat="41.412078" lon="-1.670899">
        <ele>633.755</ele>
        <time>2012-06-09T10:16:03Z</time>
      </trkpt>
      <trkpt lat="41.412546" lon="-1.670741">
        <ele>633.287</ele>
        <time>2012-06-09T10:16:15Z</time>
      </trkpt>
      <trkpt lat="41.412854" lon="-1.668403">
        <ele>644.751</ele>
        <time>2012-06-09T10:17:24Z</time>
      </trkpt>
      <trkpt lat="41.412598" lon="-1.665567">
        <ele>647.641</ele>
        <time>2012-06-09T10:18:32Z</time>
      </trkpt>
      <trkpt lat="41.412318" lon="-1.664656">
        <ele>645.225</ele>
        <time>2012-06-09T10:18:44Z</time>
      </trkpt>
      <trkpt lat="41.412416" lon="-1.663809">
        <ele>641.359</ele>
        <time>2012-06-09T10:18:59Z</time>
      </trkpt>
      <trkpt lat="41.412173" lon="-1.663563">
        <ele>645.203</ele>
        <time>2012-06-09T10:19:13Z</time>
      </trkpt>
      <trkpt lat="41.412144" lon="-1.662681">
        <ele>647.123</ele>
        <time>2012-06-09T10:19:34Z</time>
      </trkpt>
      <trkpt lat="41.411650" lon="-1.662027">
        <ele>645.707</ele>
        <time>2012-06-09T10:19:49Z</time>
      </trkpt>
      <trkpt lat="41.411593" lon="-1.661408">
        <ele>645.718</ele>
        <time>2012-06-09T10:19:59Z</time>
      </trkpt>
      <trkpt lat="41.410720" lon="-1.660474">
        <ele>645.795</ele>
        <time>2012-06-09T10:20:24Z</time>
      </trkpt>
      <trkpt lat="41.410164" lon="-1.659097">
        <ele>644.278</ele>
        <time>2012-06-09T10:20:51Z</time>
      </trkpt>
      <trkpt lat="41.409198" lon="-1.659218">
        <ele>638.050</ele>
        <time>2012-06-09T10:21:21Z</time>
      </trkpt>
      <trkpt lat="41.407815" lon="-1.658342">
        <ele>627.934</ele>
        <time>2012-06-09T10:21:45Z</time>
      </trkpt>
      <trkpt lat="41.407079" lon="-1.658131">
        <ele>623.654</ele>
        <time>2012-06-09T10:21:57Z</time>
      </trkpt>
      <trkpt lat="41.406777" lon="-1.657707">
        <ele>620.738</ele>
        <time>2012-06-09T10:22:04Z</time>
      </trkpt>
      <trkpt lat="41.404957" lon="-1.656858">
        <ele>611.113</ele>
        <time>2012-06-09T10:22:36Z</time>
      </trkpt>
      <trkpt lat="41.404100" lon="-1.656997">
        <ele>612.543</ele>
        <time>2012-06-09T10:22:57Z</time>
      </trkpt>
      <trkpt lat="41.403170" lon="-1.656418">
        <ele>610.607</ele>
        <time>2012-06-09T10:23:20Z</time>
      </trkpt>
      <trkpt lat="41.402252" lon="-1.656442">
        <ele>605.307</ele>
        <time>2012-06-09T10:23:38Z</time>
      </trkpt>
      <trkpt lat="41.400028" lon="-1.656997">
        <ele>596.634</ele>
        <time>2012-06-09T10:24:13Z</time>
      </trkpt>
      <trkpt lat="41.399533" lon="-1.657792">
        <ele>591.451</ele>
        <time>2012-06-09T10:24:31Z</time>
      </trkpt>
      <trkpt lat="41.398770" lon="-1.658252">
        <ele>581.724</ele>
        <time>2012-06-09T10:25:03Z</time>
      </trkpt>
      <trkpt lat="41.396613" lon="-1.655681">
        <ele>573.696</ele>
        <time>2012-06-09T10:26:22Z</time>
      </trkpt>
      <trkpt lat="41.394799" lon="-1.654542">
        <ele>572.120</ele>
        <time>2012-06-09T10:27:15Z</time>
      </trkpt>
      <trkpt lat="41.394646" lon="-1.653886">
        <ele>571.250</ele>
        <time>2012-06-09T10:27:27Z</time>
      </trkpt>
      <trkpt lat="41.393396" lon="-1.652545">
        <ele>569.234</ele>
        <time>2012-06-09T10:28:01Z</time>
      </trkpt>
      <trkpt lat="41.392285" lon="-1.650188">
        <ele>568.397</ele>
        <time>2012-06-09T10:28:46Z</time>
      </trkpt>
      <trkpt lat="41.390514" lon="-1.651291">
        <ele>560.623</ele>
        <time>2012-06-09T10:29:22Z</time>
      </trkpt>
      <trkpt lat="41.388578" lon="-1.648560">
        <ele>556.325</ele>
        <time>2012-06-09T10:30:21Z</time>
      </trkpt>
      <trkpt lat="41.387920" lon="-1.646204">
        <ele>551.907</ele>
        <time>2012-06-09T10:31:00Z</time>
      </trkpt>
      <trkpt lat="41.387425" lon="-1.645464">
        <ele>552.482</ele>
        <time>2012-06-09T10:31:24Z</time>
      </trkpt>
      <trkpt lat="41.386547" lon="-1.642376">
        <ele>550.529</ele>
        <time>2012-06-09T10:32:17Z</time>
      </trkpt>
      <trkpt lat="41.386137" lon="-1.642435">
        <ele>550.562</ele>
        <time>2012-06-09T10:32:29Z</time>
      </trkpt>
      <trkpt lat="41.384994" lon="-1.643828">
        <ele>553.494</ele>
        <time>2012-06-09T10:33:20Z</time>
      </trkpt>
      <trkpt lat="41.384035" lon="-1.644547">
        <ele>554.898</ele>
        <time>2012-06-09T10:33:58Z</time>
      </trkpt>
      <trkpt lat="41.383887" lon="-1.644934">
        <ele>556.388</ele>
        <time>2012-06-09T10:35:48Z</time>
      </trkpt>
      <trkpt lat="41.383012" lon="-1.645021">
        <ele>559.122</ele>
        <time>2012-06-09T10:36:19Z</time>
      </trkpt>
      <trkpt lat="41.378929" lon="-1.643925">
        <ele>573.156</ele>
        <time>2012-06-09T10:38:38Z</time>
      </trkpt>
      <trkpt lat="41.376851" lon="-1.644026">
        <ele>577.459</ele>
        <time>2012-06-09T10:39:33Z</time>
      </trkpt>
      <trkpt lat="41.376192" lon="-1.644300">
        <ele>577.914</ele>
        <time>2012-06-09T10:39:56Z</time>
      </trkpt>
      <trkpt lat="41.374411" lon="-1.645816">
        <ele>586.507</ele>
        <time>2012-06-09T10:41:04Z</time>
      </trkpt>
      <trkpt lat="41.372856" lon="-1.646165">
        <ele>599.568</ele>
        <time>2012-06-09T10:42:27Z</time>
      </trkpt>
      <trkpt lat="41.370782" lon="-1.647384">
        <ele>595.765</ele>
        <time>2012-06-09T10:43:08Z</time>
      </trkpt>
      <trkpt lat="41.370016" lon="-1.648094">
        <ele>599.038</ele>
        <time>2012-06-09T10:43:35Z</time>
      </trkpt>
      <trkpt lat="41.369519" lon="-1.648239">
        <ele>599.060</ele>
        <time>2012-06-09T10:43:50Z</time>
      </trkpt>
      <trkpt lat="41.368580" lon="-1.647731">
        <ele>600.014</ele>
        <time>2012-06-09T10:44:18Z</time>
      </trkpt>
      <trkpt lat="41.367751" lon="-1.647730">
        <ele>601.994</ele>
        <time>2012-06-09T10:44:42Z</time>
      </trkpt>
      <trkpt lat="41.364914" lon="-1.648656">
        <ele>614.948</ele>
        <time>2012-06-09T10:46:25Z</time>
      </trkpt>
      <trkpt lat="41.364074" lon="-1.648572">
        <ele>615.963</ele>
        <time>2012-06-09T10:46:51Z</time>
      </trkpt>
      <trkpt lat="41.363051" lon="-1.647729">
        <ele>614.444</ele>
        <time>2012-06-09T10:47:19Z</time>
      </trkpt>
      <trkpt lat="41.362462" lon="-1.645399">
        <ele>615.918</ele>
        <time>2012-06-09T10:48:31Z</time>
      </trkpt>
      <trkpt lat="41.362106" lon="-1.646464">
        <ele>600.007</ele>
        <time>2012-06-09T10:52:17Z</time>
      </trkpt>
      <trkpt lat="41.361112" lon="-1.646997">
        <ele>581.769</ele>
        <time>2012-06-09T10:52:30Z</time>
      </trkpt>
      <trkpt lat="41.360335" lon="-1.648096">
        <ele>567.896</ele>
        <time>2012-06-09T10:52:44Z</time>
      </trkpt>
      <trkpt lat="41.360048" lon="-1.648190">
        <ele>565.449</ele>
        <time>2012-06-09T10:52:49Z</time>
      </trkpt>
      <trkpt lat="41.358063" lon="-1.647401">
        <ele>558.221</ele>
        <time>2012-06-09T10:53:32Z</time>
      </trkpt>
      <trkpt lat="41.356530" lon="-1.646357">
        <ele>550.045</ele>
        <time>2012-06-09T10:54:34Z</time>
      </trkpt>
      <trkpt lat="41.356422" lon="-1.646569">
        <ele>549.135</ele>
        <time>2012-06-09T10:54:42Z</time>
      </trkpt>
      <trkpt lat="41.356134" lon="-1.646428">
        <ele>548.699</ele>
        <time>2012-06-09T10:54:52Z</time>
      </trkpt>
      <trkpt lat="41.355787" lon="-1.644778">
        <ele>545.268</ele>
        <time>2012-06-09T10:55:55Z</time>
      </trkpt>
      <trkpt lat="41.355442" lon="-1.644445">
        <ele>543.342</ele>
        <time>2012-06-09T10:56:10Z</time>
      </trkpt>
      <trkpt lat="41.355040" lon="-1.644421">
        <ele>542.326</ele>
        <time>2012-06-09T10:56:38Z</time>
      </trkpt>
      <trkpt lat="41.355032" lon="-1.644956">
        <ele>545.707</ele>
        <time>2012-06-09T10:57:45Z</time>
      </trkpt>
      <trkpt lat="41.354720" lon="-1.644965">
        <ele>542.889</ele>
        <time>2012-06-09T10:58:01Z</time>
      </trkpt>
      <trkpt lat="41.354520" lon="-1.645729">
        <ele>542.386</ele>
        <time>2012-06-09T10:58:22Z</time>
      </trkpt>
      <trkpt lat="41.354703" lon="-1.645901">
        <ele>543.849</ele>
        <time>2012-06-09T10:59:02Z</time>
      </trkpt>
      <trkpt lat="41.354545" lon="-1.646100">
        <ele>542.841</ele>
        <time>2012-06-09T10:59:10Z</time>
      </trkpt>
      <trkpt lat="41.354518" lon="-1.646910">
        <ele>541.435</ele>
        <time>2012-06-09T10:59:31Z</time>
      </trkpt>
      <trkpt lat="41.354158" lon="-1.647066">
        <ele>541.495</ele>
        <time>2012-06-09T11:01:41Z</time>
      </trkpt>
      <trkpt lat="41.353219" lon="-1.646903">
        <ele>539.459</ele>
        <time>2012-06-09T11:02:09Z</time>
      </trkpt>
      <trkpt lat="41.351363" lon="-1.645997">
        <ele>537.062</ele>
        <time>2012-06-09T11:02:53Z</time>
      </trkpt>
      <trkpt lat="41.349071" lon="-1.644177">
        <ele>536.683</ele>
        <time>2012-06-09T11:03:57Z</time>
      </trkpt>
      <trkpt lat="41.348755" lon="-1.644391">
        <ele>536.111</ele>
        <time>2012-06-09T11:04:06Z</time>
      </trkpt>
      <trkpt lat="41.348169" lon="-1.647436">
        <ele>536.607</ele>
        <time>2012-06-09T11:05:02Z</time>
      </trkpt>
      <trkpt lat="41.345986" lon="-1.650884">
        <ele>537.599</ele>
        <time>2012-06-09T11:06:21Z</time>
      </trkpt>
      <trkpt lat="41.344186" lon="-1.652609">
        <ele>539.466</ele>
        <time>2012-06-09T11:07:15Z</time>
      </trkpt>
      <trkpt lat="41.338835" lon="-1.654641">
        <ele>542.829</ele>
        <time>2012-06-09T11:09:55Z</time>
      </trkpt>
      <trkpt lat="41.338347" lon="-1.655144">
        <ele>542.881</ele>
        <time>2012-06-09T11:10:09Z</time>
      </trkpt>
      <trkpt lat="41.338094" lon="-1.655866">
        <ele>545.215</ele>
        <time>2012-06-09T11:10:24Z</time>
      </trkpt>
      <trkpt lat="41.337865" lon="-1.656028">
        <ele>545.725</ele>
        <time>2012-06-09T11:10:34Z</time>
      </trkpt>
      <trkpt lat="41.337261" lon="-1.655886">
        <ele>550.569</ele>
        <time>2012-06-09T11:10:56Z</time>
      </trkpt>
      <trkpt lat="41.336592" lon="-1.655209">
        <ele>550.012</ele>
        <time>2012-06-09T11:11:19Z</time>
      </trkpt>
      <trkpt lat="41.336210" lon="-1.655319">
        <ele>546.232</ele>
        <time>2012-06-09T11:11:27Z</time>
      </trkpt>
      <trkpt lat="41.336216" lon="-1.656480">
        <ele>541.805</ele>
        <time>2012-06-09T11:13:33Z</time>
      </trkpt>
      <trkpt lat="41.335886" lon="-1.657104">
        <ele>541.807</ele>
        <time>2012-06-09T11:13:47Z</time>
      </trkpt>
      <trkpt lat="41.331444" lon="-1.661414">
        <ele>543.394</ele>
        <time>2012-06-09T11:16:12Z</time>
      </trkpt>
      <trkpt lat="41.329800" lon="-1.658911">
        <ele>543.821</ele>
        <time>2012-06-09T11:17:35Z</time>
      </trkpt>
      <trkpt lat="41.327948" lon="-1.658320">
        <ele>543.844</ele>
        <time>2012-06-09T11:18:22Z</time>
      </trkpt>
      <trkpt lat="41.327172" lon="-1.658281">
        <ele>544.736</ele>
        <time>2012-06-09T11:18:41Z</time>
      </trkpt>
      <trkpt lat="41.326236" lon="-1.657282">
        <ele>545.240</ele>
        <time>2012-06-09T11:19:09Z</time>
      </trkpt>
      <trkpt lat="41.325557" lon="-1.656856">
        <ele>544.730</ele>
        <time>2012-06-09T11:19:27Z</time>
      </trkpt>
      <trkpt lat="41.324435" lon="-1.655698">
        <ele>545.214</ele>
        <time>2012-06-09T11:20:01Z</time>
      </trkpt>
      <trkpt lat="41.324028" lon="-1.655718">
        <ele>546.296</ele>
        <time>2012-06-09T11:20:11Z</time>
      </trkpt>
      <trkpt lat="41.323567" lon="-1.655297">
        <ele>546.731</ele>
        <time>2012-06-09T11:20:25Z</time>
      </trkpt>
      <trkpt lat="41.322949" lon="-1.655158">
        <ele>546.724</ele>
        <time>2012-06-09T11:20:39Z</time>
      </trkpt>
      <trkpt lat="41.322068" lon="-1.654236">
        <ele>547.607</ele>
        <time>2012-06-09T11:21:06Z</time>
      </trkpt>
      <trkpt lat="41.320082" lon="-1.653448">
        <ele>548.622</ele>
        <time>2012-06-09T11:22:00Z</time>
      </trkpt>
      <trkpt lat="41.319511" lon="-1.652941">
        <ele>549.199</ele>
        <time>2012-06-09T11:22:16Z</time>
      </trkpt>
      <trkpt lat="41.318298" lon="-1.650723">
        <ele>551.942</ele>
        <time>2012-06-09T11:23:07Z</time>
      </trkpt>
      <trkpt lat="41.317722" lon="-1.649265">
        <ele>552.974</ele>
        <time>2012-06-09T11:23:37Z</time>
      </trkpt>
      <trkpt lat="41.316802" lon="-1.648173">
        <ele>552.968</ele>
        <time>2012-06-09T11:24:07Z</time>
      </trkpt>
      <trkpt lat="41.316521" lon="-1.647375">
        <ele>552.448</ele>
        <time>2012-06-09T11:24:23Z</time>
      </trkpt>
      <trkpt lat="41.314867" lon="-1.645864">
        <ele>553.462</ele>
        <time>2012-06-09T11:25:14Z</time>
      </trkpt>
      <trkpt lat="41.314623" lon="-1.645159">
        <ele>553.998</ele>
        <time>2012-06-09T11:25:29Z</time>
      </trkpt>
      <trkpt lat="41.312245" lon="-1.641882">
        <ele>555.315</ele>
        <time>2012-06-09T11:28:37Z</time>
      </trkpt>
      <trkpt lat="41.311621" lon="-1.642489">
        <ele>557.726</ele>
        <time>2012-06-09T11:31:32Z</time>
      </trkpt>
      <trkpt lat="41.310070" lon="-1.646100">
        <ele>560.107</ele>
        <time>2012-06-09T11:32:48Z</time>
      </trkpt>
      <trkpt lat="41.306070" lon="-1.642393">
        <ele>559.612</ele>
        <time>2012-06-09T11:34:56Z</time>
      </trkpt>
      <trkpt lat="41.305128" lon="-1.641793">
        <ele>560.199</ele>
        <time>2012-06-09T11:35:23Z</time>
      </trkpt>
      <trkpt lat="41.304313" lon="-1.641817">
        <ele>561.192</ele>
        <time>2012-06-09T11:35:47Z</time>
      </trkpt>
      <trkpt lat="41.302814" lon="-1.641151">
        <ele>563.024</ele>
        <time>2012-06-09T11:36:30Z</time>
      </trkpt>
      <trkpt lat="41.301717" lon="-1.639813">
        <ele>564.098</ele>
        <time>2012-06-09T11:37:16Z</time>
      </trkpt>
      <trkpt lat="41.300524" lon="-1.638796">
        <ele>565.918</ele>
        <time>2012-06-09T11:37:54Z</time>
      </trkpt>
      <trkpt lat="41.299851" lon="-1.638545">
        <ele>567.392</ele>
        <time>2012-06-09T11:38:15Z</time>
      </trkpt>
      <trkpt lat="41.299292" lon="-1.637903">
        <ele>565.941</ele>
        <time>2012-06-09T11:38:35Z</time>
      </trkpt>
      <trkpt lat="41.296284" lon="-1.635996">
        <ele>568.881</ele>
        <time>2012-06-09T11:39:59Z</time>
      </trkpt>
      <trkpt lat="41.295941" lon="-1.636395">
        <ele>569.209</ele>
        <time>2012-06-09T11:40:12Z</time>
      </trkpt>
      <trkpt lat="41.292943" lon="-1.631508">
        <ele>571.607</ele>
        <time>2012-06-09T11:42:20Z</time>
      </trkpt>
      <trkpt lat="41.292441" lon="-1.629395">
        <ele>571.687</ele>
        <time>2012-06-09T11:42:53Z</time>
      </trkpt>
      <trkpt lat="41.292712" lon="-1.628513">
        <ele>571.654</ele>
        <time>2012-06-09T11:43:07Z</time>
      </trkpt>
      <trkpt lat="41.292697" lon="-1.627278">
        <ele>571.657</ele>
        <time>2012-06-09T11:43:26Z</time>
      </trkpt>
      <trkpt lat="41.292182" lon="-1.626659">
        <ele>572.139</ele>
        <time>2012-06-09T11:43:40Z</time>
      </trkpt>
      <trkpt lat="41.291902" lon="-1.625725">
        <ele>573.173</ele>
        <time>2012-06-09T11:43:55Z</time>
      </trkpt>
      <trkpt lat="41.290640" lon="-1.623363">
        <ele>574.023</ele>
        <time>2012-06-09T11:44:38Z</time>
      </trkpt>
      <trkpt lat="41.290156" lon="-1.623160">
        <ele>573.687</ele>
        <time>2012-06-09T11:45:32Z</time>
      </trkpt>
      <trkpt lat="41.287820" lon="-1.625952">
        <ele>577.444</ele>
        <time>2012-06-09T11:49:44Z</time>
      </trkpt>
      <trkpt lat="41.286406" lon="-1.627975">
        <ele>583.205</ele>
        <time>2012-06-09T11:50:49Z</time>
      </trkpt>
      <trkpt lat="41.278262" lon="-1.619741">
        <ele>588.515</ele>
        <time>2012-06-09T11:55:10Z</time>
      </trkpt>
      <trkpt lat="41.277888" lon="-1.619553">
        <ele>589.407</ele>
        <time>2012-06-09T11:55:25Z</time>
      </trkpt>
      <trkpt lat="41.277980" lon="-1.619314">
        <ele>591.897</ele>
        <time>2012-06-09T11:57:56Z</time>
      </trkpt>
      <trkpt lat="41.276229" lon="-1.616929">
        <ele>594.744</ele>
        <time>2012-06-09T12:00:17Z</time>
      </trkpt>
      <trkpt lat="41.276307" lon="-1.616681">
        <ele>595.217</ele>
        <time>2012-06-09T12:00:31Z</time>
      </trkpt>
      <trkpt lat="41.274843" lon="-1.613761">
        <ele>595.749</ele>
        <time>2012-06-09T12:01:35Z</time>
      </trkpt>
      <trkpt lat="41.272766" lon="-1.611600">
        <ele>595.223</ele>
        <time>2012-06-09T12:02:32Z</time>
      </trkpt>
      <trkpt lat="41.273137" lon="-1.607946">
        <ele>595.273</ele>
        <time>2012-06-09T13:10:08Z</time>
      </trkpt>
      <trkpt lat="41.271648" lon="-1.608535">
        <ele>594.247</ele>
        <time>2012-06-09T13:12:29Z</time>
      </trkpt>
      <trkpt lat="41.271123" lon="-1.608302">
        <ele>594.762</ele>
        <time>2012-06-09T13:12:44Z</time>
      </trkpt>
      <trkpt lat="41.267234" lon="-1.603720">
        <ele>597.683</ele>
        <time>2012-06-09T13:14:48Z</time>
      </trkpt>
      <trkpt lat="41.265453" lon="-1.602663">
        <ele>599.011</ele>
        <time>2012-06-09T13:15:37Z</time>
      </trkpt>
      <trkpt lat="41.263709" lon="-1.602290">
        <ele>599.007</ele>
        <time>2012-06-09T13:16:20Z</time>
      </trkpt>
      <trkpt lat="41.262941" lon="-1.602730">
        <ele>600.599</ele>
        <time>2012-06-09T13:18:04Z</time>
      </trkpt>
      <trkpt lat="41.262435" lon="-1.602630">
        <ele>601.496</ele>
        <time>2012-06-09T13:18:24Z</time>
      </trkpt>
      <trkpt lat="41.262003" lon="-1.601546">
        <ele>602.959</ele>
        <time>2012-06-09T13:18:49Z</time>
      </trkpt>
      <trkpt lat="41.261238" lon="-1.601143">
        <ele>607.721</ele>
        <time>2012-06-09T13:19:23Z</time>
      </trkpt>
      <trkpt lat="41.260942" lon="-1.600314">
        <ele>609.635</ele>
        <time>2012-06-09T13:19:46Z</time>
      </trkpt>
      <trkpt lat="41.259953" lon="-1.598650">
        <ele>609.625</ele>
        <time>2012-06-09T13:20:32Z</time>
      </trkpt>
      <trkpt lat="41.258328" lon="-1.596571">
        <ele>612.529</ele>
        <time>2012-06-09T13:21:39Z</time>
      </trkpt>
      <trkpt lat="41.258002" lon="-1.596588">
        <ele>614.481</ele>
        <time>2012-06-09T13:21:53Z</time>
      </trkpt>
      <trkpt lat="41.257475" lon="-1.597347">
        <ele>615.961</ele>
        <time>2012-06-09T13:22:23Z</time>
      </trkpt>
      <trkpt lat="41.257019" lon="-1.596413">
        <ele>616.817</ele>
        <time>2012-06-09T13:23:07Z</time>
      </trkpt>
      <trkpt lat="41.257105" lon="-1.595924">
        <ele>616.807</ele>
        <time>2012-06-09T13:23:18Z</time>
      </trkpt>
      <trkpt lat="41.255956" lon="-1.594474">
        <ele>616.891</ele>
        <time>2012-06-09T13:24:05Z</time>
      </trkpt>
      <trkpt lat="41.253055" lon="-1.592691">
        <ele>617.388</ele>
        <time>2012-06-09T13:25:22Z</time>
      </trkpt>
      <trkpt lat="41.252124" lon="-1.591731">
        <ele>617.851</ele>
        <time>2012-06-09T13:26:04Z</time>
      </trkpt>
      <trkpt lat="41.251392" lon="-1.591368">
        <ele>619.213</ele>
        <time>2012-06-09T13:26:26Z</time>
      </trkpt>
      <trkpt lat="41.250623" lon="-1.591581">
        <ele>617.387</ele>
        <time>2012-06-09T13:27:01Z</time>
      </trkpt>
      <trkpt lat="41.250541" lon="-1.590873">
        <ele>616.857</ele>
        <time>2012-06-09T13:27:18Z</time>
      </trkpt>
      <trkpt lat="41.249468" lon="-1.590625">
        <ele>622.621</ele>
        <time>2012-06-09T13:28:17Z</time>
      </trkpt>
      <trkpt lat="41.249180" lon="-1.589972">
        <ele>622.173</ele>
        <time>2012-06-09T13:29:09Z</time>
      </trkpt>
      <trkpt lat="41.249094" lon="-1.588497">
        <ele>626.985</ele>
        <time>2012-06-09T13:29:49Z</time>
      </trkpt>
      <trkpt lat="41.247675" lon="-1.586877">
        <ele>624.513</ele>
        <time>2012-06-09T13:30:56Z</time>
      </trkpt>
      <trkpt lat="41.246866" lon="-1.586369">
        <ele>625.507</ele>
        <time>2012-06-09T13:31:38Z</time>
      </trkpt>
      <trkpt lat="41.247053" lon="-1.585906">
        <ele>624.540</ele>
        <time>2012-06-09T13:31:56Z</time>
      </trkpt>
      <trkpt lat="41.245977" lon="-1.584008">
        <ele>630.877</ele>
        <time>2012-06-09T13:33:03Z</time>
      </trkpt>
      <trkpt lat="41.245440" lon="-1.583560">
        <ele>630.350</ele>
        <time>2012-06-09T13:33:28Z</time>
      </trkpt>
      <trkpt lat="41.244614" lon="-1.581175">
        <ele>629.852</ele>
        <time>2012-06-09T13:34:17Z</time>
      </trkpt>
      <trkpt lat="41.243086" lon="-1.580857">
        <ele>628.826</ele>
        <time>2012-06-09T13:36:19Z</time>
      </trkpt>
      <trkpt lat="41.242791" lon="-1.580482">
        <ele>630.376</ele>
        <time>2012-06-09T13:36:31Z</time>
      </trkpt>
      <trkpt lat="41.242730" lon="-1.578755">
        <ele>633.210</ele>
        <time>2012-06-09T13:37:09Z</time>
      </trkpt>
      <trkpt lat="41.240536" lon="-1.572268">
        <ele>635.149</ele>
        <time>2012-06-09T13:41:40Z</time>
      </trkpt>
      <trkpt lat="41.239161" lon="-1.570194">
        <ele>637.502</ele>
        <time>2012-06-09T13:42:37Z</time>
      </trkpt>
      <trkpt lat="41.238383" lon="-1.567556">
        <ele>637.022</ele>
        <time>2012-06-09T13:43:31Z</time>
      </trkpt>
      <trkpt lat="41.237816" lon="-1.566697">
        <ele>636.107</ele>
        <time>2012-06-09T13:43:51Z</time>
      </trkpt>
      <trkpt lat="41.237174" lon="-1.563940">
        <ele>636.597</ele>
        <time>2012-06-09T13:44:44Z</time>
      </trkpt>
      <trkpt lat="41.235704" lon="-1.559204">
        <ele>638.944</ele>
        <time>2012-06-09T13:46:35Z</time>
      </trkpt>
      <trkpt lat="41.235350" lon="-1.555221">
        <ele>640.457</ele>
        <time>2012-06-09T13:50:22Z</time>
      </trkpt>
      <trkpt lat="41.234618" lon="-1.553672">
        <ele>639.959</ele>
        <time>2012-06-09T13:50:57Z</time>
      </trkpt>
      <trkpt lat="41.234423" lon="-1.552277">
        <ele>638.083</ele>
        <time>2012-06-09T13:51:21Z</time>
      </trkpt>
      <trkpt lat="41.233948" lon="-1.551112">
        <ele>638.573</ele>
        <time>2012-06-09T13:51:44Z</time>
      </trkpt>
      <trkpt lat="41.232471" lon="-1.549399">
        <ele>638.967</ele>
        <time>2012-06-09T13:52:34Z</time>
      </trkpt>
      <trkpt lat="41.228687" lon="-1.545686">
        <ele>638.026</ele>
        <time>2012-06-09T13:54:19Z</time>
      </trkpt>
      <trkpt lat="41.228170" lon="-1.544330">
        <ele>639.447</ele>
        <time>2012-06-09T13:54:57Z</time>
      </trkpt>
      <trkpt lat="41.227268" lon="-1.544324">
        <ele>639.411</ele>
        <time>2012-06-09T13:59:20Z</time>
      </trkpt>
      <trkpt lat="41.226603" lon="-1.543875">
        <ele>639.407</ele>
        <time>2012-06-09T13:59:36Z</time>
      </trkpt>
      <trkpt lat="41.223578" lon="-1.538765">
        <ele>642.815</ele>
        <time>2012-06-09T14:01:19Z</time>
      </trkpt>
      <trkpt lat="41.221806" lon="-1.537412">
        <ele>644.262</ele>
        <time>2012-06-09T14:02:05Z</time>
      </trkpt>
      <trkpt lat="41.220615" lon="-1.535977">
        <ele>645.225</ele>
        <time>2012-06-09T14:02:40Z</time>
      </trkpt>
      <trkpt lat="41.219379" lon="-1.535468">
        <ele>645.287</ele>
        <time>2012-06-09T14:03:08Z</time>
      </trkpt>
      <trkpt lat="41.218849" lon="-1.534588">
        <ele>646.171</ele>
        <time>2012-06-09T14:03:27Z</time>
      </trkpt>
      <trkpt lat="41.216723" lon="-1.529643">
        <ele>651.451</ele>
        <time>2012-06-09T14:05:03Z</time>
      </trkpt>
      <trkpt lat="41.216008" lon="-1.529332">
        <ele>650.015</ele>
        <time>2012-06-09T14:05:24Z</time>
      </trkpt>
      <trkpt lat="41.215650" lon="-1.527976">
        <ele>651.952</ele>
        <time>2012-06-09T14:05:56Z</time>
      </trkpt>
      <trkpt lat="41.213072" lon="-1.528650">
        <ele>653.853</ele>
        <time>2012-06-09T14:06:59Z</time>
      </trkpt>
      <trkpt lat="41.210691" lon="-1.527258">
        <ele>654.308</ele>
        <time>2012-06-09T14:07:59Z</time>
      </trkpt>
      <trkpt lat="41.208771" lon="-1.524931">
        <ele>655.307</ele>
        <time>2012-06-09T14:08:59Z</time>
      </trkpt>
      <trkpt lat="41.207243" lon="-1.523844">
        <ele>656.728</ele>
        <time>2012-06-09T14:09:41Z</time>
      </trkpt>
      <trkpt lat="41.205569" lon="-1.521172">
        <ele>659.175</ele>
        <time>2012-06-09T14:10:53Z</time>
      </trkpt>
      <trkpt lat="41.204027" lon="-1.521839">
        <ele>669.758</ele>
        <time>2012-06-09T14:12:36Z</time>
      </trkpt>
      <trkpt lat="41.203427" lon="-1.522672">
        <ele>675.980</ele>
        <time>2012-06-09T14:13:23Z</time>
      </trkpt>
      <trkpt lat="41.202059" lon="-1.522300">
        <ele>677.964</ele>
        <time>2012-06-09T14:14:08Z</time>
      </trkpt>
      <trkpt lat="41.201096" lon="-1.521625">
        <ele>681.234</ele>
        <time>2012-06-09T14:18:55Z</time>
      </trkpt>
      <trkpt lat="41.200656" lon="-1.520681">
        <ele>679.848</ele>
        <time>2012-06-09T14:19:15Z</time>
      </trkpt>
      <trkpt lat="41.199874" lon="-1.519946">
        <ele>678.863</ele>
        <time>2012-06-09T14:19:35Z</time>
      </trkpt>
      <trkpt lat="41.199183" lon="-1.518657">
        <ele>672.144</ele>
        <time>2012-06-09T14:20:00Z</time>
      </trkpt>
      <trkpt lat="41.197980" lon="-1.518770">
        <ele>671.618</ele>
        <time>2012-06-09T14:20:37Z</time>
      </trkpt>
      <trkpt lat="41.198211" lon="-1.518204">
        <ele>673.107</ele>
        <time>2012-06-09T14:20:57Z</time>
      </trkpt>
      <trkpt lat="41.198002" lon="-1.517844">
        <ele>676.439</ele>
        <time>2012-06-09T14:21:10Z</time>
      </trkpt>
      <trkpt lat="41.196758" lon="-1.517108">
        <ele>675.056</ele>
        <time>2012-06-09T14:21:51Z</time>
      </trkpt>
      <trkpt lat="41.195284" lon="-1.515626">
        <ele>671.139</ele>
        <time>2012-06-09T14:23:03Z</time>
      </trkpt>
      <trkpt lat="41.192244" lon="-1.513350">
        <ele>675.961</ele>
        <time>2012-06-09T14:24:48Z</time>
      </trkpt>
      <trkpt lat="41.192560" lon="-1.512746">
        <ele>670.215</ele>
        <time>2012-06-09T14:25:07Z</time>
      </trkpt>
      <trkpt lat="41.193227" lon="-1.512303">
        <ele>670.295</ele>
        <time>2012-06-09T14:25:32Z</time>
      </trkpt>
      <trkpt lat="41.193577" lon="-1.511090">
        <ele>670.299</ele>
        <time>2012-06-09T14:26:06Z</time>
      </trkpt>
      <trkpt lat="41.191508" lon="-1.509673">
        <ele>671.166</ele>
        <time>2012-06-09T14:27:14Z</time>
      </trkpt>
      <trkpt lat="41.190941" lon="-1.508776">
        <ele>675.029</ele>
        <time>2012-06-09T14:28:23Z</time>
      </trkpt>
      <trkpt lat="41.189538" lon="-1.507458">
        <ele>674.521</ele>
        <time>2012-06-09T14:29:49Z</time>
      </trkpt>
      <trkpt lat="41.188635" lon="-1.507042">
        <ele>673.107</ele>
        <time>2012-06-09T14:30:16Z</time>
      </trkpt>
      <trkpt lat="41.187050" lon="-1.505460">
        <ele>678.429</ele>
        <time>2012-06-09T14:31:52Z</time>
      </trkpt>
      <trkpt lat="41.186173" lon="-1.505373">
        <ele>680.866</ele>
        <time>2012-06-09T14:32:30Z</time>
      </trkpt>
      <trkpt lat="41.184034" lon="-1.506823">
        <ele>683.299</ele>
        <time>2012-06-09T14:33:45Z</time>
      </trkpt>
      <trkpt lat="41.183252" lon="-1.508404">
        <ele>686.031</ele>
        <time>2012-06-09T14:34:27Z</time>
      </trkpt>
      <trkpt lat="41.182947" lon="-1.508617">
        <ele>689.435</ele>
        <time>2012-06-09T14:34:44Z</time>
      </trkpt>
      <trkpt lat="41.182593" lon="-1.512606">
        <ele>685.615</ele>
        <time>2012-06-09T14:35:54Z</time>
      </trkpt>
      <trkpt lat="41.182062" lon="-1.512887">
        <ele>685.699</ele>
        <time>2012-06-09T14:36:08Z</time>
      </trkpt>
      <trkpt lat="41.181606" lon="-1.512727">
        <ele>685.125</ele>
        <time>2012-06-09T14:36:22Z</time>
      </trkpt>
      <trkpt lat="41.181625" lon="-1.511768">
        <ele>687.026</ele>
        <time>2012-06-09T14:36:45Z</time>
      </trkpt>
      <trkpt lat="41.181282" lon="-1.511228">
        <ele>688.408</ele>
        <time>2012-06-09T14:37:00Z</time>
      </trkpt>
      <trkpt lat="41.180785" lon="-1.511019">
        <ele>689.407</ele>
        <time>2012-06-09T14:43:51Z</time>
      </trkpt>
      <trkpt lat="41.179389" lon="-1.511437">
        <ele>689.445</ele>
        <time>2012-06-09T14:44:45Z</time>
      </trkpt>
      <trkpt lat="41.179183" lon="-1.510941">
        <ele>693.712</ele>
        <time>2012-06-09T14:45:10Z</time>
      </trkpt>
      <trkpt lat="41.179716" lon="-1.510445">
        <ele>689.955</ele>
        <time>2012-06-09T14:45:28Z</time>
      </trkpt>
      <trkpt lat="41.180016" lon="-1.509652">
        <ele>690.417</ele>
        <time>2012-06-09T14:45:48Z</time>
      </trkpt>
      <trkpt lat="41.179802" lon="-1.508511">
        <ele>694.221</ele>
        <time>2012-06-09T14:46:27Z</time>
      </trkpt>
      <trkpt lat="41.178547" lon="-1.508009">
        <ele>689.471</ele>
        <time>2012-06-09T14:46:58Z</time>
      </trkpt>
      <trkpt lat="41.177696" lon="-1.508037">
        <ele>692.385</ele>
        <time>2012-06-09T14:47:31Z</time>
      </trkpt>
      <trkpt lat="41.175503" lon="-1.509198">
        <ele>689.412</ele>
        <time>2012-06-09T14:48:33Z</time>
      </trkpt>
      <trkpt lat="41.175186" lon="-1.508987">
        <ele>690.832</ele>
        <time>2012-06-09T14:51:11Z</time>
      </trkpt>
      <trkpt lat="41.175304" lon="-1.508981">
        <ele>691.305</ele>
        <time>2012-06-09T14:55:15Z</time>
      </trkpt>
      <trkpt lat="41.175225" lon="-1.507713">
        <ele>692.307</ele>
        <time>2012-06-09T15:03:25Z</time>
      </trkpt>
      <trkpt lat="41.174763" lon="-1.505920">
        <ele>697.194</ele>
        <time>2012-06-09T15:05:16Z</time>
      </trkpt>
      <trkpt lat="41.173722" lon="-1.504938">
        <ele>695.291</ele>
        <time>2012-06-09T15:06:13Z</time>
      </trkpt>
      <trkpt lat="41.171917" lon="-1.505469">
        <ele>698.124</ele>
        <time>2012-06-09T15:07:21Z</time>
      </trkpt>
      <trkpt lat="41.171377" lon="-1.505138">
        <ele>698.126</ele>
        <time>2012-06-09T15:07:44Z</time>
      </trkpt>
      <trkpt lat="41.171198" lon="-1.504487">
        <ele>694.760</ele>
        <time>2012-06-09T15:08:18Z</time>
      </trkpt>
      <trkpt lat="41.171480" lon="-1.501582">
        <ele>696.130</ele>
        <time>2012-06-09T15:11:27Z</time>
      </trkpt>
      <trkpt lat="41.171333" lon="-1.498203">
        <ele>699.034</ele>
        <time>2012-06-09T15:14:07Z</time>
      </trkpt>
      <trkpt lat="41.170639" lon="-1.497044">
        <ele>700.517</ele>
        <time>2012-06-09T15:14:55Z</time>
      </trkpt>
      <trkpt lat="41.170217" lon="-1.496670">
        <ele>701.487</ele>
        <time>2012-06-09T15:15:15Z</time>
      </trkpt>
      <trkpt lat="41.169235" lon="-1.496627">
        <ele>700.915</ele>
        <time>2012-06-09T15:15:48Z</time>
      </trkpt>
      <trkpt lat="41.167916" lon="-1.497483">
        <ele>701.907</ele>
        <time>2012-06-09T15:16:23Z</time>
      </trkpt>
      <trkpt lat="41.167206" lon="-1.497588">
        <ele>703.884</ele>
        <time>2012-06-09T15:17:29Z</time>
      </trkpt>
      <trkpt lat="41.166503" lon="-1.497133">
        <ele>706.761</ele>
        <time>2012-06-09T15:28:37Z</time>
      </trkpt>
      <trkpt lat="41.165971" lon="-1.496427">
        <ele>708.284</ele>
        <time>2012-06-09T15:29:04Z</time>
      </trkpt>
      <trkpt lat="41.165518" lon="-1.495021">
        <ele>713.056</ele>
        <time>2012-06-09T15:29:47Z</time>
      </trkpt>
      <trkpt lat="41.164722" lon="-1.491077">
        <ele>715.430</ele>
        <time>2012-06-09T15:31:18Z</time>
      </trkpt>
      <trkpt lat="41.163526" lon="-1.490169">
        <ele>711.580</ele>
        <time>2012-06-09T15:31:43Z</time>
      </trkpt>
      <trkpt lat="41.163459" lon="-1.489387">
        <ele>708.274</ele>
        <time>2012-06-09T15:31:56Z</time>
      </trkpt>
      <trkpt lat="41.162724" lon="-1.487854">
        <ele>714.489</ele>
        <time>2012-06-09T15:32:44Z</time>
      </trkpt>
      <trkpt lat="41.160819" lon="-1.486167">
        <ele>717.806</ele>
        <time>2012-06-09T15:33:47Z</time>
      </trkpt>
      <trkpt lat="41.158877" lon="-1.482464">
        <ele>709.626</ele>
        <time>2012-06-09T15:35:08Z</time>
      </trkpt>
      <trkpt lat="41.158392" lon="-1.482062">
        <ele>709.107</ele>
        <time>2012-06-09T15:38:26Z</time>
      </trkpt>
      <trkpt lat="41.157945" lon="-1.478867">
        <ele>722.621</ele>
        <time>2012-06-09T15:39:55Z</time>
      </trkpt>
      <trkpt lat="41.155462" lon="-1.475970">
        <ele>725.548</ele>
        <time>2012-06-09T15:41:09Z</time>
      </trkpt>
      <trkpt lat="41.153999" lon="-1.473713">
        <ele>723.581</ele>
        <time>2012-06-09T15:41:52Z</time>
      </trkpt>
      <trkpt lat="41.154947" lon="-1.472328">
        <ele>726.983</ele>
        <time>2012-06-09T15:44:35Z</time>
      </trkpt>
      <trkpt lat="41.154579" lon="-1.472213">
        <ele>729.347</ele>
        <time>2012-06-09T15:45:40Z</time>
      </trkpt>
      <trkpt lat="41.153964" lon="-1.470806">
        <ele>737.097</ele>
        <time>2012-06-09T15:46:36Z</time>
      </trkpt>
      <trkpt lat="41.153974" lon="-1.470299">
        <ele>738.911</ele>
        <time>2012-06-09T15:46:53Z</time>
      </trkpt>
      <trkpt lat="41.153693" lon="-1.469471">
        <ele>743.284</ele>
        <time>2012-06-09T15:47:23Z</time>
      </trkpt>
      <trkpt lat="41.153866" lon="-1.468922">
        <ele>744.207</ele>
        <time>2012-06-09T15:47:41Z</time>
      </trkpt>
      <trkpt lat="41.153673" lon="-1.468675">
        <ele>745.617</ele>
        <time>2012-06-09T15:47:51Z</time>
      </trkpt>
      <trkpt lat="41.152983" lon="-1.468609">
        <ele>744.207</ele>
        <time>2012-06-09T15:48:16Z</time>
      </trkpt>
      <trkpt lat="41.151069" lon="-1.467623">
        <ele>732.281</ele>
        <time>2012-06-09T15:49:24Z</time>
      </trkpt>
      <trkpt lat="41.150414" lon="-1.466830">
        <ele>727.938</ele>
        <time>2012-06-09T15:50:47Z</time>
      </trkpt>
      <trkpt lat="41.150106" lon="-1.467301">
        <ele>725.051</ele>
        <time>2012-06-09T15:52:00Z</time>
      </trkpt>
      <trkpt lat="41.150197" lon="-1.467011">
        <ele>727.473</ele>
        <time>2012-06-09T15:52:15Z</time>
      </trkpt>
      <trkpt lat="41.150011" lon="-1.466230">
        <ele>725.997</ele>
        <time>2012-06-09T15:52:34Z</time>
      </trkpt>
      <trkpt lat="41.148988" lon="-1.464661">
        <ele>727.497</ele>
        <time>2012-06-09T15:53:13Z</time>
      </trkpt>
      <trkpt lat="41.148363" lon="-1.464419">
        <ele>728.381</ele>
        <time>2012-06-09T15:53:31Z</time>
      </trkpt>
      <trkpt lat="41.147874" lon="-1.463197">
        <ele>729.353</ele>
        <time>2012-06-09T15:53:55Z</time>
      </trkpt>
      <trkpt lat="41.146883" lon="-1.461733">
        <ele>733.104</ele>
        <time>2012-06-09T15:54:31Z</time>
      </trkpt>
      <trkpt lat="41.143951" lon="-1.458268">
        <ele>734.114</ele>
        <time>2012-06-09T15:55:45Z</time>
      </trkpt>
      <trkpt lat="41.142650" lon="-1.457906">
        <ele>737.007</ele>
        <time>2012-06-09T15:56:10Z</time>
      </trkpt>
      <trkpt lat="41.141911" lon="-1.457380">
        <ele>736.038</ele>
        <time>2012-06-09T15:56:24Z</time>
      </trkpt>
      <trkpt lat="41.140239" lon="-1.455470">
        <ele>729.835</ele>
        <time>2012-06-09T15:56:51Z</time>
      </trkpt>
      <trkpt lat="41.136190" lon="-1.449734">
        <ele>736.098</ele>
        <time>2012-06-09T15:58:34Z</time>
      </trkpt>
      <trkpt lat="41.134841" lon="-1.448828">
        <ele>732.770</ele>
        <time>2012-06-09T16:00:35Z</time>
      </trkpt>
      <trkpt lat="41.133813" lon="-1.447669">
        <ele>732.244</ele>
        <time>2012-06-09T16:01:56Z</time>
      </trkpt>
      <trkpt lat="41.129217" lon="-1.443607">
        <ele>738.024</ele>
        <time>2012-06-09T16:03:40Z</time>
      </trkpt>
      <trkpt lat="41.127206" lon="-1.442728">
        <ele>744.778</ele>
        <time>2012-06-09T16:04:32Z</time>
      </trkpt>
      <trkpt lat="41.125607" lon="-1.441117">
        <ele>739.978</ele>
        <time>2012-06-09T16:05:03Z</time>
      </trkpt>
      <trkpt lat="41.124898" lon="-1.440686">
        <ele>738.033</ele>
        <time>2012-06-09T16:05:14Z</time>
      </trkpt>
      <trkpt lat="41.123358" lon="-1.439095">
        <ele>736.526</ele>
        <time>2012-06-09T16:05:42Z</time>
      </trkpt>
      <trkpt lat="41.121161" lon="-1.437797">
        <ele>744.707</ele>
        <time>2012-06-09T16:06:28Z</time>
      </trkpt>
      <trkpt lat="41.117826" lon="-1.433224">
        <ele>742.810</ele>
        <time>2012-06-09T16:07:56Z</time>
      </trkpt>
      <trkpt lat="41.116499" lon="-1.432094">
        <ele>749.027</ele>
        <time>2012-06-09T16:08:35Z</time>
      </trkpt>
      <trkpt lat="41.115723" lon="-1.430668">
        <ele>747.690</ele>
        <time>2012-06-09T16:09:15Z</time>
      </trkpt>
      <trkpt lat="41.115609" lon="-1.429823">
        <ele>746.652</ele>
        <time>2012-06-09T16:11:21Z</time>
      </trkpt>
      <trkpt lat="41.113567" lon="-1.425887">
        <ele>753.886</ele>
        <time>2012-06-09T16:12:37Z</time>
      </trkpt>
      <trkpt lat="41.113346" lon="-1.424986">
        <ele>752.436</ele>
        <time>2012-06-09T16:12:55Z</time>
      </trkpt>
      <trkpt lat="41.112776" lon="-1.424758">
        <ele>747.150</ele>
        <time>2012-06-09T16:13:12Z</time>
      </trkpt>
      <trkpt lat="41.110370" lon="-1.421400">
        <ele>752.499</ele>
        <time>2012-06-09T16:15:03Z</time>
      </trkpt>
      <trkpt lat="41.110103" lon="-1.421304">
        <ele>752.907</ele>
        <time>2012-06-09T16:19:24Z</time>
      </trkpt>
      <trkpt lat="41.110130" lon="-1.421036">
        <ele>753.827</ele>
        <time>2012-06-09T16:23:49Z</time>
      </trkpt>
      <trkpt lat="41.108805" lon="-1.418979">
        <ele>752.907</ele>
        <time>2012-06-09T16:24:38Z</time>
      </trkpt>
      <trkpt lat="41.108981" lon="-1.418755">
        <ele>752.492</ele>
        <time>2012-06-09T16:28:03Z</time>
      </trkpt>
      <trkpt lat="41.115927" lon="-1.407280">
        <ele>769.254</ele>
        <time>2012-06-10T05:32:43Z</time>
      </trkpt>
      <trkpt lat="41.116034" lon="-1.407543">
        <ele>775.956</ele>
        <time>2012-06-10T05:34:30Z</time>
      </trkpt>
      <trkpt lat="41.114572" lon="-1.408484">
        <ele>784.611</ele>
        <time>2012-06-10T05:35:35Z</time>
      </trkpt>
      <trkpt lat="41.114257" lon="-1.409128">
        <ele>782.207</ele>
        <time>2012-06-10T05:35:46Z</time>
      </trkpt>
      <trkpt lat="41.114265" lon="-1.412085">
        <ele>772.668</ele>
        <time>2012-06-10T05:37:08Z</time>
      </trkpt>
      <trkpt lat="41.113889" lon="-1.414228">
        <ele>768.785</ele>
        <time>2012-06-10T05:37:51Z</time>
      </trkpt>
      <trkpt lat="41.114098" lon="-1.414950">
        <ele>767.888</ele>
        <time>2012-06-10T05:38:36Z</time>
      </trkpt>
      <trkpt lat="41.113787" lon="-1.415838">
        <ele>766.321</ele>
        <time>2012-06-10T05:39:40Z</time>
      </trkpt>
      <trkpt lat="41.112601" lon="-1.417030">
        <ele>763.497</ele>
        <time>2012-06-10T05:40:22Z</time>
      </trkpt>
      <trkpt lat="41.110698" lon="-1.417569">
        <ele>761.015</ele>
        <time>2012-06-10T05:41:47Z</time>
      </trkpt>
      <trkpt lat="41.104245" lon="-1.421564">
        <ele>759.151</ele>
        <time>2012-06-10T05:49:46Z</time>
      </trkpt>
      <trkpt lat="41.103483" lon="-1.420525">
        <ele>758.678</ele>
        <time>2012-06-10T05:50:23Z</time>
      </trkpt>
      <trkpt lat="41.102720" lon="-1.420355">
        <ele>759.133</ele>
        <time>2012-06-10T05:50:44Z</time>
      </trkpt>
      <trkpt lat="41.100702" lon="-1.418752">
        <ele>756.726</ele>
        <time>2012-06-10T05:51:39Z</time>
      </trkpt>
      <trkpt lat="41.095869" lon="-1.417435">
        <ele>766.807</ele>
        <time>2012-06-10T05:53:55Z</time>
      </trkpt>
      <trkpt lat="41.094344" lon="-1.417474">
        <ele>772.670</ele>
        <time>2012-06-10T05:54:50Z</time>
      </trkpt>
      <trkpt lat="41.093219" lon="-1.415837">
        <ele>771.137</ele>
        <time>2012-06-10T05:55:31Z</time>
      </trkpt>
      <trkpt lat="41.092587" lon="-1.415691">
        <ele>771.160</ele>
        <time>2012-06-10T05:55:48Z</time>
      </trkpt>
      <trkpt lat="41.090736" lon="-1.413818">
        <ele>769.243</ele>
        <time>2012-06-10T05:57:11Z</time>
      </trkpt>
      <trkpt lat="41.089500" lon="-1.411819">
        <ele>766.349</ele>
        <time>2012-06-10T05:57:53Z</time>
      </trkpt>
      <trkpt lat="41.086108" lon="-1.409148">
        <ele>765.817</ele>
        <time>2012-06-10T05:59:28Z</time>
      </trkpt>
      <trkpt lat="41.085379" lon="-1.407563">
        <ele>765.493</ele>
        <time>2012-06-10T06:00:02Z</time>
      </trkpt>
      <trkpt lat="41.084501" lon="-1.406580">
        <ele>768.787</ele>
        <time>2012-06-10T06:00:35Z</time>
      </trkpt>
      <trkpt lat="41.084008" lon="-1.405334">
        <ele>770.642</ele>
        <time>2012-06-10T06:01:09Z</time>
      </trkpt>
      <trkpt lat="41.082692" lon="-1.406751">
        <ele>775.026</ele>
        <time>2012-06-10T06:02:11Z</time>
      </trkpt>
      <trkpt lat="41.081222" lon="-1.409288">
        <ele>781.707</ele>
        <time>2012-06-10T06:03:47Z</time>
      </trkpt>
      <trkpt lat="41.081832" lon="-1.405919">
        <ele>782.261</ele>
        <time>2012-06-10T06:05:48Z</time>
      </trkpt>
      <trkpt lat="41.080587" lon="-1.403150">
        <ele>782.268</ele>
        <time>2012-06-10T06:06:51Z</time>
      </trkpt>
      <trkpt lat="41.079043" lon="-1.401189">
        <ele>785.571</ele>
        <time>2012-06-10T06:07:51Z</time>
      </trkpt>
      <trkpt lat="41.078118" lon="-1.400727">
        <ele>785.124</ele>
        <time>2012-06-10T06:08:21Z</time>
      </trkpt>
      <trkpt lat="41.078159" lon="-1.399443">
        <ele>784.610</ele>
        <time>2012-06-10T06:08:48Z</time>
      </trkpt>
      <trkpt lat="41.077337" lon="-1.398302">
        <ele>785.558</ele>
        <time>2012-06-10T06:09:19Z</time>
      </trkpt>
      <trkpt lat="41.076800" lon="-1.395268">
        <ele>786.014</ele>
        <time>2012-06-10T06:10:27Z</time>
      </trkpt>
      <trkpt lat="41.075687" lon="-1.394400">
        <ele>790.377</ele>
        <time>2012-06-10T06:11:25Z</time>
      </trkpt>
      <trkpt lat="41.074278" lon="-1.394467">
        <ele>786.561</ele>
        <time>2012-06-10T06:12:14Z</time>
      </trkpt>
      <trkpt lat="41.073431" lon="-1.392891">
        <ele>791.827</ele>
        <time>2012-06-10T06:13:08Z</time>
      </trkpt>
      <trkpt lat="41.072663" lon="-1.393391">
        <ele>787.507</ele>
        <time>2012-06-10T06:13:25Z</time>
      </trkpt>
      <trkpt lat="41.071814" lon="-1.392601">
        <ele>787.980</ele>
        <time>2012-06-10T06:13:51Z</time>
      </trkpt>
      <trkpt lat="41.071608" lon="-1.391086">
        <ele>789.467</ele>
        <time>2012-06-10T06:14:20Z</time>
      </trkpt>
      <trkpt lat="41.070721" lon="-1.389447">
        <ele>787.920</ele>
        <time>2012-06-10T06:14:52Z</time>
      </trkpt>
      <trkpt lat="41.070337" lon="-1.389565">
        <ele>787.983</ele>
        <time>2012-06-10T06:15:00Z</time>
      </trkpt>
      <trkpt lat="41.069743" lon="-1.388275">
        <ele>787.989</ele>
        <time>2012-06-10T06:15:27Z</time>
      </trkpt>
      <trkpt lat="41.069211" lon="-1.387884">
        <ele>787.987</ele>
        <time>2012-06-10T06:15:41Z</time>
      </trkpt>
      <trkpt lat="41.068464" lon="-1.388056">
        <ele>790.363</ele>
        <time>2012-06-10T06:16:04Z</time>
      </trkpt>
      <trkpt lat="41.068084" lon="-1.386808">
        <ele>800.039</ele>
        <time>2012-06-10T06:17:14Z</time>
      </trkpt>
      <trkpt lat="41.066853" lon="-1.386434">
        <ele>795.201</ele>
        <time>2012-06-10T06:19:24Z</time>
      </trkpt>
      <trkpt lat="41.066644" lon="-1.386859">
        <ele>793.721</ele>
        <time>2012-06-10T06:20:05Z</time>
      </trkpt>
      <trkpt lat="41.066498" lon="-1.386460">
        <ele>786.507</ele>
        <time>2012-06-10T06:20:42Z</time>
      </trkpt>
      <trkpt lat="41.065689" lon="-1.387093">
        <ele>785.146</ele>
        <time>2012-06-10T06:22:47Z</time>
      </trkpt>
      <trkpt lat="41.065796" lon="-1.386739">
        <ele>782.733</ele>
        <time>2012-06-10T06:22:59Z</time>
      </trkpt>
      <trkpt lat="41.064799" lon="-1.385894">
        <ele>781.776</ele>
        <time>2012-06-10T06:23:39Z</time>
      </trkpt>
      <trkpt lat="41.064621" lon="-1.384763">
        <ele>780.349</ele>
        <time>2012-06-10T06:24:13Z</time>
      </trkpt>
      <trkpt lat="41.061162" lon="-1.385012">
        <ele>787.075</ele>
        <time>2012-06-10T06:25:46Z</time>
      </trkpt>
      <trkpt lat="41.060132" lon="-1.385505">
        <ele>789.443</ele>
        <time>2012-06-10T06:26:25Z</time>
      </trkpt>
      <trkpt lat="41.058496" lon="-1.384990">
        <ele>788.949</ele>
        <time>2012-06-10T06:27:40Z</time>
      </trkpt>
      <trkpt lat="41.055964" lon="-1.382540">
        <ele>788.937</ele>
        <time>2012-06-10T06:28:54Z</time>
      </trkpt>
      <trkpt lat="41.053881" lon="-1.381303">
        <ele>790.849</ele>
        <time>2012-06-10T06:29:50Z</time>
      </trkpt>
      <trkpt lat="41.050963" lon="-1.378355">
        <ele>790.813</ele>
        <time>2012-06-10T06:31:17Z</time>
      </trkpt>
      <trkpt lat="41.046931" lon="-1.378756">
        <ele>802.407</ele>
        <time>2012-06-10T06:33:30Z</time>
      </trkpt>
      <trkpt lat="41.047134" lon="-1.377939">
        <ele>810.566</ele>
        <time>2012-06-10T06:34:08Z</time>
      </trkpt>
      <trkpt lat="41.046789" lon="-1.377780">
        <ele>813.443</ele>
        <time>2012-06-10T06:34:28Z</time>
      </trkpt>
      <trkpt lat="41.045607" lon="-1.378979">
        <ele>816.896</ele>
        <time>2012-06-10T06:35:35Z</time>
      </trkpt>
      <trkpt lat="41.046366" lon="-1.374920">
        <ele>789.999</ele>
        <time>2012-06-10T06:37:16Z</time>
      </trkpt>
      <trkpt lat="41.044640" lon="-1.374500">
        <ele>789.445</ele>
        <time>2012-06-10T06:38:08Z</time>
      </trkpt>
      <trkpt lat="41.042223" lon="-1.373027">
        <ele>790.353</ele>
        <time>2012-06-10T06:39:15Z</time>
      </trkpt>
      <trkpt lat="41.040714" lon="-1.370883">
        <ele>792.749</ele>
        <time>2012-06-10T06:40:05Z</time>
      </trkpt>
      <trkpt lat="41.039667" lon="-1.370019">
        <ele>791.341</ele>
        <time>2012-06-10T06:40:34Z</time>
      </trkpt>
      <trkpt lat="41.039300" lon="-1.368682">
        <ele>792.781</ele>
        <time>2012-06-10T06:40:59Z</time>
      </trkpt>
      <trkpt lat="41.037939" lon="-1.367983">
        <ele>792.309</ele>
        <time>2012-06-10T06:41:36Z</time>
      </trkpt>
      <trkpt lat="41.037169" lon="-1.366685">
        <ele>793.707</ele>
        <time>2012-06-10T06:42:09Z</time>
      </trkpt>
      <trkpt lat="41.037417" lon="-1.365181">
        <ele>792.377</ele>
        <time>2012-06-10T06:42:39Z</time>
      </trkpt>
      <trkpt lat="41.036048" lon="-1.363795">
        <ele>797.174</ele>
        <time>2012-06-10T06:43:26Z</time>
      </trkpt>
      <trkpt lat="41.037984" lon="-1.361765">
        <ele>795.677</ele>
        <time>2012-06-10T06:44:24Z</time>
      </trkpt>
      <trkpt lat="41.040115" lon="-1.357134">
        <ele>802.480</ele>
        <time>2012-06-10T06:47:06Z</time>
      </trkpt>
      <trkpt lat="41.036333" lon="-1.353137">
        <ele>801.926</ele>
        <time>2012-06-10T06:54:57Z</time>
      </trkpt>
      <trkpt lat="41.035392" lon="-1.352592">
        <ele>802.444</ele>
        <time>2012-06-10T06:55:32Z</time>
      </trkpt>
      <trkpt lat="41.033400" lon="-1.353649">
        <ele>801.420</ele>
        <time>2012-06-10T06:56:45Z</time>
      </trkpt>
      <trkpt lat="41.033001" lon="-1.352341">
        <ele>801.429</ele>
        <time>2012-06-10T06:57:16Z</time>
      </trkpt>
      <trkpt lat="41.032322" lon="-1.351503">
        <ele>800.900</ele>
        <time>2012-06-10T06:57:43Z</time>
      </trkpt>
      <trkpt lat="41.030152" lon="-1.350750">
        <ele>801.420</ele>
        <time>2012-06-10T06:58:37Z</time>
      </trkpt>
      <trkpt lat="41.027821" lon="-1.348978">
        <ele>803.307</ele>
        <time>2012-06-10T06:59:43Z</time>
      </trkpt>
      <trkpt lat="41.027453" lon="-1.349677">
        <ele>803.825</ele>
        <time>2012-06-10T07:00:01Z</time>
      </trkpt>
      <trkpt lat="41.025123" lon="-1.348441">
        <ele>804.832</ele>
        <time>2012-06-10T07:01:15Z</time>
      </trkpt>
      <trkpt lat="41.024224" lon="-1.347481">
        <ele>805.795</ele>
        <time>2012-06-10T07:02:42Z</time>
      </trkpt>
      <trkpt lat="41.023536" lon="-1.348555">
        <ele>809.178</ele>
        <time>2012-06-10T07:03:57Z</time>
      </trkpt>
      <trkpt lat="41.022739" lon="-1.347112">
        <ele>810.564</ele>
        <time>2012-06-10T07:04:39Z</time>
      </trkpt>
      <trkpt lat="41.021784" lon="-1.347012">
        <ele>813.472</ele>
        <time>2012-06-10T07:05:12Z</time>
      </trkpt>
      <trkpt lat="41.020424" lon="-1.344390">
        <ele>811.548</ele>
        <time>2012-06-10T07:06:12Z</time>
      </trkpt>
      <trkpt lat="41.017164" lon="-1.339837">
        <ele>811.565</ele>
        <time>2012-06-10T07:12:41Z</time>
      </trkpt>
      <trkpt lat="41.015401" lon="-1.339068">
        <ele>811.068</ele>
        <time>2012-06-10T07:14:09Z</time>
      </trkpt>
      <trkpt lat="41.014153" lon="-1.339094">
        <ele>812.914</ele>
        <time>2012-06-10T07:17:44Z</time>
      </trkpt>
      <trkpt lat="41.010572" lon="-1.334798">
        <ele>816.307</ele>
        <time>2012-06-10T07:24:18Z</time>
      </trkpt>
      <trkpt lat="41.009406" lon="-1.334846">
        <ele>815.849</ele>
        <time>2012-06-10T07:24:57Z</time>
      </trkpt>
      <trkpt lat="41.007324" lon="-1.332548">
        <ele>817.776</ele>
        <time>2012-06-10T07:27:23Z</time>
      </trkpt>
      <trkpt lat="41.006220" lon="-1.327968">
        <ele>820.179</ele>
        <time>2012-06-10T07:28:56Z</time>
      </trkpt>
      <trkpt lat="41.005494" lon="-1.327323">
        <ele>820.662</ele>
        <time>2012-06-10T07:29:20Z</time>
      </trkpt>
      <trkpt lat="41.003791" lon="-1.327725">
        <ele>822.128</ele>
        <time>2012-06-10T07:30:12Z</time>
      </trkpt>
      <trkpt lat="41.003082" lon="-1.326478">
        <ele>823.596</ele>
        <time>2012-06-10T07:30:50Z</time>
      </trkpt>
      <trkpt lat="41.002028" lon="-1.326179">
        <ele>824.042</ele>
        <time>2012-06-10T07:31:25Z</time>
      </trkpt>
      <trkpt lat="41.000775" lon="-1.327041">
        <ele>824.557</ele>
        <time>2012-06-10T07:32:07Z</time>
      </trkpt>
      <trkpt lat="40.997147" lon="-1.325083">
        <ele>830.200</ele>
        <time>2012-06-10T07:37:57Z</time>
      </trkpt>
      <trkpt lat="40.995624" lon="-1.323443">
        <ele>832.220</ele>
        <time>2012-06-10T07:40:16Z</time>
      </trkpt>
      <trkpt lat="40.994063" lon="-1.320543">
        <ele>830.707</ele>
        <time>2012-06-10T07:42:47Z</time>
      </trkpt>
      <trkpt lat="40.993110" lon="-1.320076">
        <ele>831.238</ele>
        <time>2012-06-10T07:43:25Z</time>
      </trkpt>
      <trkpt lat="40.991038" lon="-1.317415">
        <ele>833.175</ele>
        <time>2012-06-10T07:44:40Z</time>
      </trkpt>
      <trkpt lat="40.990691" lon="-1.313865">
        <ele>835.018</ele>
        <time>2012-06-10T07:47:29Z</time>
      </trkpt>
      <trkpt lat="40.987469" lon="-1.310162">
        <ele>837.941</ele>
        <time>2012-06-10T07:49:23Z</time>
      </trkpt>
      <trkpt lat="40.987134" lon="-1.309211">
        <ele>837.947</ele>
        <time>2012-06-10T07:50:11Z</time>
      </trkpt>
      <trkpt lat="40.985177" lon="-1.309431">
        <ele>839.965</ele>
        <time>2012-06-10T07:51:01Z</time>
      </trkpt>
      <trkpt lat="40.983801" lon="-1.309102">
        <ele>840.831</ele>
        <time>2012-06-10T07:51:34Z</time>
      </trkpt>
      <trkpt lat="40.982491" lon="-1.309504">
        <ele>842.343</ele>
        <time>2012-06-10T07:52:07Z</time>
      </trkpt>
      <trkpt lat="40.979417" lon="-1.309469">
        <ele>842.764</ele>
        <time>2012-06-10T07:53:24Z</time>
      </trkpt>
      <trkpt lat="40.978703" lon="-1.308692">
        <ele>844.210</ele>
        <time>2012-06-10T07:53:47Z</time>
      </trkpt>
      <trkpt lat="40.977072" lon="-1.308189">
        <ele>844.707</ele>
        <time>2012-06-10T07:54:29Z</time>
      </trkpt>
      <trkpt lat="40.976137" lon="-1.310136">
        <ele>846.127</ele>
        <time>2012-06-10T07:55:13Z</time>
      </trkpt>
      <trkpt lat="40.975874" lon="-1.312079">
        <ele>846.674</ele>
        <time>2012-06-10T07:55:55Z</time>
      </trkpt>
      <trkpt lat="40.974869" lon="-1.313740">
        <ele>847.177</ele>
        <time>2012-06-10T07:56:40Z</time>
      </trkpt>
      <trkpt lat="40.973885" lon="-1.316413">
        <ele>848.090</ele>
        <time>2012-06-10T07:57:42Z</time>
      </trkpt>
      <trkpt lat="40.972733" lon="-1.317147">
        <ele>849.556</ele>
        <time>2012-06-10T07:58:24Z</time>
      </trkpt>
      <trkpt lat="40.972106" lon="-1.315824">
        <ele>849.594</ele>
        <time>2012-06-10T07:58:54Z</time>
      </trkpt>
      <trkpt lat="40.969787" lon="-1.314901">
        <ele>854.350</ele>
        <time>2012-06-10T08:08:38Z</time>
      </trkpt>
      <trkpt lat="40.966460" lon="-1.314221">
        <ele>861.065</ele>
        <time>2012-06-10T08:10:16Z</time>
      </trkpt>
      <trkpt lat="40.964858" lon="-1.313223">
        <ele>860.568</ele>
        <time>2012-06-10T08:11:01Z</time>
      </trkpt>
      <trkpt lat="40.962631" lon="-1.312655">
        <ele>859.614</ele>
        <time>2012-06-10T08:11:55Z</time>
      </trkpt>
      <trkpt lat="40.961046" lon="-1.313320">
        <ele>861.007</ele>
        <time>2012-06-10T08:12:37Z</time>
      </trkpt>
      <trkpt lat="40.958983" lon="-1.313555">
        <ele>862.959</ele>
        <time>2012-06-10T08:13:30Z</time>
      </trkpt>
      <trkpt lat="40.955833" lon="-1.312778">
        <ele>864.886</ele>
        <time>2012-06-10T08:14:51Z</time>
      </trkpt>
      <trkpt lat="40.952456" lon="-1.312636">
        <ele>865.849</ele>
        <time>2012-06-10T08:16:21Z</time>
      </trkpt>
      <trkpt lat="40.949331" lon="-1.311742">
        <ele>867.342</ele>
        <time>2012-06-10T08:17:43Z</time>
      </trkpt>
      <trkpt lat="40.946434" lon="-1.308634">
        <ele>867.388</ele>
        <time>2012-06-10T08:19:06Z</time>
      </trkpt>
      <trkpt lat="40.945684" lon="-1.307045">
        <ele>868.286</ele>
        <time>2012-06-10T08:19:33Z</time>
      </trkpt>
      <trkpt lat="40.944969" lon="-1.306488">
        <ele>867.732</ele>
        <time>2012-06-10T08:19:48Z</time>
      </trkpt>
      <trkpt lat="40.944720" lon="-1.305446">
        <ele>868.264</ele>
        <time>2012-06-10T08:20:10Z</time>
      </trkpt>
      <trkpt lat="40.940095" lon="-1.302609">
        <ele>870.606</ele>
        <time>2012-06-10T08:21:50Z</time>
      </trkpt>
      <trkpt lat="40.935889" lon="-1.302019">
        <ele>875.416</ele>
        <time>2012-06-10T08:23:20Z</time>
      </trkpt>
      <trkpt lat="40.935679" lon="-1.301647">
        <ele>873.007</ele>
        <time>2012-06-10T08:23:28Z</time>
      </trkpt>
      <trkpt lat="40.933271" lon="-1.301295">
        <ele>874.549</ele>
        <time>2012-06-10T08:24:28Z</time>
      </trkpt>
      <trkpt lat="40.922685" lon="-1.301923">
        <ele>878.816</ele>
        <time>2012-06-10T08:28:24Z</time>
      </trkpt>
      <trkpt lat="40.920471" lon="-1.301473">
        <ele>885.569</ele>
        <time>2012-06-10T08:31:51Z</time>
      </trkpt>
      <trkpt lat="40.919544" lon="-1.299926">
        <ele>891.352</ele>
        <time>2012-06-10T08:48:13Z</time>
      </trkpt>
      <trkpt lat="40.919274" lon="-1.300219">
        <ele>892.288</ele>
        <time>2012-06-10T08:57:08Z</time>
      </trkpt>
      <trkpt lat="40.917548" lon="-1.299239">
        <ele>896.196</ele>
        <time>2012-06-10T08:58:19Z</time>
      </trkpt>
      <trkpt lat="40.912528" lon="-1.299336">
        <ele>903.352</ele>
        <time>2012-06-10T09:00:34Z</time>
      </trkpt>
      <trkpt lat="40.912861" lon="-1.298549">
        <ele>899.564</ele>
        <time>2012-06-10T09:01:09Z</time>
      </trkpt>
      <trkpt lat="40.908832" lon="-1.295679">
        <ele>906.206</ele>
        <time>2012-06-10T09:03:07Z</time>
      </trkpt>
      <trkpt lat="40.907044" lon="-1.293919">
        <ele>907.116</ele>
        <time>2012-06-10T09:04:05Z</time>
      </trkpt>
      <trkpt lat="40.905778" lon="-1.291636">
        <ele>908.607</ele>
        <time>2012-06-10T09:05:02Z</time>
      </trkpt>
      <trkpt lat="40.904023" lon="-1.289959">
        <ele>912.039</ele>
        <time>2012-06-10T09:06:02Z</time>
      </trkpt>
      <trkpt lat="40.897088" lon="-1.279665">
        <ele>931.286</ele>
        <time>2012-06-10T09:10:25Z</time>
      </trkpt>
      <trkpt lat="40.890789" lon="-1.268221">
        <ele>951.889</ele>
        <time>2012-06-10T09:15:03Z</time>
      </trkpt>
      <trkpt lat="40.888097" lon="-1.261648">
        <ele>965.312</ele>
        <time>2012-06-10T09:18:44Z</time>
      </trkpt>
      <trkpt lat="40.887528" lon="-1.261094">
        <ele>967.728</ele>
        <time>2012-06-10T09:19:02Z</time>
      </trkpt>
      <trkpt lat="40.886873" lon="-1.258604">
        <ele>972.586</ele>
        <time>2012-06-10T09:19:54Z</time>
      </trkpt>
      <trkpt lat="40.885541" lon="-1.255827">
        <ele>979.252</ele>
        <time>2012-06-10T09:20:59Z</time>
      </trkpt>
      <trkpt lat="40.883360" lon="-1.253231">
        <ele>983.612</ele>
        <time>2012-06-10T09:22:50Z</time>
      </trkpt>
      <trkpt lat="40.882601" lon="-1.249552">
        <ele>991.332</ele>
        <time>2012-06-10T09:24:07Z</time>
      </trkpt>
      <trkpt lat="40.881927" lon="-1.248433">
        <ele>993.205</ele>
        <time>2012-06-10T09:24:35Z</time>
      </trkpt>
      <trkpt lat="40.879867" lon="-1.242745">
        <ele>1000.407</ele>
        <time>2012-06-10T09:26:12Z</time>
      </trkpt>
      <trkpt lat="40.880145" lon="-1.241964">
        <ele>1003.874</ele>
        <time>2012-06-10T09:26:36Z</time>
      </trkpt>
      <trkpt lat="40.878694" lon="-1.237829">
        <ele>1010.011</ele>
        <time>2012-06-10T09:28:04Z</time>
      </trkpt>
      <trkpt lat="40.878155" lon="-1.234351">
        <ele>1011.434</ele>
        <time>2012-06-10T09:29:09Z</time>
      </trkpt>
      <trkpt lat="40.876816" lon="-1.230795">
        <ele>1015.397</ele>
        <time>2012-06-10T09:30:11Z</time>
      </trkpt>
      <trkpt lat="40.875511" lon="-1.229239">
        <ele>1021.533</ele>
        <time>2012-06-10T09:31:02Z</time>
      </trkpt>
      <trkpt lat="40.874609" lon="-1.227135">
        <ele>1024.491</ele>
        <time>2012-06-10T09:31:55Z</time>
      </trkpt>
      <trkpt lat="40.873568" lon="-1.225802">
        <ele>1026.877</ele>
        <time>2012-06-10T09:32:33Z</time>
      </trkpt>
      <trkpt lat="40.872874" lon="-1.224109">
        <ele>1029.272</ele>
        <time>2012-06-10T09:33:15Z</time>
      </trkpt>
      <trkpt lat="40.870973" lon="-1.222867">
        <ele>1030.713</ele>
        <time>2012-06-10T09:34:05Z</time>
      </trkpt>
      <trkpt lat="40.868925" lon="-1.222383">
        <ele>1032.114</ele>
        <time>2012-06-10T09:34:58Z</time>
      </trkpt>
      <trkpt lat="40.867889" lon="-1.221398">
        <ele>1036.007</ele>
        <time>2012-06-10T09:35:37Z</time>
      </trkpt>
      <trkpt lat="40.865708" lon="-1.217652">
        <ele>1041.740</ele>
        <time>2012-06-10T09:37:18Z</time>
      </trkpt>
      <trkpt lat="40.865377" lon="-1.216530">
        <ele>1045.147</ele>
        <time>2012-06-10T09:37:46Z</time>
      </trkpt>
      <trkpt lat="40.863353" lon="-1.213920">
        <ele>1051.890</ele>
        <time>2012-06-10T09:40:28Z</time>
      </trkpt>
      <trkpt lat="40.862606" lon="-1.212016">
        <ele>1047.583</ele>
        <time>2012-06-10T09:40:52Z</time>
      </trkpt>
      <trkpt lat="40.860831" lon="-1.211044">
        <ele>1047.039</ele>
        <time>2012-06-10T09:41:23Z</time>
      </trkpt>
      <trkpt lat="40.858114" lon="-1.208185">
        <ele>1051.867</ele>
        <time>2012-06-10T09:42:30Z</time>
      </trkpt>
      <trkpt lat="40.856925" lon="-1.207575">
        <ele>1049.983</ele>
        <time>2012-06-10T09:42:51Z</time>
      </trkpt>
      <trkpt lat="40.856145" lon="-1.207779">
        <ele>1048.526</ele>
        <time>2012-06-10T09:43:08Z</time>
      </trkpt>
      <trkpt lat="40.854390" lon="-1.207325">
        <ele>1054.247</ele>
        <time>2012-06-10T09:43:58Z</time>
      </trkpt>
      <trkpt lat="40.852921" lon="-1.206242">
        <ele>1057.111</ele>
        <time>2012-06-10T09:44:44Z</time>
      </trkpt>
      <trkpt lat="40.851686" lon="-1.205858">
        <ele>1053.707</ele>
        <time>2012-06-10T09:45:09Z</time>
      </trkpt>
      <trkpt lat="40.849124" lon="-1.203065">
        <ele>1062.965</ele>
        <time>2012-06-10T09:46:39Z</time>
      </trkpt>
      <trkpt lat="40.846700" lon="-1.199240">
        <ele>1072.512</ele>
        <time>2012-06-10T09:48:09Z</time>
      </trkpt>
      <trkpt lat="40.845632" lon="-1.195904">
        <ele>1084.555</ele>
        <time>2012-06-10T09:49:35Z</time>
      </trkpt>
      <trkpt lat="40.844773" lon="-1.195226">
        <ele>1089.378</ele>
        <time>2012-06-10T09:50:10Z</time>
      </trkpt>
      <trkpt lat="40.844004" lon="-1.192440">
        <ele>1097.544</ele>
        <time>2012-06-10T09:51:20Z</time>
      </trkpt>
      <trkpt lat="40.842681" lon="-1.191715">
        <ele>1105.252</ele>
        <time>2012-06-10T09:52:11Z</time>
      </trkpt>
      <trkpt lat="40.839473" lon="-1.191972">
        <ele>1115.858</ele>
        <time>2012-06-10T09:54:01Z</time>
      </trkpt>
      <trkpt lat="40.838552" lon="-1.191266">
        <ele>1112.914</ele>
        <time>2012-06-10T09:54:38Z</time>
      </trkpt>
      <trkpt lat="40.838524" lon="-1.190810">
        <ele>1115.354</ele>
        <time>2012-06-10T09:55:02Z</time>
      </trkpt>
      <trkpt lat="40.837109" lon="-1.189716">
        <ele>1108.509</ele>
        <time>2012-06-10T10:03:49Z</time>
      </trkpt>
      <trkpt lat="40.836376" lon="-1.190519">
        <ele>1103.707</ele>
        <time>2012-06-10T10:04:29Z</time>
      </trkpt>
      <trkpt lat="40.835942" lon="-1.190113">
        <ele>1107.684</ele>
        <time>2012-06-10T10:08:08Z</time>
      </trkpt>
      <trkpt lat="40.834064" lon="-1.189896">
        <ele>1115.331</ele>
        <time>2012-06-10T10:09:20Z</time>
      </trkpt>
      <trkpt lat="40.831716" lon="-1.188587">
        <ele>1134.094</ele>
        <time>2012-06-10T10:11:26Z</time>
      </trkpt>
      <trkpt lat="40.831205" lon="-1.187633">
        <ele>1129.727</ele>
        <time>2012-06-10T10:11:48Z</time>
      </trkpt>
      <trkpt lat="40.830622" lon="-1.188866">
        <ele>1125.423</ele>
        <time>2012-06-10T10:12:11Z</time>
      </trkpt>
      <trkpt lat="40.830825" lon="-1.191815">
        <ele>1110.591</ele>
        <time>2012-06-10T10:12:53Z</time>
      </trkpt>
      <trkpt lat="40.829471" lon="-1.188112">
        <ele>1112.427</ele>
        <time>2012-06-10T10:14:38Z</time>
      </trkpt>
      <trkpt lat="40.827671" lon="-1.186973">
        <ele>1122.089</ele>
        <time>2012-06-10T10:16:00Z</time>
      </trkpt>
      <trkpt lat="40.825298" lon="-1.186635">
        <ele>1131.606</ele>
        <time>2012-06-10T10:17:31Z</time>
      </trkpt>
      <trkpt lat="40.823912" lon="-1.185050">
        <ele>1138.326</ele>
        <time>2012-06-10T10:18:40Z</time>
      </trkpt>
      <trkpt lat="40.822413" lon="-1.184857">
        <ele>1153.207</ele>
        <time>2012-06-10T10:20:08Z</time>
      </trkpt>
      <trkpt lat="40.818942" lon="-1.182998">
        <ele>1191.751</ele>
        <time>2012-06-10T10:23:47Z</time>
      </trkpt>
      <trkpt lat="40.820339" lon="-1.182741">
        <ele>1199.428</ele>
        <time>2012-06-10T10:24:55Z</time>
      </trkpt>
      <trkpt lat="40.820408" lon="-1.182387">
        <ele>1201.831</ele>
        <time>2012-06-10T10:25:10Z</time>
      </trkpt>
      <trkpt lat="40.819279" lon="-1.181851">
        <ele>1209.054</ele>
        <time>2012-06-10T10:26:37Z</time>
      </trkpt>
      <trkpt lat="40.814369" lon="-1.182309">
        <ele>1247.040</ele>
        <time>2012-06-10T10:33:20Z</time>
      </trkpt>
      <trkpt lat="40.812472" lon="-1.183399">
        <ele>1254.218</ele>
        <time>2012-06-10T10:34:51Z</time>
      </trkpt>
      <trkpt lat="40.811364" lon="-1.183008">
        <ele>1261.474</ele>
        <time>2012-06-10T10:35:45Z</time>
      </trkpt>
      <trkpt lat="40.810591" lon="-1.183288">
        <ele>1267.659</ele>
        <time>2012-06-10T10:36:41Z</time>
      </trkpt>
      <trkpt lat="40.806183" lon="-1.180498">
        <ele>1290.203</ele>
        <time>2012-06-10T10:41:22Z</time>
      </trkpt>
      <trkpt lat="40.800318" lon="-1.179316">
        <ele>1341.223</ele>
        <time>2012-06-10T10:48:54Z</time>
      </trkpt>
      <trkpt lat="40.798735" lon="-1.176617">
        <ele>1348.407</ele>
        <time>2012-06-10T10:51:23Z</time>
      </trkpt>
      <trkpt lat="40.797598" lon="-1.175403">
        <ele>1347.938</ele>
        <time>2012-06-10T10:51:57Z</time>
      </trkpt>
      <trkpt lat="40.795870" lon="-1.171657">
        <ele>1360.945</ele>
        <time>2012-06-10T10:53:58Z</time>
      </trkpt>
      <trkpt lat="40.794180" lon="-1.173287">
        <ele>1366.298</ele>
        <time>2012-06-10T10:55:16Z</time>
      </trkpt>
      <trkpt lat="40.793204" lon="-1.172784">
        <ele>1369.131</ele>
        <time>2012-06-10T10:55:55Z</time>
      </trkpt>
      <trkpt lat="40.792329" lon="-1.171686">
        <ele>1379.287</ele>
        <time>2012-06-10T10:57:04Z</time>
      </trkpt>
      <trkpt lat="40.791184" lon="-1.171361">
        <ele>1395.555</ele>
        <time>2012-06-10T10:58:35Z</time>
      </trkpt>
      <trkpt lat="40.790591" lon="-1.169529">
        <ele>1396.531</ele>
        <time>2012-06-10T10:59:34Z</time>
      </trkpt>
      <trkpt lat="40.790318" lon="-1.167010">
        <ele>1387.336</ele>
        <time>2012-06-10T11:04:28Z</time>
      </trkpt>
      <trkpt lat="40.788831" lon="-1.162368">
        <ele>1374.317</ele>
        <time>2012-06-10T11:05:50Z</time>
      </trkpt>
      <trkpt lat="40.787171" lon="-1.159849">
        <ele>1359.918</ele>
        <time>2012-06-10T11:06:43Z</time>
      </trkpt>
      <trkpt lat="40.786220" lon="-1.154689">
        <ele>1344.107</ele>
        <time>2012-06-10T11:07:54Z</time>
      </trkpt>
      <trkpt lat="40.785328" lon="-1.153915">
        <ele>1345.516</ele>
        <time>2012-06-10T11:08:19Z</time>
      </trkpt>
      <trkpt lat="40.784639" lon="-1.153862">
        <ele>1347.423</ele>
        <time>2012-06-10T11:08:36Z</time>
      </trkpt>
      <trkpt lat="40.784124" lon="-1.155834">
        <ele>1348.946</ele>
        <time>2012-06-10T11:09:22Z</time>
      </trkpt>
      <trkpt lat="40.781211" lon="-1.157686">
        <ele>1362.829</ele>
        <time>2012-06-10T11:11:36Z</time>
      </trkpt>
      <trkpt lat="40.778221" lon="-1.162852">
        <ele>1372.475</ele>
        <time>2012-06-10T11:14:54Z</time>
      </trkpt>
      <trkpt lat="40.777379" lon="-1.163680">
        <ele>1373.973</ele>
        <time>2012-06-10T11:15:23Z</time>
      </trkpt>
      <trkpt lat="40.776323" lon="-1.167033">
        <ele>1349.889</ele>
        <time>2012-06-10T11:16:29Z</time>
      </trkpt>
      <trkpt lat="40.776130" lon="-1.168708">
        <ele>1341.765</ele>
        <time>2012-06-10T11:16:56Z</time>
      </trkpt>
      <trkpt lat="40.770462" lon="-1.169362">
        <ele>1366.768</ele>
        <time>2012-06-10T11:21:24Z</time>
      </trkpt>
      <trkpt lat="40.769500" lon="-1.170037">
        <ele>1375.314</ele>
        <time>2012-06-10T11:22:19Z</time>
      </trkpt>
      <trkpt lat="40.767784" lon="-1.169781">
        <ele>1381.107</ele>
        <time>2012-06-10T11:25:38Z</time>
      </trkpt>
      <trkpt lat="40.765034" lon="-1.168489">
        <ele>1376.339</ele>
        <time>2012-06-10T11:26:33Z</time>
      </trkpt>
      <trkpt lat="40.763525" lon="-1.167210">
        <ele>1367.146</ele>
        <time>2012-06-10T11:27:09Z</time>
      </trkpt>
      <trkpt lat="40.756207" lon="-1.164604">
        <ele>1348.449</ele>
        <time>2012-06-10T11:29:27Z</time>
      </trkpt>
      <trkpt lat="40.755235" lon="-1.166381">
        <ele>1353.772</ele>
        <time>2012-06-10T11:30:39Z</time>
      </trkpt>
      <trkpt lat="40.752786" lon="-1.168846">
        <ele>1358.048</ele>
        <time>2012-06-10T11:32:29Z</time>
      </trkpt>
      <trkpt lat="40.751884" lon="-1.169095">
        <ele>1361.896</ele>
        <time>2012-06-10T11:33:05Z</time>
      </trkpt>
      <trkpt lat="40.748736" lon="-1.171844">
        <ele>1371.922</ele>
        <time>2012-06-10T11:35:33Z</time>
      </trkpt>
      <trkpt lat="40.749657" lon="-1.173151">
        <ele>1374.862</ele>
        <time>2012-06-10T11:36:25Z</time>
      </trkpt>
      <trkpt lat="40.749009" lon="-1.173929">
        <ele>1378.783</ele>
        <time>2012-06-10T11:37:01Z</time>
      </trkpt>
      <trkpt lat="40.747657" lon="-1.174356">
        <ele>1385.411</ele>
        <time>2012-06-10T11:37:55Z</time>
      </trkpt>
      <trkpt lat="40.745933" lon="-1.174017">
        <ele>1381.107</ele>
        <time>2012-06-10T11:38:48Z</time>
      </trkpt>
      <trkpt lat="40.741062" lon="-1.171712">
        <ele>1378.289</ele>
        <time>2012-06-10T11:41:07Z</time>
      </trkpt>
      <trkpt lat="40.739992" lon="-1.169290">
        <ele>1386.466</ele>
        <time>2012-06-10T11:42:37Z</time>
      </trkpt>
      <trkpt lat="40.737918" lon="-1.167688">
        <ele>1392.639</ele>
        <time>2012-06-10T11:43:43Z</time>
      </trkpt>
      <trkpt lat="40.736410" lon="-1.167519">
        <ele>1399.342</ele>
        <time>2012-06-10T11:44:47Z</time>
      </trkpt>
      <trkpt lat="40.734933" lon="-1.168156">
        <ele>1403.768</ele>
        <time>2012-06-10T11:45:51Z</time>
      </trkpt>
      <trkpt lat="40.732376" lon="-1.170086">
        <ele>1401.736</ele>
        <time>2012-06-10T11:47:19Z</time>
      </trkpt>
      <trkpt lat="40.728888" lon="-1.169737">
        <ele>1373.412</ele>
        <time>2012-06-10T11:49:48Z</time>
      </trkpt>
      <trkpt lat="40.725975" lon="-1.167835">
        <ele>1343.138</ele>
        <time>2012-06-10T11:50:46Z</time>
      </trkpt>
      <trkpt lat="40.724378" lon="-1.167289">
        <ele>1326.370</ele>
        <time>2012-06-10T11:51:22Z</time>
      </trkpt>
      <trkpt lat="40.723341" lon="-1.165554">
        <ele>1309.917</ele>
        <time>2012-06-10T11:52:01Z</time>
      </trkpt>
      <trkpt lat="40.723003" lon="-1.165671">
        <ele>1305.607</ele>
        <time>2012-06-10T11:52:16Z</time>
      </trkpt>
      <trkpt lat="40.723405" lon="-1.165207">
        <ele>1309.596</ele>
        <time>2012-06-10T11:53:10Z</time>
      </trkpt>
      <trkpt lat="40.719319" lon="-1.161893">
        <ele>1278.723</ele>
        <time>2012-06-10T11:54:54Z</time>
      </trkpt>
      <trkpt lat="40.717765" lon="-1.161948">
        <ele>1273.456</ele>
        <time>2012-06-10T11:55:34Z</time>
      </trkpt>
      <trkpt lat="40.717260" lon="-1.160319">
        <ele>1262.449</ele>
        <time>2012-06-10T11:56:20Z</time>
      </trkpt>
      <trkpt lat="40.717199" lon="-1.157839">
        <ele>1248.945</ele>
        <time>2012-06-10T11:57:23Z</time>
      </trkpt>
      <trkpt lat="40.716058" lon="-1.155910">
        <ele>1241.273</ele>
        <time>2012-06-10T11:57:54Z</time>
      </trkpt>
      <trkpt lat="40.711905" lon="-1.155646">
        <ele>1236.419</ele>
        <time>2012-06-10T11:59:07Z</time>
      </trkpt>
      <trkpt lat="40.710561" lon="-1.155939">
        <ele>1237.812</ele>
        <time>2012-06-10T11:59:37Z</time>
      </trkpt>
      <trkpt lat="40.707274" lon="-1.158392">
        <ele>1237.432</ele>
        <time>2012-06-10T12:00:58Z</time>
      </trkpt>
      <trkpt lat="40.702027" lon="-1.165028">
        <ele>1236.905</ele>
        <time>2012-06-10T12:04:16Z</time>
      </trkpt>
      <trkpt lat="40.699477" lon="-1.164750">
        <ele>1236.907</ele>
        <time>2012-06-10T12:05:07Z</time>
      </trkpt>
      <trkpt lat="40.697052" lon="-1.165378">
        <ele>1236.414</ele>
        <time>2012-06-10T12:05:54Z</time>
      </trkpt>
      <trkpt lat="40.692968" lon="-1.165358">
        <ele>1235.471</ele>
        <time>2012-06-10T12:07:15Z</time>
      </trkpt>
      <trkpt lat="40.688981" lon="-1.161592">
        <ele>1234.034</ele>
        <time>2012-06-10T12:10:34Z</time>
      </trkpt>
      <trkpt lat="40.688670" lon="-1.161877">
        <ele>1238.397</ele>
        <time>2012-06-10T12:10:56Z</time>
      </trkpt>
      <trkpt lat="40.687468" lon="-1.161428">
        <ele>1239.843</ele>
        <time>2012-06-10T12:14:48Z</time>
      </trkpt>
      <trkpt lat="40.686689" lon="-1.162384">
        <ele>1238.861</ele>
        <time>2012-06-10T12:16:02Z</time>
      </trkpt>
      <trkpt lat="40.684586" lon="-1.163525">
        <ele>1226.387</ele>
        <time>2012-06-10T12:17:12Z</time>
      </trkpt>
      <trkpt lat="40.682694" lon="-1.163917">
        <ele>1223.998</ele>
        <time>2012-06-10T12:17:48Z</time>
      </trkpt>
      <trkpt lat="40.680346" lon="-1.162918">
        <ele>1222.015</ele>
        <time>2012-06-10T12:18:29Z</time>
      </trkpt>
      <trkpt lat="40.677516" lon="-1.160895">
        <ele>1219.626</ele>
        <time>2012-06-10T12:20:37Z</time>
      </trkpt>
      <trkpt lat="40.676483" lon="-1.159667">
        <ele>1219.607</ele>
        <time>2012-06-10T12:21:03Z</time>
      </trkpt>
      <trkpt lat="40.674688" lon="-1.158819">
        <ele>1222.012</ele>
        <time>2012-06-10T12:21:48Z</time>
      </trkpt>
      <trkpt lat="40.671202" lon="-1.158477">
        <ele>1225.349</ele>
        <time>2012-06-10T12:23:13Z</time>
      </trkpt>
      <trkpt lat="40.670313" lon="-1.159096">
        <ele>1235.972</ele>
        <time>2012-06-10T12:24:14Z</time>
      </trkpt>
      <trkpt lat="40.668519" lon="-1.158344">
        <ele>1242.625</ele>
        <time>2012-06-10T12:26:22Z</time>
      </trkpt>
      <trkpt lat="40.665678" lon="-1.158308">
        <ele>1255.651</ele>
        <time>2012-06-10T12:28:13Z</time>
      </trkpt>
      <trkpt lat="40.664738" lon="-1.159517">
        <ele>1262.499</ele>
        <time>2012-06-10T12:29:12Z</time>
      </trkpt>
      <trkpt lat="40.661989" lon="-1.158152">
        <ele>1264.335</ele>
        <time>2012-06-10T12:30:53Z</time>
      </trkpt>
      <trkpt lat="40.660267" lon="-1.156785">
        <ele>1263.874</ele>
        <time>2012-06-10T12:31:55Z</time>
      </trkpt>
      <trkpt lat="40.657374" lon="-1.155638">
        <ele>1263.356</ele>
        <time>2012-06-10T12:33:20Z</time>
      </trkpt>
      <trkpt lat="40.654359" lon="-1.153803">
        <ele>1264.321</ele>
        <time>2012-06-10T12:35:58Z</time>
      </trkpt>
      <trkpt lat="40.653391" lon="-1.152277">
        <ele>1269.107</ele>
        <time>2012-06-10T12:36:41Z</time>
      </trkpt>
      <trkpt lat="40.651039" lon="-1.150438">
        <ele>1259.970</ele>
        <time>2012-06-10T12:37:45Z</time>
      </trkpt>
      <trkpt lat="40.647874" lon="-1.146363">
        <ele>1242.237</ele>
        <time>2012-06-10T12:38:41Z</time>
      </trkpt>
      <trkpt lat="40.644955" lon="-1.140906">
        <ele>1232.120</ele>
        <time>2012-06-10T12:39:56Z</time>
      </trkpt>
      <trkpt lat="40.641242" lon="-1.136320">
        <ele>1229.223</ele>
        <time>2012-06-10T13:44:56Z</time>
      </trkpt>
      <trkpt lat="40.638965" lon="-1.134614">
        <ele>1215.249</ele>
        <time>2012-06-10T13:45:33Z</time>
      </trkpt>
      <trkpt lat="40.637016" lon="-1.131101">
        <ele>1210.477</ele>
        <time>2012-06-10T13:46:37Z</time>
      </trkpt>
      <trkpt lat="40.632579" lon="-1.124722">
        <ele>1208.513</ele>
        <time>2012-06-10T13:48:16Z</time>
      </trkpt>
      <trkpt lat="40.628413" lon="-1.120691">
        <ele>1226.343</ele>
        <time>2012-06-10T13:50:27Z</time>
      </trkpt>
      <trkpt lat="40.625548" lon="-1.112626">
        <ele>1229.764</ele>
        <time>2012-06-10T13:52:45Z</time>
      </trkpt>
      <trkpt lat="40.623945" lon="-1.110077">
        <ele>1230.610</ele>
        <time>2012-06-10T13:53:28Z</time>
      </trkpt>
      <trkpt lat="40.620512" lon="-1.102625">
        <ele>1222.507</ele>
        <time>2012-06-10T13:54:57Z</time>
      </trkpt>
      <trkpt lat="40.618018" lon="-1.100048">
        <ele>1216.257</ele>
        <time>2012-06-10T13:55:41Z</time>
      </trkpt>
      <trkpt lat="40.616355" lon="-1.097595">
        <ele>1216.254</ele>
        <time>2012-06-10T13:56:19Z</time>
      </trkpt>
      <trkpt lat="40.615354" lon="-1.093917">
        <ele>1206.117</ele>
        <time>2012-06-10T13:56:55Z</time>
      </trkpt>
      <trkpt lat="40.613749" lon="-1.090526">
        <ele>1194.110</ele>
        <time>2012-06-10T13:57:26Z</time>
      </trkpt>
      <trkpt lat="40.611636" lon="-1.088709">
        <ele>1184.516</ele>
        <time>2012-06-10T13:57:46Z</time>
      </trkpt>
      <trkpt lat="40.610138" lon="-1.086512">
        <ele>1181.624</ele>
        <time>2012-06-10T13:58:10Z</time>
      </trkpt>
      <trkpt lat="40.609071" lon="-1.085907">
        <ele>1175.830</ele>
        <time>2012-06-10T13:58:22Z</time>
      </trkpt>
      <trkpt lat="40.607628" lon="-1.083702">
        <ele>1159.534</ele>
        <time>2012-06-10T13:58:38Z</time>
      </trkpt>
      <trkpt lat="40.601974" lon="-1.079829">
        <ele>1152.355</ele>
        <time>2012-06-10T13:59:43Z</time>
      </trkpt>
      <trkpt lat="40.599725" lon="-1.079095">
        <ele>1146.010</ele>
        <time>2012-06-10T14:00:08Z</time>
      </trkpt>
      <trkpt lat="40.597583" lon="-1.077134">
        <ele>1141.207</ele>
        <time>2012-06-10T14:00:39Z</time>
      </trkpt>
      <trkpt lat="40.596599" lon="-1.076863">
        <ele>1137.986</ele>
        <time>2012-06-10T14:00:50Z</time>
      </trkpt>
      <trkpt lat="40.595419" lon="-1.074877">
        <ele>1134.073</ele>
        <time>2012-06-10T14:01:13Z</time>
      </trkpt>
      <trkpt lat="40.591430" lon="-1.070433">
        <ele>1124.946</ele>
        <time>2012-06-10T14:02:21Z</time>
      </trkpt>
      <trkpt lat="40.588210" lon="-1.067764">
        <ele>1116.229</ele>
        <time>2012-06-10T14:03:01Z</time>
      </trkpt>
      <trkpt lat="40.585840" lon="-1.064245">
        <ele>1110.535</ele>
        <time>2012-06-10T14:03:42Z</time>
      </trkpt>
      <trkpt lat="40.584368" lon="-1.060385">
        <ele>1106.153</ele>
        <time>2012-06-10T14:04:23Z</time>
      </trkpt>
      <trkpt lat="40.582869" lon="-1.058546">
        <ele>1103.369</ele>
        <time>2012-06-10T14:04:49Z</time>
      </trkpt>
      <trkpt lat="40.577855" lon="-1.054936">
        <ele>1097.096</ele>
        <time>2012-06-10T14:06:00Z</time>
      </trkpt>
      <trkpt lat="40.576300" lon="-1.052611">
        <ele>1096.531</ele>
        <time>2012-06-10T14:06:33Z</time>
      </trkpt>
      <trkpt lat="40.572682" lon="-1.050340">
        <ele>1095.624</ele>
        <time>2012-06-10T14:07:31Z</time>
      </trkpt>
      <trkpt lat="40.569430" lon="-1.047689">
        <ele>1092.207</ele>
        <time>2012-06-10T14:08:37Z</time>
      </trkpt>
      <trkpt lat="40.566462" lon="-1.046268">
        <ele>1070.162</ele>
        <time>2012-06-10T14:09:30Z</time>
      </trkpt>
      <trkpt lat="40.564106" lon="-1.040672">
        <ele>1055.779</ele>
        <time>2012-06-10T14:17:16Z</time>
      </trkpt>
      <trkpt lat="40.562502" lon="-1.038222">
        <ele>1051.392</ele>
        <time>2012-06-10T14:17:52Z</time>
      </trkpt>
      <trkpt lat="40.561290" lon="-1.037292">
        <ele>1048.945</ele>
        <time>2012-06-10T14:18:12Z</time>
      </trkpt>
      <trkpt lat="40.559816" lon="-1.035063">
        <ele>1044.181</ele>
        <time>2012-06-10T14:18:44Z</time>
      </trkpt>
      <trkpt lat="40.558520" lon="-1.034149">
        <ele>1041.389</ele>
        <time>2012-06-10T14:19:05Z</time>
      </trkpt>
      <trkpt lat="40.556027" lon="-1.034057">
        <ele>1039.395</ele>
        <time>2012-06-10T14:19:44Z</time>
      </trkpt>
      <trkpt lat="40.554436" lon="-1.035211">
        <ele>1039.899</ele>
        <time>2012-06-10T14:20:24Z</time>
      </trkpt>
      <trkpt lat="40.553173" lon="-1.033257">
        <ele>1043.707</ele>
        <time>2012-06-10T14:21:14Z</time>
      </trkpt>
      <trkpt lat="40.545596" lon="-1.031723">
        <ele>1035.027</ele>
        <time>2012-06-10T14:31:40Z</time>
      </trkpt>
      <trkpt lat="40.545366" lon="-1.027979">
        <ele>1024.907</ele>
        <time>2012-06-10T14:32:55Z</time>
      </trkpt>
      <trkpt lat="40.544703" lon="-1.027754">
        <ele>1023.092</ele>
        <time>2012-06-10T14:42:18Z</time>
      </trkpt>
      <trkpt lat="40.544293" lon="-1.024809">
        <ele>1022.029</ele>
        <time>2012-06-10T14:43:50Z</time>
      </trkpt>
      <trkpt lat="40.543816" lon="-1.023506">
        <ele>1022.082</ele>
        <time>2012-06-10T14:44:14Z</time>
      </trkpt>
      <trkpt lat="40.539711" lon="-1.021677">
        <ele>1023.975</ele>
        <time>2012-06-10T14:45:58Z</time>
      </trkpt>
      <trkpt lat="40.538542" lon="-1.020199">
        <ele>1023.511</ele>
        <time>2012-06-10T14:46:36Z</time>
      </trkpt>
      <trkpt lat="40.532889" lon="-1.015032">
        <ele>1021.179</ele>
        <time>2012-06-10T14:48:46Z</time>
      </trkpt>
      <trkpt lat="40.531122" lon="-1.014438">
        <ele>1021.165</ele>
        <time>2012-06-10T14:49:24Z</time>
      </trkpt>
      <trkpt lat="40.530158" lon="-1.014763">
        <ele>1023.566</ele>
        <time>2012-06-10T14:49:49Z</time>
      </trkpt>
      <trkpt lat="40.529411" lon="-1.014430">
        <ele>1020.629</ele>
        <time>2012-06-10T14:50:04Z</time>
      </trkpt>
      <trkpt lat="40.527339" lon="-1.014646">
        <ele>1022.021</ele>
        <time>2012-06-10T14:50:53Z</time>
      </trkpt>
      <trkpt lat="40.526845" lon="-1.015283">
        <ele>1021.107</ele>
        <time>2012-06-10T14:51:13Z</time>
      </trkpt>
      <trkpt lat="40.525557" lon="-1.015699">
        <ele>1020.649</ele>
        <time>2012-06-10T14:51:43Z</time>
      </trkpt>
      <trkpt lat="40.523014" lon="-1.015680">
        <ele>1017.216</ele>
        <time>2012-06-10T14:58:33Z</time>
      </trkpt>
      <trkpt lat="40.522279" lon="-1.016125">
        <ele>1017.249</ele>
        <time>2012-06-10T14:58:52Z</time>
      </trkpt>
      <trkpt lat="40.520576" lon="-1.015110">
        <ele>1017.712</ele>
        <time>2012-06-10T15:02:16Z</time>
      </trkpt>
      <trkpt lat="40.519499" lon="-1.015698">
        <ele>1017.798</ele>
        <time>2012-06-10T15:05:58Z</time>
      </trkpt>
      <trkpt lat="40.519541" lon="-1.019990">
        <ele>1010.036</ele>
        <time>2012-06-10T15:07:03Z</time>
      </trkpt>
      <trkpt lat="40.518014" lon="-1.019782">
        <ele>1011.042</ele>
        <time>2012-06-10T15:07:44Z</time>
      </trkpt>
      <trkpt lat="40.517046" lon="-1.019053">
        <ele>1009.591</ele>
        <time>2012-06-10T15:08:10Z</time>
      </trkpt>
      <trkpt lat="40.514299" lon="-1.019359">
        <ele>1011.081</ele>
        <time>2012-06-10T15:09:32Z</time>
      </trkpt>
      <trkpt lat="40.512406" lon="-1.020058">
        <ele>1008.619</ele>
        <time>2012-06-10T15:10:08Z</time>
      </trkpt>
      <trkpt lat="40.508278" lon="-1.020163">
        <ele>1007.107</ele>
        <time>2012-06-10T15:16:03Z</time>
      </trkpt>
      <trkpt lat="40.507226" lon="-1.021985">
        <ele>1005.272</ele>
        <time>2012-06-10T15:16:39Z</time>
      </trkpt>
      <trkpt lat="40.505188" lon="-1.023313">
        <ele>1005.799</ele>
        <time>2012-06-10T15:17:30Z</time>
      </trkpt>
      <trkpt lat="40.503808" lon="-1.023164">
        <ele>1004.742</ele>
        <time>2012-06-10T15:17:58Z</time>
      </trkpt>
      <trkpt lat="40.502824" lon="-1.023763">
        <ele>1004.745</ele>
        <time>2012-06-10T15:18:19Z</time>
      </trkpt>
      <trkpt lat="40.502180" lon="-1.025093">
        <ele>1007.151</ele>
        <time>2012-06-10T15:18:45Z</time>
      </trkpt>
      <trkpt lat="40.500516" lon="-1.026992">
        <ele>1008.129</ele>
        <time>2012-06-10T15:19:31Z</time>
      </trkpt>
      <trkpt lat="40.498274" lon="-1.026604">
        <ele>1002.355</ele>
        <time>2012-06-10T15:20:10Z</time>
      </trkpt>
      <trkpt lat="40.496743" lon="-1.025468">
        <ele>998.594</ele>
        <time>2012-06-10T15:20:57Z</time>
      </trkpt>
      <trkpt lat="40.495386" lon="-1.025611">
        <ele>998.057</ele>
        <time>2012-06-10T15:21:28Z</time>
      </trkpt>
      <trkpt lat="40.492309" lon="-1.022004">
        <ele>995.122</ele>
        <time>2012-06-10T15:23:00Z</time>
      </trkpt>
      <trkpt lat="40.490556" lon="-1.021928">
        <ele>994.607</ele>
        <time>2012-06-10T15:23:35Z</time>
      </trkpt>
      <trkpt lat="40.489434" lon="-1.022488">
        <ele>992.772</ele>
        <time>2012-06-10T15:24:23Z</time>
      </trkpt>
      <trkpt lat="40.488605" lon="-1.023524">
        <ele>991.379</ele>
        <time>2012-06-10T15:24:52Z</time>
      </trkpt>
      <trkpt lat="40.486915" lon="-1.023982">
        <ele>991.742</ele>
        <time>2012-06-10T15:25:25Z</time>
      </trkpt>
      <trkpt lat="40.486574" lon="-1.025067">
        <ele>991.375</ele>
        <time>2012-06-10T15:25:42Z</time>
      </trkpt>
      <trkpt lat="40.486754" lon="-1.027117">
        <ele>990.341</ele>
        <time>2012-06-10T15:26:14Z</time>
      </trkpt>
      <trkpt lat="40.485731" lon="-1.029006">
        <ele>988.929</ele>
        <time>2012-06-10T15:26:57Z</time>
      </trkpt>
      <trkpt lat="40.484801" lon="-1.029933">
        <ele>987.915</ele>
        <time>2012-06-10T15:27:23Z</time>
      </trkpt>
      <trkpt lat="40.484174" lon="-1.031623">
        <ele>987.931</ele>
        <time>2012-06-10T15:27:58Z</time>
      </trkpt>
      <trkpt lat="40.484182" lon="-1.032440">
        <ele>994.661</ele>
        <time>2012-06-10T15:28:55Z</time>
      </trkpt>
      <trkpt lat="40.483056" lon="-1.033366">
        <ele>996.107</ele>
        <time>2012-06-10T15:35:34Z</time>
      </trkpt>
      <trkpt lat="40.481596" lon="-1.032651">
        <ele>985.007</ele>
        <time>2012-06-10T15:36:32Z</time>
      </trkpt>
      <trkpt lat="40.480992" lon="-1.032989">
        <ele>985.066</ele>
        <time>2012-06-10T15:37:06Z</time>
      </trkpt>
      <trkpt lat="40.481280" lon="-1.034630">
        <ele>983.113</ele>
        <time>2012-06-10T15:39:55Z</time>
      </trkpt>
      <trkpt lat="40.480868" lon="-1.035678">
        <ele>982.146</ele>
        <time>2012-06-10T15:40:17Z</time>
      </trkpt>
      <trkpt lat="40.479876" lon="-1.036776">
        <ele>981.619</ele>
        <time>2012-06-10T15:40:48Z</time>
      </trkpt>
      <trkpt lat="40.478839" lon="-1.036550">
        <ele>980.735</ele>
        <time>2012-06-10T15:41:14Z</time>
      </trkpt>
      <trkpt lat="40.478368" lon="-1.035697">
        <ele>980.743</ele>
        <time>2012-06-10T15:41:31Z</time>
      </trkpt>
      <trkpt lat="40.475252" lon="-1.033606">
        <ele>981.679</ele>
        <time>2012-06-10T15:42:39Z</time>
      </trkpt>
      <trkpt lat="40.474350" lon="-1.033586">
        <ele>982.679</ele>
        <time>2012-06-10T15:42:55Z</time>
      </trkpt>
      <trkpt lat="40.472784" lon="-1.034817">
        <ele>979.205</ele>
        <time>2012-06-10T15:43:27Z</time>
      </trkpt>
      <trkpt lat="40.471654" lon="-1.034172">
        <ele>977.825</ele>
        <time>2012-06-10T15:43:52Z</time>
      </trkpt>
      <trkpt lat="40.471372" lon="-1.034480">
        <ele>976.407</ele>
        <time>2012-06-10T15:44:11Z</time>
      </trkpt>
      <trkpt lat="40.470312" lon="-1.034257">
        <ele>976.440</ele>
        <time>2012-06-10T15:44:36Z</time>
      </trkpt>
      <trkpt lat="40.468460" lon="-1.037962">
        <ele>974.097</ele>
        <time>2012-06-10T15:45:48Z</time>
      </trkpt>
      <trkpt lat="40.467382" lon="-1.038412">
        <ele>974.080</ele>
        <time>2012-06-10T15:46:13Z</time>
      </trkpt>
      <trkpt lat="40.465556" lon="-1.038192">
        <ele>972.063</ele>
        <time>2012-06-10T15:47:30Z</time>
      </trkpt>
      <trkpt lat="40.464539" lon="-1.038602">
        <ele>972.529</ele>
        <time>2012-06-10T15:50:08Z</time>
      </trkpt>
      <trkpt lat="40.463605" lon="-1.039598">
        <ele>972.057</ele>
        <time>2012-06-10T15:50:32Z</time>
      </trkpt>
      <trkpt lat="40.463153" lon="-1.042459">
        <ele>969.673</ele>
        <time>2012-06-10T15:51:20Z</time>
      </trkpt>
      <trkpt lat="40.464068" lon="-1.044249">
        <ele>970.694</ele>
        <time>2012-06-10T15:52:02Z</time>
      </trkpt>
      <trkpt lat="40.463929" lon="-1.044689">
        <ele>971.157</ele>
        <time>2012-06-10T15:52:11Z</time>
      </trkpt>
      <trkpt lat="40.463281" lon="-1.044951">
        <ele>968.222</ele>
        <time>2012-06-10T15:52:23Z</time>
      </trkpt>
      <trkpt lat="40.461902" lon="-1.047149">
        <ele>968.707</ele>
        <time>2012-06-10T15:55:49Z</time>
      </trkpt>
      <trkpt lat="40.459510" lon="-1.047100">
        <ele>967.252</ele>
        <time>2012-06-10T15:56:41Z</time>
      </trkpt>
      <trkpt lat="40.458143" lon="-1.046590">
        <ele>965.849</ele>
        <time>2012-06-10T15:58:42Z</time>
      </trkpt>
      <trkpt lat="40.457758" lon="-1.047809">
        <ele>965.312</ele>
        <time>2012-06-10T15:59:12Z</time>
      </trkpt>
      <trkpt lat="40.456573" lon="-1.049199">
        <ele>964.895</ele>
        <time>2012-06-10T15:59:50Z</time>
      </trkpt>
      <trkpt lat="40.456679" lon="-1.050514">
        <ele>964.381</ele>
        <time>2012-06-10T16:00:16Z</time>
      </trkpt>
      <trkpt lat="40.456363" lon="-1.050746">
        <ele>963.959</ele>
        <time>2012-06-10T16:00:33Z</time>
      </trkpt>
      <trkpt lat="40.455590" lon="-1.053339">
        <ele>962.995</ele>
        <time>2012-06-10T16:02:02Z</time>
      </trkpt>
      <trkpt lat="40.454786" lon="-1.054181">
        <ele>961.933</ele>
        <time>2012-06-10T16:02:25Z</time>
      </trkpt>
      <trkpt lat="40.453003" lon="-1.053069">
        <ele>961.923</ele>
        <time>2012-06-10T16:03:15Z</time>
      </trkpt>
      <trkpt lat="40.451779" lon="-1.052908">
        <ele>961.515</ele>
        <time>2012-06-10T16:03:38Z</time>
      </trkpt>
      <trkpt lat="40.449628" lon="-1.053474">
        <ele>960.507</ele>
        <time>2012-06-10T16:04:24Z</time>
      </trkpt>
      <trkpt lat="40.448904" lon="-1.053143">
        <ele>959.116</ele>
        <time>2012-06-10T16:04:39Z</time>
      </trkpt>
      <trkpt lat="40.446631" lon="-1.053565">
        <ele>957.643</ele>
        <time>2012-06-10T16:05:27Z</time>
      </trkpt>
      <trkpt lat="40.444204" lon="-1.055037">
        <ele>956.786</ele>
        <time>2012-06-10T16:06:21Z</time>
      </trkpt>
      <trkpt lat="40.443088" lon="-1.057144">
        <ele>954.749</ele>
        <time>2012-06-10T16:07:12Z</time>
      </trkpt>
      <trkpt lat="40.442774" lon="-1.057016">
        <ele>953.835</ele>
        <time>2012-06-10T16:08:08Z</time>
      </trkpt>
      <trkpt lat="40.441725" lon="-1.059349">
        <ele>952.873</ele>
        <time>2012-06-10T16:08:56Z</time>
      </trkpt>
      <trkpt lat="40.437694" lon="-1.062527">
        <ele>950.929</ele>
        <time>2012-06-10T16:10:34Z</time>
      </trkpt>
      <trkpt lat="40.436782" lon="-1.065303">
        <ele>950.925</ele>
        <time>2012-06-10T16:11:27Z</time>
      </trkpt>
      <trkpt lat="40.435510" lon="-1.065689">
        <ele>949.426</ele>
        <time>2012-06-10T16:11:52Z</time>
      </trkpt>
      <trkpt lat="40.434566" lon="-1.067207">
        <ele>949.008</ele>
        <time>2012-06-10T16:12:28Z</time>
      </trkpt>
      <trkpt lat="40.433573" lon="-1.068006">
        <ele>947.507</ele>
        <time>2012-06-10T16:12:49Z</time>
      </trkpt>
      <trkpt lat="40.430954" lon="-1.068964">
        <ele>947.035</ele>
        <time>2012-06-10T16:13:44Z</time>
      </trkpt>
      <trkpt lat="40.429417" lon="-1.070894">
        <ele>947.092</ele>
        <time>2012-06-10T16:14:28Z</time>
      </trkpt>
      <trkpt lat="40.428520" lon="-1.071392">
        <ele>946.135</ele>
        <time>2012-06-10T16:14:47Z</time>
      </trkpt>
      <trkpt lat="40.427032" lon="-1.073750">
        <ele>944.298</ele>
        <time>2012-06-10T16:15:35Z</time>
      </trkpt>
      <trkpt lat="40.426943" lon="-1.074795">
        <ele>945.194</ele>
        <time>2012-06-10T16:15:52Z</time>
      </trkpt>
      <trkpt lat="40.426327" lon="-1.075452">
        <ele>943.722</ele>
        <time>2012-06-10T16:16:10Z</time>
      </trkpt>
      <trkpt lat="40.424320" lon="-1.075563">
        <ele>943.248</ele>
        <time>2012-06-10T16:17:16Z</time>
      </trkpt>
      <trkpt lat="40.423793" lon="-1.075137">
        <ele>942.247</ele>
        <time>2012-06-10T16:20:28Z</time>
      </trkpt>
      <trkpt lat="40.417367" lon="-1.075074">
        <ele>939.429</ele>
        <time>2012-06-10T16:25:28Z</time>
      </trkpt>
      <trkpt lat="40.414828" lon="-1.073634">
        <ele>938.921</ele>
        <time>2012-06-10T16:26:46Z</time>
      </trkpt>
      <trkpt lat="40.413461" lon="-1.073732">
        <ele>938.907</ele>
        <time>2012-06-10T16:27:15Z</time>
      </trkpt>
      <trkpt lat="40.412245" lon="-1.074546">
        <ele>937.937</ele>
        <time>2012-06-10T16:27:43Z</time>
      </trkpt>
      <trkpt lat="40.408394" lon="-1.074037">
        <ele>933.184</ele>
        <time>2012-06-10T16:28:56Z</time>
      </trkpt>
      <trkpt lat="40.407715" lon="-1.073402">
        <ele>934.127</ele>
        <time>2012-06-10T16:29:14Z</time>
      </trkpt>
      <trkpt lat="40.406374" lon="-1.073607">
        <ele>931.280</ele>
        <time>2012-06-10T16:30:00Z</time>
      </trkpt>
      <trkpt lat="40.406534" lon="-1.074519">
        <ele>929.746</ele>
        <time>2012-06-10T16:31:59Z</time>
      </trkpt>
      <trkpt lat="40.404954" lon="-1.073925">
        <ele>928.364</ele>
        <time>2012-06-10T16:32:49Z</time>
      </trkpt>
      <trkpt lat="40.401952" lon="-1.074203">
        <ele>927.330</ele>
        <time>2012-06-10T16:33:58Z</time>
      </trkpt>
      <trkpt lat="40.401114" lon="-1.075292">
        <ele>924.979</ele>
        <time>2012-06-10T16:34:31Z</time>
      </trkpt>
      <trkpt lat="40.400494" lon="-1.077155">
        <ele>926.405</ele>
        <time>2012-06-10T16:36:33Z</time>
      </trkpt>
      <trkpt lat="40.401158" lon="-1.079929">
        <ele>925.425</ele>
        <time>2012-06-10T16:37:50Z</time>
      </trkpt>
      <trkpt lat="40.399393" lon="-1.081640">
        <ele>923.007</ele>
        <time>2012-06-10T16:39:01Z</time>
      </trkpt>
      <trkpt lat="40.398246" lon="-1.083367">
        <ele>923.520</ele>
        <time>2012-06-10T16:39:55Z</time>
      </trkpt>
      <trkpt lat="40.398519" lon="-1.084448">
        <ele>926.967</ele>
        <time>2012-06-10T16:40:45Z</time>
      </trkpt>
      <trkpt lat="40.396964" lon="-1.084955">
        <ele>925.940</ele>
        <time>2012-06-10T16:41:28Z</time>
      </trkpt>
      <trkpt lat="40.396399" lon="-1.086069">
        <ele>932.163</ele>
        <time>2012-06-10T16:42:31Z</time>
      </trkpt>
      <trkpt lat="40.394753" lon="-1.087253">
        <ele>928.859</ele>
        <time>2012-06-10T16:43:24Z</time>
      </trkpt>
      <trkpt lat="40.391781" lon="-1.088410">
        <ele>926.947</ele>
        <time>2012-06-10T16:44:30Z</time>
      </trkpt>
      <trkpt lat="40.387639" lon="-1.091979">
        <ele>925.983</ele>
        <time>2012-06-10T16:49:14Z</time>
      </trkpt>
      <trkpt lat="40.386993" lon="-1.093521">
        <ele>928.895</ele>
        <time>2012-06-10T16:49:58Z</time>
      </trkpt>
      <trkpt lat="40.385616" lon="-1.092923">
        <ele>932.649</ele>
        <time>2012-06-10T16:50:48Z</time>
      </trkpt>
      <trkpt lat="40.384542" lon="-1.093819">
        <ele>940.823</ele>
        <time>2012-06-10T16:51:45Z</time>
      </trkpt>
      <trkpt lat="40.383277" lon="-1.093034">
        <ele>935.507</ele>
        <time>2012-06-10T16:53:08Z</time>
      </trkpt>
      <trkpt lat="40.383086" lon="-1.092184">
        <ele>927.332</ele>
        <time>2012-06-10T16:53:24Z</time>
      </trkpt>
      <trkpt lat="40.382221" lon="-1.092136">
        <ele>923.049</ele>
        <time>2012-06-10T16:53:40Z</time>
      </trkpt>
      <trkpt lat="40.381260" lon="-1.092773">
        <ele>925.962</ele>
        <time>2012-06-10T16:54:03Z</time>
      </trkpt>
      <trkpt lat="40.379438" lon="-1.092733">
        <ele>923.065</ele>
        <time>2012-06-10T16:55:27Z</time>
      </trkpt>
      <trkpt lat="40.378784" lon="-1.092218">
        <ele>913.471</ele>
        <time>2012-06-10T16:55:48Z</time>
      </trkpt>
      <trkpt lat="40.378110" lon="-1.092396">
        <ele>911.529</ele>
        <time>2012-06-10T16:56:22Z</time>
      </trkpt>
      <trkpt lat="40.377630" lon="-1.094582">
        <ele>913.485</ele>
        <time>2012-06-10T16:57:01Z</time>
      </trkpt>
      <trkpt lat="40.374883" lon="-1.101587">
        <ele>921.662</ele>
        <time>2012-06-10T17:01:29Z</time>
      </trkpt>
      <trkpt lat="40.374124" lon="-1.105645">
        <ele>908.183</ele>
        <time>2012-06-10T17:02:31Z</time>
      </trkpt>
      <trkpt lat="40.371868" lon="-1.101952">
        <ele>905.211</ele>
        <time>2012-06-10T17:03:35Z</time>
      </trkpt>
      <trkpt lat="40.370836" lon="-1.102124">
        <ele>903.307</ele>
        <time>2012-06-10T17:04:35Z</time>
      </trkpt>
      <trkpt lat="40.371440" lon="-1.104827">
        <ele>903.849</ele>
        <time>2012-06-10T17:05:23Z</time>
      </trkpt>
      <trkpt lat="40.370720" lon="-1.107681">
        <ele>900.956</ele>
        <time>2012-06-10T17:06:18Z</time>
      </trkpt>
      <trkpt lat="40.367796" lon="-1.108657">
        <ele>899.569</ele>
        <time>2012-06-10T17:07:33Z</time>
      </trkpt>
      <trkpt lat="40.367332" lon="-1.109627">
        <ele>900.492</ele>
        <time>2012-06-10T17:07:52Z</time>
      </trkpt>
      <trkpt lat="40.367369" lon="-1.110290">
        <ele>899.948</ele>
        <time>2012-06-10T17:08:03Z</time>
      </trkpt>
      <trkpt lat="40.367040" lon="-1.110696">
        <ele>899.056</ele>
        <time>2012-06-10T17:08:14Z</time>
      </trkpt>
      <trkpt lat="40.366298" lon="-1.110529">
        <ele>899.042</ele>
        <time>2012-06-10T17:08:31Z</time>
      </trkpt>
      <trkpt lat="40.365145" lon="-1.111661">
        <ele>898.018</ele>
        <time>2012-06-10T17:09:06Z</time>
      </trkpt>
      <trkpt lat="40.364775" lon="-1.113144">
        <ele>896.698</ele>
        <time>2012-06-10T17:09:40Z</time>
      </trkpt>
      <trkpt lat="40.365515" lon="-1.114071">
        <ele>896.117</ele>
        <time>2012-06-10T17:10:09Z</time>
      </trkpt>
      <trkpt lat="40.365667" lon="-1.114856">
        <ele>897.107</ele>
        <time>2012-06-10T17:16:22Z</time>
      </trkpt>
      <trkpt lat="40.364785" lon="-1.115685">
        <ele>896.164</ele>
        <time>2012-06-10T17:16:48Z</time>
      </trkpt>
      <trkpt lat="40.363722" lon="-1.115382">
        <ele>895.121</ele>
        <time>2012-06-10T17:17:18Z</time>
      </trkpt>
      <trkpt lat="40.361836" lon="-1.117039">
        <ele>890.844</ele>
        <time>2012-06-10T17:19:32Z</time>
      </trkpt>
      <trkpt lat="40.361304" lon="-1.118671">
        <ele>891.817</ele>
        <time>2012-06-10T17:20:38Z</time>
      </trkpt>
      <trkpt lat="40.359918" lon="-1.118477">
        <ele>891.873</ele>
        <time>2012-06-10T17:21:23Z</time>
      </trkpt>
      <trkpt lat="40.359674" lon="-1.119711">
        <ele>891.351</ele>
        <time>2012-06-10T17:22:35Z</time>
      </trkpt>
      <trkpt lat="40.360119" lon="-1.120469">
        <ele>889.417</ele>
        <time>2012-06-10T17:24:38Z</time>
      </trkpt>
      <trkpt lat="40.359809" lon="-1.121013">
        <ele>891.818</ele>
        <time>2012-06-10T17:25:16Z</time>
      </trkpt>
      <trkpt lat="40.358292" lon="-1.121387">
        <ele>890.898</ele>
        <time>2012-06-10T17:25:55Z</time>
      </trkpt>
      <trkpt lat="40.356296" lon="-1.121096">
        <ele>888.417</ele>
        <time>2012-06-10T17:26:34Z</time>
      </trkpt>
      <trkpt lat="40.355870" lon="-1.121705">
        <ele>885.507</ele>
        <time>2012-06-10T17:27:31Z</time>
      </trkpt>
      <trkpt lat="40.352128" lon="-1.120547">
        <ele>888.994</ele>
        <time>2012-06-10T17:28:55Z</time>
      </trkpt>
      <trkpt lat="40.352044" lon="-1.119255">
        <ele>897.561</ele>
        <time>2012-06-10T17:30:06Z</time>
      </trkpt>
      <trkpt lat="40.351648" lon="-1.118693">
        <ele>903.854</ele>
        <time>2012-06-10T17:30:42Z</time>
      </trkpt>
      <trkpt lat="40.352216" lon="-1.117334">
        <ele>921.177</ele>
        <time>2012-06-10T17:32:16Z</time>
      </trkpt>
      <trkpt lat="40.351579" lon="-1.114613">
        <ele>925.953</ele>
        <time>2012-06-10T17:36:44Z</time>
      </trkpt>
      <trkpt lat="40.349620" lon="-1.111947">
        <ele>930.751</ele>
        <time>2012-06-10T17:37:47Z</time>
      </trkpt>
      <trkpt lat="40.349284" lon="-1.109164">
        <ele>932.117</ele>
        <time>2012-06-10T17:39:10Z</time>
      </trkpt>
      <trkpt lat="40.347797" lon="-1.109284">
        <ele>928.366</ele>
        <time>2012-06-10T17:39:41Z</time>
      </trkpt>
      <trkpt lat="40.346560" lon="-1.108452">
        <ele>921.629</ele>
        <time>2012-06-10T17:40:03Z</time>
      </trkpt>
      <trkpt lat="40.345339" lon="-1.106034">
        <ele>914.821</ele>
        <time>2012-06-10T17:40:49Z</time>
      </trkpt>
      <trkpt lat="40.344323" lon="-1.105072">
        <ele>922.507</ele>
        <time>2012-06-10T17:41:31Z</time>
      </trkpt>
      <trkpt lat="40.343835" lon="-1.105636">
        <ele>926.499</ele>
        <time>2012-06-10T17:49:18Z</time>
      </trkpt>
      <trkpt lat="40.351697" lon="-1.118562">
        <ele>918.749</ele>
        <time>2012-06-11T06:12:24Z</time>
      </trkpt>
      <trkpt lat="40.351475" lon="-1.117927">
        <ele>913.402</ele>
        <time>2012-06-11T06:12:50Z</time>
      </trkpt>
      <trkpt lat="40.349157" lon="-1.116818">
        <ele>910.022</ele>
        <time>2012-06-11T06:13:41Z</time>
      </trkpt>
      <trkpt lat="40.346165" lon="-1.112854">
        <ele>903.307</ele>
        <time>2012-06-11T06:16:13Z</time>
      </trkpt>
      <trkpt lat="40.345275" lon="-1.112383">
        <ele>899.567</ele>
        <time>2012-06-11T06:17:05Z</time>
      </trkpt>
      <trkpt lat="40.344652" lon="-1.113153">
        <ele>892.264</ele>
        <time>2012-06-11T06:17:40Z</time>
      </trkpt>
      <trkpt lat="40.343865" lon="-1.111567">
        <ele>895.677</ele>
        <time>2012-06-11T06:18:16Z</time>
      </trkpt>
      <trkpt lat="40.342304" lon="-1.110294">
        <ele>892.230</ele>
        <time>2012-06-11T06:19:21Z</time>
      </trkpt>
      <trkpt lat="40.340940" lon="-1.109988">
        <ele>891.816</ele>
        <time>2012-06-11T06:19:48Z</time>
      </trkpt>
      <trkpt lat="40.340738" lon="-1.109356">
        <ele>892.733</ele>
        <time>2012-06-11T06:20:01Z</time>
      </trkpt>
      <trkpt lat="40.340108" lon="-1.109072">
        <ele>891.317</ele>
        <time>2012-06-11T06:20:15Z</time>
      </trkpt>
      <trkpt lat="40.336924" lon="-1.109617">
        <ele>890.383</ele>
        <time>2012-06-11T06:21:16Z</time>
      </trkpt>
      <trkpt lat="40.336382" lon="-1.109455">
        <ele>891.325</ele>
        <time>2012-06-11T06:22:29Z</time>
      </trkpt>
      <trkpt lat="40.335811" lon="-1.109676">
        <ele>897.517</ele>
        <time>2012-06-11T06:22:51Z</time>
      </trkpt>
      <trkpt lat="40.335583" lon="-1.110891">
        <ele>893.207</ele>
        <time>2012-06-11T06:23:24Z</time>
      </trkpt>
      <trkpt lat="40.333347" lon="-1.111474">
        <ele>885.091</ele>
        <time>2012-06-11T06:24:20Z</time>
      </trkpt>
      <trkpt lat="40.328812" lon="-1.113389">
        <ele>883.618</ele>
        <time>2012-06-11T06:27:10Z</time>
      </trkpt>
      <trkpt lat="40.328071" lon="-1.113125">
        <ele>885.531</ele>
        <time>2012-06-11T06:27:33Z</time>
      </trkpt>
      <trkpt lat="40.325906" lon="-1.114402">
        <ele>887.084</ele>
        <time>2012-06-11T06:28:28Z</time>
      </trkpt>
      <trkpt lat="40.324452" lon="-1.115655">
        <ele>882.210</ele>
        <time>2012-06-11T06:28:59Z</time>
      </trkpt>
      <trkpt lat="40.320458" lon="-1.116380">
        <ele>882.257</ele>
        <time>2012-06-11T06:30:14Z</time>
      </trkpt>
      <trkpt lat="40.319037" lon="-1.117129">
        <ele>881.281</ele>
        <time>2012-06-11T06:30:56Z</time>
      </trkpt>
      <trkpt lat="40.317976" lon="-1.118411">
        <ele>880.758</ele>
        <time>2012-06-11T06:32:58Z</time>
      </trkpt>
      <trkpt lat="40.316041" lon="-1.118950">
        <ele>881.752</ele>
        <time>2012-06-11T06:33:37Z</time>
      </trkpt>
      <trkpt lat="40.312619" lon="-1.120777">
        <ele>883.617</ele>
        <time>2012-06-11T06:35:40Z</time>
      </trkpt>
      <trkpt lat="40.312095" lon="-1.121606">
        <ele>878.807</ele>
        <time>2012-06-11T06:36:34Z</time>
      </trkpt>
      <trkpt lat="40.312546" lon="-1.123306">
        <ele>872.138</ele>
        <time>2012-06-11T06:37:40Z</time>
      </trkpt>
      <trkpt lat="40.311772" lon="-1.124164">
        <ele>872.135</ele>
        <time>2012-06-11T06:38:13Z</time>
      </trkpt>
      <trkpt lat="40.310218" lon="-1.124830">
        <ele>870.628</ele>
        <time>2012-06-11T06:38:48Z</time>
      </trkpt>
      <trkpt lat="40.307377" lon="-1.125243">
        <ele>869.251</ele>
        <time>2012-06-11T06:39:54Z</time>
      </trkpt>
      <trkpt lat="40.306871" lon="-1.125538">
        <ele>868.787</ele>
        <time>2012-06-11T06:40:07Z</time>
      </trkpt>
      <trkpt lat="40.305583" lon="-1.125114">
        <ele>869.234</ele>
        <time>2012-06-11T06:40:38Z</time>
      </trkpt>
      <trkpt lat="40.301960" lon="-1.126426">
        <ele>867.388</ele>
        <time>2012-06-11T06:42:00Z</time>
      </trkpt>
      <trkpt lat="40.301715" lon="-1.126328">
        <ele>866.818</ele>
        <time>2012-06-11T06:42:08Z</time>
      </trkpt>
      <trkpt lat="40.301388" lon="-1.124477">
        <ele>870.198</ele>
        <time>2012-06-11T06:42:49Z</time>
      </trkpt>
      <trkpt lat="40.301075" lon="-1.123855">
        <ele>877.317</ele>
        <time>2012-06-11T06:43:18Z</time>
      </trkpt>
      <trkpt lat="40.299232" lon="-1.123879">
        <ele>878.807</ele>
        <time>2012-06-11T06:44:10Z</time>
      </trkpt>
      <trkpt lat="40.298752" lon="-1.123323">
        <ele>882.274</ele>
        <time>2012-06-11T06:44:31Z</time>
      </trkpt>
      <trkpt lat="40.298560" lon="-1.122656">
        <ele>882.221</ele>
        <time>2012-06-11T06:45:15Z</time>
      </trkpt>
      <trkpt lat="40.297996" lon="-1.122759">
        <ele>877.874</ele>
        <time>2012-06-11T06:45:32Z</time>
      </trkpt>
      <trkpt lat="40.297565" lon="-1.124499">
        <ele>873.037</ele>
        <time>2012-06-11T06:46:28Z</time>
      </trkpt>
      <trkpt lat="40.297897" lon="-1.126887">
        <ele>869.253</ele>
        <time>2012-06-11T06:46:58Z</time>
      </trkpt>
      <trkpt lat="40.299657" lon="-1.130161">
        <ele>865.870</ele>
        <time>2012-06-11T06:47:56Z</time>
      </trkpt>
      <trkpt lat="40.299182" lon="-1.130448">
        <ele>864.494</ele>
        <time>2012-06-11T06:48:29Z</time>
      </trkpt>
      <trkpt lat="40.297003" lon="-1.133049">
        <ele>863.989</ele>
        <time>2012-06-11T06:49:35Z</time>
      </trkpt>
      <trkpt lat="40.295599" lon="-1.134155">
        <ele>862.906</ele>
        <time>2012-06-11T06:50:11Z</time>
      </trkpt>
      <trkpt lat="40.295452" lon="-1.134560">
        <ele>862.426</ele>
        <time>2012-06-11T06:50:20Z</time>
      </trkpt>
      <trkpt lat="40.294559" lon="-1.135352">
        <ele>862.407</ele>
        <time>2012-06-11T06:50:45Z</time>
      </trkpt>
      <trkpt lat="40.292102" lon="-1.135890">
        <ele>862.041</ele>
        <time>2012-06-11T06:51:42Z</time>
      </trkpt>
      <trkpt lat="40.288557" lon="-1.137707">
        <ele>860.588</ele>
        <time>2012-06-11T06:53:15Z</time>
      </trkpt>
      <trkpt lat="40.287921" lon="-1.137672">
        <ele>860.071</ele>
        <time>2012-06-11T06:53:30Z</time>
      </trkpt>
      <trkpt lat="40.286003" lon="-1.136767">
        <ele>859.184</ele>
        <time>2012-06-11T06:54:23Z</time>
      </trkpt>
      <trkpt lat="40.284999" lon="-1.136945">
        <ele>858.670</ele>
        <time>2012-06-11T06:55:08Z</time>
      </trkpt>
      <trkpt lat="40.283692" lon="-1.138113">
        <ele>858.617</ele>
        <time>2012-06-11T06:55:56Z</time>
      </trkpt>
      <trkpt lat="40.285680" lon="-1.142660">
        <ele>862.451</ele>
        <time>2012-06-11T06:58:07Z</time>
      </trkpt>
      <trkpt lat="40.285476" lon="-1.142348">
        <ele>862.437</ele>
        <time>2012-06-11T06:58:31Z</time>
      </trkpt>
      <trkpt lat="40.285581" lon="-1.142726">
        <ele>864.849</ele>
        <time>2012-06-11T06:59:00Z</time>
      </trkpt>
      <trkpt lat="40.285281" lon="-1.142086">
        <ele>863.413</ele>
        <time>2012-06-11T06:59:29Z</time>
      </trkpt>
      <trkpt lat="40.284412" lon="-1.142748">
        <ele>859.107</ele>
        <time>2012-06-11T06:59:54Z</time>
      </trkpt>
      <trkpt lat="40.283710" lon="-1.142908">
        <ele>856.786</ele>
        <time>2012-06-11T07:00:07Z</time>
      </trkpt>
      <trkpt lat="40.282902" lon="-1.144291">
        <ele>853.393</ele>
        <time>2012-06-11T07:00:37Z</time>
      </trkpt>
      <trkpt lat="40.281962" lon="-1.145084">
        <ele>853.356</ele>
        <time>2012-06-11T07:01:01Z</time>
      </trkpt>
      <trkpt lat="40.281317" lon="-1.146285">
        <ele>853.389</ele>
        <time>2012-06-11T07:01:31Z</time>
      </trkpt>
      <trkpt lat="40.281652" lon="-1.146815">
        <ele>852.885</ele>
        <time>2012-06-11T07:01:43Z</time>
      </trkpt>
      <trkpt lat="40.280356" lon="-1.148665">
        <ele>851.942</ele>
        <time>2012-06-11T07:02:30Z</time>
      </trkpt>
      <trkpt lat="40.279637" lon="-1.150250">
        <ele>853.386</ele>
        <time>2012-06-11T07:03:08Z</time>
      </trkpt>
      <trkpt lat="40.278248" lon="-1.148541">
        <ele>852.425</ele>
        <time>2012-06-11T07:03:59Z</time>
      </trkpt>
      <trkpt lat="40.275976" lon="-1.146806">
        <ele>854.826</ele>
        <time>2012-06-11T07:05:02Z</time>
      </trkpt>
      <trkpt lat="40.272962" lon="-1.148080">
        <ele>855.208</ele>
        <time>2012-06-11T07:06:20Z</time>
      </trkpt>
      <trkpt lat="40.270027" lon="-1.150017">
        <ele>854.807</ele>
        <time>2012-06-11T07:07:30Z</time>
      </trkpt>
      <trkpt lat="40.268766" lon="-1.150505">
        <ele>857.675</ele>
        <time>2012-06-11T07:08:04Z</time>
      </trkpt>
      <trkpt lat="40.266617" lon="-1.149072">
        <ele>864.432</ele>
        <time>2012-06-11T07:09:13Z</time>
      </trkpt>
      <trkpt lat="40.263965" lon="-1.147732">
        <ele>872.585</ele>
        <time>2012-06-11T07:10:32Z</time>
      </trkpt>
      <trkpt lat="40.261992" lon="-1.148058">
        <ele>867.358</ele>
        <time>2012-06-11T07:12:27Z</time>
      </trkpt>
      <trkpt lat="40.261183" lon="-1.148513">
        <ele>863.494</ele>
        <time>2012-06-11T07:20:08Z</time>
      </trkpt>
      <trkpt lat="40.260466" lon="-1.148511">
        <ele>859.661</ele>
        <time>2012-06-11T07:20:21Z</time>
      </trkpt>
      <trkpt lat="40.258653" lon="-1.147820">
        <ele>863.985</ele>
        <time>2012-06-11T07:21:04Z</time>
      </trkpt>
      <trkpt lat="40.257552" lon="-1.147988">
        <ele>872.155</ele>
        <time>2012-06-11T07:21:57Z</time>
      </trkpt>
      <trkpt lat="40.256405" lon="-1.147111">
        <ele>879.707</ele>
        <time>2012-06-11T07:22:44Z</time>
      </trkpt>
      <trkpt lat="40.255373" lon="-1.146787">
        <ele>885.017</ele>
        <time>2012-06-11T07:23:24Z</time>
      </trkpt>
      <trkpt lat="40.255037" lon="-1.146936">
        <ele>885.507</ele>
        <time>2012-06-11T07:23:36Z</time>
      </trkpt>
      <trkpt lat="40.254139" lon="-1.146120">
        <ele>885.018</ele>
        <time>2012-06-11T07:24:05Z</time>
      </trkpt>
      <trkpt lat="40.253704" lon="-1.146419">
        <ele>885.575</ele>
        <time>2012-06-11T07:24:19Z</time>
      </trkpt>
      <trkpt lat="40.253790" lon="-1.147290">
        <ele>890.388</ele>
        <time>2012-06-11T07:24:47Z</time>
      </trkpt>
      <trkpt lat="40.253439" lon="-1.148147">
        <ele>890.351</ele>
        <time>2012-06-11T07:25:11Z</time>
      </trkpt>
      <trkpt lat="40.251085" lon="-1.149770">
        <ele>879.797</ele>
        <time>2012-06-11T07:26:04Z</time>
      </trkpt>
      <trkpt lat="40.250148" lon="-1.149825">
        <ele>872.534</ele>
        <time>2012-06-11T07:26:26Z</time>
      </trkpt>
      <trkpt lat="40.248800" lon="-1.149442">
        <ele>868.718</ele>
        <time>2012-06-11T07:26:56Z</time>
      </trkpt>
      <trkpt lat="40.245448" lon="-1.149126">
        <ele>871.648</ele>
        <time>2012-06-11T07:28:36Z</time>
      </trkpt>
      <trkpt lat="40.244827" lon="-1.148856">
        <ele>873.561</ele>
        <time>2012-06-11T07:28:58Z</time>
      </trkpt>
      <trkpt lat="40.243276" lon="-1.150325">
        <ele>874.517</ele>
        <time>2012-06-11T07:29:49Z</time>
      </trkpt>
      <trkpt lat="40.242293" lon="-1.149994">
        <ele>876.407</ele>
        <time>2012-06-11T07:30:17Z</time>
      </trkpt>
      <trkpt lat="40.241020" lon="-1.151929">
        <ele>874.597</ele>
        <time>2012-06-11T07:31:00Z</time>
      </trkpt>
      <trkpt lat="40.239484" lon="-1.155094">
        <ele>877.384</ele>
        <time>2012-06-11T07:32:11Z</time>
      </trkpt>
      <trkpt lat="40.240497" lon="-1.159627">
        <ele>863.447</ele>
        <time>2012-06-11T07:33:28Z</time>
      </trkpt>
      <trkpt lat="40.241235" lon="-1.159988">
        <ele>860.010</ele>
        <time>2012-06-11T07:33:47Z</time>
      </trkpt>
      <trkpt lat="40.241692" lon="-1.161423">
        <ele>851.926</ele>
        <time>2012-06-11T07:34:10Z</time>
      </trkpt>
      <trkpt lat="40.241920" lon="-1.164959">
        <ele>845.673</ele>
        <time>2012-06-11T07:35:07Z</time>
      </trkpt>
      <trkpt lat="40.242207" lon="-1.165294">
        <ele>843.747</ele>
        <time>2012-06-11T07:35:17Z</time>
      </trkpt>
      <trkpt lat="40.242288" lon="-1.166155">
        <ele>843.784</ele>
        <time>2012-06-11T07:35:35Z</time>
      </trkpt>
      <trkpt lat="40.242093" lon="-1.166852">
        <ele>842.707</ele>
        <time>2012-06-11T07:35:49Z</time>
      </trkpt>
      <trkpt lat="40.242260" lon="-1.168894">
        <ele>837.917</ele>
        <time>2012-06-11T07:36:16Z</time>
      </trkpt>
      <trkpt lat="40.241614" lon="-1.170973">
        <ele>836.507</ele>
        <time>2012-06-11T07:37:07Z</time>
      </trkpt>
      <trkpt lat="40.239447" lon="-1.171502">
        <ele>833.671</ele>
        <time>2012-06-11T07:39:34Z</time>
      </trkpt>
      <trkpt lat="40.238658" lon="-1.172275">
        <ele>833.118</ele>
        <time>2012-06-11T07:41:45Z</time>
      </trkpt>
      <trkpt lat="40.238551" lon="-1.172930">
        <ele>833.171</ele>
        <time>2012-06-11T07:42:05Z</time>
      </trkpt>
      <trkpt lat="40.238891" lon="-1.173726">
        <ele>831.774</ele>
        <time>2012-06-11T07:42:51Z</time>
      </trkpt>
      <trkpt lat="40.239019" lon="-1.175930">
        <ele>838.930</ele>
        <time>2012-06-11T07:43:57Z</time>
      </trkpt>
      <trkpt lat="40.238785" lon="-1.176723">
        <ele>836.097</ele>
        <time>2012-06-11T07:44:19Z</time>
      </trkpt>
      <trkpt lat="40.238372" lon="-1.176871">
        <ele>833.141</ele>
        <time>2012-06-11T07:44:32Z</time>
      </trkpt>
      <trkpt lat="40.238117" lon="-1.178319">
        <ele>835.022</ele>
        <time>2012-06-11T07:45:11Z</time>
      </trkpt>
      <trkpt lat="40.238531" lon="-1.179605">
        <ele>832.662</ele>
        <time>2012-06-11T07:45:58Z</time>
      </trkpt>
      <trkpt lat="40.238128" lon="-1.181008">
        <ele>834.108</ele>
        <time>2012-06-11T07:46:38Z</time>
      </trkpt>
      <trkpt lat="40.238548" lon="-1.183116">
        <ele>837.907</ele>
        <time>2012-06-11T07:47:34Z</time>
      </trkpt>
      <trkpt lat="40.238264" lon="-1.184985">
        <ele>832.265</ele>
        <time>2012-06-11T07:48:24Z</time>
      </trkpt>
      <trkpt lat="40.237400" lon="-1.186382">
        <ele>831.242</ele>
        <time>2012-06-11T07:49:05Z</time>
      </trkpt>
      <trkpt lat="40.235989" lon="-1.185906">
        <ele>830.285</ele>
        <time>2012-06-11T07:52:09Z</time>
      </trkpt>
      <trkpt lat="40.235830" lon="-1.186820">
        <ele>825.078</ele>
        <time>2012-06-11T07:52:31Z</time>
      </trkpt>
      <trkpt lat="40.236153" lon="-1.187866">
        <ele>827.864</ele>
        <time>2012-06-11T07:53:01Z</time>
      </trkpt>
      <trkpt lat="40.235747" lon="-1.188126">
        <ele>828.351</ele>
        <time>2012-06-11T07:53:20Z</time>
      </trkpt>
      <trkpt lat="40.235185" lon="-1.191055">
        <ele>834.155</ele>
        <time>2012-06-11T07:55:01Z</time>
      </trkpt>
      <trkpt lat="40.235573" lon="-1.192973">
        <ele>837.967</ele>
        <time>2012-06-11T07:55:51Z</time>
      </trkpt>
      <trkpt lat="40.236185" lon="-1.194707">
        <ele>844.781</ele>
        <time>2012-06-11T07:56:42Z</time>
      </trkpt>
      <trkpt lat="40.238253" lon="-1.196779">
        <ele>859.619</ele>
        <time>2012-06-11T08:02:15Z</time>
      </trkpt>
      <trkpt lat="40.238168" lon="-1.197587">
        <ele>864.407</ele>
        <time>2012-06-11T08:02:49Z</time>
      </trkpt>
      <trkpt lat="40.236738" lon="-1.198879">
        <ele>861.039</ele>
        <time>2012-06-11T08:03:24Z</time>
      </trkpt>
      <trkpt lat="40.235899" lon="-1.199990">
        <ele>862.996</ele>
        <time>2012-06-11T08:03:50Z</time>
      </trkpt>
      <trkpt lat="40.234999" lon="-1.204546">
        <ele>876.479</ele>
        <time>2012-06-11T08:05:38Z</time>
      </trkpt>
      <trkpt lat="40.234393" lon="-1.205828">
        <ele>884.132</ele>
        <time>2012-06-11T08:06:23Z</time>
      </trkpt>
      <trkpt lat="40.234211" lon="-1.207058">
        <ele>886.078</ele>
        <time>2012-06-11T08:06:55Z</time>
      </trkpt>
      <trkpt lat="40.235046" lon="-1.209686">
        <ele>892.795</ele>
        <time>2012-06-11T08:08:04Z</time>
      </trkpt>
      <trkpt lat="40.235322" lon="-1.211859">
        <ele>898.069</ele>
        <time>2012-06-11T08:08:58Z</time>
      </trkpt>
      <trkpt lat="40.234842" lon="-1.212637">
        <ele>900.914</ele>
        <time>2012-06-11T08:09:52Z</time>
      </trkpt>
      <trkpt lat="40.232564" lon="-1.213646">
        <ele>913.454</ele>
        <time>2012-06-11T08:11:39Z</time>
      </trkpt>
      <trkpt lat="40.232384" lon="-1.213975">
        <ele>914.809</ele>
        <time>2012-06-11T08:11:52Z</time>
      </trkpt>
      <trkpt lat="40.232539" lon="-1.215334">
        <ele>919.207</ele>
        <time>2012-06-11T08:13:00Z</time>
      </trkpt>
      <trkpt lat="40.233257" lon="-1.216463">
        <ele>923.064</ele>
        <time>2012-06-11T08:16:04Z</time>
      </trkpt>
      <trkpt lat="40.233463" lon="-1.217905">
        <ele>927.821</ele>
        <time>2012-06-11T08:16:47Z</time>
      </trkpt>
      <trkpt lat="40.232821" lon="-1.219789">
        <ele>932.634</ele>
        <time>2012-06-11T08:17:44Z</time>
      </trkpt>
      <trkpt lat="40.231889" lon="-1.221293">
        <ele>937.447</ele>
        <time>2012-06-11T08:18:35Z</time>
      </trkpt>
      <trkpt lat="40.231575" lon="-1.222748">
        <ele>939.823</ele>
        <time>2012-06-11T08:19:14Z</time>
      </trkpt>
      <trkpt lat="40.230763" lon="-1.223731">
        <ele>949.970</ele>
        <time>2012-06-11T08:20:08Z</time>
      </trkpt>
      <trkpt lat="40.228691" lon="-1.224960">
        <ele>974.934</ele>
        <time>2012-06-11T08:22:36Z</time>
      </trkpt>
      <trkpt lat="40.227937" lon="-1.225892">
        <ele>985.079</ele>
        <time>2012-06-11T08:24:35Z</time>
      </trkpt>
      <trkpt lat="40.228020" lon="-1.226048">
        <ele>986.005</ele>
        <time>2012-06-11T08:24:45Z</time>
      </trkpt>
      <trkpt lat="40.228818" lon="-1.225584">
        <ele>990.325</ele>
        <time>2012-06-11T08:25:23Z</time>
      </trkpt>
      <trkpt lat="40.228888" lon="-1.225756">
        <ele>992.207</ele>
        <time>2012-06-11T08:25:32Z</time>
      </trkpt>
      <trkpt lat="40.225981" lon="-1.227822">
        <ele>1018.290</ele>
        <time>2012-06-11T08:28:11Z</time>
      </trkpt>
      <trkpt lat="40.224626" lon="-1.229996">
        <ele>1032.657</ele>
        <time>2012-06-11T08:29:49Z</time>
      </trkpt>
      <trkpt lat="40.223172" lon="-1.230924">
        <ele>1040.870</ele>
        <time>2012-06-11T08:30:58Z</time>
      </trkpt>
      <trkpt lat="40.222266" lon="-1.232160">
        <ele>1044.153</ele>
        <time>2012-06-11T08:31:47Z</time>
      </trkpt>
      <trkpt lat="40.220352" lon="-1.232699">
        <ele>1057.129</ele>
        <time>2012-06-11T08:33:18Z</time>
      </trkpt>
      <trkpt lat="40.218673" lon="-1.233732">
        <ele>1070.196</ele>
        <time>2012-06-11T08:34:46Z</time>
      </trkpt>
      <trkpt lat="40.218025" lon="-1.233807">
        <ele>1074.460</ele>
        <time>2012-06-11T08:35:17Z</time>
      </trkpt>
      <trkpt lat="40.217482" lon="-1.234320">
        <ele>1077.843</ele>
        <time>2012-06-11T08:35:47Z</time>
      </trkpt>
      <trkpt lat="40.215995" lon="-1.234293">
        <ele>1086.064</ele>
        <time>2012-06-11T08:36:55Z</time>
      </trkpt>
      <trkpt lat="40.214963" lon="-1.235197">
        <ele>1092.710</ele>
        <time>2012-06-11T08:43:45Z</time>
      </trkpt>
      <trkpt lat="40.214043" lon="-1.233876">
        <ele>1103.707</ele>
        <time>2012-06-11T08:58:33Z</time>
      </trkpt>
      <trkpt lat="40.213369" lon="-1.233604">
        <ele>1110.047</ele>
        <time>2012-06-11T08:59:18Z</time>
      </trkpt>
      <trkpt lat="40.212804" lon="-1.232365">
        <ele>1126.854</ele>
        <time>2012-06-11T09:00:41Z</time>
      </trkpt>
      <trkpt lat="40.211002" lon="-1.230907">
        <ele>1141.227</ele>
        <time>2012-06-11T09:02:36Z</time>
      </trkpt>
      <trkpt lat="40.209496" lon="-1.231022">
        <ele>1152.830</ele>
        <time>2012-06-11T09:04:14Z</time>
      </trkpt>
      <trkpt lat="40.208613" lon="-1.229711">
        <ele>1159.546</ele>
        <time>2012-06-11T09:05:14Z</time>
      </trkpt>
      <trkpt lat="40.207663" lon="-1.229371">
        <ele>1166.763</ele>
        <time>2012-06-11T09:06:00Z</time>
      </trkpt>
      <trkpt lat="40.207129" lon="-1.228559">
        <ele>1166.737</ele>
        <time>2012-06-11T09:06:28Z</time>
      </trkpt>
      <trkpt lat="40.205473" lon="-1.229408">
        <ele>1172.598</ele>
        <time>2012-06-11T09:07:32Z</time>
      </trkpt>
      <trkpt lat="40.204103" lon="-1.229460">
        <ele>1167.715</ele>
        <time>2012-06-11T09:08:38Z</time>
      </trkpt>
      <trkpt lat="40.200701" lon="-1.231562">
        <ele>1138.826</ele>
        <time>2012-06-11T09:09:55Z</time>
      </trkpt>
      <trkpt lat="40.199974" lon="-1.231539">
        <ele>1133.107</ele>
        <time>2012-06-11T09:10:12Z</time>
      </trkpt>
      <trkpt lat="40.197580" lon="-1.230611">
        <ele>1114.882</ele>
        <time>2012-06-11T09:11:18Z</time>
      </trkpt>
      <trkpt lat="40.195147" lon="-1.231627">
        <ele>1083.149</ele>
        <time>2012-06-11T09:12:20Z</time>
      </trkpt>
      <trkpt lat="40.194165" lon="-1.231427">
        <ele>1077.842</ele>
        <time>2012-06-11T09:12:40Z</time>
      </trkpt>
      <trkpt lat="40.192105" lon="-1.233916">
        <ele>1067.735</ele>
        <time>2012-06-11T09:13:28Z</time>
      </trkpt>
      <trkpt lat="40.191459" lon="-1.235127">
        <ele>1061.971</ele>
        <time>2012-06-11T09:13:52Z</time>
      </trkpt>
      <trkpt lat="40.190676" lon="-1.235490">
        <ele>1048.958</ele>
        <time>2012-06-11T09:18:32Z</time>
      </trkpt>
      <trkpt lat="40.190227" lon="-1.236453">
        <ele>1034.552</ele>
        <time>2012-06-11T09:19:14Z</time>
      </trkpt>
      <trkpt lat="40.189687" lon="-1.236842">
        <ele>1025.929</ele>
        <time>2012-06-11T09:19:31Z</time>
      </trkpt>
      <trkpt lat="40.188600" lon="-1.236931">
        <ele>1011.000</ele>
        <time>2012-06-11T09:19:58Z</time>
      </trkpt>
      <trkpt lat="40.188695" lon="-1.237493">
        <ele>1002.320</ele>
        <time>2012-06-11T09:20:15Z</time>
      </trkpt>
      <trkpt lat="40.189383" lon="-1.238097">
        <ele>989.807</ele>
        <time>2012-06-11T09:20:40Z</time>
      </trkpt>
      <trkpt lat="40.190797" lon="-1.237267">
        <ele>980.755</ele>
        <time>2012-06-11T09:21:12Z</time>
      </trkpt>
      <trkpt lat="40.191965" lon="-1.237574">
        <ele>965.812</ele>
        <time>2012-06-11T09:21:32Z</time>
      </trkpt>
      <trkpt lat="40.191050" lon="-1.238046">
        <ele>949.435</ele>
        <time>2012-06-11T09:21:59Z</time>
      </trkpt>
      <trkpt lat="40.191171" lon="-1.238328">
        <ele>946.158</ele>
        <time>2012-06-11T09:22:07Z</time>
      </trkpt>
      <trkpt lat="40.192162" lon="-1.238467">
        <ele>935.034</ele>
        <time>2012-06-11T09:22:27Z</time>
      </trkpt>
      <trkpt lat="40.193348" lon="-1.239334">
        <ele>918.711</ele>
        <time>2012-06-11T09:24:15Z</time>
      </trkpt>
      <trkpt lat="40.193492" lon="-1.239685">
        <ele>913.965</ele>
        <time>2012-06-11T09:24:22Z</time>
      </trkpt>
      <trkpt lat="40.193322" lon="-1.240094">
        <ele>910.085</ele>
        <time>2012-06-11T09:24:30Z</time>
      </trkpt>
      <trkpt lat="40.190773" lon="-1.239699">
        <ele>903.389</ele>
        <time>2012-06-11T09:27:47Z</time>
      </trkpt>
      <trkpt lat="40.189540" lon="-1.240104">
        <ele>894.217</ele>
        <time>2012-06-11T09:28:13Z</time>
      </trkpt>
      <trkpt lat="40.186036" lon="-1.242562">
        <ele>878.807</ele>
        <time>2012-06-11T09:29:12Z</time>
      </trkpt>
      <trkpt lat="40.185660" lon="-1.243155">
        <ele>875.941</ele>
        <time>2012-06-11T09:29:23Z</time>
      </trkpt>
      <trkpt lat="40.184766" lon="-1.243543">
        <ele>870.128</ele>
        <time>2012-06-11T09:30:35Z</time>
      </trkpt>
      <trkpt lat="40.184141" lon="-1.244845">
        <ele>864.411</ele>
        <time>2012-06-11T09:30:57Z</time>
      </trkpt>
      <trkpt lat="40.183429" lon="-1.245042">
        <ele>859.654</ele>
        <time>2012-06-11T09:31:42Z</time>
      </trkpt>
      <trkpt lat="40.182657" lon="-1.244835">
        <ele>852.430</ele>
        <time>2012-06-11T09:31:58Z</time>
      </trkpt>
      <trkpt lat="40.181692" lon="-1.245757">
        <ele>848.067</ele>
        <time>2012-06-11T09:32:24Z</time>
      </trkpt>
      <trkpt lat="40.180403" lon="-1.245723">
        <ele>845.111</ele>
        <time>2012-06-11T09:33:16Z</time>
      </trkpt>
      <trkpt lat="40.178460" lon="-1.246724">
        <ele>841.361</ele>
        <time>2012-06-11T09:33:58Z</time>
      </trkpt>
      <trkpt lat="40.177798" lon="-1.246296">
        <ele>839.921</ele>
        <time>2012-06-11T09:34:12Z</time>
      </trkpt>
      <trkpt lat="40.176661" lon="-1.246505">
        <ele>837.013</ele>
        <time>2012-06-11T09:34:38Z</time>
      </trkpt>
      <trkpt lat="40.174774" lon="-1.245171">
        <ele>831.207</ele>
        <time>2012-06-11T09:35:27Z</time>
      </trkpt>
      <trkpt lat="40.173857" lon="-1.245460">
        <ele>829.339</ele>
        <time>2012-06-11T09:35:51Z</time>
      </trkpt>
      <trkpt lat="40.171628" lon="-1.244583">
        <ele>822.656</ele>
        <time>2012-06-11T09:39:15Z</time>
      </trkpt>
      <trkpt lat="40.171023" lon="-1.244807">
        <ele>821.129</ele>
        <time>2012-06-11T09:39:34Z</time>
      </trkpt>
      <trkpt lat="40.169922" lon="-1.244654">
        <ele>819.242</ele>
        <time>2012-06-11T09:40:01Z</time>
      </trkpt>
      <trkpt lat="40.169576" lon="-1.244901">
        <ele>818.288</ele>
        <time>2012-06-11T09:40:13Z</time>
      </trkpt>
      <trkpt lat="40.167168" lon="-1.244221">
        <ele>814.465</ele>
        <time>2012-06-11T09:41:23Z</time>
      </trkpt>
      <trkpt lat="40.166300" lon="-1.243012">
        <ele>818.779</ele>
        <time>2012-06-11T09:42:31Z</time>
      </trkpt>
      <trkpt lat="40.166289" lon="-1.242668">
        <ele>822.166</ele>
        <time>2012-06-11T09:42:50Z</time>
      </trkpt>
      <trkpt lat="40.167039" lon="-1.242645">
        <ele>830.229</ele>
        <time>2012-06-11T09:43:30Z</time>
      </trkpt>
      <trkpt lat="40.167704" lon="-1.242251">
        <ele>832.621</ele>
        <time>2012-06-11T09:44:01Z</time>
      </trkpt>
      <trkpt lat="40.168575" lon="-1.242488">
        <ele>840.807</ele>
        <time>2012-06-11T09:44:42Z</time>
      </trkpt>
      <trkpt lat="40.169127" lon="-1.242133">
        <ele>849.069</ele>
        <time>2012-06-11T09:45:18Z</time>
      </trkpt>
      <trkpt lat="40.167456" lon="-1.241308">
        <ele>855.716</ele>
        <time>2012-06-11T09:46:26Z</time>
      </trkpt>
      <trkpt lat="40.167107" lon="-1.240199">
        <ele>856.759</ele>
        <time>2012-06-11T09:46:50Z</time>
      </trkpt>
      <trkpt lat="40.166661" lon="-1.240104">
        <ele>857.682</ele>
        <time>2012-06-11T09:47:01Z</time>
      </trkpt>
      <trkpt lat="40.164402" lon="-1.240887">
        <ele>855.778</ele>
        <time>2012-06-11T09:47:52Z</time>
      </trkpt>
      <trkpt lat="40.163425" lon="-1.240952">
        <ele>855.245</ele>
        <time>2012-06-11T09:48:10Z</time>
      </trkpt>
      <trkpt lat="40.160585" lon="-1.239188">
        <ele>854.369</ele>
        <time>2012-06-11T09:49:13Z</time>
      </trkpt>
      <trkpt lat="40.160314" lon="-1.238116">
        <ele>855.215</ele>
        <time>2012-06-11T09:51:26Z</time>
      </trkpt>
      <trkpt lat="40.158131" lon="-1.237065">
        <ele>846.165</ele>
        <time>2012-06-11T09:52:58Z</time>
      </trkpt>
      <trkpt lat="40.157565" lon="-1.235966">
        <ele>838.411</ele>
        <time>2012-06-11T09:53:13Z</time>
      </trkpt>
      <trkpt lat="40.157583" lon="-1.235341">
        <ele>834.107</ele>
        <time>2012-06-11T09:53:21Z</time>
      </trkpt>
      <trkpt lat="40.158056" lon="-1.235422">
        <ele>833.174</ele>
        <time>2012-06-11T09:53:28Z</time>
      </trkpt>
      <trkpt lat="40.158200" lon="-1.235212">
        <ele>832.261</ele>
        <time>2012-06-11T09:53:32Z</time>
      </trkpt>
      <trkpt lat="40.157473" lon="-1.234802">
        <ele>827.814</ele>
        <time>2012-06-11T09:53:43Z</time>
      </trkpt>
      <trkpt lat="40.156680" lon="-1.234823">
        <ele>820.677</ele>
        <time>2012-06-11T09:53:54Z</time>
      </trkpt>
      <trkpt lat="40.155808" lon="-1.233472">
        <ele>811.093</ele>
        <time>2012-06-11T09:54:16Z</time>
      </trkpt>
      <trkpt lat="40.156174" lon="-1.232651">
        <ele>807.280</ele>
        <time>2012-06-11T09:55:30Z</time>
      </trkpt>
      <trkpt lat="40.155262" lon="-1.233571">
        <ele>799.514</ele>
        <time>2012-06-11T09:55:54Z</time>
      </trkpt>
      <trkpt lat="40.154886" lon="-1.233184">
        <ele>798.042</ele>
        <time>2012-06-11T09:56:07Z</time>
      </trkpt>
      <trkpt lat="40.155472" lon="-1.231920">
        <ele>790.822</ele>
        <time>2012-06-11T09:57:02Z</time>
      </trkpt>
      <trkpt lat="40.155888" lon="-1.231498">
        <ele>790.314</ele>
        <time>2012-06-11T09:57:14Z</time>
      </trkpt>
      <trkpt lat="40.158429" lon="-1.231705">
        <ele>775.407</ele>
        <time>2012-06-11T09:58:14Z</time>
      </trkpt>
      <trkpt lat="40.159060" lon="-1.232063">
        <ele>775.417</ele>
        <time>2012-06-11T09:58:30Z</time>
      </trkpt>
      <trkpt lat="40.160027" lon="-1.233160">
        <ele>776.434</ele>
        <time>2012-06-11T09:59:42Z</time>
      </trkpt>
      <trkpt lat="40.160292" lon="-1.232788">
        <ele>775.937</ele>
        <time>2012-06-11T10:00:44Z</time>
      </trkpt>
      <trkpt lat="40.159835" lon="-1.231201">
        <ele>774.510</ele>
        <time>2012-06-11T10:03:33Z</time>
      </trkpt>
      <trkpt lat="40.157946" lon="-1.229568">
        <ele>779.316</ele>
        <time>2012-06-11T10:05:16Z</time>
      </trkpt>
      <trkpt lat="40.156346" lon="-1.228958">
        <ele>777.453</ele>
        <time>2012-06-11T10:05:59Z</time>
      </trkpt>
      <trkpt lat="40.156182" lon="-1.228025">
        <ele>774.077</ele>
        <time>2012-06-11T10:06:25Z</time>
      </trkpt>
      <trkpt lat="40.155860" lon="-1.227745">
        <ele>775.494</ele>
        <time>2012-06-11T10:06:37Z</time>
      </trkpt>
      <trkpt lat="40.155557" lon="-1.228292">
        <ele>779.357</ele>
        <time>2012-06-11T10:06:59Z</time>
      </trkpt>
      <trkpt lat="40.154876" lon="-1.228223">
        <ele>782.222</ele>
        <time>2012-06-11T10:07:27Z</time>
      </trkpt>
      <trkpt lat="40.154340" lon="-1.227536">
        <ele>781.207</ele>
        <time>2012-06-11T10:07:50Z</time>
      </trkpt>
      <trkpt lat="40.153759" lon="-1.227957">
        <ele>782.722</ele>
        <time>2012-06-11T10:11:33Z</time>
      </trkpt>
      <trkpt lat="40.153058" lon="-1.227686">
        <ele>783.659</ele>
        <time>2012-06-11T10:11:56Z</time>
      </trkpt>
      <trkpt lat="40.151005" lon="-1.228863">
        <ele>773.532</ele>
        <time>2012-06-11T10:12:46Z</time>
      </trkpt>
      <trkpt lat="40.149935" lon="-1.230468">
        <ele>770.645</ele>
        <time>2012-06-11T10:13:58Z</time>
      </trkpt>
      <trkpt lat="40.149395" lon="-1.231964">
        <ele>772.181</ele>
        <time>2012-06-11T10:14:25Z</time>
      </trkpt>
      <trkpt lat="40.149058" lon="-1.233860">
        <ele>769.728</ele>
        <time>2012-06-11T10:14:53Z</time>
      </trkpt>
      <trkpt lat="40.148315" lon="-1.235572">
        <ele>769.252</ele>
        <time>2012-06-11T10:15:29Z</time>
      </trkpt>
      <trkpt lat="40.147706" lon="-1.235695">
        <ele>769.796</ele>
        <time>2012-06-11T10:15:45Z</time>
      </trkpt>
      <trkpt lat="40.147646" lon="-1.237043">
        <ele>777.831</ele>
        <time>2012-06-11T10:16:26Z</time>
      </trkpt>
      <trkpt lat="40.147250" lon="-1.238286">
        <ele>781.224</ele>
        <time>2012-06-11T10:17:05Z</time>
      </trkpt>
      <trkpt lat="40.145633" lon="-1.240561">
        <ele>773.007</ele>
        <time>2012-06-11T10:17:58Z</time>
      </trkpt>
      <trkpt lat="40.143216" lon="-1.241800">
        <ele>768.792</ele>
        <time>2012-06-11T10:19:27Z</time>
      </trkpt>
      <trkpt lat="40.143334" lon="-1.243807">
        <ele>765.469</ele>
        <time>2012-06-11T10:20:23Z</time>
      </trkpt>
      <trkpt lat="40.142586" lon="-1.242267">
        <ele>768.272</ele>
        <time>2012-06-11T10:21:18Z</time>
      </trkpt>
      <trkpt lat="40.141297" lon="-1.242843">
        <ele>769.265</ele>
        <time>2012-06-11T10:21:55Z</time>
      </trkpt>
      <trkpt lat="40.140119" lon="-1.243820">
        <ele>770.261</ele>
        <time>2012-06-11T10:22:35Z</time>
      </trkpt>
      <trkpt lat="40.139720" lon="-1.243125">
        <ele>772.668</ele>
        <time>2012-06-11T10:22:57Z</time>
      </trkpt>
      <trkpt lat="40.139285" lon="-1.244665">
        <ele>777.472</ele>
        <time>2012-06-11T10:23:40Z</time>
      </trkpt>
      <trkpt lat="40.136464" lon="-1.246305">
        <ele>766.327</ele>
        <time>2012-06-11T10:24:46Z</time>
      </trkpt>
      <trkpt lat="40.136009" lon="-1.246042">
        <ele>764.468</ele>
        <time>2012-06-11T10:25:31Z</time>
      </trkpt>
      <trkpt lat="40.134640" lon="-1.246032">
        <ele>766.814</ele>
        <time>2012-06-11T10:26:10Z</time>
      </trkpt>
      <trkpt lat="40.132698" lon="-1.244837">
        <ele>766.807</ele>
        <time>2012-06-11T10:27:01Z</time>
      </trkpt>
      <trkpt lat="40.131230" lon="-1.245359">
        <ele>762.075</ele>
        <time>2012-06-11T10:27:33Z</time>
      </trkpt>
      <trkpt lat="40.130718" lon="-1.245062">
        <ele>761.082</ele>
        <time>2012-06-11T10:27:45Z</time>
      </trkpt>
      <trkpt lat="40.130268" lon="-1.245408">
        <ele>762.035</ele>
        <time>2012-06-11T10:27:59Z</time>
      </trkpt>
      <trkpt lat="40.126928" lon="-1.245904">
        <ele>756.218</ele>
        <time>2012-06-11T10:34:25Z</time>
      </trkpt>
      <trkpt lat="40.124544" lon="-1.248110">
        <ele>757.244</ele>
        <time>2012-06-11T10:35:31Z</time>
      </trkpt>
      <trkpt lat="40.122886" lon="-1.250871">
        <ele>755.321</ele>
        <time>2012-06-11T10:36:38Z</time>
      </trkpt>
      <trkpt lat="40.122582" lon="-1.253242">
        <ele>752.465</ele>
        <time>2012-06-11T10:37:56Z</time>
      </trkpt>
      <trkpt lat="40.121311" lon="-1.256223">
        <ele>753.849</ele>
        <time>2012-06-11T10:39:01Z</time>
      </trkpt>
      <trkpt lat="40.120603" lon="-1.256983">
        <ele>754.802</ele>
        <time>2012-06-11T10:39:26Z</time>
      </trkpt>
      <trkpt lat="40.118697" lon="-1.256706">
        <ele>754.822</ele>
        <time>2012-06-11T10:40:40Z</time>
      </trkpt>
      <trkpt lat="40.115142" lon="-1.252110">
        <ele>748.007</ele>
        <time>2012-06-11T10:42:35Z</time>
      </trkpt>
      <trkpt lat="40.112944" lon="-1.251249">
        <ele>754.367</ele>
        <time>2012-06-11T10:43:41Z</time>
      </trkpt>
      <trkpt lat="40.112190" lon="-1.251803">
        <ele>750.034</ele>
        <time>2012-06-11T10:43:58Z</time>
      </trkpt>
      <trkpt lat="40.110981" lon="-1.251682">
        <ele>750.527</ele>
        <time>2012-06-11T10:44:24Z</time>
      </trkpt>
      <trkpt lat="40.110355" lon="-1.251901">
        <ele>750.550</ele>
        <time>2012-06-11T10:44:41Z</time>
      </trkpt>
      <trkpt lat="40.108420" lon="-1.251440">
        <ele>748.516</ele>
        <time>2012-06-11T10:45:29Z</time>
      </trkpt>
      <trkpt lat="40.107516" lon="-1.251634">
        <ele>748.533</ele>
        <time>2012-06-11T10:45:48Z</time>
      </trkpt>
      <trkpt lat="40.106576" lon="-1.250941">
        <ele>748.537</ele>
        <time>2012-06-11T10:46:17Z</time>
      </trkpt>
      <trkpt lat="40.105616" lon="-1.250707">
        <ele>746.646</ele>
        <time>2012-06-11T10:46:34Z</time>
      </trkpt>
      <trkpt lat="40.103940" lon="-1.251354">
        <ele>744.788</ele>
        <time>2012-06-11T10:47:10Z</time>
      </trkpt>
      <trkpt lat="40.102468" lon="-1.252643">
        <ele>735.616</ele>
        <time>2012-06-11T10:47:35Z</time>
      </trkpt>
      <trkpt lat="40.100868" lon="-1.253098">
        <ele>736.507</ele>
        <time>2012-06-11T10:48:09Z</time>
      </trkpt>
      <trkpt lat="40.100755" lon="-1.253408">
        <ele>735.647</ele>
        <time>2012-06-11T10:48:23Z</time>
      </trkpt>
      <trkpt lat="40.099681" lon="-1.253502">
        <ele>734.174</ele>
        <time>2012-06-11T10:48:48Z</time>
      </trkpt>
      <trkpt lat="40.099306" lon="-1.253831">
        <ele>734.697</ele>
        <time>2012-06-11T10:49:01Z</time>
      </trkpt>
      <trkpt lat="40.099030" lon="-1.256728">
        <ele>736.060</ele>
        <time>2012-06-11T10:50:03Z</time>
      </trkpt>
      <trkpt lat="40.098047" lon="-1.256793">
        <ele>734.156</ele>
        <time>2012-06-11T10:50:25Z</time>
      </trkpt>
      <trkpt lat="40.096249" lon="-1.256289">
        <ele>742.883</ele>
        <time>2012-06-11T10:51:26Z</time>
      </trkpt>
      <trkpt lat="40.095307" lon="-1.255140">
        <ele>736.517</ele>
        <time>2012-06-11T10:52:45Z</time>
      </trkpt>
      <trkpt lat="40.093823" lon="-1.254215">
        <ele>735.131</ele>
        <time>2012-06-11T10:53:37Z</time>
      </trkpt>
      <trkpt lat="40.093703" lon="-1.254939">
        <ele>736.561</ele>
        <time>2012-06-11T10:54:08Z</time>
      </trkpt>
      <trkpt lat="40.093229" lon="-1.254726">
        <ele>737.507</ele>
        <time>2012-06-11T10:54:31Z</time>
      </trkpt>
      <trkpt lat="40.091784" lon="-1.254840">
        <ele>734.107</ele>
        <time>2012-06-11T10:55:16Z</time>
      </trkpt>
      <trkpt lat="40.090333" lon="-1.255435">
        <ele>738.056</ele>
        <time>2012-06-11T10:55:53Z</time>
      </trkpt>
      <trkpt lat="40.089490" lon="-1.255082">
        <ele>740.493</ele>
        <time>2012-06-11T10:56:51Z</time>
      </trkpt>
      <trkpt lat="40.088573" lon="-1.255219">
        <ele>735.136</ele>
        <time>2012-06-11T10:57:07Z</time>
      </trkpt>
      <trkpt lat="40.088272" lon="-1.254795">
        <ele>731.299</ele>
        <time>2012-06-11T10:57:24Z</time>
      </trkpt>
      <trkpt lat="40.087756" lon="-1.255021">
        <ele>728.875</ele>
        <time>2012-06-11T10:57:34Z</time>
      </trkpt>
      <trkpt lat="40.087047" lon="-1.254910">
        <ele>728.832</ele>
        <time>2012-06-11T10:57:56Z</time>
      </trkpt>
      <trkpt lat="40.086767" lon="-1.258508">
        <ele>727.916</ele>
        <time>2012-06-11T10:59:58Z</time>
      </trkpt>
      <trkpt lat="40.087870" lon="-1.259415">
        <ele>726.932</ele>
        <time>2012-06-11T11:00:29Z</time>
      </trkpt>
      <trkpt lat="40.087011" lon="-1.261768">
        <ele>725.992</ele>
        <time>2012-06-11T11:01:17Z</time>
      </trkpt>
      <trkpt lat="40.085600" lon="-1.263477">
        <ele>725.911</ele>
        <time>2012-06-11T11:02:00Z</time>
      </trkpt>
      <trkpt lat="40.084950" lon="-1.264660">
        <ele>725.907</ele>
        <time>2012-06-11T11:02:25Z</time>
      </trkpt>
      <trkpt lat="40.082751" lon="-1.264792">
        <ele>725.036</ele>
        <time>2012-06-11T11:03:12Z</time>
      </trkpt>
      <trkpt lat="40.081232" lon="-1.263899">
        <ele>724.093</ele>
        <time>2012-06-11T11:03:49Z</time>
      </trkpt>
      <trkpt lat="40.079915" lon="-1.263902">
        <ele>723.166</ele>
        <time>2012-06-11T11:04:19Z</time>
      </trkpt>
      <trkpt lat="40.078378" lon="-1.262061">
        <ele>724.089</ele>
        <time>2012-06-11T11:06:34Z</time>
      </trkpt>
      <trkpt lat="40.078072" lon="-1.262018">
        <ele>724.535</ele>
        <time>2012-06-11T11:06:43Z</time>
      </trkpt>
      <trkpt lat="40.077405" lon="-1.262900">
        <ele>723.542</ele>
        <time>2012-06-11T11:07:06Z</time>
      </trkpt>
      <trkpt lat="40.077161" lon="-1.266896">
        <ele>723.126</ele>
        <time>2012-06-11T11:08:18Z</time>
      </trkpt>
      <trkpt lat="40.076962" lon="-1.267239">
        <ele>723.114</ele>
        <time>2012-06-11T11:08:26Z</time>
      </trkpt>
      <trkpt lat="40.075066" lon="-1.266927">
        <ele>721.654</ele>
        <time>2012-06-11T11:09:10Z</time>
      </trkpt>
      <trkpt lat="40.074074" lon="-1.266297">
        <ele>720.209</ele>
        <time>2012-06-11T11:09:35Z</time>
      </trkpt>
      <trkpt lat="40.073387" lon="-1.266303">
        <ele>722.607</ele>
        <time>2012-06-11T11:09:54Z</time>
      </trkpt>
      <trkpt lat="40.073220" lon="-1.266600">
        <ele>722.194</ele>
        <time>2012-06-11T11:10:01Z</time>
      </trkpt>
      <trkpt lat="40.073140" lon="-1.268378">
        <ele>721.191</ele>
        <time>2012-06-11T11:10:33Z</time>
      </trkpt>
      <trkpt lat="40.071752" lon="-1.273071">
        <ele>719.744</ele>
        <time>2012-06-11T11:12:02Z</time>
      </trkpt>
      <trkpt lat="40.070453" lon="-1.274231">
        <ele>719.787</ele>
        <time>2012-06-11T11:12:37Z</time>
      </trkpt>
      <trkpt lat="40.069448" lon="-1.274659">
        <ele>719.773</ele>
        <time>2012-06-11T11:12:59Z</time>
      </trkpt>
      <trkpt lat="40.068324" lon="-1.275575">
        <ele>719.260</ele>
        <time>2012-06-11T11:13:28Z</time>
      </trkpt>
      <trkpt lat="40.067192" lon="-1.279267">
        <ele>718.754</ele>
        <time>2012-06-11T11:14:36Z</time>
      </trkpt>
      <trkpt lat="40.066464" lon="-1.280185">
        <ele>717.869</ele>
        <time>2012-06-11T11:15:02Z</time>
      </trkpt>
      <trkpt lat="40.066424" lon="-1.280828">
        <ele>720.204</ele>
        <time>2012-06-11T11:15:18Z</time>
      </trkpt>
      <trkpt lat="40.066729" lon="-1.281188">
        <ele>720.724</ele>
        <time>2012-06-11T11:19:52Z</time>
      </trkpt>
      <trkpt lat="40.066197" lon="-1.282071">
        <ele>719.207</ele>
        <time>2012-06-11T11:20:13Z</time>
      </trkpt>
      <trkpt lat="40.065792" lon="-1.283936">
        <ele>721.189</ele>
        <time>2012-06-11T11:20:49Z</time>
      </trkpt>
      <trkpt lat="40.064739" lon="-1.284738">
        <ele>741.856</ele>
        <time>2012-06-11T12:42:59Z</time>
      </trkpt>
      <trkpt lat="40.062196" lon="-1.285397">
        <ele>740.449</ele>
        <time>2012-06-11T12:49:18Z</time>
      </trkpt>
      <trkpt lat="40.061000" lon="-1.285228">
        <ele>738.422</ele>
        <time>2012-06-11T12:50:03Z</time>
      </trkpt>
      <trkpt lat="40.058479" lon="-1.285997">
        <ele>733.118</ele>
        <time>2012-06-11T12:52:27Z</time>
      </trkpt>
      <trkpt lat="40.058557" lon="-1.286569">
        <ele>736.575</ele>
        <time>2012-06-11T12:52:47Z</time>
      </trkpt>
      <trkpt lat="40.057751" lon="-1.286440">
        <ele>736.099</ele>
        <time>2012-06-11T12:53:40Z</time>
      </trkpt>
      <trkpt lat="40.057906" lon="-1.284812">
        <ele>735.688</ele>
        <time>2012-06-11T12:54:11Z</time>
      </trkpt>
      <trkpt lat="40.058508" lon="-1.283542">
        <ele>735.124</ele>
        <time>2012-06-11T12:54:38Z</time>
      </trkpt>
      <trkpt lat="40.059140" lon="-1.283094">
        <ele>736.526</ele>
        <time>2012-06-11T12:55:00Z</time>
      </trkpt>
      <trkpt lat="40.058509" lon="-1.283027">
        <ele>745.607</ele>
        <time>2012-06-11T12:56:06Z</time>
      </trkpt>
      <trkpt lat="40.057821" lon="-1.283481">
        <ele>758.161</ele>
        <time>2012-06-11T12:57:07Z</time>
      </trkpt>
      <trkpt lat="40.057853" lon="-1.282695">
        <ele>765.468</ele>
        <time>2012-06-11T12:57:51Z</time>
      </trkpt>
      <trkpt lat="40.056490" lon="-1.281582">
        <ele>781.261</ele>
        <time>2012-06-11T12:59:31Z</time>
      </trkpt>
      <trkpt lat="40.055646" lon="-1.281276">
        <ele>783.664</ele>
        <time>2012-06-11T13:00:07Z</time>
      </trkpt>
      <trkpt lat="40.054579" lon="-1.282205">
        <ele>788.480</ele>
        <time>2012-06-11T13:00:56Z</time>
      </trkpt>
      <trkpt lat="40.054012" lon="-1.283938">
        <ele>806.737</ele>
        <time>2012-06-11T13:02:26Z</time>
      </trkpt>
      <trkpt lat="40.053873" lon="-1.285113">
        <ele>814.411</ele>
        <time>2012-06-11T13:03:27Z</time>
      </trkpt>
      <trkpt lat="40.053043" lon="-1.286761">
        <ele>835.068</ele>
        <time>2012-06-11T13:05:04Z</time>
      </trkpt>
      <trkpt lat="40.052914" lon="-1.287674">
        <ele>843.242</ele>
        <time>2012-06-11T13:07:07Z</time>
      </trkpt>
      <trkpt lat="40.052119" lon="-1.287753">
        <ele>856.226</ele>
        <time>2012-06-11T13:08:09Z</time>
      </trkpt>
      <trkpt lat="40.051073" lon="-1.286993">
        <ele>874.907</ele>
        <time>2012-06-11T13:09:44Z</time>
      </trkpt>
      <trkpt lat="40.050710" lon="-1.285990">
        <ele>883.169</ele>
        <time>2012-06-11T13:13:53Z</time>
      </trkpt>
      <trkpt lat="40.048482" lon="-1.287184">
        <ele>913.916</ele>
        <time>2012-06-11T13:16:48Z</time>
      </trkpt>
      <trkpt lat="40.048496" lon="-1.288837">
        <ele>918.779</ele>
        <time>2012-06-11T13:17:56Z</time>
      </trkpt>
      <trkpt lat="40.047936" lon="-1.289875">
        <ele>924.972</ele>
        <time>2012-06-11T13:18:46Z</time>
      </trkpt>
      <trkpt lat="40.047221" lon="-1.290599">
        <ele>935.078</ele>
        <time>2012-06-11T13:19:45Z</time>
      </trkpt>
      <trkpt lat="40.047810" lon="-1.291299">
        <ele>938.985</ele>
        <time>2012-06-11T13:20:18Z</time>
      </trkpt>
      <trkpt lat="40.049017" lon="-1.291777">
        <ele>942.759</ele>
        <time>2012-06-11T13:21:03Z</time>
      </trkpt>
      <trkpt lat="40.049545" lon="-1.293812">
        <ele>956.246</ele>
        <time>2012-06-11T13:22:25Z</time>
      </trkpt>
      <trkpt lat="40.049950" lon="-1.294545">
        <ele>960.088</ele>
        <time>2012-06-11T13:22:50Z</time>
      </trkpt>
      <trkpt lat="40.049772" lon="-1.294740">
        <ele>963.416</ele>
        <time>2012-06-11T13:23:03Z</time>
      </trkpt>
      <trkpt lat="40.048784" lon="-1.294684">
        <ele>971.107</ele>
        <time>2012-06-11T13:23:54Z</time>
      </trkpt>
      <trkpt lat="40.048679" lon="-1.294145">
        <ele>973.037</ele>
        <time>2012-06-11T13:24:14Z</time>
      </trkpt>
      <trkpt lat="40.048247" lon="-1.293799">
        <ele>977.844</ele>
        <time>2012-06-11T13:24:42Z</time>
      </trkpt>
      <trkpt lat="40.047879" lon="-1.294439">
        <ele>984.547</ele>
        <time>2012-06-11T13:25:25Z</time>
      </trkpt>
      <trkpt lat="40.045808" lon="-1.294224">
        <ele>993.210</ele>
        <time>2012-06-11T13:30:00Z</time>
      </trkpt>
      <trkpt lat="40.045576" lon="-1.294897">
        <ele>996.586</ele>
        <time>2012-06-11T13:30:42Z</time>
      </trkpt>
      <trkpt lat="40.046103" lon="-1.296029">
        <ele>998.513</ele>
        <time>2012-06-11T13:31:36Z</time>
      </trkpt>
      <trkpt lat="40.046217" lon="-1.296954">
        <ele>1002.367</ele>
        <time>2012-06-11T13:32:12Z</time>
      </trkpt>
      <trkpt lat="40.045300" lon="-1.301586">
        <ele>1023.917</ele>
        <time>2012-06-11T13:40:06Z</time>
      </trkpt>
      <trkpt lat="40.044929" lon="-1.302574">
        <ele>1029.287</ele>
        <time>2012-06-11T13:40:55Z</time>
      </trkpt>
      <trkpt lat="40.044187" lon="-1.303079">
        <ele>1032.615</ele>
        <time>2012-06-11T13:41:39Z</time>
      </trkpt>
      <trkpt lat="40.043007" lon="-1.304761">
        <ele>1039.807</ele>
        <time>2012-06-11T13:43:07Z</time>
      </trkpt>
      <trkpt lat="40.041883" lon="-1.305110">
        <ele>1039.364</ele>
        <time>2012-06-11T13:43:40Z</time>
      </trkpt>
      <trkpt lat="40.040057" lon="-1.306360">
        <ele>1037.481</ele>
        <time>2012-06-11T13:44:32Z</time>
      </trkpt>
      <trkpt lat="40.039476" lon="-1.308170">
        <ele>1036.464</ele>
        <time>2012-06-11T13:45:25Z</time>
      </trkpt>
      <trkpt lat="40.040462" lon="-1.309975">
        <ele>1027.357</ele>
        <time>2012-06-11T13:48:48Z</time>
      </trkpt>
      <trkpt lat="40.039310" lon="-1.311425">
        <ele>1026.873</ele>
        <time>2012-06-11T13:49:48Z</time>
      </trkpt>
      <trkpt lat="40.039364" lon="-1.311889">
        <ele>1025.920</ele>
        <time>2012-06-11T13:49:58Z</time>
      </trkpt>
      <trkpt lat="40.035348" lon="-1.317459">
        <ele>1063.854</ele>
        <time>2012-06-11T13:57:00Z</time>
      </trkpt>
      <trkpt lat="40.032915" lon="-1.326159">
        <ele>1089.397</ele>
        <time>2012-06-11T14:03:27Z</time>
      </trkpt>
      <trkpt lat="40.029402" lon="-1.329007">
        <ele>1112.923</ele>
        <time>2012-06-11T14:08:15Z</time>
      </trkpt>
      <trkpt lat="40.024920" lon="-1.331625">
        <ele>1113.325</ele>
        <time>2012-06-11T14:11:55Z</time>
      </trkpt>
      <trkpt lat="40.022439" lon="-1.332540">
        <ele>1116.707</ele>
        <time>2012-06-11T14:13:18Z</time>
      </trkpt>
      <trkpt lat="40.021607" lon="-1.332264">
        <ele>1123.032</ele>
        <time>2012-06-11T14:14:01Z</time>
      </trkpt>
      <trkpt lat="40.021007" lon="-1.332535">
        <ele>1124.969</ele>
        <time>2012-06-11T14:14:27Z</time>
      </trkpt>
      <trkpt lat="40.019456" lon="-1.331735">
        <ele>1127.382</ele>
        <time>2012-06-11T14:15:17Z</time>
      </trkpt>
      <trkpt lat="40.018329" lon="-1.331921">
        <ele>1128.775</ele>
        <time>2012-06-11T14:15:53Z</time>
      </trkpt>
      <trkpt lat="40.017817" lon="-1.330039">
        <ele>1126.831</ele>
        <time>2012-06-11T14:16:51Z</time>
      </trkpt>
      <trkpt lat="40.015097" lon="-1.329833">
        <ele>1129.798</ele>
        <time>2012-06-11T14:18:07Z</time>
      </trkpt>
      <trkpt lat="40.014699" lon="-1.332482">
        <ele>1134.512</ele>
        <time>2012-06-11T14:19:31Z</time>
      </trkpt>
      <trkpt lat="40.014491" lon="-1.332767">
        <ele>1135.042</ele>
        <time>2012-06-11T14:19:43Z</time>
      </trkpt>
      <trkpt lat="40.013920" lon="-1.332659">
        <ele>1136.422</ele>
        <time>2012-06-11T14:20:04Z</time>
      </trkpt>
      <trkpt lat="40.014955" lon="-1.336080">
        <ele>1134.014</ele>
        <time>2012-06-11T14:21:47Z</time>
      </trkpt>
      <trkpt lat="40.013075" lon="-1.337044">
        <ele>1139.807</ele>
        <time>2012-06-11T14:30:29Z</time>
      </trkpt>
      <trkpt lat="40.011990" lon="-1.337264">
        <ele>1145.177</ele>
        <time>2012-06-11T14:45:55Z</time>
      </trkpt>
      <trkpt lat="40.010033" lon="-1.338445">
        <ele>1148.024</ele>
        <time>2012-06-11T14:47:11Z</time>
      </trkpt>
      <trkpt lat="40.006774" lon="-1.341836">
        <ele>1161.947</ele>
        <time>2012-06-11T14:50:06Z</time>
      </trkpt>
      <trkpt lat="40.004684" lon="-1.343332">
        <ele>1161.920</ele>
        <time>2012-06-11T14:51:14Z</time>
      </trkpt>
      <trkpt lat="40.001922" lon="-1.343417">
        <ele>1155.686</ele>
        <time>2012-06-11T14:52:16Z</time>
      </trkpt>
      <trkpt lat="40.000526" lon="-1.343090">
        <ele>1159.033</ele>
        <time>2012-06-11T14:52:51Z</time>
      </trkpt>
      <trkpt lat="39.996181" lon="-1.339879">
        <ele>1169.127</ele>
        <time>2012-06-11T14:55:14Z</time>
      </trkpt>
      <trkpt lat="39.991981" lon="-1.333110">
        <ele>1166.293</ele>
        <time>2012-06-11T14:57:30Z</time>
      </trkpt>
      <trkpt lat="39.989843" lon="-1.330754">
        <ele>1154.765</ele>
        <time>2012-06-11T14:58:14Z</time>
      </trkpt>
      <trkpt lat="39.988659" lon="-1.330485">
        <ele>1148.921</ele>
        <time>2012-06-11T14:58:47Z</time>
      </trkpt>
      <trkpt lat="39.987994" lon="-1.331404">
        <ele>1142.707</ele>
        <time>2012-06-11T15:00:01Z</time>
      </trkpt>
      <trkpt lat="39.988062" lon="-1.331867">
        <ele>1136.442</ele>
        <time>2012-06-11T15:00:12Z</time>
      </trkpt>
      <trkpt lat="39.988584" lon="-1.332437">
        <ele>1128.759</ele>
        <time>2012-06-11T15:00:25Z</time>
      </trkpt>
      <trkpt lat="39.988774" lon="-1.334204">
        <ele>1123.022</ele>
        <time>2012-06-11T15:00:56Z</time>
      </trkpt>
      <trkpt lat="39.987889" lon="-1.334988">
        <ele>1112.475</ele>
        <time>2012-06-11T15:01:14Z</time>
      </trkpt>
      <trkpt lat="39.987035" lon="-1.335153">
        <ele>1102.361</ele>
        <time>2012-06-11T15:01:30Z</time>
      </trkpt>
      <trkpt lat="39.985141" lon="-1.336721">
        <ele>1092.228</ele>
        <time>2012-06-11T15:02:54Z</time>
      </trkpt>
      <trkpt lat="39.984363" lon="-1.337769">
        <ele>1091.242</ele>
        <time>2012-06-11T15:03:20Z</time>
      </trkpt>
      <trkpt lat="39.982746" lon="-1.338551">
        <ele>1095.139</ele>
        <time>2012-06-11T15:04:17Z</time>
      </trkpt>
      <trkpt lat="39.980541" lon="-1.340256">
        <ele>1108.501</ele>
        <time>2012-06-11T15:06:16Z</time>
      </trkpt>
      <trkpt lat="39.980122" lon="-1.341572">
        <ele>1107.121</ele>
        <time>2012-06-11T15:07:12Z</time>
      </trkpt>
      <trkpt lat="39.978237" lon="-1.343849">
        <ele>1100.407</ele>
        <time>2012-06-11T15:08:04Z</time>
      </trkpt>
      <trkpt lat="39.976056" lon="-1.344103">
        <ele>1094.126</ele>
        <time>2012-06-11T15:08:46Z</time>
      </trkpt>
      <trkpt lat="39.975621" lon="-1.343860">
        <ele>1094.673</ele>
        <time>2012-06-11T15:15:06Z</time>
      </trkpt>
      <trkpt lat="39.974745" lon="-1.343969">
        <ele>1096.536</ele>
        <time>2012-06-11T15:22:02Z</time>
      </trkpt>
      <trkpt lat="39.973995" lon="-1.343550">
        <ele>1096.059</ele>
        <time>2012-06-11T15:22:47Z</time>
      </trkpt>
      <trkpt lat="39.973424" lon="-1.344165">
        <ele>1097.025</ele>
        <time>2012-06-11T15:23:21Z</time>
      </trkpt>
      <trkpt lat="39.972983" lon="-1.344173">
        <ele>1103.382</ele>
        <time>2012-06-11T15:23:44Z</time>
      </trkpt>
      <trkpt lat="39.972356" lon="-1.342957">
        <ele>1093.286</ele>
        <time>2012-06-11T15:24:41Z</time>
      </trkpt>
      <trkpt lat="39.971464" lon="-1.339865">
        <ele>1107.682</ele>
        <time>2012-06-11T15:26:15Z</time>
      </trkpt>
      <trkpt lat="39.970018" lon="-1.337679">
        <ele>1110.543</ele>
        <time>2012-06-11T15:27:27Z</time>
      </trkpt>
      <trkpt lat="39.969171" lon="-1.337014">
        <ele>1103.717</ele>
        <time>2012-06-11T15:27:49Z</time>
      </trkpt>
      <trkpt lat="39.969143" lon="-1.336618">
        <ele>1102.307</ele>
        <time>2012-06-11T15:28:18Z</time>
      </trkpt>
      <trkpt lat="39.967636" lon="-1.337411">
        <ele>1100.971</ele>
        <time>2012-06-11T15:28:56Z</time>
      </trkpt>
      <trkpt lat="39.967127" lon="-1.338140">
        <ele>1098.958</ele>
        <time>2012-06-11T15:29:11Z</time>
      </trkpt>
      <trkpt lat="39.965862" lon="-1.339079">
        <ele>1098.481</ele>
        <time>2012-06-11T15:29:59Z</time>
      </trkpt>
      <trkpt lat="39.963443" lon="-1.341701">
        <ele>1096.054</ele>
        <time>2012-06-11T15:31:12Z</time>
      </trkpt>
      <trkpt lat="39.963092" lon="-1.342358">
        <ele>1093.210</ele>
        <time>2012-06-11T15:31:26Z</time>
      </trkpt>
      <trkpt lat="39.962491" lon="-1.342686">
        <ele>1091.277</ele>
        <time>2012-06-11T15:31:39Z</time>
      </trkpt>
      <trkpt lat="39.962011" lon="-1.343606">
        <ele>1089.341</ele>
        <time>2012-06-11T15:31:59Z</time>
      </trkpt>
      <trkpt lat="39.961349" lon="-1.344240">
        <ele>1087.997</ele>
        <time>2012-06-11T15:32:19Z</time>
      </trkpt>
      <trkpt lat="39.960977" lon="-1.345628">
        <ele>1086.023</ele>
        <time>2012-06-11T15:32:56Z</time>
      </trkpt>
      <trkpt lat="39.960566" lon="-1.348776">
        <ele>1087.425</ele>
        <time>2012-06-11T15:37:46Z</time>
      </trkpt>
      <trkpt lat="39.960033" lon="-1.349844">
        <ele>1079.207</ele>
        <time>2012-06-11T15:38:10Z</time>
      </trkpt>
      <trkpt lat="39.960085" lon="-1.350522">
        <ele>1077.842</ele>
        <time>2012-06-11T15:38:23Z</time>
      </trkpt>
      <trkpt lat="39.962306" lon="-1.350902">
        <ele>1075.429</ele>
        <time>2012-06-11T15:39:14Z</time>
      </trkpt>
      <trkpt lat="39.963161" lon="-1.350726">
        <ele>1070.162</ele>
        <time>2012-06-11T15:39:33Z</time>
      </trkpt>
      <trkpt lat="39.963283" lon="-1.351729">
        <ele>1063.465</ele>
        <time>2012-06-11T15:39:50Z</time>
      </trkpt>
      <trkpt lat="39.963817" lon="-1.352819">
        <ele>1055.211</ele>
        <time>2012-06-11T15:40:08Z</time>
      </trkpt>
      <trkpt lat="39.963905" lon="-1.353478">
        <ele>1054.238</ele>
        <time>2012-06-11T15:40:17Z</time>
      </trkpt>
      <trkpt lat="39.964514" lon="-1.353973">
        <ele>1042.752</ele>
        <time>2012-06-11T15:40:33Z</time>
      </trkpt>
      <trkpt lat="39.964572" lon="-1.354656">
        <ele>1036.081</ele>
        <time>2012-06-11T15:40:44Z</time>
      </trkpt>
      <trkpt lat="39.965004" lon="-1.355610">
        <ele>1035.061</ele>
        <time>2012-06-11T15:41:01Z</time>
      </trkpt>
      <trkpt lat="39.965001" lon="-1.356931">
        <ele>1030.717</ele>
        <time>2012-06-11T15:41:23Z</time>
      </trkpt>
      <trkpt lat="39.962832" lon="-1.360575">
        <ele>1027.307</ele>
        <time>2012-06-11T15:42:59Z</time>
      </trkpt>
      <trkpt lat="39.963914" lon="-1.362524">
        <ele>1026.361</ele>
        <time>2012-06-11T15:43:52Z</time>
      </trkpt>
      <trkpt lat="39.963962" lon="-1.364287">
        <ele>1023.588</ele>
        <time>2012-06-11T15:44:34Z</time>
      </trkpt>
      <trkpt lat="39.963219" lon="-1.367003">
        <ele>1028.831</ele>
        <time>2012-06-11T15:45:51Z</time>
      </trkpt>
      <trkpt lat="39.963252" lon="-1.368240">
        <ele>1027.334</ele>
        <time>2012-06-11T15:51:17Z</time>
      </trkpt>
      <trkpt lat="39.960302" lon="-1.368240">
        <ele>1035.520</ele>
        <time>2012-06-11T15:55:32Z</time>
      </trkpt>
      <trkpt lat="39.958665" lon="-1.367901">
        <ele>1025.487</ele>
        <time>2012-06-11T15:56:02Z</time>
      </trkpt>
      <trkpt lat="39.956933" lon="-1.366146">
        <ele>1019.161</ele>
        <time>2012-06-11T15:57:00Z</time>
      </trkpt>
      <trkpt lat="39.956185" lon="-1.366226">
        <ele>1018.233</ele>
        <time>2012-06-11T15:57:39Z</time>
      </trkpt>
      <trkpt lat="39.955564" lon="-1.366741">
        <ele>1018.723</ele>
        <time>2012-06-11T15:57:59Z</time>
      </trkpt>
      <trkpt lat="39.952041" lon="-1.365482">
        <ele>1025.915</ele>
        <time>2012-06-11T16:02:58Z</time>
      </trkpt>
      <trkpt lat="39.950325" lon="-1.364093">
        <ele>1035.007</ele>
        <time>2012-06-11T16:04:17Z</time>
      </trkpt>
      <trkpt lat="39.948384" lon="-1.363323">
        <ele>1047.536</ele>
        <time>2012-06-11T16:05:37Z</time>
      </trkpt>
      <trkpt lat="39.946891" lon="-1.363097">
        <ele>1036.983</ele>
        <time>2012-06-11T16:11:05Z</time>
      </trkpt>
      <trkpt lat="39.943412" lon="-1.364308">
        <ele>1012.436</ele>
        <time>2012-06-11T16:11:45Z</time>
      </trkpt>
      <trkpt lat="39.941610" lon="-1.365550">
        <ele>1005.719</ele>
        <time>2012-06-11T16:12:10Z</time>
      </trkpt>
      <trkpt lat="39.937325" lon="-1.366068">
        <ele>1001.875</ele>
        <time>2012-06-11T16:20:13Z</time>
      </trkpt>
      <trkpt lat="39.938374" lon="-1.364509">
        <ele>1001.432</ele>
        <time>2012-06-11T16:20:58Z</time>
      </trkpt>
      <trkpt lat="39.937497" lon="-1.363599">
        <ele>1002.386</ele>
        <time>2012-06-11T16:21:56Z</time>
      </trkpt>
      <trkpt lat="39.935751" lon="-1.363199">
        <ele>1004.263</ele>
        <time>2012-06-11T16:22:40Z</time>
      </trkpt>
      <trkpt lat="39.932478" lon="-1.363598">
        <ele>1001.444</ele>
        <time>2012-06-11T16:25:26Z</time>
      </trkpt>
      <trkpt lat="39.928132" lon="-1.363412">
        <ele>995.618</ele>
        <time>2012-06-11T16:26:44Z</time>
      </trkpt>
      <trkpt lat="39.926067" lon="-1.362561">
        <ele>995.607</ele>
        <time>2012-06-11T16:27:22Z</time>
      </trkpt>
      <trkpt lat="39.925357" lon="-1.361990">
        <ele>996.179</ele>
        <time>2012-06-11T16:27:37Z</time>
      </trkpt>
      <trkpt lat="39.924170" lon="-1.360445">
        <ele>995.696</ele>
        <time>2012-06-11T16:28:08Z</time>
      </trkpt>
      <trkpt lat="39.923523" lon="-1.360309">
        <ele>995.119</ele>
        <time>2012-06-11T16:28:21Z</time>
      </trkpt>
      <trkpt lat="39.922999" lon="-1.360613">
        <ele>994.672</ele>
        <time>2012-06-11T16:28:32Z</time>
      </trkpt>
      <trkpt lat="39.922329" lon="-1.361870">
        <ele>993.758</ele>
        <time>2012-06-11T16:28:55Z</time>
      </trkpt>
      <trkpt lat="39.921371" lon="-1.361820">
        <ele>991.715</ele>
        <time>2012-06-11T16:29:15Z</time>
      </trkpt>
      <trkpt lat="39.920633" lon="-1.362163">
        <ele>991.349</ele>
        <time>2012-06-11T16:29:29Z</time>
      </trkpt>
      <trkpt lat="39.918401" lon="-1.361645">
        <ele>989.396</ele>
        <time>2012-06-11T16:30:14Z</time>
      </trkpt>
      <trkpt lat="39.917442" lon="-1.361982">
        <ele>989.331</ele>
        <time>2012-06-11T16:30:34Z</time>
      </trkpt>
      <trkpt lat="39.916496" lon="-1.361977">
        <ele>988.924</ele>
        <time>2012-06-11T16:30:53Z</time>
      </trkpt>
      <trkpt lat="39.915074" lon="-1.360957">
        <ele>996.107</ele>
        <time>2012-06-11T16:32:38Z</time>
      </trkpt>
      <trkpt lat="39.912222" lon="-1.360358">
        <ele>1005.262</ele>
        <time>2012-06-11T16:34:29Z</time>
      </trkpt>
      <trkpt lat="39.909288" lon="-1.364051">
        <ele>993.749</ele>
        <time>2012-06-11T16:39:54Z</time>
      </trkpt>
      <trkpt lat="39.908529" lon="-1.364426">
        <ele>987.962</ele>
        <time>2012-06-11T16:40:48Z</time>
      </trkpt>
      <trkpt lat="39.907729" lon="-1.364409">
        <ele>979.225</ele>
        <time>2012-06-11T16:42:29Z</time>
      </trkpt>
      <trkpt lat="39.907493" lon="-1.365381">
        <ele>975.931</ele>
        <time>2012-06-11T16:43:23Z</time>
      </trkpt>
      <trkpt lat="39.906883" lon="-1.365780">
        <ele>977.318</ele>
        <time>2012-06-11T16:43:41Z</time>
      </trkpt>
      <trkpt lat="39.906774" lon="-1.366612">
        <ele>983.112</ele>
        <time>2012-06-11T16:44:05Z</time>
      </trkpt>
      <trkpt lat="39.906946" lon="-1.367252">
        <ele>985.542</ele>
        <time>2012-06-11T16:44:31Z</time>
      </trkpt>
      <trkpt lat="39.907602" lon="-1.367940">
        <ele>988.922</ele>
        <time>2012-06-11T16:45:10Z</time>
      </trkpt>
      <trkpt lat="39.908295" lon="-1.368168">
        <ele>990.814</ele>
        <time>2012-06-11T16:45:39Z</time>
      </trkpt>
      <trkpt lat="39.909731" lon="-1.367729">
        <ele>987.407</ele>
        <time>2012-06-11T16:46:34Z</time>
      </trkpt>
      <trkpt lat="39.910715" lon="-1.368010">
        <ele>987.457</ele>
        <time>2012-06-11T16:48:16Z</time>
      </trkpt>
      <trkpt lat="39.907310" lon="-1.365366">
        <ele>1000.969</ele>
        <time>2012-06-12T06:04:28Z</time>
      </trkpt>
      <trkpt lat="39.906963" lon="-1.365588">
        <ele>999.404</ele>
        <time>2012-06-12T06:05:32Z</time>
      </trkpt>
      <trkpt lat="39.906764" lon="-1.366678">
        <ele>1005.224</ele>
        <time>2012-06-12T06:06:24Z</time>
      </trkpt>
      <trkpt lat="39.903078" lon="-1.367608">
        <ele>1003.807</ele>
        <time>2012-06-12T06:07:59Z</time>
      </trkpt>
      <trkpt lat="39.899336" lon="-1.366942">
        <ele>994.699</ele>
        <time>2012-06-12T06:09:19Z</time>
      </trkpt>
      <trkpt lat="39.897924" lon="-1.366258">
        <ele>992.776</ele>
        <time>2012-06-12T06:09:46Z</time>
      </trkpt>
      <trkpt lat="39.894022" lon="-1.366629">
        <ele>989.829</ele>
        <time>2012-06-12T06:11:05Z</time>
      </trkpt>
      <trkpt lat="39.891828" lon="-1.367227">
        <ele>991.322</ele>
        <time>2012-06-12T06:11:52Z</time>
      </trkpt>
      <trkpt lat="39.889880" lon="-1.366619">
        <ele>1008.172</ele>
        <time>2012-06-12T06:13:34Z</time>
      </trkpt>
      <trkpt lat="39.887070" lon="-1.366749">
        <ele>1012.970</ele>
        <time>2012-06-12T06:15:03Z</time>
      </trkpt>
      <trkpt lat="39.884170" lon="-1.365819">
        <ele>1019.681</ele>
        <time>2012-06-12T06:16:27Z</time>
      </trkpt>
      <trkpt lat="39.880372" lon="-1.365867">
        <ele>1013.481</ele>
        <time>2012-06-12T06:17:26Z</time>
      </trkpt>
      <trkpt lat="39.878545" lon="-1.366647">
        <ele>1007.661</ele>
        <time>2012-06-12T06:17:55Z</time>
      </trkpt>
      <trkpt lat="39.869885" lon="-1.366984">
        <ele>1010.517</ele>
        <time>2012-06-12T06:20:39Z</time>
      </trkpt>
      <trkpt lat="39.865696" lon="-1.366191">
        <ele>1001.407</ele>
        <time>2012-06-12T06:28:02Z</time>
      </trkpt>
      <trkpt lat="39.862629" lon="-1.366108">
        <ele>992.241</ele>
        <time>2012-06-12T06:28:44Z</time>
      </trkpt>
      <trkpt lat="39.860418" lon="-1.366440">
        <ele>990.328</ele>
        <time>2012-06-12T06:29:21Z</time>
      </trkpt>
      <trkpt lat="39.858217" lon="-1.367691">
        <ele>996.171</ele>
        <time>2012-06-12T06:30:20Z</time>
      </trkpt>
      <trkpt lat="39.857106" lon="-1.367757">
        <ele>1006.684</ele>
        <time>2012-06-12T06:31:22Z</time>
      </trkpt>
      <trkpt lat="39.849611" lon="-1.372801">
        <ele>1026.824</ele>
        <time>2012-06-12T06:35:32Z</time>
      </trkpt>
      <trkpt lat="39.848206" lon="-1.372792">
        <ele>1026.382</ele>
        <time>2012-06-12T06:36:06Z</time>
      </trkpt>
      <trkpt lat="39.845776" lon="-1.373596">
        <ele>1026.373</ele>
        <time>2012-06-12T06:37:01Z</time>
      </trkpt>
      <trkpt lat="39.842856" lon="-1.375216">
        <ele>1025.497</ele>
        <time>2012-06-12T06:38:03Z</time>
      </trkpt>
      <trkpt lat="39.841196" lon="-1.374914">
        <ele>1020.123</ele>
        <time>2012-06-12T06:38:29Z</time>
      </trkpt>
      <trkpt lat="39.835873" lon="-1.376304">
        <ele>1021.125</ele>
        <time>2012-06-12T06:40:01Z</time>
      </trkpt>
      <trkpt lat="39.833347" lon="-1.376072">
        <ele>1023.507</ele>
        <time>2012-06-12T06:40:51Z</time>
      </trkpt>
      <trkpt lat="39.832549" lon="-1.376603">
        <ele>1023.582</ele>
        <time>2012-06-12T06:41:13Z</time>
      </trkpt>
      <trkpt lat="39.829103" lon="-1.375901">
        <ele>1020.119</ele>
        <time>2012-06-12T06:42:23Z</time>
      </trkpt>
      <trkpt lat="39.828750" lon="-1.375464">
        <ele>1019.172</ele>
        <time>2012-06-12T06:42:31Z</time>
      </trkpt>
      <trkpt lat="39.826176" lon="-1.374287">
        <ele>1014.365</ele>
        <time>2012-06-12T06:43:25Z</time>
      </trkpt>
      <trkpt lat="39.824575" lon="-1.374672">
        <ele>1001.465</ele>
        <time>2012-06-12T06:43:54Z</time>
      </trkpt>
      <trkpt lat="39.824175" lon="-1.375067">
        <ele>998.523</ele>
        <time>2012-06-12T06:44:04Z</time>
      </trkpt>
      <trkpt lat="39.822479" lon="-1.373439">
        <ele>986.034</ele>
        <time>2012-06-12T06:44:42Z</time>
      </trkpt>
      <trkpt lat="39.821529" lon="-1.373310">
        <ele>975.943</ele>
        <time>2012-06-12T06:45:25Z</time>
      </trkpt>
      <trkpt lat="39.820420" lon="-1.372665">
        <ele>974.964</ele>
        <time>2012-06-12T06:45:54Z</time>
      </trkpt>
      <trkpt lat="39.817025" lon="-1.373296">
        <ele>965.810</ele>
        <time>2012-06-12T06:46:59Z</time>
      </trkpt>
      <trkpt lat="39.814817" lon="-1.376237">
        <ele>953.307</ele>
        <time>2012-06-12T06:48:12Z</time>
      </trkpt>
      <trkpt lat="39.814364" lon="-1.376199">
        <ele>951.877</ele>
        <time>2012-06-12T06:48:57Z</time>
      </trkpt>
      <trkpt lat="39.815861" lon="-1.376567">
        <ele>934.124</ele>
        <time>2012-06-12T06:50:01Z</time>
      </trkpt>
      <trkpt lat="39.815914" lon="-1.377317">
        <ele>931.777</ele>
        <time>2012-06-12T06:50:45Z</time>
      </trkpt>
      <trkpt lat="39.816945" lon="-1.377856">
        <ele>936.540</ele>
        <time>2012-06-12T06:51:24Z</time>
      </trkpt>
      <trkpt lat="39.817367" lon="-1.379027">
        <ele>945.140</ele>
        <time>2012-06-12T06:52:11Z</time>
      </trkpt>
      <trkpt lat="39.817683" lon="-1.383374">
        <ele>965.368</ele>
        <time>2012-06-12T06:54:36Z</time>
      </trkpt>
      <trkpt lat="39.815424" lon="-1.384729">
        <ele>981.689</ele>
        <time>2012-06-12T06:56:19Z</time>
      </trkpt>
      <trkpt lat="39.814430" lon="-1.385784">
        <ele>986.013</ele>
        <time>2012-06-12T06:57:05Z</time>
      </trkpt>
      <trkpt lat="39.813935" lon="-1.388225">
        <ele>1002.343</ele>
        <time>2012-06-12T06:58:40Z</time>
      </trkpt>
      <trkpt lat="39.814130" lon="-1.391999">
        <ele>1028.307</ele>
        <time>2012-06-12T07:01:18Z</time>
      </trkpt>
      <trkpt lat="39.811724" lon="-1.391726">
        <ele>1025.907</ele>
        <time>2012-06-12T07:06:18Z</time>
      </trkpt>
      <trkpt lat="39.810517" lon="-1.392698">
        <ele>1019.624</ele>
        <time>2012-06-12T07:07:21Z</time>
      </trkpt>
      <trkpt lat="39.810196" lon="-1.393425">
        <ele>1018.291</ele>
        <time>2012-06-12T07:08:06Z</time>
      </trkpt>
      <trkpt lat="39.808614" lon="-1.394583">
        <ele>1010.554</ele>
        <time>2012-06-12T07:08:55Z</time>
      </trkpt>
      <trkpt lat="39.805895" lon="-1.397590">
        <ele>1008.187</ele>
        <time>2012-06-12T07:10:31Z</time>
      </trkpt>
      <trkpt lat="39.803021" lon="-1.397259">
        <ele>1021.527</ele>
        <time>2012-06-12T07:12:53Z</time>
      </trkpt>
      <trkpt lat="39.802366" lon="-1.398305">
        <ele>1024.995</ele>
        <time>2012-06-12T07:13:41Z</time>
      </trkpt>
      <trkpt lat="39.802331" lon="-1.399430">
        <ele>1023.056</ele>
        <time>2012-06-12T07:14:02Z</time>
      </trkpt>
      <trkpt lat="39.800725" lon="-1.400581">
        <ele>1023.041</ele>
        <time>2012-06-12T07:15:28Z</time>
      </trkpt>
      <trkpt lat="39.799866" lon="-1.401995">
        <ele>1013.981</ele>
        <time>2012-06-12T07:17:03Z</time>
      </trkpt>
      <trkpt lat="39.799938" lon="-1.402715">
        <ele>1007.609</ele>
        <time>2012-06-12T07:17:41Z</time>
      </trkpt>
      <trkpt lat="39.799007" lon="-1.403360">
        <ele>997.507</ele>
        <time>2012-06-12T07:18:31Z</time>
      </trkpt>
      <trkpt lat="39.798353" lon="-1.402942">
        <ele>997.067</ele>
        <time>2012-06-12T07:19:05Z</time>
      </trkpt>
      <trkpt lat="39.797244" lon="-1.404594">
        <ele>996.194</ele>
        <time>2012-06-12T07:19:58Z</time>
      </trkpt>
      <trkpt lat="39.796592" lon="-1.406519">
        <ele>997.097</ele>
        <time>2012-06-12T07:21:29Z</time>
      </trkpt>
      <trkpt lat="39.795206" lon="-1.407241">
        <ele>997.570</ele>
        <time>2012-06-12T07:22:27Z</time>
      </trkpt>
      <trkpt lat="39.794393" lon="-1.408231">
        <ele>998.580</ele>
        <time>2012-06-12T07:23:12Z</time>
      </trkpt>
      <trkpt lat="39.794195" lon="-1.409245">
        <ele>997.038</ele>
        <time>2012-06-12T07:24:03Z</time>
      </trkpt>
      <trkpt lat="39.792189" lon="-1.407727">
        <ele>985.539</ele>
        <time>2012-06-12T07:26:02Z</time>
      </trkpt>
      <trkpt lat="39.791498" lon="-1.408028">
        <ele>981.293</ele>
        <time>2012-06-12T07:26:23Z</time>
      </trkpt>
      <trkpt lat="39.789772" lon="-1.405477">
        <ele>978.365</ele>
        <time>2012-06-12T07:27:34Z</time>
      </trkpt>
      <trkpt lat="39.787828" lon="-1.405852">
        <ele>969.621</ele>
        <time>2012-06-12T07:28:31Z</time>
      </trkpt>
      <trkpt lat="39.786736" lon="-1.405481">
        <ele>961.007</ele>
        <time>2012-06-12T07:29:46Z</time>
      </trkpt>
      <trkpt lat="39.784958" lon="-1.407013">
        <ele>951.812</ele>
        <time>2012-06-12T07:30:50Z</time>
      </trkpt>
      <trkpt lat="39.784525" lon="-1.409258">
        <ele>940.389</ele>
        <time>2012-06-12T07:31:48Z</time>
      </trkpt>
      <trkpt lat="39.783131" lon="-1.411054">
        <ele>935.082</ele>
        <time>2012-06-12T07:33:30Z</time>
      </trkpt>
      <trkpt lat="39.780825" lon="-1.412224">
        <ele>951.485</ele>
        <time>2012-06-12T07:36:29Z</time>
      </trkpt>
      <trkpt lat="39.779764" lon="-1.414078">
        <ele>954.735</ele>
        <time>2012-06-12T07:37:24Z</time>
      </trkpt>
      <trkpt lat="39.775308" lon="-1.416960">
        <ele>968.273</ele>
        <time>2012-06-12T07:39:37Z</time>
      </trkpt>
      <trkpt lat="39.769417" lon="-1.421551">
        <ele>978.334</ele>
        <time>2012-06-12T07:42:18Z</time>
      </trkpt>
      <trkpt lat="39.767067" lon="-1.424130">
        <ele>989.816</ele>
        <time>2012-06-12T07:43:50Z</time>
      </trkpt>
      <trkpt lat="39.767104" lon="-1.423570">
        <ele>989.376</ele>
        <time>2012-06-12T07:48:01Z</time>
      </trkpt>
      <trkpt lat="39.765262" lon="-1.421872">
        <ele>981.613</ele>
        <time>2012-06-12T07:49:49Z</time>
      </trkpt>
      <trkpt lat="39.764652" lon="-1.420037">
        <ele>978.307</ele>
        <time>2012-06-12T07:51:07Z</time>
      </trkpt>
      <trkpt lat="39.763038" lon="-1.419746">
        <ele>978.824</ele>
        <time>2012-06-12T07:51:56Z</time>
      </trkpt>
      <trkpt lat="39.763078" lon="-1.419094">
        <ele>976.821</ele>
        <time>2012-06-12T07:52:49Z</time>
      </trkpt>
      <trkpt lat="39.763794" lon="-1.418408">
        <ele>962.914</ele>
        <time>2012-06-12T07:53:30Z</time>
      </trkpt>
      <trkpt lat="39.764654" lon="-1.418434">
        <ele>959.517</ele>
        <time>2012-06-12T07:53:49Z</time>
      </trkpt>
      <trkpt lat="39.765151" lon="-1.417644">
        <ele>951.897</ele>
        <time>2012-06-12T07:54:13Z</time>
      </trkpt>
      <trkpt lat="39.764077" lon="-1.417320">
        <ele>931.765</ele>
        <time>2012-06-12T07:55:12Z</time>
      </trkpt>
      <trkpt lat="39.764298" lon="-1.417257">
        <ele>928.836</ele>
        <time>2012-06-12T07:55:34Z</time>
      </trkpt>
      <trkpt lat="39.764531" lon="-1.414351">
        <ele>896.663</ele>
        <time>2012-06-12T07:57:33Z</time>
      </trkpt>
      <trkpt lat="39.763864" lon="-1.415613">
        <ele>883.144</ele>
        <time>2012-06-12T07:58:27Z</time>
      </trkpt>
      <trkpt lat="39.762415" lon="-1.416509">
        <ele>874.918</ele>
        <time>2012-06-12T07:59:36Z</time>
      </trkpt>
      <trkpt lat="39.757796" lon="-1.415664">
        <ele>843.707</ele>
        <time>2012-06-12T08:02:33Z</time>
      </trkpt>
      <trkpt lat="39.755758" lon="-1.414449">
        <ele>846.629</ele>
        <time>2012-06-12T08:03:31Z</time>
      </trkpt>
      <trkpt lat="39.755393" lon="-1.414896">
        <ele>843.286</ele>
        <time>2012-06-12T08:03:44Z</time>
      </trkpt>
      <trkpt lat="39.754667" lon="-1.417866">
        <ele>840.339</ele>
        <time>2012-06-12T08:04:32Z</time>
      </trkpt>
      <trkpt lat="39.754277" lon="-1.418077">
        <ele>840.852</ele>
        <time>2012-06-12T08:04:41Z</time>
      </trkpt>
      <trkpt lat="39.752737" lon="-1.417468">
        <ele>841.832</ele>
        <time>2012-06-12T08:05:16Z</time>
      </trkpt>
      <trkpt lat="39.751851" lon="-1.416128">
        <ele>841.830</ele>
        <time>2012-06-12T08:05:49Z</time>
      </trkpt>
      <trkpt lat="39.751995" lon="-1.415368">
        <ele>838.481</ele>
        <time>2012-06-12T08:06:02Z</time>
      </trkpt>
      <trkpt lat="39.751751" lon="-1.415067">
        <ele>838.413</ele>
        <time>2012-06-12T08:06:08Z</time>
      </trkpt>
      <trkpt lat="39.750626" lon="-1.415632">
        <ele>835.043</ele>
        <time>2012-06-12T08:06:30Z</time>
      </trkpt>
      <trkpt lat="39.750079" lon="-1.416308">
        <ele>835.507</ele>
        <time>2012-06-12T08:06:44Z</time>
      </trkpt>
      <trkpt lat="39.749130" lon="-1.419954">
        <ele>837.507</ele>
        <time>2012-06-12T08:07:50Z</time>
      </trkpt>
      <trkpt lat="39.746309" lon="-1.421747">
        <ele>834.644</ele>
        <time>2012-06-12T08:08:50Z</time>
      </trkpt>
      <trkpt lat="39.745429" lon="-1.422901">
        <ele>835.541</ele>
        <time>2012-06-12T08:09:15Z</time>
      </trkpt>
      <trkpt lat="39.742721" lon="-1.424276">
        <ele>834.634</ele>
        <time>2012-06-12T08:10:11Z</time>
      </trkpt>
      <trkpt lat="39.739410" lon="-1.424631">
        <ele>829.857</ele>
        <time>2012-06-12T08:11:09Z</time>
      </trkpt>
      <trkpt lat="39.738429" lon="-1.425822">
        <ele>829.817</ele>
        <time>2012-06-12T08:11:37Z</time>
      </trkpt>
      <trkpt lat="39.737279" lon="-1.428148">
        <ele>828.895</ele>
        <time>2012-06-12T08:12:15Z</time>
      </trkpt>
      <trkpt lat="39.735660" lon="-1.429738">
        <ele>827.496</ele>
        <time>2012-06-12T08:12:54Z</time>
      </trkpt>
      <trkpt lat="39.734332" lon="-1.430483">
        <ele>825.065</ele>
        <time>2012-06-12T08:13:19Z</time>
      </trkpt>
      <trkpt lat="39.730803" lon="-1.431577">
        <ele>827.868</ele>
        <time>2012-06-12T08:14:36Z</time>
      </trkpt>
      <trkpt lat="39.730179" lon="-1.432104">
        <ele>827.414</ele>
        <time>2012-06-12T08:14:52Z</time>
      </trkpt>
      <trkpt lat="39.728978" lon="-1.435351">
        <ele>824.507</ele>
        <time>2012-06-12T08:16:27Z</time>
      </trkpt>
      <trkpt lat="39.728044" lon="-1.436890">
        <ele>822.639</ele>
        <time>2012-06-12T08:16:57Z</time>
      </trkpt>
      <trkpt lat="39.725499" lon="-1.437976">
        <ele>823.026</ele>
        <time>2012-06-12T08:17:54Z</time>
      </trkpt>
      <trkpt lat="39.721247" lon="-1.438348">
        <ele>812.089</ele>
        <time>2012-06-12T08:21:20Z</time>
      </trkpt>
      <trkpt lat="39.720365" lon="-1.436146">
        <ele>814.432</ele>
        <time>2012-06-12T08:23:44Z</time>
      </trkpt>
      <trkpt lat="39.720088" lon="-1.436277">
        <ele>816.372</ele>
        <time>2012-06-12T08:24:11Z</time>
      </trkpt>
      <trkpt lat="39.719724" lon="-1.435272">
        <ele>824.060</ele>
        <time>2012-06-12T08:26:57Z</time>
      </trkpt>
      <trkpt lat="39.718404" lon="-1.434152">
        <ele>842.721</ele>
        <time>2012-06-12T08:28:35Z</time>
      </trkpt>
      <trkpt lat="39.717382" lon="-1.433866">
        <ele>849.916</ele>
        <time>2012-06-12T08:29:29Z</time>
      </trkpt>
      <trkpt lat="39.716408" lon="-1.432519">
        <ele>863.976</ele>
        <time>2012-06-12T08:30:44Z</time>
      </trkpt>
      <trkpt lat="39.715853" lon="-1.430690">
        <ele>879.313</ele>
        <time>2012-06-12T08:32:09Z</time>
      </trkpt>
      <trkpt lat="39.715123" lon="-1.429585">
        <ele>885.007</ele>
        <time>2012-06-12T08:32:59Z</time>
      </trkpt>
      <trkpt lat="39.714451" lon="-1.424882">
        <ele>896.144</ele>
        <time>2012-06-12T08:37:05Z</time>
      </trkpt>
      <trkpt lat="39.713291" lon="-1.420470">
        <ele>924.561</ele>
        <time>2012-06-12T08:39:28Z</time>
      </trkpt>
      <trkpt lat="39.713202" lon="-1.419246">
        <ele>931.724</ele>
        <time>2012-06-12T08:40:08Z</time>
      </trkpt>
      <trkpt lat="39.714740" lon="-1.411673">
        <ele>973.047</ele>
        <time>2012-06-12T08:45:49Z</time>
      </trkpt>
      <trkpt lat="39.716203" lon="-1.410470">
        <ele>982.617</ele>
        <time>2012-06-12T08:46:56Z</time>
      </trkpt>
      <trkpt lat="39.716308" lon="-1.409992">
        <ele>981.245</ele>
        <time>2012-06-12T08:48:34Z</time>
      </trkpt>
      <trkpt lat="39.715825" lon="-1.409021">
        <ele>976.876</ele>
        <time>2012-06-12T08:48:52Z</time>
      </trkpt>
      <trkpt lat="39.716500" lon="-1.408476">
        <ele>976.819</ele>
        <time>2012-06-12T08:49:12Z</time>
      </trkpt>
      <trkpt lat="39.717053" lon="-1.406824">
        <ele>988.909</ele>
        <time>2012-06-12T08:50:29Z</time>
      </trkpt>
      <trkpt lat="39.716120" lon="-1.404495">
        <ele>982.119</ele>
        <time>2012-06-12T08:51:43Z</time>
      </trkpt>
      <trkpt lat="39.714939" lon="-1.403320">
        <ele>977.307</ele>
        <time>2012-06-12T08:52:05Z</time>
      </trkpt>
      <trkpt lat="39.714019" lon="-1.401733">
        <ele>979.784</ele>
        <time>2012-06-12T08:52:39Z</time>
      </trkpt>
      <trkpt lat="39.713171" lon="-1.401442">
        <ele>987.911</ele>
        <time>2012-06-12T08:53:18Z</time>
      </trkpt>
      <trkpt lat="39.711876" lon="-1.398346">
        <ele>995.654</ele>
        <time>2012-06-12T08:55:18Z</time>
      </trkpt>
      <trkpt lat="39.709060" lon="-1.395225">
        <ele>1016.797</ele>
        <time>2012-06-12T08:57:57Z</time>
      </trkpt>
      <trkpt lat="39.707988" lon="-1.391398">
        <ele>1057.617</ele>
        <time>2012-06-12T09:02:01Z</time>
      </trkpt>
      <trkpt lat="39.707507" lon="-1.390818">
        <ele>1068.295</ele>
        <time>2012-06-12T09:03:52Z</time>
      </trkpt>
      <trkpt lat="39.705275" lon="-1.389691">
        <ele>1089.816</ele>
        <time>2012-06-12T09:06:40Z</time>
      </trkpt>
      <trkpt lat="39.703800" lon="-1.390041">
        <ele>1086.054</ele>
        <time>2012-06-12T09:07:34Z</time>
      </trkpt>
      <trkpt lat="39.702454" lon="-1.389606">
        <ele>1080.256</ele>
        <time>2012-06-12T09:08:01Z</time>
      </trkpt>
      <trkpt lat="39.698165" lon="-1.390241">
        <ele>1060.011</ele>
        <time>2012-06-12T09:09:35Z</time>
      </trkpt>
      <trkpt lat="39.697666" lon="-1.389838">
        <ele>1057.607</ele>
        <time>2012-06-12T09:10:20Z</time>
      </trkpt>
      <trkpt lat="39.691442" lon="-1.388944">
        <ele>1048.528</ele>
        <time>2012-06-12T09:12:48Z</time>
      </trkpt>
      <trkpt lat="39.688162" lon="-1.390366">
        <ele>1036.935</ele>
        <time>2012-06-12T09:14:14Z</time>
      </trkpt>
      <trkpt lat="39.686163" lon="-1.392540">
        <ele>1023.018</ele>
        <time>2012-06-12T09:15:29Z</time>
      </trkpt>
      <trkpt lat="39.682695" lon="-1.394092">
        <ele>1019.661</ele>
        <time>2012-06-12T09:17:20Z</time>
      </trkpt>
      <trkpt lat="39.682118" lon="-1.395109">
        <ele>1019.131</ele>
        <time>2012-06-12T09:17:41Z</time>
      </trkpt>
      <trkpt lat="39.681879" lon="-1.396669">
        <ele>1017.249</ele>
        <time>2012-06-12T09:18:11Z</time>
      </trkpt>
      <trkpt lat="39.681286" lon="-1.397598">
        <ele>1014.320</ele>
        <time>2012-06-12T09:18:34Z</time>
      </trkpt>
      <trkpt lat="39.680708" lon="-1.397763">
        <ele>1012.956</ele>
        <time>2012-06-12T09:18:51Z</time>
      </trkpt>
      <trkpt lat="39.680016" lon="-1.398667">
        <ele>1004.259</ele>
        <time>2012-06-12T09:19:29Z</time>
      </trkpt>
      <trkpt lat="39.677969" lon="-1.400009">
        <ele>998.514</ele>
        <time>2012-06-12T09:20:20Z</time>
      </trkpt>
      <trkpt lat="39.676278" lon="-1.401698">
        <ele>998.507</ele>
        <time>2012-06-12T09:21:16Z</time>
      </trkpt>
      <trkpt lat="39.674881" lon="-1.401686">
        <ele>1000.998</ele>
        <time>2012-06-12T09:22:00Z</time>
      </trkpt>
      <trkpt lat="39.673310" lon="-1.404744">
        <ele>999.475</ele>
        <time>2012-06-12T09:23:19Z</time>
      </trkpt>
      <trkpt lat="39.672982" lon="-1.404786">
        <ele>995.668</ele>
        <time>2012-06-12T09:23:30Z</time>
      </trkpt>
      <trkpt lat="39.672623" lon="-1.403667">
        <ele>989.331</ele>
        <time>2012-06-12T09:24:02Z</time>
      </trkpt>
      <trkpt lat="39.671821" lon="-1.404110">
        <ele>992.221</ele>
        <time>2012-06-12T09:24:35Z</time>
      </trkpt>
      <trkpt lat="39.670036" lon="-1.406302">
        <ele>991.799</ele>
        <time>2012-06-12T09:25:49Z</time>
      </trkpt>
      <trkpt lat="39.666626" lon="-1.406393">
        <ele>981.290</ele>
        <time>2012-06-12T09:27:25Z</time>
      </trkpt>
      <trkpt lat="39.666015" lon="-1.406743">
        <ele>979.299</ele>
        <time>2012-06-12T09:27:43Z</time>
      </trkpt>
      <trkpt lat="39.665065" lon="-1.405216">
        <ele>987.407</ele>
        <time>2012-06-12T09:28:51Z</time>
      </trkpt>
      <trkpt lat="39.664311" lon="-1.405507">
        <ele>985.527</ele>
        <time>2012-06-12T09:29:16Z</time>
      </trkpt>
      <trkpt lat="39.663427" lon="-1.405068">
        <ele>991.707</ele>
        <time>2012-06-12T09:30:03Z</time>
      </trkpt>
      <trkpt lat="39.663295" lon="-1.405676">
        <ele>988.462</ele>
        <time>2012-06-12T09:45:09Z</time>
      </trkpt>
      <trkpt lat="39.662919" lon="-1.405912">
        <ele>983.679</ele>
        <time>2012-06-12T09:45:15Z</time>
      </trkpt>
      <trkpt lat="39.662439" lon="-1.405701">
        <ele>978.342</ele>
        <time>2012-06-12T09:45:21Z</time>
      </trkpt>
      <trkpt lat="39.661431" lon="-1.404148">
        <ele>966.735</ele>
        <time>2012-06-12T09:45:40Z</time>
      </trkpt>
      <trkpt lat="39.658749" lon="-1.403899">
        <ele>947.045</ele>
        <time>2012-06-12T09:46:20Z</time>
      </trkpt>
      <trkpt lat="39.657629" lon="-1.406344">
        <ele>936.993</ele>
        <time>2012-06-12T09:47:44Z</time>
      </trkpt>
      <trkpt lat="39.657063" lon="-1.406473">
        <ele>935.074</ele>
        <time>2012-06-12T09:47:52Z</time>
      </trkpt>
      <trkpt lat="39.652800" lon="-1.405035">
        <ele>920.693</ele>
        <time>2012-06-12T09:49:29Z</time>
      </trkpt>
      <trkpt lat="39.649400" lon="-1.400993">
        <ele>918.765</ele>
        <time>2012-06-12T09:50:54Z</time>
      </trkpt>
      <trkpt lat="39.649004" lon="-1.393182">
        <ele>910.021</ele>
        <time>2012-06-12T09:54:52Z</time>
      </trkpt>
      <trkpt lat="39.648596" lon="-1.393170">
        <ele>906.207</ele>
        <time>2012-06-12T10:01:55Z</time>
      </trkpt>
      <trkpt lat="39.647116" lon="-1.394278">
        <ele>908.622</ele>
        <time>2012-06-12T10:02:33Z</time>
      </trkpt>
      <trkpt lat="39.644884" lon="-1.398723">
        <ele>913.489</ele>
        <time>2012-06-12T10:04:20Z</time>
      </trkpt>
      <trkpt lat="39.644930" lon="-1.397371">
        <ele>918.732</ele>
        <time>2012-06-12T10:04:53Z</time>
      </trkpt>
      <trkpt lat="39.644627" lon="-1.396514">
        <ele>916.885</ele>
        <time>2012-06-12T10:05:15Z</time>
      </trkpt>
      <trkpt lat="39.644991" lon="-1.395316">
        <ele>911.535</ele>
        <time>2012-06-12T10:05:36Z</time>
      </trkpt>
      <trkpt lat="39.640497" lon="-1.389297">
        <ele>913.933</ele>
        <time>2012-06-12T10:07:22Z</time>
      </trkpt>
      <trkpt lat="39.636905" lon="-1.382690">
        <ele>918.244</ele>
        <time>2012-06-12T10:09:22Z</time>
      </trkpt>
      <trkpt lat="39.639063" lon="-1.378731">
        <ele>921.629</ele>
        <time>2012-06-12T10:10:47Z</time>
      </trkpt>
      <trkpt lat="39.638315" lon="-1.376510">
        <ele>926.900</ele>
        <time>2012-06-12T10:11:36Z</time>
      </trkpt>
      <trkpt lat="39.637570" lon="-1.372628">
        <ele>934.120</ele>
        <time>2012-06-12T10:12:59Z</time>
      </trkpt>
      <trkpt lat="39.635896" lon="-1.368928">
        <ele>944.607</ele>
        <time>2012-06-12T10:14:35Z</time>
      </trkpt>
      <trkpt lat="39.634943" lon="-1.365270">
        <ele>956.265</ele>
        <time>2012-06-12T10:16:13Z</time>
      </trkpt>
      <trkpt lat="39.634556" lon="-1.362466">
        <ele>961.512</ele>
        <time>2012-06-12T10:17:19Z</time>
      </trkpt>
      <trkpt lat="39.633657" lon="-1.360941">
        <ele>965.315</ele>
        <time>2012-06-12T10:18:04Z</time>
      </trkpt>
      <trkpt lat="39.633185" lon="-1.359213">
        <ele>962.958</ele>
        <time>2012-06-12T10:18:37Z</time>
      </trkpt>
      <trkpt lat="39.631215" lon="-1.355590">
        <ele>973.098</ele>
        <time>2012-06-12T10:20:08Z</time>
      </trkpt>
      <trkpt lat="39.630996" lon="-1.353338">
        <ele>986.596</ele>
        <time>2012-06-12T10:21:42Z</time>
      </trkpt>
      <trkpt lat="39.631122" lon="-1.350784">
        <ele>970.117</ele>
        <time>2012-06-12T10:22:25Z</time>
      </trkpt>
      <trkpt lat="39.629407" lon="-1.348119">
        <ele>959.166</ele>
        <time>2012-06-12T10:23:29Z</time>
      </trkpt>
      <trkpt lat="39.627269" lon="-1.346432">
        <ele>957.129</ele>
        <time>2012-06-12T10:24:17Z</time>
      </trkpt>
      <trkpt lat="39.625314" lon="-1.343355">
        <ele>959.121</ele>
        <time>2012-06-12T10:25:22Z</time>
      </trkpt>
      <trkpt lat="39.624537" lon="-1.342947">
        <ele>959.507</ele>
        <time>2012-06-12T10:25:42Z</time>
      </trkpt>
      <trkpt lat="39.624159" lon="-1.342142">
        <ele>960.539</ele>
        <time>2012-06-12T10:26:03Z</time>
      </trkpt>
      <trkpt lat="39.624426" lon="-1.341233">
        <ele>959.586</ele>
        <time>2012-06-12T10:26:23Z</time>
      </trkpt>
      <trkpt lat="39.622738" lon="-1.340822">
        <ele>966.339</ele>
        <time>2012-06-12T10:27:19Z</time>
      </trkpt>
      <trkpt lat="39.620968" lon="-1.339246">
        <ele>971.152</ele>
        <time>2012-06-12T10:28:29Z</time>
      </trkpt>
      <trkpt lat="39.620321" lon="-1.339499">
        <ele>972.552</ele>
        <time>2012-06-12T10:28:53Z</time>
      </trkpt>
      <trkpt lat="39.616991" lon="-1.337982">
        <ele>965.380</ele>
        <time>2012-06-12T10:31:01Z</time>
      </trkpt>
      <trkpt lat="39.615960" lon="-1.336220">
        <ele>957.131</ele>
        <time>2012-06-12T10:31:41Z</time>
      </trkpt>
      <trkpt lat="39.613002" lon="-1.335829">
        <ele>949.038</ele>
        <time>2012-06-12T10:32:29Z</time>
      </trkpt>
      <trkpt lat="39.610355" lon="-1.334723">
        <ele>951.470</ele>
        <time>2012-06-12T10:33:34Z</time>
      </trkpt>
      <trkpt lat="39.609398" lon="-1.333587">
        <ele>947.517</ele>
        <time>2012-06-12T10:33:57Z</time>
      </trkpt>
      <trkpt lat="39.607912" lon="-1.332901">
        <ele>947.507</ele>
        <time>2012-06-12T10:34:29Z</time>
      </trkpt>
      <trkpt lat="39.607053" lon="-1.331744">
        <ele>951.416</ele>
        <time>2012-06-12T10:35:04Z</time>
      </trkpt>
      <trkpt lat="39.604834" lon="-1.330347">
        <ele>965.833</ele>
        <time>2012-06-12T10:36:49Z</time>
      </trkpt>
      <trkpt lat="39.604544" lon="-1.329847">
        <ele>971.126</ele>
        <time>2012-06-12T10:37:53Z</time>
      </trkpt>
      <trkpt lat="39.602858" lon="-1.330492">
        <ele>970.619</ele>
        <time>2012-06-12T10:39:35Z</time>
      </trkpt>
      <trkpt lat="39.598502" lon="-1.329785">
        <ele>970.169</ele>
        <time>2012-06-12T10:41:05Z</time>
      </trkpt>
      <trkpt lat="39.597084" lon="-1.329127">
        <ele>964.357</ele>
        <time>2012-06-12T10:41:44Z</time>
      </trkpt>
      <trkpt lat="39.596410" lon="-1.329504">
        <ele>960.518</ele>
        <time>2012-06-12T10:42:02Z</time>
      </trkpt>
      <trkpt lat="39.593511" lon="-1.327734">
        <ele>959.157</ele>
        <time>2012-06-12T10:43:54Z</time>
      </trkpt>
      <trkpt lat="39.592418" lon="-1.326284">
        <ele>957.100</ele>
        <time>2012-06-12T10:44:42Z</time>
      </trkpt>
      <trkpt lat="39.588510" lon="-1.326399">
        <ele>944.620</ele>
        <time>2012-06-12T10:45:58Z</time>
      </trkpt>
      <trkpt lat="39.585596" lon="-1.325712">
        <ele>930.707</ele>
        <time>2012-06-12T10:46:56Z</time>
      </trkpt>
      <trkpt lat="39.584777" lon="-1.326192">
        <ele>929.338</ele>
        <time>2012-06-12T10:47:18Z</time>
      </trkpt>
      <trkpt lat="39.581348" lon="-1.326246">
        <ele>924.565</ele>
        <time>2012-06-12T10:48:21Z</time>
      </trkpt>
      <trkpt lat="39.579622" lon="-1.325616">
        <ele>923.048</ele>
        <time>2012-06-12T10:49:00Z</time>
      </trkpt>
      <trkpt lat="39.578539" lon="-1.326541">
        <ele>919.621</ele>
        <time>2012-06-12T10:49:27Z</time>
      </trkpt>
      <trkpt lat="39.577404" lon="-1.328221">
        <ele>917.791</ele>
        <time>2012-06-12T10:50:29Z</time>
      </trkpt>
      <trkpt lat="39.575729" lon="-1.332996">
        <ele>914.479</ele>
        <time>2012-06-12T10:52:03Z</time>
      </trkpt>
      <trkpt lat="39.575687" lon="-1.334348">
        <ele>913.990</ele>
        <time>2012-06-12T10:52:34Z</time>
      </trkpt>
      <trkpt lat="39.576657" lon="-1.337845">
        <ele>917.274</ele>
        <time>2012-06-12T10:53:45Z</time>
      </trkpt>
      <trkpt lat="39.578631" lon="-1.342639">
        <ele>920.156</ele>
        <time>2012-06-12T10:55:32Z</time>
      </trkpt>
      <trkpt lat="39.579666" lon="-1.344100">
        <ele>921.621</ele>
        <time>2012-06-12T10:56:12Z</time>
      </trkpt>
      <trkpt lat="39.581158" lon="-1.347445">
        <ele>918.707</ele>
        <time>2012-06-12T10:57:27Z</time>
      </trkpt>
      <trkpt lat="39.581642" lon="-1.350983">
        <ele>909.130</ele>
        <time>2012-06-12T10:58:26Z</time>
      </trkpt>
      <trkpt lat="39.581566" lon="-1.352813">
        <ele>910.597</ele>
        <time>2012-06-12T10:58:59Z</time>
      </trkpt>
      <trkpt lat="39.582209" lon="-1.356311">
        <ele>903.870</ele>
        <time>2012-06-12T10:59:57Z</time>
      </trkpt>
      <trkpt lat="39.583938" lon="-1.359033">
        <ele>895.183</ele>
        <time>2012-06-12T11:01:45Z</time>
      </trkpt>
      <trkpt lat="39.584971" lon="-1.362148">
        <ele>892.263</ele>
        <time>2012-06-12T11:03:45Z</time>
      </trkpt>
      <trkpt lat="39.586052" lon="-1.363281">
        <ele>884.131</ele>
        <time>2012-06-12T11:05:12Z</time>
      </trkpt>
      <trkpt lat="39.585134" lon="-1.364401">
        <ele>885.032</ele>
        <time>2012-06-12T12:34:56Z</time>
      </trkpt>
      <trkpt lat="39.585033" lon="-1.365605">
        <ele>885.071</ele>
        <time>2012-06-12T12:35:58Z</time>
      </trkpt>
      <trkpt lat="39.584514" lon="-1.365639">
        <ele>881.741</ele>
        <time>2012-06-12T12:36:32Z</time>
      </trkpt>
      <trkpt lat="39.584313" lon="-1.366291">
        <ele>879.715</ele>
        <time>2012-06-12T12:37:19Z</time>
      </trkpt>
      <trkpt lat="39.581983" lon="-1.364994">
        <ele>873.507</ele>
        <time>2012-06-12T12:38:53Z</time>
      </trkpt>
      <trkpt lat="39.577602" lon="-1.365584">
        <ele>870.650</ele>
        <time>2012-06-12T12:40:57Z</time>
      </trkpt>
      <trkpt lat="39.575604" lon="-1.364953">
        <ele>873.037</ele>
        <time>2012-06-12T12:42:12Z</time>
      </trkpt>
      <trkpt lat="39.573741" lon="-1.365056">
        <ele>869.230</ele>
        <time>2012-06-12T12:42:50Z</time>
      </trkpt>
      <trkpt lat="39.573270" lon="-1.365378">
        <ele>868.713</ele>
        <time>2012-06-12T12:43:00Z</time>
      </trkpt>
      <trkpt lat="39.570772" lon="-1.365084">
        <ele>851.993</ele>
        <time>2012-06-12T12:43:43Z</time>
      </trkpt>
      <trkpt lat="39.569857" lon="-1.364414">
        <ele>855.281</ele>
        <time>2012-06-12T12:45:22Z</time>
      </trkpt>
      <trkpt lat="39.568768" lon="-1.364477">
        <ele>854.362</ele>
        <time>2012-06-12T12:50:21Z</time>
      </trkpt>
      <trkpt lat="39.568149" lon="-1.363821">
        <ele>862.063</ele>
        <time>2012-06-12T12:51:07Z</time>
      </trkpt>
      <trkpt lat="39.566338" lon="-1.363414">
        <ele>869.244</ele>
        <time>2012-06-12T12:52:15Z</time>
      </trkpt>
      <trkpt lat="39.563940" lon="-1.364301">
        <ele>862.918</ele>
        <time>2012-06-12T12:53:08Z</time>
      </trkpt>
      <trkpt lat="39.559317" lon="-1.362940">
        <ele>844.207</ele>
        <time>2012-06-12T12:54:45Z</time>
      </trkpt>
      <trkpt lat="39.557897" lon="-1.361447">
        <ele>835.559</ele>
        <time>2012-06-12T12:55:13Z</time>
      </trkpt>
      <trkpt lat="39.556269" lon="-1.361733">
        <ele>828.866</ele>
        <time>2012-06-12T12:55:37Z</time>
      </trkpt>
      <trkpt lat="39.555586" lon="-1.361169">
        <ele>826.999</ele>
        <time>2012-06-12T12:55:53Z</time>
      </trkpt>
      <trkpt lat="39.552780" lon="-1.360466">
        <ele>815.822</ele>
        <time>2012-06-12T12:56:34Z</time>
      </trkpt>
      <trkpt lat="39.551328" lon="-1.360654">
        <ele>813.492</ele>
        <time>2012-06-12T12:57:16Z</time>
      </trkpt>
      <trkpt lat="39.550802" lon="-1.360420">
        <ele>816.860</ele>
        <time>2012-06-12T12:57:40Z</time>
      </trkpt>
      <trkpt lat="39.550638" lon="-1.359754">
        <ele>820.621</ele>
        <time>2012-06-12T12:58:09Z</time>
      </trkpt>
      <trkpt lat="39.550433" lon="-1.360367">
        <ele>825.966</ele>
        <time>2012-06-12T12:58:41Z</time>
      </trkpt>
      <trkpt lat="39.547241" lon="-1.361149">
        <ele>837.929</ele>
        <time>2012-06-12T13:00:48Z</time>
      </trkpt>
      <trkpt lat="39.548078" lon="-1.363266">
        <ele>842.721</ele>
        <time>2012-06-12T13:01:50Z</time>
      </trkpt>
      <trkpt lat="39.549672" lon="-1.370200">
        <ele>848.507</ele>
        <time>2012-06-12T13:07:31Z</time>
      </trkpt>
      <trkpt lat="39.543767" lon="-1.370727">
        <ele>825.489</ele>
        <time>2012-06-12T13:12:02Z</time>
      </trkpt>
      <trkpt lat="39.543520" lon="-1.371744">
        <ele>825.476</ele>
        <time>2012-06-12T13:12:47Z</time>
      </trkpt>
      <trkpt lat="39.543070" lon="-1.371040">
        <ele>821.619</ele>
        <time>2012-06-12T13:13:07Z</time>
      </trkpt>
      <trkpt lat="39.541653" lon="-1.370628">
        <ele>819.712</ele>
        <time>2012-06-12T13:13:33Z</time>
      </trkpt>
      <trkpt lat="39.539600" lon="-1.368917">
        <ele>815.392</ele>
        <time>2012-06-12T13:14:15Z</time>
      </trkpt>
      <trkpt lat="39.537606" lon="-1.367997">
        <ele>809.130</ele>
        <time>2012-06-12T13:14:50Z</time>
      </trkpt>
      <trkpt lat="39.535373" lon="-1.367769">
        <ele>801.421</ele>
        <time>2012-06-12T13:15:26Z</time>
      </trkpt>
      <trkpt lat="39.535040" lon="-1.366774">
        <ele>800.989</ele>
        <time>2012-06-12T13:16:00Z</time>
      </trkpt>
      <trkpt lat="39.534275" lon="-1.366508">
        <ele>800.906</ele>
        <time>2012-06-12T13:16:22Z</time>
      </trkpt>
      <trkpt lat="39.533556" lon="-1.365092">
        <ele>799.026</ele>
        <time>2012-06-12T13:17:22Z</time>
      </trkpt>
      <trkpt lat="39.531801" lon="-1.364426">
        <ele>797.607</ele>
        <time>2012-06-12T13:18:09Z</time>
      </trkpt>
      <trkpt lat="39.529939" lon="-1.365685">
        <ele>796.141</ele>
        <time>2012-06-12T13:18:53Z</time>
      </trkpt>
      <trkpt lat="39.528164" lon="-1.365602">
        <ele>794.238</ele>
        <time>2012-06-12T13:19:21Z</time>
      </trkpt>
      <trkpt lat="39.527234" lon="-1.365073">
        <ele>794.281</ele>
        <time>2012-06-12T13:19:37Z</time>
      </trkpt>
      <trkpt lat="39.526310" lon="-1.363119">
        <ele>790.814</ele>
        <time>2012-06-12T13:20:04Z</time>
      </trkpt>
      <trkpt lat="39.525095" lon="-1.362136">
        <ele>789.984</ele>
        <time>2012-06-12T13:21:11Z</time>
      </trkpt>
      <trkpt lat="39.525297" lon="-1.361980">
        <ele>789.912</ele>
        <time>2012-06-12T13:21:20Z</time>
      </trkpt>
      <trkpt lat="39.524911" lon="-1.361524">
        <ele>788.413</ele>
        <time>2012-06-12T13:21:33Z</time>
      </trkpt>
      <trkpt lat="39.523702" lon="-1.361232">
        <ele>784.144</ele>
        <time>2012-06-12T13:28:18Z</time>
      </trkpt>
      <trkpt lat="39.521336" lon="-1.362223">
        <ele>796.105</ele>
        <time>2012-06-12T13:30:53Z</time>
      </trkpt>
      <trkpt lat="39.522130" lon="-1.359679">
        <ele>799.015</ele>
        <time>2012-06-12T13:32:13Z</time>
      </trkpt>
      <trkpt lat="39.524448" lon="-1.358417">
        <ele>808.607</ele>
        <time>2012-06-12T13:33:29Z</time>
      </trkpt>
      <trkpt lat="39.524951" lon="-1.354193">
        <ele>806.717</ele>
        <time>2012-06-12T13:37:40Z</time>
      </trkpt>
      <trkpt lat="39.525819" lon="-1.353095">
        <ele>796.184</ele>
        <time>2012-06-12T13:37:54Z</time>
      </trkpt>
      <trkpt lat="39.526595" lon="-1.352688">
        <ele>792.327</ele>
        <time>2012-06-12T13:38:06Z</time>
      </trkpt>
      <trkpt lat="39.526677" lon="-1.351391">
        <ele>791.830</ele>
        <time>2012-06-12T13:38:38Z</time>
      </trkpt>
      <trkpt lat="39.525997" lon="-1.348904">
        <ele>797.610</ele>
        <time>2012-06-12T13:39:29Z</time>
      </trkpt>
      <trkpt lat="39.526626" lon="-1.346740">
        <ele>804.848</ele>
        <time>2012-06-12T13:40:30Z</time>
      </trkpt>
      <trkpt lat="39.522681" lon="-1.345190">
        <ele>809.629</ele>
        <time>2012-06-12T13:42:12Z</time>
      </trkpt>
      <trkpt lat="39.518089" lon="-1.345507">
        <ele>806.794</ele>
        <time>2012-06-12T13:43:44Z</time>
      </trkpt>
      <trkpt lat="39.516791" lon="-1.345151">
        <ele>808.657</ele>
        <time>2012-06-12T13:44:13Z</time>
      </trkpt>
      <trkpt lat="39.515037" lon="-1.346873">
        <ele>805.722</ele>
        <time>2012-06-12T13:44:57Z</time>
      </trkpt>
      <trkpt lat="39.512911" lon="-1.347152">
        <ele>804.307</ele>
        <time>2012-06-12T13:45:40Z</time>
      </trkpt>
      <trkpt lat="39.511858" lon="-1.348459">
        <ele>799.012</ele>
        <time>2012-06-12T13:46:05Z</time>
      </trkpt>
      <trkpt lat="39.510245" lon="-1.349517">
        <ele>794.739</ele>
        <time>2012-06-12T13:46:40Z</time>
      </trkpt>
      <trkpt lat="39.509279" lon="-1.349110">
        <ele>786.532</ele>
        <time>2012-06-12T13:46:59Z</time>
      </trkpt>
      <trkpt lat="39.507683" lon="-1.349235">
        <ele>782.765</ele>
        <time>2012-06-12T13:47:25Z</time>
      </trkpt>
      <trkpt lat="39.506604" lon="-1.348525">
        <ele>783.615</ele>
        <time>2012-06-12T13:47:47Z</time>
      </trkpt>
      <trkpt lat="39.504947" lon="-1.348511">
        <ele>772.683</ele>
        <time>2012-06-12T13:48:23Z</time>
      </trkpt>
      <trkpt lat="39.503900" lon="-1.347768">
        <ele>775.984</ele>
        <time>2012-06-12T13:49:21Z</time>
      </trkpt>
      <trkpt lat="39.503291" lon="-1.346250">
        <ele>776.468</ele>
        <time>2012-06-12T13:49:54Z</time>
      </trkpt>
      <trkpt lat="39.502253" lon="-1.345050">
        <ele>778.342</ele>
        <time>2012-06-12T13:50:24Z</time>
      </trkpt>
      <trkpt lat="39.500685" lon="-1.345281">
        <ele>775.426</ele>
        <time>2012-06-12T13:50:57Z</time>
      </trkpt>
      <trkpt lat="39.498895" lon="-1.346884">
        <ele>771.107</ele>
        <time>2012-06-12T13:51:41Z</time>
      </trkpt>
      <trkpt lat="39.498133" lon="-1.346670">
        <ele>769.249</ele>
        <time>2012-06-12T13:51:53Z</time>
      </trkpt>
      <trkpt lat="39.496595" lon="-1.346946">
        <ele>763.956</ele>
        <time>2012-06-12T13:53:32Z</time>
      </trkpt>
      <trkpt lat="39.496547" lon="-1.347578">
        <ele>765.859</ele>
        <time>2012-06-12T13:53:46Z</time>
      </trkpt>
      <trkpt lat="39.495045" lon="-1.347347">
        <ele>768.712</ele>
        <time>2012-06-12T13:54:30Z</time>
      </trkpt>
      <trkpt lat="39.493981" lon="-1.346563">
        <ele>770.622</ele>
        <time>2012-06-12T14:03:21Z</time>
      </trkpt>
      <trkpt lat="39.492920" lon="-1.346624">
        <ele>773.560</ele>
        <time>2012-06-12T14:03:54Z</time>
      </trkpt>
      <trkpt lat="39.491020" lon="-1.345385">
        <ele>767.361</ele>
        <time>2012-06-12T14:05:27Z</time>
      </trkpt>
      <trkpt lat="39.489374" lon="-1.345237">
        <ele>771.132</ele>
        <time>2012-06-12T14:06:04Z</time>
      </trkpt>
      <trkpt lat="39.487672" lon="-1.347336">
        <ele>762.992</ele>
        <time>2012-06-12T14:07:53Z</time>
      </trkpt>
      <trkpt lat="39.486041" lon="-1.352162">
        <ele>753.311</ele>
        <time>2012-06-12T14:08:49Z</time>
      </trkpt>
      <trkpt lat="39.485500" lon="-1.355289">
        <ele>739.407</ele>
        <time>2012-06-12T14:09:55Z</time>
      </trkpt>
      <trkpt lat="39.485728" lon="-1.355909">
        <ele>740.486</ele>
        <time>2012-06-12T14:10:17Z</time>
      </trkpt>
      <trkpt lat="39.485186" lon="-1.362127">
        <ele>718.793</ele>
        <time>2012-06-12T14:16:44Z</time>
      </trkpt>
      <trkpt lat="39.482906" lon="-1.360179">
        <ele>712.576</ele>
        <time>2012-06-12T14:18:01Z</time>
      </trkpt>
      <trkpt lat="39.482486" lon="-1.360493">
        <ele>716.899</ele>
        <time>2012-06-12T14:18:33Z</time>
      </trkpt>
      <trkpt lat="39.482518" lon="-1.361085">
        <ele>720.249</ele>
        <time>2012-06-12T14:18:58Z</time>
      </trkpt>
      <trkpt lat="39.482079" lon="-1.361741">
        <ele>724.587</ele>
        <time>2012-06-12T14:19:25Z</time>
      </trkpt>
      <trkpt lat="39.481079" lon="-1.366897">
        <ele>756.748</ele>
        <time>2012-06-12T14:22:43Z</time>
      </trkpt>
      <trkpt lat="39.480214" lon="-1.368399">
        <ele>760.575</ele>
        <time>2012-06-12T14:23:37Z</time>
      </trkpt>
      <trkpt lat="39.480107" lon="-1.370480">
        <ele>766.328</ele>
        <time>2012-06-12T14:24:30Z</time>
      </trkpt>
      <trkpt lat="39.479209" lon="-1.373579">
        <ele>757.720</ele>
        <time>2012-06-12T14:25:26Z</time>
      </trkpt>
      <trkpt lat="39.478228" lon="-1.374337">
        <ele>755.707</ele>
        <time>2012-06-12T14:25:44Z</time>
      </trkpt>
      <trkpt lat="39.476792" lon="-1.377663">
        <ele>749.060</ele>
        <time>2012-06-12T14:26:52Z</time>
      </trkpt>
      <trkpt lat="39.476627" lon="-1.379343">
        <ele>736.097</ele>
        <time>2012-06-12T14:27:31Z</time>
      </trkpt>
      <trkpt lat="39.476306" lon="-1.379756">
        <ele>728.390</ele>
        <time>2012-06-12T14:27:46Z</time>
      </trkpt>
      <trkpt lat="39.476437" lon="-1.380148">
        <ele>726.453</ele>
        <time>2012-06-12T14:28:02Z</time>
      </trkpt>
      <trkpt lat="39.475437" lon="-1.380843">
        <ele>738.913</ele>
        <time>2012-06-12T14:30:12Z</time>
      </trkpt>
      <trkpt lat="39.475008" lon="-1.381851">
        <ele>739.441</ele>
        <time>2012-06-12T14:30:44Z</time>
      </trkpt>
      <trkpt lat="39.473523" lon="-1.383486">
        <ele>737.572</ele>
        <time>2012-06-12T14:31:49Z</time>
      </trkpt>
      <trkpt lat="39.473078" lon="-1.385175">
        <ele>736.012</ele>
        <time>2012-06-12T14:32:46Z</time>
      </trkpt>
      <trkpt lat="39.472331" lon="-1.385459">
        <ele>740.832</ele>
        <time>2012-06-12T14:33:14Z</time>
      </trkpt>
      <trkpt lat="39.471579" lon="-1.386533">
        <ele>750.905</ele>
        <time>2012-06-12T14:34:18Z</time>
      </trkpt>
      <trkpt lat="39.470409" lon="-1.386780">
        <ele>755.307</ele>
        <time>2012-06-12T14:35:09Z</time>
      </trkpt>
      <trkpt lat="39.470129" lon="-1.386542">
        <ele>756.274</ele>
        <time>2012-06-12T14:35:21Z</time>
      </trkpt>
      <trkpt lat="39.468783" lon="-1.386900">
        <ele>763.921</ele>
        <time>2012-06-12T14:36:27Z</time>
      </trkpt>
      <trkpt lat="39.467594" lon="-1.387656">
        <ele>760.534</ele>
        <time>2012-06-12T14:36:55Z</time>
      </trkpt>
      <trkpt lat="39.467099" lon="-1.387322">
        <ele>761.537</ele>
        <time>2012-06-12T14:37:10Z</time>
      </trkpt>
      <trkpt lat="39.466704" lon="-1.387971">
        <ele>760.187</ele>
        <time>2012-06-12T14:37:26Z</time>
      </trkpt>
      <trkpt lat="39.465731" lon="-1.388437">
        <ele>759.615</ele>
        <time>2012-06-12T14:37:47Z</time>
      </trkpt>
      <trkpt lat="39.463880" lon="-1.390233">
        <ele>771.616</ele>
        <time>2012-06-12T14:40:41Z</time>
      </trkpt>
      <trkpt lat="39.463553" lon="-1.390096">
        <ele>776.466</ele>
        <time>2012-06-12T14:41:04Z</time>
      </trkpt>
      <trkpt lat="39.463318" lon="-1.390875">
        <ele>782.229</ele>
        <time>2012-06-12T14:41:47Z</time>
      </trkpt>
      <trkpt lat="39.462525" lon="-1.391328">
        <ele>787.021</ele>
        <time>2012-06-12T14:43:26Z</time>
      </trkpt>
      <trkpt lat="39.460666" lon="-1.391362">
        <ele>787.007</ele>
        <time>2012-06-12T14:47:25Z</time>
      </trkpt>
      <trkpt lat="39.459423" lon="-1.390932">
        <ele>784.199</ele>
        <time>2012-06-12T14:48:02Z</time>
      </trkpt>
      <trkpt lat="39.458534" lon="-1.390153">
        <ele>787.946</ele>
        <time>2012-06-12T14:49:05Z</time>
      </trkpt>
      <trkpt lat="39.457783" lon="-1.388860">
        <ele>788.919</ele>
        <time>2012-06-12T14:49:38Z</time>
      </trkpt>
      <trkpt lat="39.456447" lon="-1.387762">
        <ele>782.722</ele>
        <time>2012-06-12T14:50:19Z</time>
      </trkpt>
      <trkpt lat="39.455287" lon="-1.387630">
        <ele>780.332</ele>
        <time>2012-06-12T14:50:40Z</time>
      </trkpt>
      <trkpt lat="39.452620" lon="-1.385000">
        <ele>756.780</ele>
        <time>2012-06-12T14:51:26Z</time>
      </trkpt>
      <trkpt lat="39.451641" lon="-1.386413">
        <ele>746.131</ele>
        <time>2012-06-12T14:51:58Z</time>
      </trkpt>
      <trkpt lat="39.450932" lon="-1.386632">
        <ele>737.014</ele>
        <time>2012-06-12T14:52:15Z</time>
      </trkpt>
      <trkpt lat="39.450770" lon="-1.386404">
        <ele>734.154</ele>
        <time>2012-06-12T14:52:22Z</time>
      </trkpt>
      <trkpt lat="39.451020" lon="-1.386000">
        <ele>732.709</ele>
        <time>2012-06-12T14:52:33Z</time>
      </trkpt>
      <trkpt lat="39.450877" lon="-1.385755">
        <ele>735.107</ele>
        <time>2012-06-12T14:52:44Z</time>
      </trkpt>
      <trkpt lat="39.450120" lon="-1.386095">
        <ele>744.254</ele>
        <time>2012-06-12T14:54:05Z</time>
      </trkpt>
      <trkpt lat="39.449127" lon="-1.385008">
        <ele>746.691</ele>
        <time>2012-06-12T14:54:56Z</time>
      </trkpt>
      <trkpt lat="39.449478" lon="-1.384521">
        <ele>746.184</ele>
        <time>2012-06-12T14:55:13Z</time>
      </trkpt>
      <trkpt lat="39.448489" lon="-1.384670">
        <ele>751.987</ele>
        <time>2012-06-12T14:56:03Z</time>
      </trkpt>
      <trkpt lat="39.446198" lon="-1.382306">
        <ele>742.877</ele>
        <time>2012-06-12T14:57:17Z</time>
      </trkpt>
      <trkpt lat="39.444587" lon="-1.382283">
        <ele>739.955</ele>
        <time>2012-06-12T14:58:02Z</time>
      </trkpt>
      <trkpt lat="39.443979" lon="-1.381110">
        <ele>742.326</ele>
        <time>2012-06-12T14:58:38Z</time>
      </trkpt>
      <trkpt lat="39.443441" lon="-1.381188">
        <ele>750.059</ele>
        <time>2012-06-12T14:59:14Z</time>
      </trkpt>
      <trkpt lat="39.443275" lon="-1.380756">
        <ele>754.303</ele>
        <time>2012-06-12T14:59:42Z</time>
      </trkpt>
      <trkpt lat="39.442505" lon="-1.380982">
        <ele>759.623</ele>
        <time>2012-06-12T15:00:25Z</time>
      </trkpt>
      <trkpt lat="39.441740" lon="-1.379983">
        <ele>755.307</ele>
        <time>2012-06-12T15:01:04Z</time>
      </trkpt>
      <trkpt lat="39.441078" lon="-1.380545">
        <ele>758.118</ele>
        <time>2012-06-12T15:01:33Z</time>
      </trkpt>
      <trkpt lat="39.440143" lon="-1.380264">
        <ele>761.515</ele>
        <time>2012-06-12T15:02:06Z</time>
      </trkpt>
      <trkpt lat="39.439810" lon="-1.379808">
        <ele>764.488</ele>
        <time>2012-06-12T15:02:32Z</time>
      </trkpt>
      <trkpt lat="39.439203" lon="-1.377171">
        <ele>766.861</ele>
        <time>2012-06-12T15:08:08Z</time>
      </trkpt>
      <trkpt lat="39.439294" lon="-1.376188">
        <ele>770.271</ele>
        <time>2012-06-12T15:08:41Z</time>
      </trkpt>
      <trkpt lat="39.437966" lon="-1.375416">
        <ele>769.779</ele>
        <time>2012-06-12T15:09:18Z</time>
      </trkpt>
      <trkpt lat="39.436065" lon="-1.373615">
        <ele>766.310</ele>
        <time>2012-06-12T15:10:55Z</time>
      </trkpt>
      <trkpt lat="39.437225" lon="-1.370378">
        <ele>759.655</ele>
        <time>2012-06-12T15:12:30Z</time>
      </trkpt>
      <trkpt lat="39.437148" lon="-1.368229">
        <ele>748.007</ele>
        <time>2012-06-12T15:13:19Z</time>
      </trkpt>
      <trkpt lat="39.436845" lon="-1.368551">
        <ele>745.217</ele>
        <time>2012-06-12T15:14:05Z</time>
      </trkpt>
      <trkpt lat="39.436987" lon="-1.369188">
        <ele>743.207</ele>
        <time>2012-06-12T15:14:19Z</time>
      </trkpt>
      <trkpt lat="39.435732" lon="-1.371223">
        <ele>728.868</ele>
        <time>2012-06-12T15:15:30Z</time>
      </trkpt>
      <trkpt lat="39.435698" lon="-1.372189">
        <ele>725.035</ele>
        <time>2012-06-12T15:15:44Z</time>
      </trkpt>
      <trkpt lat="39.434815" lon="-1.372709">
        <ele>716.328</ele>
        <time>2012-06-12T15:16:03Z</time>
      </trkpt>
      <trkpt lat="39.435389" lon="-1.372087">
        <ele>715.471</ele>
        <time>2012-06-12T15:16:37Z</time>
      </trkpt>
      <trkpt lat="39.435240" lon="-1.371048">
        <ele>714.441</ele>
        <time>2012-06-12T15:17:01Z</time>
      </trkpt>
      <trkpt lat="39.435450" lon="-1.370373">
        <ele>713.999</ele>
        <time>2012-06-12T15:17:16Z</time>
      </trkpt>
      <trkpt lat="39.434771" lon="-1.368138">
        <ele>706.760</ele>
        <time>2012-06-12T15:18:04Z</time>
      </trkpt>
      <trkpt lat="39.435164" lon="-1.367106">
        <ele>706.714</ele>
        <time>2012-06-12T15:18:25Z</time>
      </trkpt>
      <trkpt lat="39.433910" lon="-1.366212">
        <ele>699.554</ele>
        <time>2012-06-12T15:18:54Z</time>
      </trkpt>
      <trkpt lat="39.433564" lon="-1.366517">
        <ele>700.509</ele>
        <time>2012-06-12T15:19:05Z</time>
      </trkpt>
      <trkpt lat="39.432855" lon="-1.366379">
        <ele>702.907</ele>
        <time>2012-06-12T15:19:27Z</time>
      </trkpt>
      <trkpt lat="39.432668" lon="-1.365292">
        <ele>699.594</ele>
        <time>2012-06-12T15:19:45Z</time>
      </trkpt>
      <trkpt lat="39.431810" lon="-1.365515">
        <ele>698.111</ele>
        <time>2012-06-12T15:20:05Z</time>
      </trkpt>
      <trkpt lat="39.431488" lon="-1.366169">
        <ele>695.754</ele>
        <time>2012-06-12T15:20:15Z</time>
      </trkpt>
      <trkpt lat="39.430086" lon="-1.366541">
        <ele>686.037</ele>
        <time>2012-06-12T15:20:41Z</time>
      </trkpt>
      <trkpt lat="39.428069" lon="-1.364619">
        <ele>676.917</ele>
        <time>2012-06-12T15:21:18Z</time>
      </trkpt>
      <trkpt lat="39.427261" lon="-1.364824">
        <ele>673.515</ele>
        <time>2012-06-12T15:21:29Z</time>
      </trkpt>
      <trkpt lat="39.426311" lon="-1.365693">
        <ele>672.666</ele>
        <time>2012-06-12T15:22:25Z</time>
      </trkpt>
      <trkpt lat="39.424623" lon="-1.365102">
        <ele>660.138</ele>
        <time>2012-06-12T15:22:59Z</time>
      </trkpt>
      <trkpt lat="39.423784" lon="-1.366134">
        <ele>655.870</ele>
        <time>2012-06-12T15:23:19Z</time>
      </trkpt>
      <trkpt lat="39.421947" lon="-1.365883">
        <ele>653.417</ele>
        <time>2012-06-12T15:23:55Z</time>
      </trkpt>
      <trkpt lat="39.419720" lon="-1.367097">
        <ele>642.307</ele>
        <time>2012-06-12T15:24:32Z</time>
      </trkpt>
      <trkpt lat="39.418824" lon="-1.366245">
        <ele>641.836</ele>
        <time>2012-06-12T15:24:56Z</time>
      </trkpt>
      <trkpt lat="39.417476" lon="-1.367026">
        <ele>637.043</ele>
        <time>2012-06-12T15:25:19Z</time>
      </trkpt>
      <trkpt lat="39.416322" lon="-1.367203">
        <ele>639.916</ele>
        <time>2012-06-12T15:25:49Z</time>
      </trkpt>
      <trkpt lat="39.412964" lon="-1.371140">
        <ele>633.749</ele>
        <time>2012-06-12T15:27:33Z</time>
      </trkpt>
      <trkpt lat="39.412166" lon="-1.371273">
        <ele>628.859</ele>
        <time>2012-06-12T15:27:47Z</time>
      </trkpt>
      <trkpt lat="39.411667" lon="-1.372049">
        <ele>624.087</ele>
        <time>2012-06-12T15:27:59Z</time>
      </trkpt>
      <trkpt lat="39.410567" lon="-1.372550">
        <ele>615.498</ele>
        <time>2012-06-12T15:28:17Z</time>
      </trkpt>
      <trkpt lat="39.410530" lon="-1.374662">
        <ele>615.958</ele>
        <time>2012-06-12T15:28:50Z</time>
      </trkpt>
      <trkpt lat="39.410247" lon="-1.375239">
        <ele>615.952</ele>
        <time>2012-06-12T15:29:05Z</time>
      </trkpt>
      <trkpt lat="39.408979" lon="-1.374581">
        <ele>612.017</ele>
        <time>2012-06-12T15:29:39Z</time>
      </trkpt>
      <trkpt lat="39.408816" lon="-1.373653">
        <ele>614.907</ele>
        <time>2012-06-12T15:30:06Z</time>
      </trkpt>
      <trkpt lat="39.407195" lon="-1.374149">
        <ele>609.678</ele>
        <time>2012-06-12T15:30:50Z</time>
      </trkpt>
      <trkpt lat="39.406293" lon="-1.373802">
        <ele>609.615</ele>
        <time>2012-06-12T15:31:13Z</time>
      </trkpt>
      <trkpt lat="39.404673" lon="-1.374197">
        <ele>606.788</ele>
        <time>2012-06-12T15:31:56Z</time>
      </trkpt>
      <trkpt lat="39.403140" lon="-1.376343">
        <ele>585.181</ele>
        <time>2012-06-12T15:34:58Z</time>
      </trkpt>
      <trkpt lat="39.402804" lon="-1.377458">
        <ele>584.611</ele>
        <time>2012-06-12T15:35:17Z</time>
      </trkpt>
      <trkpt lat="39.402095" lon="-1.377701">
        <ele>583.759</ele>
        <time>2012-06-12T15:35:37Z</time>
      </trkpt>
      <trkpt lat="39.401795" lon="-1.378269">
        <ele>583.730</ele>
        <time>2012-06-12T15:35:54Z</time>
      </trkpt>
      <trkpt lat="39.398857" lon="-1.378182">
        <ele>560.139</ele>
        <time>2012-06-12T15:37:10Z</time>
      </trkpt>
      <trkpt lat="39.397881" lon="-1.378798">
        <ele>554.301</ele>
        <time>2012-06-12T15:37:33Z</time>
      </trkpt>
      <trkpt lat="39.396359" lon="-1.377699">
        <ele>539.021</ele>
        <time>2012-06-12T15:38:08Z</time>
      </trkpt>
      <trkpt lat="39.395795" lon="-1.378617">
        <ele>527.407</ele>
        <time>2012-06-12T15:38:33Z</time>
      </trkpt>
      <trkpt lat="39.395307" lon="-1.378306">
        <ele>520.256</ele>
        <time>2012-06-12T15:38:45Z</time>
      </trkpt>
      <trkpt lat="39.393929" lon="-1.378356">
        <ele>514.433</ele>
        <time>2012-06-12T15:39:21Z</time>
      </trkpt>
      <trkpt lat="39.393356" lon="-1.377825">
        <ele>512.516</ele>
        <time>2012-06-12T15:39:37Z</time>
      </trkpt>
      <trkpt lat="39.390507" lon="-1.377516">
        <ele>497.189</ele>
        <time>2012-06-12T15:40:26Z</time>
      </trkpt>
      <trkpt lat="39.390328" lon="-1.378238">
        <ele>499.589</ele>
        <time>2012-06-12T15:40:48Z</time>
      </trkpt>
      <trkpt lat="39.388186" lon="-1.377791">
        <ele>482.787</ele>
        <time>2012-06-12T15:41:42Z</time>
      </trkpt>
      <trkpt lat="39.386814" lon="-1.380455">
        <ele>473.618</ele>
        <time>2012-06-12T15:42:44Z</time>
      </trkpt>
      <trkpt lat="39.385898" lon="-1.381213">
        <ele>467.397</ele>
        <time>2012-06-12T15:58:44Z</time>
      </trkpt>
      <trkpt lat="39.384419" lon="-1.380277">
        <ele>462.523</ele>
        <time>2012-06-12T15:59:21Z</time>
      </trkpt>
      <trkpt lat="39.380388" lon="-1.381056">
        <ele>460.125</ele>
        <time>2012-06-12T16:00:49Z</time>
      </trkpt>
      <trkpt lat="39.379505" lon="-1.381768">
        <ele>453.407</ele>
        <time>2012-06-12T16:01:07Z</time>
      </trkpt>
      <trkpt lat="39.378518" lon="-1.381970">
        <ele>455.872</ele>
        <time>2012-06-12T16:01:34Z</time>
      </trkpt>
      <trkpt lat="39.377161" lon="-1.381031">
        <ele>448.629</ele>
        <time>2012-06-12T16:02:06Z</time>
      </trkpt>
      <trkpt lat="39.376338" lon="-1.382381">
        <ele>446.252</ele>
        <time>2012-06-12T16:02:33Z</time>
      </trkpt>
      <trkpt lat="39.375415" lon="-1.382899">
        <ele>443.855</ele>
        <time>2012-06-12T16:02:53Z</time>
      </trkpt>
      <trkpt lat="39.374822" lon="-1.382848">
        <ele>443.315</ele>
        <time>2012-06-12T16:03:05Z</time>
      </trkpt>
      <trkpt lat="39.374315" lon="-1.382322">
        <ele>446.743</ele>
        <time>2012-06-12T16:03:27Z</time>
      </trkpt>
      <trkpt lat="39.373432" lon="-1.382216">
        <ele>445.724</ele>
        <time>2012-06-12T16:03:55Z</time>
      </trkpt>
      <trkpt lat="39.373485" lon="-1.382694">
        <ele>441.971</ele>
        <time>2012-06-12T16:04:07Z</time>
      </trkpt>
      <trkpt lat="39.371692" lon="-1.382879">
        <ele>434.741</ele>
        <time>2012-06-12T16:04:54Z</time>
      </trkpt>
      <trkpt lat="39.371307" lon="-1.383254">
        <ele>433.715</ele>
        <time>2012-06-12T16:05:04Z</time>
      </trkpt>
      <trkpt lat="39.370006" lon="-1.382401">
        <ele>430.307</ele>
        <time>2012-06-12T16:05:55Z</time>
      </trkpt>
      <trkpt lat="39.368826" lon="-1.382756">
        <ele>429.450</ele>
        <time>2012-06-12T16:06:16Z</time>
      </trkpt>
      <trkpt lat="39.368250" lon="-1.382495">
        <ele>430.347</ele>
        <time>2012-06-12T16:06:35Z</time>
      </trkpt>
      <trkpt lat="39.367547" lon="-1.383364">
        <ele>426.510</ele>
        <time>2012-06-12T16:06:57Z</time>
      </trkpt>
      <trkpt lat="39.367501" lon="-1.384156">
        <ele>427.493</ele>
        <time>2012-06-12T16:07:25Z</time>
      </trkpt>
      <trkpt lat="39.367155" lon="-1.383369">
        <ele>423.653</ele>
        <time>2012-06-12T16:08:11Z</time>
      </trkpt>
      <trkpt lat="39.367632" lon="-1.382303">
        <ele>411.661</ele>
        <time>2012-06-12T16:08:31Z</time>
      </trkpt>
      <trkpt lat="39.366437" lon="-1.383006">
        <ele>412.512</ele>
        <time>2012-06-12T16:09:03Z</time>
      </trkpt>
      <trkpt lat="39.361242" lon="-1.381445">
        <ele>422.216</ele>
        <time>2012-06-12T16:15:15Z</time>
      </trkpt>
      <trkpt lat="39.359567" lon="-1.381434">
        <ele>418.376</ele>
        <time>2012-06-12T16:15:48Z</time>
      </trkpt>
      <trkpt lat="39.355186" lon="-1.383971">
        <ele>413.513</ele>
        <time>2012-06-12T16:17:24Z</time>
      </trkpt>
      <trkpt lat="39.354509" lon="-1.383812">
        <ele>414.507</ele>
        <time>2012-06-12T16:17:39Z</time>
      </trkpt>
      <trkpt lat="39.354323" lon="-1.383082">
        <ele>413.014</ele>
        <time>2012-06-12T16:17:51Z</time>
      </trkpt>
      <trkpt lat="39.356279" lon="-1.373784">
        <ele>407.321</ele>
        <time>2012-06-12T16:22:36Z</time>
      </trkpt>
      <trkpt lat="39.355552" lon="-1.371764">
        <ele>425.034</ele>
        <time>2012-06-12T16:24:20Z</time>
      </trkpt>
      <trkpt lat="39.356479" lon="-1.370197">
        <ele>434.717</ele>
        <time>2012-06-12T16:25:30Z</time>
      </trkpt>
      <trkpt lat="39.356576" lon="-1.369230">
        <ele>435.677</ele>
        <time>2012-06-12T16:25:53Z</time>
      </trkpt>
      <trkpt lat="39.356984" lon="-1.368572">
        <ele>434.755</ele>
        <time>2012-06-12T16:26:07Z</time>
      </trkpt>
      <trkpt lat="39.357446" lon="-1.365038">
        <ele>433.786</ele>
        <time>2012-06-12T16:27:08Z</time>
      </trkpt>
      <trkpt lat="39.358015" lon="-1.364692">
        <ele>433.275</ele>
        <time>2012-06-12T16:27:21Z</time>
      </trkpt>
      <trkpt lat="39.358545" lon="-1.363302">
        <ele>428.428</ele>
        <time>2012-06-12T16:28:10Z</time>
      </trkpt>
      <trkpt lat="39.357888" lon="-1.363343">
        <ele>431.820</ele>
        <time>2012-06-12T16:28:36Z</time>
      </trkpt>
      <trkpt lat="39.357399" lon="-1.363963">
        <ele>434.707</ele>
        <time>2012-06-12T16:29:02Z</time>
      </trkpt>
      <trkpt lat="39.356693" lon="-1.363741">
        <ele>432.350</ele>
        <time>2012-06-12T16:29:23Z</time>
      </trkpt>
      <trkpt lat="39.356518" lon="-1.364566">
        <ele>433.737</ele>
        <time>2012-06-12T16:29:39Z</time>
      </trkpt>
      <trkpt lat="39.355538" lon="-1.365086">
        <ele>432.380</ele>
        <time>2012-06-12T16:30:02Z</time>
      </trkpt>
      <trkpt lat="39.352994" lon="-1.363440">
        <ele>430.343</ele>
        <time>2012-06-12T16:30:59Z</time>
      </trkpt>
      <trkpt lat="39.352358" lon="-1.362712">
        <ele>429.443</ele>
        <time>2012-06-12T16:31:16Z</time>
      </trkpt>
      <trkpt lat="39.351494" lon="-1.362566">
        <ele>430.861</ele>
        <time>2012-06-12T16:31:39Z</time>
      </trkpt>
      <trkpt lat="39.348475" lon="-1.356846">
        <ele>435.662</ele>
        <time>2012-06-12T16:33:22Z</time>
      </trkpt>
      <trkpt lat="39.346313" lon="-1.354885">
        <ele>434.217</ele>
        <time>2012-06-12T16:34:19Z</time>
      </trkpt>
      <trkpt lat="39.345468" lon="-1.355215">
        <ele>433.787</ele>
        <time>2012-06-12T16:34:39Z</time>
      </trkpt>
      <trkpt lat="39.343286" lon="-1.352897">
        <ele>428.915</ele>
        <time>2012-06-12T16:35:32Z</time>
      </trkpt>
      <trkpt lat="39.342302" lon="-1.350779">
        <ele>422.607</ele>
        <time>2012-06-12T16:36:00Z</time>
      </trkpt>
      <trkpt lat="39.340984" lon="-1.349261">
        <ele>402.064</ele>
        <time>2012-06-12T16:36:39Z</time>
      </trkpt>
      <trkpt lat="39.340764" lon="-1.348410">
        <ele>400.511</ele>
        <time>2012-06-12T16:36:50Z</time>
      </trkpt>
      <trkpt lat="39.341329" lon="-1.347795">
        <ele>401.044</ele>
        <time>2012-06-12T16:37:06Z</time>
      </trkpt>
      <trkpt lat="39.341029" lon="-1.345264">
        <ele>402.947</ele>
        <time>2012-06-12T16:37:44Z</time>
      </trkpt>
      <trkpt lat="39.341243" lon="-1.344595">
        <ele>405.897</ele>
        <time>2012-06-12T16:38:08Z</time>
      </trkpt>
      <trkpt lat="39.340834" lon="-1.343506">
        <ele>405.835</ele>
        <time>2012-06-12T16:38:29Z</time>
      </trkpt>
      <trkpt lat="39.337516" lon="-1.342834">
        <ele>404.956</ele>
        <time>2012-06-12T16:43:29Z</time>
      </trkpt>
      <trkpt lat="39.335058" lon="-1.339651">
        <ele>405.823</ele>
        <time>2012-06-12T16:44:52Z</time>
      </trkpt>
      <trkpt lat="39.334721" lon="-1.338798">
        <ele>406.883</ele>
        <time>2012-06-12T16:45:07Z</time>
      </trkpt>
      <trkpt lat="39.334131" lon="-1.338784">
        <ele>408.711</ele>
        <time>2012-06-12T16:45:28Z</time>
      </trkpt>
      <trkpt lat="39.333937" lon="-1.338323">
        <ele>408.707</ele>
        <time>2012-06-12T16:45:40Z</time>
      </trkpt>
      <trkpt lat="39.333530" lon="-1.338324">
        <ele>408.215</ele>
        <time>2012-06-12T16:48:41Z</time>
      </trkpt>
      <trkpt lat="39.333594" lon="-1.337766">
        <ele>411.638</ele>
        <time>2012-06-13T05:42:01Z</time>
      </trkpt>
      <trkpt lat="39.332811" lon="-1.336740">
        <ele>408.270</ele>
        <time>2012-06-13T05:43:39Z</time>
      </trkpt>
      <trkpt lat="39.332761" lon="-1.334844">
        <ele>401.017</ele>
        <time>2012-06-13T05:45:00Z</time>
      </trkpt>
      <trkpt lat="39.333677" lon="-1.331162">
        <ele>407.707</ele>
        <time>2012-06-13T05:48:30Z</time>
      </trkpt>
      <trkpt lat="39.335287" lon="-1.329854">
        <ele>405.876</ele>
        <time>2012-06-13T05:49:12Z</time>
      </trkpt>
      <trkpt lat="39.337123" lon="-1.328841">
        <ele>407.713</ele>
        <time>2012-06-13T05:50:00Z</time>
      </trkpt>
      <trkpt lat="39.337709" lon="-1.327956">
        <ele>409.766</ele>
        <time>2012-06-13T05:50:28Z</time>
      </trkpt>
      <trkpt lat="39.338594" lon="-1.324598">
        <ele>400.120</ele>
        <time>2012-06-13T05:51:19Z</time>
      </trkpt>
      <trkpt lat="39.338487" lon="-1.323897">
        <ele>399.153</ele>
        <time>2012-06-13T05:51:29Z</time>
      </trkpt>
      <trkpt lat="39.337216" lon="-1.321766">
        <ele>398.663</ele>
        <time>2012-06-13T05:52:13Z</time>
      </trkpt>
      <trkpt lat="39.338717" lon="-1.319704">
        <ele>402.568</ele>
        <time>2012-06-13T05:53:09Z</time>
      </trkpt>
      <trkpt lat="39.338526" lon="-1.319015">
        <ele>399.181</ele>
        <time>2012-06-13T05:53:23Z</time>
      </trkpt>
      <trkpt lat="39.339067" lon="-1.318406">
        <ele>399.161</ele>
        <time>2012-06-13T05:53:38Z</time>
      </trkpt>
      <trkpt lat="39.339526" lon="-1.317040">
        <ele>402.017</ele>
        <time>2012-06-13T05:54:09Z</time>
      </trkpt>
      <trkpt lat="39.338229" lon="-1.313676">
        <ele>424.107</ele>
        <time>2012-06-13T05:56:20Z</time>
      </trkpt>
      <trkpt lat="39.338162" lon="-1.312960">
        <ele>424.191</ele>
        <time>2012-06-13T05:56:46Z</time>
      </trkpt>
      <trkpt lat="39.336912" lon="-1.310568">
        <ele>418.378</ele>
        <time>2012-06-13T05:57:29Z</time>
      </trkpt>
      <trkpt lat="39.337635" lon="-1.308942">
        <ele>426.061</ele>
        <time>2012-06-13T05:58:10Z</time>
      </trkpt>
      <trkpt lat="39.337510" lon="-1.307420">
        <ele>423.625</ele>
        <time>2012-06-13T05:58:34Z</time>
      </trkpt>
      <trkpt lat="39.336779" lon="-1.306225">
        <ele>421.778</ele>
        <time>2012-06-13T05:58:57Z</time>
      </trkpt>
      <trkpt lat="39.336389" lon="-1.306096">
        <ele>419.858</ele>
        <time>2012-06-13T05:59:09Z</time>
      </trkpt>
      <trkpt lat="39.336379" lon="-1.305671">
        <ele>415.483</ele>
        <time>2012-06-13T05:59:55Z</time>
      </trkpt>
      <trkpt lat="39.334985" lon="-1.303906">
        <ele>410.684</ele>
        <time>2012-06-13T06:00:42Z</time>
      </trkpt>
      <trkpt lat="39.334887" lon="-1.303159">
        <ele>407.707</ele>
        <time>2012-06-13T06:00:52Z</time>
      </trkpt>
      <trkpt lat="39.334631" lon="-1.302839">
        <ele>408.217</ele>
        <time>2012-06-13T06:01:00Z</time>
      </trkpt>
      <trkpt lat="39.334221" lon="-1.302868">
        <ele>404.407</ele>
        <time>2012-06-13T06:01:08Z</time>
      </trkpt>
      <trkpt lat="39.332959" lon="-1.301969">
        <ele>394.351</ele>
        <time>2012-06-13T06:01:33Z</time>
      </trkpt>
      <trkpt lat="39.331931" lon="-1.301675">
        <ele>394.898</ele>
        <time>2012-06-13T06:01:56Z</time>
      </trkpt>
      <trkpt lat="39.331288" lon="-1.301108">
        <ele>397.221</ele>
        <time>2012-06-13T06:02:21Z</time>
      </trkpt>
      <trkpt lat="39.330886" lon="-1.299929">
        <ele>391.925</ele>
        <time>2012-06-13T06:02:39Z</time>
      </trkpt>
      <trkpt lat="39.330246" lon="-1.299120">
        <ele>392.828</ele>
        <time>2012-06-13T06:02:59Z</time>
      </trkpt>
      <trkpt lat="39.329964" lon="-1.298152">
        <ele>391.948</ele>
        <time>2012-06-13T06:03:15Z</time>
      </trkpt>
      <trkpt lat="39.329878" lon="-1.296315">
        <ele>394.873</ele>
        <time>2012-06-13T06:03:53Z</time>
      </trkpt>
      <trkpt lat="39.330794" lon="-1.293955">
        <ele>393.352</ele>
        <time>2012-06-13T06:04:48Z</time>
      </trkpt>
      <trkpt lat="39.331527" lon="-1.293067">
        <ele>390.453</ele>
        <time>2012-06-13T06:05:05Z</time>
      </trkpt>
      <trkpt lat="39.333448" lon="-1.292475">
        <ele>390.008</ele>
        <time>2012-06-13T06:05:44Z</time>
      </trkpt>
      <trkpt lat="39.333527" lon="-1.291710">
        <ele>391.407</ele>
        <time>2012-06-13T06:06:01Z</time>
      </trkpt>
      <trkpt lat="39.331396" lon="-1.290740">
        <ele>394.898</ele>
        <time>2012-06-13T06:07:09Z</time>
      </trkpt>
      <trkpt lat="39.329818" lon="-1.288658">
        <ele>394.385</ele>
        <time>2012-06-13T06:08:25Z</time>
      </trkpt>
      <trkpt lat="39.329531" lon="-1.289091">
        <ele>392.848</ele>
        <time>2012-06-13T06:08:41Z</time>
      </trkpt>
      <trkpt lat="39.329230" lon="-1.289000">
        <ele>390.022</ele>
        <time>2012-06-13T06:09:26Z</time>
      </trkpt>
      <trkpt lat="39.328585" lon="-1.289781">
        <ele>390.985</ele>
        <time>2012-06-13T06:09:59Z</time>
      </trkpt>
      <trkpt lat="39.328180" lon="-1.287599">
        <ele>402.015</ele>
        <time>2012-06-13T06:11:16Z</time>
      </trkpt>
      <trkpt lat="39.327618" lon="-1.287029">
        <ele>401.050</ele>
        <time>2012-06-13T06:12:08Z</time>
      </trkpt>
      <trkpt lat="39.327484" lon="-1.287510">
        <ele>402.545</ele>
        <time>2012-06-13T06:12:24Z</time>
      </trkpt>
      <trkpt lat="39.326433" lon="-1.287776">
        <ele>407.347</ele>
        <time>2012-06-13T06:13:07Z</time>
      </trkpt>
      <trkpt lat="39.326025" lon="-1.289349">
        <ele>403.911</ele>
        <time>2012-06-13T06:13:49Z</time>
      </trkpt>
      <trkpt lat="39.325151" lon="-1.288577">
        <ele>409.707</ele>
        <time>2012-06-13T06:14:38Z</time>
      </trkpt>
      <trkpt lat="39.324655" lon="-1.288548">
        <ele>405.827</ele>
        <time>2012-06-13T06:15:14Z</time>
      </trkpt>
      <trkpt lat="39.324151" lon="-1.289902">
        <ele>410.144</ele>
        <time>2012-06-13T06:16:12Z</time>
      </trkpt>
      <trkpt lat="39.323513" lon="-1.290461">
        <ele>416.947</ele>
        <time>2012-06-13T06:16:47Z</time>
      </trkpt>
      <trkpt lat="39.323768" lon="-1.289593">
        <ele>426.511</ele>
        <time>2012-06-13T06:17:41Z</time>
      </trkpt>
      <trkpt lat="39.322375" lon="-1.288779">
        <ele>451.054</ele>
        <time>2012-06-13T06:19:30Z</time>
      </trkpt>
      <trkpt lat="39.322431" lon="-1.288031">
        <ele>454.874</ele>
        <time>2012-06-13T06:20:05Z</time>
      </trkpt>
      <trkpt lat="39.322130" lon="-1.287467">
        <ele>456.839</ele>
        <time>2012-06-13T06:20:30Z</time>
      </trkpt>
      <trkpt lat="39.321548" lon="-1.287113">
        <ele>460.691</ele>
        <time>2012-06-13T06:20:57Z</time>
      </trkpt>
      <trkpt lat="39.319976" lon="-1.287261">
        <ele>473.181</ele>
        <time>2012-06-13T06:22:14Z</time>
      </trkpt>
      <trkpt lat="39.318884" lon="-1.286216">
        <ele>480.319</ele>
        <time>2012-06-13T06:23:13Z</time>
      </trkpt>
      <trkpt lat="39.317659" lon="-1.286458">
        <ele>487.507</ele>
        <time>2012-06-13T06:24:05Z</time>
      </trkpt>
      <trkpt lat="39.316511" lon="-1.285241">
        <ele>492.342</ele>
        <time>2012-06-13T06:26:11Z</time>
      </trkpt>
      <trkpt lat="39.315977" lon="-1.285313">
        <ele>495.279</ele>
        <time>2012-06-13T06:26:35Z</time>
      </trkpt>
      <trkpt lat="39.314652" lon="-1.286734">
        <ele>506.892</ele>
        <time>2012-06-13T06:27:54Z</time>
      </trkpt>
      <trkpt lat="39.313870" lon="-1.287168">
        <ele>513.516</ele>
        <time>2012-06-13T06:28:34Z</time>
      </trkpt>
      <trkpt lat="39.313526" lon="-1.287992">
        <ele>517.819</ele>
        <time>2012-06-13T06:29:07Z</time>
      </trkpt>
      <trkpt lat="39.312444" lon="-1.287709">
        <ele>523.649</ele>
        <time>2012-06-13T06:29:56Z</time>
      </trkpt>
      <trkpt lat="39.311953" lon="-1.288559">
        <ele>531.324</ele>
        <time>2012-06-13T06:30:40Z</time>
      </trkpt>
      <trkpt lat="39.309304" lon="-1.289812">
        <ele>559.176</ele>
        <time>2012-06-13T06:33:24Z</time>
      </trkpt>
      <trkpt lat="39.308681" lon="-1.290600">
        <ele>572.190</ele>
        <time>2012-06-13T06:34:30Z</time>
      </trkpt>
      <trkpt lat="39.308156" lon="-1.290820">
        <ele>578.419</ele>
        <time>2012-06-13T06:35:06Z</time>
      </trkpt>
      <trkpt lat="39.307829" lon="-1.290654">
        <ele>581.707</ele>
        <time>2012-06-13T06:37:02Z</time>
      </trkpt>
      <trkpt lat="39.307238" lon="-1.290872">
        <ele>589.920</ele>
        <time>2012-06-13T06:37:44Z</time>
      </trkpt>
      <trkpt lat="39.306167" lon="-1.292653">
        <ele>601.037</ele>
        <time>2012-06-13T06:39:15Z</time>
      </trkpt>
      <trkpt lat="39.306127" lon="-1.293148">
        <ele>601.430</ele>
        <time>2012-06-13T06:39:26Z</time>
      </trkpt>
      <trkpt lat="39.306734" lon="-1.294076">
        <ele>611.194</ele>
        <time>2012-06-13T06:40:11Z</time>
      </trkpt>
      <trkpt lat="39.306667" lon="-1.294694">
        <ele>614.467</ele>
        <time>2012-06-13T06:40:37Z</time>
      </trkpt>
      <trkpt lat="39.305871" lon="-1.295051">
        <ele>625.557</ele>
        <time>2012-06-13T06:41:38Z</time>
      </trkpt>
      <trkpt lat="39.305759" lon="-1.295532">
        <ele>630.382</ele>
        <time>2012-06-13T06:42:05Z</time>
      </trkpt>
      <trkpt lat="39.305218" lon="-1.295799">
        <ele>638.588</ele>
        <time>2012-06-13T06:42:48Z</time>
      </trkpt>
      <trkpt lat="39.302976" lon="-1.298477">
        <ele>668.724</ele>
        <time>2012-06-13T06:46:41Z</time>
      </trkpt>
      <trkpt lat="39.302187" lon="-1.298480">
        <ele>663.926</ele>
        <time>2012-06-13T06:49:00Z</time>
      </trkpt>
      <trkpt lat="39.300946" lon="-1.298985">
        <ele>657.207</ele>
        <time>2012-06-13T06:49:21Z</time>
      </trkpt>
      <trkpt lat="39.300037" lon="-1.298904">
        <ele>655.831</ele>
        <time>2012-06-13T06:49:37Z</time>
      </trkpt>
      <trkpt lat="39.298279" lon="-1.300781">
        <ele>651.918</ele>
        <time>2012-06-13T06:52:06Z</time>
      </trkpt>
      <trkpt lat="39.296937" lon="-1.301666">
        <ele>649.581</ele>
        <time>2012-06-13T06:52:30Z</time>
      </trkpt>
      <trkpt lat="39.293803" lon="-1.302259">
        <ele>645.225</ele>
        <time>2012-06-13T06:53:25Z</time>
      </trkpt>
      <trkpt lat="39.291720" lon="-1.303297">
        <ele>641.388</ele>
        <time>2012-06-13T06:54:02Z</time>
      </trkpt>
      <trkpt lat="39.289278" lon="-1.306130">
        <ele>630.848</ele>
        <time>2012-06-13T06:54:58Z</time>
      </trkpt>
      <trkpt lat="39.288897" lon="-1.307600">
        <ele>627.493</ele>
        <time>2012-06-13T06:55:21Z</time>
      </trkpt>
      <trkpt lat="39.287557" lon="-1.308859">
        <ele>626.033</ele>
        <time>2012-06-13T06:55:50Z</time>
      </trkpt>
      <trkpt lat="39.284840" lon="-1.312320">
        <ele>626.923</ele>
        <time>2012-06-13T06:57:01Z</time>
      </trkpt>
      <trkpt lat="39.283826" lon="-1.312895">
        <ele>628.815</ele>
        <time>2012-06-13T06:57:30Z</time>
      </trkpt>
      <trkpt lat="39.283165" lon="-1.312588">
        <ele>630.807</ele>
        <time>2012-06-13T06:57:52Z</time>
      </trkpt>
      <trkpt lat="39.281186" lon="-1.313625">
        <ele>620.726</ele>
        <time>2012-06-13T06:58:40Z</time>
      </trkpt>
      <trkpt lat="39.279187" lon="-1.312074">
        <ele>611.153</ele>
        <time>2012-06-13T06:59:23Z</time>
      </trkpt>
      <trkpt lat="39.278337" lon="-1.311763">
        <ele>608.216</ele>
        <time>2012-06-13T06:59:36Z</time>
      </trkpt>
      <trkpt lat="39.277025" lon="-1.313329">
        <ele>610.670</ele>
        <time>2012-06-13T07:00:36Z</time>
      </trkpt>
      <trkpt lat="39.276492" lon="-1.313570">
        <ele>612.543</ele>
        <time>2012-06-13T07:00:57Z</time>
      </trkpt>
      <trkpt lat="39.275932" lon="-1.314362">
        <ele>613.053</ele>
        <time>2012-06-13T07:01:23Z</time>
      </trkpt>
      <trkpt lat="39.272973" lon="-1.315761">
        <ele>624.048</ele>
        <time>2012-06-13T07:03:16Z</time>
      </trkpt>
      <trkpt lat="39.271814" lon="-1.315383">
        <ele>627.499</ele>
        <time>2012-06-13T07:03:55Z</time>
      </trkpt>
      <trkpt lat="39.269323" lon="-1.317209">
        <ele>640.407</ele>
        <time>2012-06-13T07:05:44Z</time>
      </trkpt>
      <trkpt lat="39.268682" lon="-1.318735">
        <ele>648.627</ele>
        <time>2012-06-13T07:06:44Z</time>
      </trkpt>
      <trkpt lat="39.267511" lon="-1.320299">
        <ele>653.807</ele>
        <time>2012-06-13T07:07:40Z</time>
      </trkpt>
      <trkpt lat="39.266913" lon="-1.320384">
        <ele>656.282</ele>
        <time>2012-06-13T07:08:02Z</time>
      </trkpt>
      <trkpt lat="39.266177" lon="-1.321587">
        <ele>661.579</ele>
        <time>2012-06-13T07:08:45Z</time>
      </trkpt>
      <trkpt lat="39.265900" lon="-1.323227">
        <ele>670.742</ele>
        <time>2012-06-13T07:09:38Z</time>
      </trkpt>
      <trkpt lat="39.266018" lon="-1.324094">
        <ele>675.576</ele>
        <time>2012-06-13T07:10:14Z</time>
      </trkpt>
      <trkpt lat="39.265364" lon="-1.325556">
        <ele>683.259</ele>
        <time>2012-06-13T07:11:08Z</time>
      </trkpt>
      <trkpt lat="39.265448" lon="-1.326305">
        <ele>684.689</ele>
        <time>2012-06-13T07:11:31Z</time>
      </trkpt>
      <trkpt lat="39.264742" lon="-1.327284">
        <ele>688.464</ele>
        <time>2012-06-13T07:12:12Z</time>
      </trkpt>
      <trkpt lat="39.264279" lon="-1.326938">
        <ele>690.839</ele>
        <time>2012-06-13T07:15:09Z</time>
      </trkpt>
      <trkpt lat="39.263820" lon="-1.327598">
        <ele>691.301</ele>
        <time>2012-06-13T07:15:54Z</time>
      </trkpt>
      <trkpt lat="39.263154" lon="-1.327810">
        <ele>693.321</ele>
        <time>2012-06-13T07:16:19Z</time>
      </trkpt>
      <trkpt lat="39.262548" lon="-1.329804">
        <ele>700.507</ele>
        <time>2012-06-13T07:17:23Z</time>
      </trkpt>
      <trkpt lat="39.260576" lon="-1.329412">
        <ele>701.486</ele>
        <time>2012-06-13T07:18:28Z</time>
      </trkpt>
      <trkpt lat="39.259626" lon="-1.329498">
        <ele>701.933</ele>
        <time>2012-06-13T07:18:49Z</time>
      </trkpt>
      <trkpt lat="39.259162" lon="-1.330055">
        <ele>700.596</ele>
        <time>2012-06-13T07:19:06Z</time>
      </trkpt>
      <trkpt lat="39.259325" lon="-1.333872">
        <ele>705.860</ele>
        <time>2012-06-13T07:20:49Z</time>
      </trkpt>
      <trkpt lat="39.258154" lon="-1.337523">
        <ele>697.653</ele>
        <time>2012-06-13T07:41:21Z</time>
      </trkpt>
      <trkpt lat="39.256932" lon="-1.337497">
        <ele>695.723</ele>
        <time>2012-06-13T07:41:59Z</time>
      </trkpt>
      <trkpt lat="39.254780" lon="-1.340333">
        <ele>692.888</ele>
        <time>2012-06-13T07:43:04Z</time>
      </trkpt>
      <trkpt lat="39.253091" lon="-1.341780">
        <ele>688.485</ele>
        <time>2012-06-13T07:43:40Z</time>
      </trkpt>
      <trkpt lat="39.252147" lon="-1.343313">
        <ele>688.489</ele>
        <time>2012-06-13T07:44:06Z</time>
      </trkpt>
      <trkpt lat="39.250254" lon="-1.345132">
        <ele>687.017</ele>
        <time>2012-06-13T07:44:53Z</time>
      </trkpt>
      <trkpt lat="39.244848" lon="-1.348145">
        <ele>685.107</ele>
        <time>2012-06-13T07:48:36Z</time>
      </trkpt>
      <trkpt lat="39.243392" lon="-1.349245">
        <ele>686.521</ele>
        <time>2012-06-13T07:50:33Z</time>
      </trkpt>
      <trkpt lat="39.241762" lon="-1.351358">
        <ele>687.088</ele>
        <time>2012-06-13T07:51:22Z</time>
      </trkpt>
      <trkpt lat="39.240166" lon="-1.352496">
        <ele>688.421</ele>
        <time>2012-06-13T07:52:02Z</time>
      </trkpt>
      <trkpt lat="39.237009" lon="-1.361412">
        <ele>685.145</ele>
        <time>2012-06-13T07:54:34Z</time>
      </trkpt>
      <trkpt lat="39.236404" lon="-1.364535">
        <ele>683.618</ele>
        <time>2012-06-13T07:55:18Z</time>
      </trkpt>
      <trkpt lat="39.235924" lon="-1.365731">
        <ele>683.228</ele>
        <time>2012-06-13T07:56:23Z</time>
      </trkpt>
      <trkpt lat="39.234483" lon="-1.367836">
        <ele>682.753</ele>
        <time>2012-06-13T07:57:11Z</time>
      </trkpt>
      <trkpt lat="39.230928" lon="-1.371961">
        <ele>682.242</ele>
        <time>2012-06-13T07:59:03Z</time>
      </trkpt>
      <trkpt lat="39.229992" lon="-1.372751">
        <ele>683.222</ele>
        <time>2012-06-13T07:59:28Z</time>
      </trkpt>
      <trkpt lat="39.228374" lon="-1.376146">
        <ele>684.114</ele>
        <time>2012-06-13T08:00:36Z</time>
      </trkpt>
      <trkpt lat="39.226697" lon="-1.377397">
        <ele>682.707</ele>
        <time>2012-06-13T08:01:18Z</time>
      </trkpt>
      <trkpt lat="39.223295" lon="-1.385589">
        <ele>683.247</ele>
        <time>2012-06-13T08:05:51Z</time>
      </trkpt>
      <trkpt lat="39.220547" lon="-1.388379">
        <ele>688.014</ele>
        <time>2012-06-13T08:08:07Z</time>
      </trkpt>
      <trkpt lat="39.215830" lon="-1.394148">
        <ele>685.657</ele>
        <time>2012-06-13T08:10:49Z</time>
      </trkpt>
      <trkpt lat="39.214209" lon="-1.396913">
        <ele>688.031</ele>
        <time>2012-06-13T08:11:46Z</time>
      </trkpt>
      <trkpt lat="39.213290" lon="-1.399551">
        <ele>690.874</ele>
        <time>2012-06-13T08:12:38Z</time>
      </trkpt>
      <trkpt lat="39.209520" lon="-1.406405">
        <ele>687.084</ele>
        <time>2012-06-13T08:14:33Z</time>
      </trkpt>
      <trkpt lat="39.208342" lon="-1.409649">
        <ele>688.029</ele>
        <time>2012-06-13T08:15:27Z</time>
      </trkpt>
      <trkpt lat="39.206043" lon="-1.417452">
        <ele>686.034</ele>
        <time>2012-06-13T08:17:28Z</time>
      </trkpt>
      <trkpt lat="39.205112" lon="-1.419898">
        <ele>685.655</ele>
        <time>2012-06-13T08:18:07Z</time>
      </trkpt>
      <trkpt lat="39.203448" lon="-1.422274">
        <ele>688.010</ele>
        <time>2012-06-13T08:18:58Z</time>
      </trkpt>
      <trkpt lat="39.202377" lon="-1.425002">
        <ele>687.007</ele>
        <time>2012-06-13T08:20:19Z</time>
      </trkpt>
      <trkpt lat="39.201575" lon="-1.429901">
        <ele>682.786</ele>
        <time>2012-06-13T08:24:03Z</time>
      </trkpt>
      <trkpt lat="39.200047" lon="-1.433314">
        <ele>675.053</ele>
        <time>2012-06-13T08:25:41Z</time>
      </trkpt>
      <trkpt lat="39.199852" lon="-1.434766">
        <ele>675.046</ele>
        <time>2012-06-13T08:29:05Z</time>
      </trkpt>
      <trkpt lat="39.198948" lon="-1.435024">
        <ele>673.170</ele>
        <time>2012-06-13T08:31:03Z</time>
      </trkpt>
      <trkpt lat="39.198867" lon="-1.434837">
        <ele>672.623</ele>
        <time>2012-06-13T08:31:56Z</time>
      </trkpt>
      <trkpt lat="39.197724" lon="-1.435736">
        <ele>667.883</ele>
        <time>2012-06-13T08:33:45Z</time>
      </trkpt>
      <trkpt lat="39.196694" lon="-1.433348">
        <ele>644.728</ele>
        <time>2012-06-13T08:42:12Z</time>
      </trkpt>
      <trkpt lat="39.195489" lon="-1.432827">
        <ele>636.183</ele>
        <time>2012-06-13T08:43:43Z</time>
      </trkpt>
      <trkpt lat="39.195225" lon="-1.431773">
        <ele>636.125</ele>
        <time>2012-06-13T08:44:18Z</time>
      </trkpt>
      <trkpt lat="39.194850" lon="-1.431358">
        <ele>634.117</ele>
        <time>2012-06-13T08:44:44Z</time>
      </trkpt>
      <trkpt lat="39.193877" lon="-1.431192">
        <ele>629.307</ele>
        <time>2012-06-13T08:45:48Z</time>
      </trkpt>
      <trkpt lat="39.192034" lon="-1.430286">
        <ele>601.911</ele>
        <time>2012-06-13T08:48:21Z</time>
      </trkpt>
      <trkpt lat="39.192896" lon="-1.430118">
        <ele>593.338</ele>
        <time>2012-06-13T08:49:04Z</time>
      </trkpt>
      <trkpt lat="39.192583" lon="-1.430036">
        <ele>588.561</ele>
        <time>2012-06-13T08:49:16Z</time>
      </trkpt>
      <trkpt lat="39.192763" lon="-1.429956">
        <ele>584.665</ele>
        <time>2012-06-13T08:49:30Z</time>
      </trkpt>
      <trkpt lat="39.191923" lon="-1.429858">
        <ele>575.018</ele>
        <time>2012-06-13T08:50:12Z</time>
      </trkpt>
      <trkpt lat="39.192509" lon="-1.429791">
        <ele>571.258</ele>
        <time>2012-06-13T08:50:50Z</time>
      </trkpt>
      <trkpt lat="39.191374" lon="-1.429326">
        <ele>551.933</ele>
        <time>2012-06-13T08:51:45Z</time>
      </trkpt>
      <trkpt lat="39.191594" lon="-1.429023">
        <ele>541.883</ele>
        <time>2012-06-13T08:52:17Z</time>
      </trkpt>
      <trkpt lat="39.190881" lon="-1.429063">
        <ele>527.925</ele>
        <time>2012-06-13T08:53:20Z</time>
      </trkpt>
      <trkpt lat="39.190570" lon="-1.426669">
        <ele>531.317</ele>
        <time>2012-06-13T09:02:06Z</time>
      </trkpt>
      <trkpt lat="39.189600" lon="-1.427111">
        <ele>531.307</ele>
        <time>2012-06-13T09:02:39Z</time>
      </trkpt>
      <trkpt lat="39.188819" lon="-1.428489">
        <ele>537.081</ele>
        <time>2012-06-13T09:04:10Z</time>
      </trkpt>
      <trkpt lat="39.188663" lon="-1.427920">
        <ele>538.568</ele>
        <time>2012-06-13T09:06:22Z</time>
      </trkpt>
      <trkpt lat="39.189360" lon="-1.427000">
        <ele>542.381</ele>
        <time>2012-06-13T09:06:55Z</time>
      </trkpt>
      <trkpt lat="39.189380" lon="-1.426523">
        <ele>543.895</ele>
        <time>2012-06-13T09:07:07Z</time>
      </trkpt>
      <trkpt lat="39.188370" lon="-1.424769">
        <ele>548.648</ele>
        <time>2012-06-13T09:07:59Z</time>
      </trkpt>
      <trkpt lat="39.187855" lon="-1.422100">
        <ele>562.588</ele>
        <time>2012-06-13T09:09:27Z</time>
      </trkpt>
      <trkpt lat="39.188266" lon="-1.421835">
        <ele>563.063</ele>
        <time>2012-06-13T09:09:41Z</time>
      </trkpt>
      <trkpt lat="39.188291" lon="-1.421031">
        <ele>566.432</ele>
        <time>2012-06-13T09:10:04Z</time>
      </trkpt>
      <trkpt lat="39.189190" lon="-1.418563">
        <ele>580.392</ele>
        <time>2012-06-13T09:11:33Z</time>
      </trkpt>
      <trkpt lat="39.188748" lon="-1.417539">
        <ele>585.111</ele>
        <time>2012-06-13T09:12:11Z</time>
      </trkpt>
      <trkpt lat="39.187254" lon="-1.416579">
        <ele>595.707</ele>
        <time>2012-06-13T09:13:20Z</time>
      </trkpt>
      <trkpt lat="39.186290" lon="-1.416503">
        <ele>601.936</ele>
        <time>2012-06-13T09:13:59Z</time>
      </trkpt>
      <trkpt lat="39.186052" lon="-1.416200">
        <ele>603.933</ele>
        <time>2012-06-13T09:14:13Z</time>
      </trkpt>
      <trkpt lat="39.185837" lon="-1.414492">
        <ele>611.146</ele>
        <time>2012-06-13T09:15:04Z</time>
      </trkpt>
      <trkpt lat="39.186007" lon="-1.413082">
        <ele>617.820</ele>
        <time>2012-06-13T09:15:48Z</time>
      </trkpt>
      <trkpt lat="39.185421" lon="-1.410118">
        <ele>629.873</ele>
        <time>2012-06-13T09:17:17Z</time>
      </trkpt>
      <trkpt lat="39.184454" lon="-1.410140">
        <ele>631.283</ele>
        <time>2012-06-13T09:17:45Z</time>
      </trkpt>
      <trkpt lat="39.183491" lon="-1.410730">
        <ele>631.758</ele>
        <time>2012-06-13T09:18:10Z</time>
      </trkpt>
      <trkpt lat="39.183417" lon="-1.411189">
        <ele>632.766</ele>
        <time>2012-06-13T09:18:20Z</time>
      </trkpt>
      <trkpt lat="39.184526" lon="-1.411590">
        <ele>637.029</ele>
        <time>2012-06-13T09:18:56Z</time>
      </trkpt>
      <trkpt lat="39.183843" lon="-1.412880">
        <ele>636.121</ele>
        <time>2012-06-13T09:19:22Z</time>
      </trkpt>
      <trkpt lat="39.182883" lon="-1.413718">
        <ele>632.207</ele>
        <time>2012-06-13T09:20:11Z</time>
      </trkpt>
      <trkpt lat="39.184554" lon="-1.414110">
        <ele>639.949</ele>
        <time>2012-06-13T09:21:57Z</time>
      </trkpt>
      <trkpt lat="39.184437" lon="-1.417484">
        <ele>651.496</ele>
        <time>2012-06-13T09:23:17Z</time>
      </trkpt>
      <trkpt lat="39.183417" lon="-1.418740">
        <ele>658.639</ele>
        <time>2012-06-13T09:24:04Z</time>
      </trkpt>
      <trkpt lat="39.182652" lon="-1.420571">
        <ele>667.333</ele>
        <time>2012-06-13T09:24:59Z</time>
      </trkpt>
      <trkpt lat="39.182902" lon="-1.421791">
        <ele>668.736</ele>
        <time>2012-06-13T09:25:24Z</time>
      </trkpt>
      <trkpt lat="39.182986" lon="-1.424974">
        <ele>673.576</ele>
        <time>2012-06-13T09:26:18Z</time>
      </trkpt>
      <trkpt lat="39.183244" lon="-1.426425">
        <ele>677.991</ele>
        <time>2012-06-13T09:26:48Z</time>
      </trkpt>
      <trkpt lat="39.181278" lon="-1.423534">
        <ele>678.897</ele>
        <time>2012-06-13T09:31:33Z</time>
      </trkpt>
      <trkpt lat="39.179373" lon="-1.422708">
        <ele>682.723</ele>
        <time>2012-06-13T09:32:20Z</time>
      </trkpt>
      <trkpt lat="39.178725" lon="-1.422690">
        <ele>682.725</ele>
        <time>2012-06-13T09:32:34Z</time>
      </trkpt>
      <trkpt lat="39.178025" lon="-1.423080">
        <ele>680.807</ele>
        <time>2012-06-13T09:32:48Z</time>
      </trkpt>
      <trkpt lat="39.177363" lon="-1.422937">
        <ele>682.272</ele>
        <time>2012-06-13T09:32:59Z</time>
      </trkpt>
      <trkpt lat="39.176348" lon="-1.422175">
        <ele>681.729</ele>
        <time>2012-06-13T09:33:27Z</time>
      </trkpt>
      <trkpt lat="39.176461" lon="-1.421527">
        <ele>683.242</ele>
        <time>2012-06-13T09:34:30Z</time>
      </trkpt>
      <trkpt lat="39.176166" lon="-1.420438">
        <ele>684.176</ele>
        <time>2012-06-13T09:37:57Z</time>
      </trkpt>
      <trkpt lat="39.174395" lon="-1.418968">
        <ele>689.439</ele>
        <time>2012-06-13T09:39:00Z</time>
      </trkpt>
      <trkpt lat="39.171675" lon="-1.415737">
        <ele>701.449</ele>
        <time>2012-06-13T09:41:04Z</time>
      </trkpt>
      <trkpt lat="39.169924" lon="-1.414917">
        <ele>706.264</ele>
        <time>2012-06-13T09:42:00Z</time>
      </trkpt>
      <trkpt lat="39.167987" lon="-1.413404">
        <ele>710.182</ele>
        <time>2012-06-13T09:43:07Z</time>
      </trkpt>
      <trkpt lat="39.166957" lon="-1.413672">
        <ele>711.043</ele>
        <time>2012-06-13T09:43:36Z</time>
      </trkpt>
      <trkpt lat="39.163617" lon="-1.412266">
        <ele>721.117</ele>
        <time>2012-06-13T09:45:19Z</time>
      </trkpt>
      <trkpt lat="39.161093" lon="-1.410548">
        <ele>727.407</ele>
        <time>2012-06-13T09:46:39Z</time>
      </trkpt>
      <trkpt lat="39.160261" lon="-1.409629">
        <ele>729.811</ele>
        <time>2012-06-13T09:47:09Z</time>
      </trkpt>
      <trkpt lat="39.159444" lon="-1.409225">
        <ele>731.228</ele>
        <time>2012-06-13T09:47:33Z</time>
      </trkpt>
      <trkpt lat="39.157106" lon="-1.406155">
        <ele>738.961</ele>
        <time>2012-06-13T09:49:06Z</time>
      </trkpt>
      <trkpt lat="39.156121" lon="-1.405669">
        <ele>741.375</ele>
        <time>2012-06-13T09:49:36Z</time>
      </trkpt>
      <trkpt lat="39.153715" lon="-1.403714">
        <ele>749.058</ele>
        <time>2012-06-13T09:50:59Z</time>
      </trkpt>
      <trkpt lat="39.153583" lon="-1.403307">
        <ele>750.068</ele>
        <time>2012-06-13T09:51:11Z</time>
      </trkpt>
      <trkpt lat="39.154518" lon="-1.400748">
        <ele>746.683</ele>
        <time>2012-06-13T09:52:01Z</time>
      </trkpt>
      <trkpt lat="39.154667" lon="-1.398641">
        <ele>753.359</ele>
        <time>2012-06-13T09:52:58Z</time>
      </trkpt>
      <trkpt lat="39.154524" lon="-1.396926">
        <ele>756.203</ele>
        <time>2012-06-13T09:53:42Z</time>
      </trkpt>
      <trkpt lat="39.152824" lon="-1.393122">
        <ele>764.923</ele>
        <time>2012-06-13T09:55:31Z</time>
      </trkpt>
      <trkpt lat="39.151252" lon="-1.390880">
        <ele>771.607</ele>
        <time>2012-06-13T09:56:52Z</time>
      </trkpt>
      <trkpt lat="39.150531" lon="-1.390605">
        <ele>774.578</ele>
        <time>2012-06-13T09:57:19Z</time>
      </trkpt>
      <trkpt lat="39.149972" lon="-1.388591">
        <ele>783.135</ele>
        <time>2012-06-13T09:58:32Z</time>
      </trkpt>
      <trkpt lat="39.150879" lon="-1.385791">
        <ele>785.178</ele>
        <time>2012-06-13T10:01:02Z</time>
      </trkpt>
      <trkpt lat="39.151303" lon="-1.383496">
        <ele>788.452</ele>
        <time>2012-06-13T10:01:59Z</time>
      </trkpt>
      <trkpt lat="39.151304" lon="-1.382268">
        <ele>788.935</ele>
        <time>2012-06-13T10:02:34Z</time>
      </trkpt>
      <trkpt lat="39.149966" lon="-1.379794">
        <ele>788.965</ele>
        <time>2012-06-13T10:03:46Z</time>
      </trkpt>
      <trkpt lat="39.152052" lon="-1.376543">
        <ele>784.680</ele>
        <time>2012-06-13T10:05:36Z</time>
      </trkpt>
      <trkpt lat="39.152972" lon="-1.375700">
        <ele>775.912</ele>
        <time>2012-06-13T10:06:09Z</time>
      </trkpt>
      <trkpt lat="39.151984" lon="-1.374723">
        <ele>770.232</ele>
        <time>2012-06-13T10:06:38Z</time>
      </trkpt>
      <trkpt lat="39.152536" lon="-1.371786">
        <ele>778.305</ele>
        <time>2012-06-13T10:08:10Z</time>
      </trkpt>
      <trkpt lat="39.151716" lon="-1.369250">
        <ele>778.807</ele>
        <time>2012-06-13T10:09:28Z</time>
      </trkpt>
      <trkpt lat="39.147645" lon="-1.371512">
        <ele>796.114</ele>
        <time>2012-06-13T10:14:34Z</time>
      </trkpt>
      <trkpt lat="39.144737" lon="-1.375199">
        <ele>825.471</ele>
        <time>2012-06-13T10:21:34Z</time>
      </trkpt>
      <trkpt lat="39.142325" lon="-1.376214">
        <ele>829.374</ele>
        <time>2012-06-13T10:25:03Z</time>
      </trkpt>
      <trkpt lat="39.141185" lon="-1.376358">
        <ele>828.368</ele>
        <time>2012-06-13T10:25:28Z</time>
      </trkpt>
      <trkpt lat="39.139405" lon="-1.375851">
        <ele>825.051</ele>
        <time>2012-06-13T10:25:58Z</time>
      </trkpt>
      <trkpt lat="39.138251" lon="-1.374984">
        <ele>817.761</ele>
        <time>2012-06-13T10:26:17Z</time>
      </trkpt>
      <trkpt lat="39.136778" lon="-1.374728">
        <ele>813.996</ele>
        <time>2012-06-13T10:26:41Z</time>
      </trkpt>
      <trkpt lat="39.135094" lon="-1.373214">
        <ele>805.794</ele>
        <time>2012-06-13T10:27:09Z</time>
      </trkpt>
      <trkpt lat="39.134224" lon="-1.371687">
        <ele>801.957</ele>
        <time>2012-06-13T10:27:33Z</time>
      </trkpt>
      <trkpt lat="39.130805" lon="-1.368180">
        <ele>785.522</ele>
        <time>2012-06-13T10:28:49Z</time>
      </trkpt>
      <trkpt lat="39.130554" lon="-1.369827">
        <ele>783.607</ele>
        <time>2012-06-13T10:29:21Z</time>
      </trkpt>
      <trkpt lat="39.128691" lon="-1.369583">
        <ele>780.362</ele>
        <time>2012-06-13T10:29:58Z</time>
      </trkpt>
      <trkpt lat="39.128461" lon="-1.369771">
        <ele>780.329</ele>
        <time>2012-06-13T10:30:05Z</time>
      </trkpt>
      <trkpt lat="39.128295" lon="-1.370794">
        <ele>779.392</ele>
        <time>2012-06-13T10:30:22Z</time>
      </trkpt>
      <trkpt lat="39.127562" lon="-1.370910">
        <ele>780.736</ele>
        <time>2012-06-13T10:30:43Z</time>
      </trkpt>
      <trkpt lat="39.125972" lon="-1.370131">
        <ele>783.689</ele>
        <time>2012-06-13T10:31:23Z</time>
      </trkpt>
      <trkpt lat="39.123713" lon="-1.371546">
        <ele>789.949</ele>
        <time>2012-06-13T10:32:32Z</time>
      </trkpt>
      <trkpt lat="39.122137" lon="-1.371814">
        <ele>793.274</ele>
        <time>2012-06-13T10:33:16Z</time>
      </trkpt>
      <trkpt lat="39.120834" lon="-1.371303">
        <ele>796.122</ele>
        <time>2012-06-13T10:33:55Z</time>
      </trkpt>
      <trkpt lat="39.116599" lon="-1.368778">
        <ele>805.262</ele>
        <time>2012-06-13T10:36:08Z</time>
      </trkpt>
      <trkpt lat="39.115667" lon="-1.367749">
        <ele>808.108</ele>
        <time>2012-06-13T10:36:45Z</time>
      </trkpt>
      <trkpt lat="39.112608" lon="-1.365934">
        <ele>815.807</ele>
        <time>2012-06-13T10:38:23Z</time>
      </trkpt>
      <trkpt lat="39.108313" lon="-1.365125">
        <ele>826.495</ele>
        <time>2012-06-13T10:40:29Z</time>
      </trkpt>
      <trkpt lat="39.107457" lon="-1.365309">
        <ele>828.382</ele>
        <time>2012-06-13T10:40:53Z</time>
      </trkpt>
      <trkpt lat="39.102972" lon="-1.364742">
        <ele>838.465</ele>
        <time>2012-06-13T10:42:59Z</time>
      </trkpt>
      <trkpt lat="39.102263" lon="-1.364170">
        <ele>832.629</ele>
        <time>2012-06-13T10:43:23Z</time>
      </trkpt>
      <trkpt lat="39.100382" lon="-1.364956">
        <ele>831.732</ele>
        <time>2012-06-13T10:44:04Z</time>
      </trkpt>
      <trkpt lat="39.099493" lon="-1.364967">
        <ele>838.472</ele>
        <time>2012-06-13T10:44:44Z</time>
      </trkpt>
      <trkpt lat="39.097936" lon="-1.363813">
        <ele>847.577</ele>
        <time>2012-06-13T10:48:39Z</time>
      </trkpt>
      <trkpt lat="39.096559" lon="-1.363334">
        <ele>843.764</ele>
        <time>2012-06-13T10:49:16Z</time>
      </trkpt>
      <trkpt lat="39.096600" lon="-1.362426">
        <ele>844.706</ele>
        <time>2012-06-13T10:53:38Z</time>
      </trkpt>
      <trkpt lat="39.095540" lon="-1.362097">
        <ele>845.116</ele>
        <time>2012-06-13T11:43:36Z</time>
      </trkpt>
      <trkpt lat="39.095555" lon="-1.362673">
        <ele>843.707</ele>
        <time>2012-06-13T11:43:57Z</time>
      </trkpt>
      <trkpt lat="39.094439" lon="-1.363148">
        <ele>849.599</ele>
        <time>2012-06-13T11:44:45Z</time>
      </trkpt>
      <trkpt lat="39.094003" lon="-1.364398">
        <ele>859.136</ele>
        <time>2012-06-13T11:45:52Z</time>
      </trkpt>
      <trkpt lat="39.093283" lon="-1.365498">
        <ele>866.369</ele>
        <time>2012-06-13T11:46:59Z</time>
      </trkpt>
      <trkpt lat="39.092678" lon="-1.367110">
        <ele>872.143</ele>
        <time>2012-06-13T11:47:54Z</time>
      </trkpt>
      <trkpt lat="39.091980" lon="-1.372749">
        <ele>874.046</ele>
        <time>2012-06-13T11:49:39Z</time>
      </trkpt>
      <trkpt lat="39.090896" lon="-1.374836">
        <ele>871.166</ele>
        <time>2012-06-13T11:50:12Z</time>
      </trkpt>
      <trkpt lat="39.089664" lon="-1.375065">
        <ele>877.371</ele>
        <time>2012-06-13T11:50:50Z</time>
      </trkpt>
      <trkpt lat="39.088226" lon="-1.376211">
        <ele>873.581</ele>
        <time>2012-06-13T11:51:38Z</time>
      </trkpt>
      <trkpt lat="39.086548" lon="-1.376976">
        <ele>864.461</ele>
        <time>2012-06-13T11:52:02Z</time>
      </trkpt>
      <trkpt lat="39.084306" lon="-1.375801">
        <ele>865.317</ele>
        <time>2012-06-13T11:53:02Z</time>
      </trkpt>
      <trkpt lat="39.083863" lon="-1.375035">
        <ele>870.607</ele>
        <time>2012-06-13T11:53:38Z</time>
      </trkpt>
      <trkpt lat="39.082990" lon="-1.374421">
        <ele>875.421</ele>
        <time>2012-06-13T11:54:25Z</time>
      </trkpt>
      <trkpt lat="39.080483" lon="-1.371593">
        <ele>886.098</ele>
        <time>2012-06-13T11:56:27Z</time>
      </trkpt>
      <trkpt lat="39.079059" lon="-1.371628">
        <ele>890.821</ele>
        <time>2012-06-13T11:57:21Z</time>
      </trkpt>
      <trkpt lat="39.075507" lon="-1.369938">
        <ele>907.675</ele>
        <time>2012-06-13T11:59:59Z</time>
      </trkpt>
      <trkpt lat="39.075708" lon="-1.368904">
        <ele>911.048</ele>
        <time>2012-06-13T12:00:36Z</time>
      </trkpt>
      <trkpt lat="39.074858" lon="-1.366908">
        <ele>917.248</ele>
        <time>2012-06-13T12:01:49Z</time>
      </trkpt>
      <trkpt lat="39.073720" lon="-1.366103">
        <ele>917.733</ele>
        <time>2012-06-13T12:02:31Z</time>
      </trkpt>
      <trkpt lat="39.072183" lon="-1.365693">
        <ele>925.936</ele>
        <time>2012-06-13T12:03:28Z</time>
      </trkpt>
      <trkpt lat="39.071102" lon="-1.365028">
        <ele>932.117</ele>
        <time>2012-06-13T12:05:21Z</time>
      </trkpt>
      <trkpt lat="39.070466" lon="-1.364076">
        <ele>938.918</ele>
        <time>2012-06-13T12:06:04Z</time>
      </trkpt>
      <trkpt lat="39.068997" lon="-1.363141">
        <ele>946.607</ele>
        <time>2012-06-13T12:07:21Z</time>
      </trkpt>
      <trkpt lat="39.068012" lon="-1.362940">
        <ele>952.316</ele>
        <time>2012-06-13T12:08:10Z</time>
      </trkpt>
      <trkpt lat="39.066161" lon="-1.363278">
        <ele>956.243</ele>
        <time>2012-06-13T12:09:15Z</time>
      </trkpt>
      <trkpt lat="39.065518" lon="-1.363805">
        <ele>957.676</ele>
        <time>2012-06-13T12:09:43Z</time>
      </trkpt>
      <trkpt lat="39.063735" lon="-1.364052">
        <ele>960.030</ele>
        <time>2012-06-13T12:10:36Z</time>
      </trkpt>
      <trkpt lat="39.062589" lon="-1.364707">
        <ele>961.953</ele>
        <time>2012-06-13T12:11:19Z</time>
      </trkpt>
      <trkpt lat="39.061776" lon="-1.364285">
        <ele>966.353</ele>
        <time>2012-06-13T12:38:57Z</time>
      </trkpt>
      <trkpt lat="39.059787" lon="-1.361458">
        <ele>978.398</ele>
        <time>2012-06-13T12:40:50Z</time>
      </trkpt>
      <trkpt lat="39.059067" lon="-1.359350">
        <ele>987.938</ele>
        <time>2012-06-13T12:42:03Z</time>
      </trkpt>
      <trkpt lat="39.059021" lon="-1.357733">
        <ele>989.870</ele>
        <time>2012-06-13T12:42:47Z</time>
      </trkpt>
      <trkpt lat="39.058483" lon="-1.356751">
        <ele>992.217</ele>
        <time>2012-06-13T12:43:14Z</time>
      </trkpt>
      <trkpt lat="39.056978" lon="-1.355413">
        <ele>997.007</ele>
        <time>2012-06-13T12:44:07Z</time>
      </trkpt>
      <trkpt lat="39.055373" lon="-1.354460">
        <ele>999.016</ele>
        <time>2012-06-13T12:44:56Z</time>
      </trkpt>
      <trkpt lat="39.052436" lon="-1.351944">
        <ele>1006.623</ele>
        <time>2012-06-13T12:46:37Z</time>
      </trkpt>
      <trkpt lat="39.050869" lon="-1.349855">
        <ele>1010.596</ele>
        <time>2012-06-13T12:47:39Z</time>
      </trkpt>
      <trkpt lat="39.049832" lon="-1.347940">
        <ele>1016.770</ele>
        <time>2012-06-13T12:48:32Z</time>
      </trkpt>
      <trkpt lat="39.043397" lon="-1.343305">
        <ele>1013.993</ele>
        <time>2012-06-13T12:51:19Z</time>
      </trkpt>
      <trkpt lat="39.040904" lon="-1.342262">
        <ele>1007.693</ele>
        <time>2012-06-13T12:52:05Z</time>
      </trkpt>
      <trkpt lat="39.038085" lon="-1.341888">
        <ele>998.598</ele>
        <time>2012-06-13T12:52:54Z</time>
      </trkpt>
      <trkpt lat="39.035994" lon="-1.339495">
        <ele>989.865</ele>
        <time>2012-06-13T12:53:39Z</time>
      </trkpt>
      <trkpt lat="39.032376" lon="-1.339020">
        <ele>982.668</ele>
        <time>2012-06-13T12:54:50Z</time>
      </trkpt>
      <trkpt lat="39.031274" lon="-1.339357">
        <ele>981.614</ele>
        <time>2012-06-13T12:55:13Z</time>
      </trkpt>
      <trkpt lat="39.030969" lon="-1.340363">
        <ele>980.207</ele>
        <time>2012-06-13T12:55:30Z</time>
      </trkpt>
      <trkpt lat="39.029980" lon="-1.341637">
        <ele>974.419</ele>
        <time>2012-06-13T12:55:52Z</time>
      </trkpt>
      <trkpt lat="39.029462" lon="-1.341546">
        <ele>972.556</ele>
        <time>2012-06-13T12:56:01Z</time>
      </trkpt>
      <trkpt lat="39.028549" lon="-1.340442">
        <ele>970.199</ele>
        <time>2012-06-13T12:56:24Z</time>
      </trkpt>
      <trkpt lat="39.028143" lon="-1.340361">
        <ele>967.733</ele>
        <time>2012-06-13T12:56:32Z</time>
      </trkpt>
      <trkpt lat="39.023255" lon="-1.342293">
        <ele>956.716</ele>
        <time>2012-06-13T12:57:55Z</time>
      </trkpt>
      <trkpt lat="39.017178" lon="-1.342742">
        <ele>948.556</ele>
        <time>2012-06-13T12:59:45Z</time>
      </trkpt>
      <trkpt lat="39.012199" lon="-1.347020">
        <ele>968.711</ele>
        <time>2012-06-13T13:03:21Z</time>
      </trkpt>
      <trkpt lat="39.008632" lon="-1.353967">
        <ele>997.515</ele>
        <time>2012-06-13T13:07:15Z</time>
      </trkpt>
      <trkpt lat="39.007886" lon="-1.354214">
        <ele>999.065</ele>
        <time>2012-06-13T13:09:42Z</time>
      </trkpt>
      <trkpt lat="39.006306" lon="-1.354161">
        <ele>1005.211</ele>
        <time>2012-06-13T13:10:38Z</time>
      </trkpt>
      <trkpt lat="39.003389" lon="-1.356005">
        <ele>1036.907</ele>
        <time>2012-06-13T13:14:06Z</time>
      </trkpt>
      <trkpt lat="38.998696" lon="-1.359622">
        <ele>1048.034</ele>
        <time>2012-06-13T13:17:17Z</time>
      </trkpt>
      <trkpt lat="38.993611" lon="-1.362704">
        <ele>1025.971</ele>
        <time>2012-06-13T13:18:43Z</time>
      </trkpt>
      <trkpt lat="38.991783" lon="-1.360944">
        <ele>1020.654</ele>
        <time>2012-06-13T13:19:28Z</time>
      </trkpt>
      <trkpt lat="38.990227" lon="-1.364086">
        <ele>1021.548</ele>
        <time>2012-06-13T13:24:47Z</time>
      </trkpt>
      <trkpt lat="38.989913" lon="-1.364335">
        <ele>1021.511</ele>
        <time>2012-06-13T13:24:56Z</time>
      </trkpt>
      <trkpt lat="38.985392" lon="-1.364499">
        <ele>1018.231</ele>
        <time>2012-06-13T13:26:28Z</time>
      </trkpt>
      <trkpt lat="38.982076" lon="-1.366052">
        <ele>1018.736</ele>
        <time>2012-06-13T13:27:55Z</time>
      </trkpt>
      <trkpt lat="38.980710" lon="-1.367071">
        <ele>1017.282</ele>
        <time>2012-06-13T13:28:32Z</time>
      </trkpt>
      <trkpt lat="38.979582" lon="-1.368497">
        <ele>1015.843</ele>
        <time>2012-06-13T13:29:09Z</time>
      </trkpt>
      <trkpt lat="38.977299" lon="-1.370456">
        <ele>1013.417</ele>
        <time>2012-06-13T13:30:14Z</time>
      </trkpt>
      <trkpt lat="38.975851" lon="-1.371236">
        <ele>1011.407</ele>
        <time>2012-06-13T13:30:43Z</time>
      </trkpt>
      <trkpt lat="38.973909" lon="-1.373705">
        <ele>1003.351</ele>
        <time>2012-06-13T13:31:31Z</time>
      </trkpt>
      <trkpt lat="38.973464" lon="-1.374722">
        <ele>1001.888</ele>
        <time>2012-06-13T13:31:57Z</time>
      </trkpt>
      <trkpt lat="38.972947" lon="-1.373641">
        <ele>998.551</ele>
        <time>2012-06-13T13:33:34Z</time>
      </trkpt>
      <trkpt lat="38.971984" lon="-1.372659">
        <ele>996.545</ele>
        <time>2012-06-13T13:34:06Z</time>
      </trkpt>
      <trkpt lat="38.969232" lon="-1.372654">
        <ele>995.668</ele>
        <time>2012-06-13T13:35:08Z</time>
      </trkpt>
      <trkpt lat="38.966712" lon="-1.369770">
        <ele>997.078</ele>
        <time>2012-06-13T13:36:33Z</time>
      </trkpt>
      <trkpt lat="38.964223" lon="-1.368690">
        <ele>987.433</ele>
        <time>2012-06-13T13:37:15Z</time>
      </trkpt>
      <trkpt lat="38.962361" lon="-1.368563">
        <ele>980.296</ele>
        <time>2012-06-13T13:37:44Z</time>
      </trkpt>
      <trkpt lat="38.959630" lon="-1.366923">
        <ele>963.931</ele>
        <time>2012-06-13T13:38:30Z</time>
      </trkpt>
      <trkpt lat="38.959104" lon="-1.366009">
        <ele>959.524</ele>
        <time>2012-06-13T13:38:45Z</time>
      </trkpt>
      <trkpt lat="38.957182" lon="-1.364674">
        <ele>952.807</ele>
        <time>2012-06-13T13:39:16Z</time>
      </trkpt>
      <trkpt lat="38.954505" lon="-1.360126">
        <ele>945.162</ele>
        <time>2012-06-13T13:40:43Z</time>
      </trkpt>
      <trkpt lat="38.952991" lon="-1.359012">
        <ele>941.899</ele>
        <time>2012-06-13T13:41:11Z</time>
      </trkpt>
      <trkpt lat="38.947758" lon="-1.352876">
        <ele>921.612</ele>
        <time>2012-06-13T13:42:55Z</time>
      </trkpt>
      <trkpt lat="38.947316" lon="-1.352906">
        <ele>919.226</ele>
        <time>2012-06-13T13:43:03Z</time>
      </trkpt>
      <trkpt lat="38.946143" lon="-1.353863">
        <ele>919.239</ele>
        <time>2012-06-13T13:43:26Z</time>
      </trkpt>
      <trkpt lat="38.939208" lon="-1.348652">
        <ele>902.839</ele>
        <time>2012-06-13T13:45:41Z</time>
      </trkpt>
      <trkpt lat="38.939807" lon="-1.335306">
        <ele>891.334</ele>
        <time>2012-06-13T13:48:25Z</time>
      </trkpt>
      <trkpt lat="38.940920" lon="-1.329216">
        <ele>883.124</ele>
        <time>2012-06-13T13:49:38Z</time>
      </trkpt>
      <trkpt lat="38.937447" lon="-1.328087">
        <ele>880.704</ele>
        <time>2012-06-13T13:50:51Z</time>
      </trkpt>
      <trkpt lat="38.937024" lon="-1.328239">
        <ele>882.214</ele>
        <time>2012-06-13T13:51:03Z</time>
      </trkpt>
      <trkpt lat="38.936519" lon="-1.329263">
        <ele>885.507</ele>
        <time>2012-06-13T13:51:29Z</time>
      </trkpt>
      <trkpt lat="38.934923" lon="-1.330241">
        <ele>887.075</ele>
        <time>2012-06-13T13:52:14Z</time>
      </trkpt>
      <trkpt lat="38.933755" lon="-1.331584">
        <ele>888.982</ele>
        <time>2012-06-13T13:52:55Z</time>
      </trkpt>
      <trkpt lat="38.932182" lon="-1.332311">
        <ele>889.895</ele>
        <time>2012-06-13T13:53:38Z</time>
      </trkpt>
      <trkpt lat="38.930187" lon="-1.334359">
        <ele>886.519</ele>
        <time>2012-06-13T13:54:23Z</time>
      </trkpt>
      <trkpt lat="38.919343" lon="-1.341708">
        <ele>892.792</ele>
        <time>2012-06-13T13:59:09Z</time>
      </trkpt>
      <trkpt lat="38.903221" lon="-1.340695">
        <ele>892.742</ele>
        <time>2012-06-13T14:05:20Z</time>
      </trkpt>
      <trkpt lat="38.898537" lon="-1.342179">
        <ele>904.337</ele>
        <time>2012-06-13T14:10:07Z</time>
      </trkpt>
      <trkpt lat="38.891188" lon="-1.346587">
        <ele>895.614</ele>
        <time>2012-06-13T14:12:53Z</time>
      </trkpt>
      <trkpt lat="38.882100" lon="-1.346931">
        <ele>889.454</ele>
        <time>2012-06-13T14:16:12Z</time>
      </trkpt>
      <trkpt lat="38.880602" lon="-1.347472">
        <ele>895.109</ele>
        <time>2012-06-13T14:17:03Z</time>
      </trkpt>
      <trkpt lat="38.880303" lon="-1.348018">
        <ele>895.107</ele>
        <time>2012-06-13T14:17:17Z</time>
      </trkpt>
      <trkpt lat="38.879163" lon="-1.348531">
        <ele>895.114</ele>
        <time>2012-06-13T14:17:48Z</time>
      </trkpt>
      <trkpt lat="38.879030" lon="-1.348922">
        <ele>891.891</ele>
        <time>2012-06-13T14:17:56Z</time>
      </trkpt>
      <trkpt lat="38.879184" lon="-1.349822">
        <ele>890.344</ele>
        <time>2012-06-13T14:18:15Z</time>
      </trkpt>
      <trkpt lat="38.878642" lon="-1.351149">
        <ele>886.548</ele>
        <time>2012-06-13T14:18:39Z</time>
      </trkpt>
      <trkpt lat="38.876177" lon="-1.353342">
        <ele>880.271</ele>
        <time>2012-06-13T14:19:36Z</time>
      </trkpt>
      <trkpt lat="38.875844" lon="-1.353010">
        <ele>879.791</ele>
        <time>2012-06-13T14:19:46Z</time>
      </trkpt>
      <trkpt lat="38.873681" lon="-1.352640">
        <ele>881.736</ele>
        <time>2012-06-13T14:20:39Z</time>
      </trkpt>
      <trkpt lat="38.872333" lon="-1.351743">
        <ele>887.014</ele>
        <time>2012-06-13T14:21:25Z</time>
      </trkpt>
      <trkpt lat="38.871358" lon="-1.351575">
        <ele>887.954</ele>
        <time>2012-06-13T14:21:57Z</time>
      </trkpt>
      <trkpt lat="38.867789" lon="-1.358789">
        <ele>888.909</ele>
        <time>2012-06-13T14:29:38Z</time>
      </trkpt>
      <trkpt lat="38.865907" lon="-1.360781">
        <ele>886.007</ele>
        <time>2012-06-13T14:30:32Z</time>
      </trkpt>
      <trkpt lat="38.849756" lon="-1.367591">
        <ele>891.374</ele>
        <time>2012-06-13T14:37:53Z</time>
      </trkpt>
      <trkpt lat="38.848052" lon="-1.369875">
        <ele>899.971</ele>
        <time>2012-06-13T14:39:05Z</time>
      </trkpt>
      <trkpt lat="38.847165" lon="-1.369832">
        <ele>903.334</ele>
        <time>2012-06-13T14:43:04Z</time>
      </trkpt>
      <trkpt lat="38.845925" lon="-1.368376">
        <ele>907.158</ele>
        <time>2012-06-13T14:43:56Z</time>
      </trkpt>
      <trkpt lat="38.842541" lon="-1.365881">
        <ele>902.891</ele>
        <time>2012-06-13T14:45:22Z</time>
      </trkpt>
      <trkpt lat="38.841130" lon="-1.363583">
        <ele>900.461</ele>
        <time>2012-06-13T14:46:31Z</time>
      </trkpt>
      <trkpt lat="38.839089" lon="-1.370873">
        <ele>895.696</ele>
        <time>2012-06-13T14:48:52Z</time>
      </trkpt>
      <trkpt lat="38.837290" lon="-1.371296">
        <ele>895.658</ele>
        <time>2012-06-13T14:49:34Z</time>
      </trkpt>
      <trkpt lat="38.833653" lon="-1.373987">
        <ele>902.852</ele>
        <time>2012-06-13T14:51:52Z</time>
      </trkpt>
      <trkpt lat="38.832649" lon="-1.375060">
        <ele>900.417</ele>
        <time>2012-06-13T14:52:26Z</time>
      </trkpt>
      <trkpt lat="38.832131" lon="-1.377174">
        <ele>901.407</ele>
        <time>2012-06-13T14:53:04Z</time>
      </trkpt>
      <trkpt lat="38.832861" lon="-1.378294">
        <ele>904.758</ele>
        <time>2012-06-13T14:53:35Z</time>
      </trkpt>
      <trkpt lat="38.832941" lon="-1.378773">
        <ele>904.365</ele>
        <time>2012-06-13T14:53:45Z</time>
      </trkpt>
      <trkpt lat="38.831645" lon="-1.382138">
        <ele>909.188</ele>
        <time>2012-06-13T14:55:13Z</time>
      </trkpt>
      <trkpt lat="38.831027" lon="-1.382230">
        <ele>908.112</ele>
        <time>2012-06-13T14:56:33Z</time>
      </trkpt>
      <trkpt lat="38.829902" lon="-1.381804">
        <ele>902.315</ele>
        <time>2012-06-13T14:59:17Z</time>
      </trkpt>
      <trkpt lat="38.824411" lon="-1.377169">
        <ele>880.285</ele>
        <time>2012-06-13T15:01:17Z</time>
      </trkpt>
      <trkpt lat="38.818587" lon="-1.371572">
        <ele>882.640</ele>
        <time>2012-06-13T15:04:32Z</time>
      </trkpt>
      <trkpt lat="38.817763" lon="-1.369677">
        <ele>886.057</ele>
        <time>2012-06-13T15:05:42Z</time>
      </trkpt>
      <trkpt lat="38.816789" lon="-1.368868">
        <ele>881.200</ele>
        <time>2012-06-13T15:06:05Z</time>
      </trkpt>
      <trkpt lat="38.815871" lon="-1.368489">
        <ele>875.920</ele>
        <time>2012-06-13T15:06:23Z</time>
      </trkpt>
      <trkpt lat="38.815740" lon="-1.367904">
        <ele>874.007</ele>
        <time>2012-06-13T15:06:34Z</time>
      </trkpt>
      <trkpt lat="38.815257" lon="-1.367598">
        <ele>871.118</ele>
        <time>2012-06-13T15:06:47Z</time>
      </trkpt>
      <trkpt lat="38.813915" lon="-1.365748">
        <ele>864.855</ele>
        <time>2012-06-13T15:07:27Z</time>
      </trkpt>
      <trkpt lat="38.812233" lon="-1.362581">
        <ele>857.638</ele>
        <time>2012-06-13T15:08:38Z</time>
      </trkpt>
      <trkpt lat="38.811208" lon="-1.362014">
        <ele>849.522</ele>
        <time>2012-06-13T15:08:54Z</time>
      </trkpt>
      <trkpt lat="38.809541" lon="-1.359436">
        <ele>844.795</ele>
        <time>2012-06-13T15:09:46Z</time>
      </trkpt>
      <trkpt lat="38.808128" lon="-1.358974">
        <ele>846.685</ele>
        <time>2012-06-13T15:10:27Z</time>
      </trkpt>
      <trkpt lat="38.807978" lon="-1.356878">
        <ele>847.110</ele>
        <time>2012-06-13T15:11:11Z</time>
      </trkpt>
      <trkpt lat="38.807678" lon="-1.355891">
        <ele>842.342</ele>
        <time>2012-06-13T15:11:24Z</time>
      </trkpt>
      <trkpt lat="38.806223" lon="-1.353868">
        <ele>836.022</ele>
        <time>2012-06-13T15:12:03Z</time>
      </trkpt>
      <trkpt lat="38.805278" lon="-1.353166">
        <ele>829.314</ele>
        <time>2012-06-13T15:12:20Z</time>
      </trkpt>
      <trkpt lat="38.804128" lon="-1.351232">
        <ele>820.607</ele>
        <time>2012-06-13T15:12:46Z</time>
      </trkpt>
      <trkpt lat="38.804001" lon="-1.350373">
        <ele>818.277</ele>
        <time>2012-06-13T15:12:58Z</time>
      </trkpt>
      <trkpt lat="38.803267" lon="-1.349878">
        <ele>820.684</ele>
        <time>2012-06-13T15:13:20Z</time>
      </trkpt>
      <trkpt lat="38.802127" lon="-1.349904">
        <ele>818.247</ele>
        <time>2012-06-13T15:13:48Z</time>
      </trkpt>
      <trkpt lat="38.800073" lon="-1.347679">
        <ele>820.151</ele>
        <time>2012-06-13T15:14:53Z</time>
      </trkpt>
      <trkpt lat="38.798847" lon="-1.345597">
        <ele>819.734</ele>
        <time>2012-06-13T15:15:36Z</time>
      </trkpt>
      <trkpt lat="38.797157" lon="-1.344594">
        <ele>814.954</ele>
        <time>2012-06-13T15:16:09Z</time>
      </trkpt>
      <trkpt lat="38.795420" lon="-1.342803">
        <ele>813.469</ele>
        <time>2012-06-13T15:16:45Z</time>
      </trkpt>
      <trkpt lat="38.795072" lon="-1.341895">
        <ele>812.939</ele>
        <time>2012-06-13T15:17:00Z</time>
      </trkpt>
      <trkpt lat="38.795034" lon="-1.337865">
        <ele>805.201</ele>
        <time>2012-06-13T15:17:45Z</time>
      </trkpt>
      <trkpt lat="38.794469" lon="-1.335736">
        <ele>804.321</ele>
        <time>2012-06-13T15:18:15Z</time>
      </trkpt>
      <trkpt lat="38.793163" lon="-1.333623">
        <ele>804.807</ele>
        <time>2012-06-13T15:18:58Z</time>
      </trkpt>
      <trkpt lat="38.792386" lon="-1.332827">
        <ele>804.836</ele>
        <time>2012-06-13T15:19:17Z</time>
      </trkpt>
      <trkpt lat="38.791336" lon="-1.329895">
        <ele>799.533</ele>
        <time>2012-06-13T15:19:59Z</time>
      </trkpt>
      <trkpt lat="38.789153" lon="-1.328036">
        <ele>804.816</ele>
        <time>2012-06-13T15:24:51Z</time>
      </trkpt>
      <trkpt lat="38.785728" lon="-1.330337">
        <ele>796.130</ele>
        <time>2012-06-13T15:26:47Z</time>
      </trkpt>
      <trkpt lat="38.783696" lon="-1.331394">
        <ele>787.963</ele>
        <time>2012-06-13T15:34:53Z</time>
      </trkpt>
      <trkpt lat="38.783260" lon="-1.332096">
        <ele>786.533</ele>
        <time>2012-06-13T15:42:29Z</time>
      </trkpt>
      <trkpt lat="38.782795" lon="-1.333822">
        <ele>789.928</ele>
        <time>2012-06-13T15:43:06Z</time>
      </trkpt>
      <trkpt lat="38.782231" lon="-1.334945">
        <ele>787.981</ele>
        <time>2012-06-13T15:43:33Z</time>
      </trkpt>
      <trkpt lat="38.781935" lon="-1.336731">
        <ele>782.761</ele>
        <time>2012-06-13T15:44:00Z</time>
      </trkpt>
      <trkpt lat="38.781389" lon="-1.337599">
        <ele>782.217</ele>
        <time>2012-06-13T15:44:17Z</time>
      </trkpt>
      <trkpt lat="38.781251" lon="-1.338806">
        <ele>781.207</ele>
        <time>2012-06-13T15:44:39Z</time>
      </trkpt>
      <trkpt lat="38.780340" lon="-1.341693">
        <ele>782.251</ele>
        <time>2012-06-13T15:45:35Z</time>
      </trkpt>
      <trkpt lat="38.778522" lon="-1.343879">
        <ele>785.598</ele>
        <time>2012-06-13T15:46:41Z</time>
      </trkpt>
      <trkpt lat="38.778063" lon="-1.344830">
        <ele>787.981</ele>
        <time>2012-06-13T15:47:11Z</time>
      </trkpt>
      <trkpt lat="38.777723" lon="-1.346761">
        <ele>789.915</ele>
        <time>2012-06-13T15:47:56Z</time>
      </trkpt>
      <trkpt lat="38.777764" lon="-1.348853">
        <ele>792.368</ele>
        <time>2012-06-13T15:48:43Z</time>
      </trkpt>
      <trkpt lat="38.776950" lon="-1.351187">
        <ele>792.798</ele>
        <time>2012-06-13T15:49:36Z</time>
      </trkpt>
      <trkpt lat="38.776917" lon="-1.353144">
        <ele>795.653</ele>
        <time>2012-06-13T15:50:19Z</time>
      </trkpt>
      <trkpt lat="38.776194" lon="-1.354673">
        <ele>796.643</ele>
        <time>2012-06-13T15:50:59Z</time>
      </trkpt>
      <trkpt lat="38.775403" lon="-1.357535">
        <ele>802.464</ele>
        <time>2012-06-13T15:52:11Z</time>
      </trkpt>
      <trkpt lat="38.774510" lon="-1.359294">
        <ele>809.610</ele>
        <time>2012-06-13T15:53:18Z</time>
      </trkpt>
      <trkpt lat="38.773727" lon="-1.360241">
        <ele>812.907</ele>
        <time>2012-06-13T15:54:38Z</time>
      </trkpt>
      <trkpt lat="38.772953" lon="-1.361835">
        <ele>816.847</ele>
        <time>2012-06-13T15:55:22Z</time>
      </trkpt>
      <trkpt lat="38.771622" lon="-1.363750">
        <ele>818.794</ele>
        <time>2012-06-13T15:56:13Z</time>
      </trkpt>
      <trkpt lat="38.770789" lon="-1.365709">
        <ele>821.697</ele>
        <time>2012-06-13T15:56:59Z</time>
      </trkpt>
      <trkpt lat="38.765760" lon="-1.371313">
        <ele>832.281</ele>
        <time>2012-06-13T15:59:54Z</time>
      </trkpt>
      <trkpt lat="38.763970" lon="-1.372080">
        <ele>834.174</ele>
        <time>2012-06-13T16:00:39Z</time>
      </trkpt>
      <trkpt lat="38.762795" lon="-1.372053">
        <ele>837.954</ele>
        <time>2012-06-13T16:01:09Z</time>
      </trkpt>
      <trkpt lat="38.760509" lon="-1.372528">
        <ele>843.299</ele>
        <time>2012-06-13T16:02:13Z</time>
      </trkpt>
      <trkpt lat="38.757680" lon="-1.374648">
        <ele>849.568</ele>
        <time>2012-06-13T16:03:39Z</time>
      </trkpt>
      <trkpt lat="38.756498" lon="-1.375087">
        <ele>853.342</ele>
        <time>2012-06-13T16:04:17Z</time>
      </trkpt>
      <trkpt lat="38.755827" lon="-1.376228">
        <ele>856.726</ele>
        <time>2012-06-13T16:04:51Z</time>
      </trkpt>
      <trkpt lat="38.755327" lon="-1.376417">
        <ele>859.607</ele>
        <time>2012-06-13T16:05:09Z</time>
      </trkpt>
      <trkpt lat="38.754811" lon="-1.377100">
        <ele>862.499</ele>
        <time>2012-06-13T16:06:29Z</time>
      </trkpt>
      <trkpt lat="38.753473" lon="-1.377705">
        <ele>872.566</ele>
        <time>2012-06-13T16:07:16Z</time>
      </trkpt>
      <trkpt lat="38.751943" lon="-1.379698">
        <ele>874.969</ele>
        <time>2012-06-13T16:08:29Z</time>
      </trkpt>
      <trkpt lat="38.751102" lon="-1.382725">
        <ele>884.663</ele>
        <time>2012-06-13T16:09:52Z</time>
      </trkpt>
      <trkpt lat="38.747397" lon="-1.388308">
        <ele>884.176</ele>
        <time>2012-06-13T16:12:00Z</time>
      </trkpt>
      <trkpt lat="38.743681" lon="-1.392248">
        <ele>875.496</ele>
        <time>2012-06-13T16:14:06Z</time>
      </trkpt>
      <trkpt lat="38.742193" lon="-1.393385">
        <ele>872.591</ele>
        <time>2012-06-13T16:14:41Z</time>
      </trkpt>
      <trkpt lat="38.741384" lon="-1.393446">
        <ele>870.649</ele>
        <time>2012-06-13T16:15:02Z</time>
      </trkpt>
      <trkpt lat="38.740949" lon="-1.393196">
        <ele>871.102</ele>
        <time>2012-06-13T16:15:14Z</time>
      </trkpt>
      <trkpt lat="38.739900" lon="-1.394676">
        <ele>864.422</ele>
        <time>2012-06-13T16:15:57Z</time>
      </trkpt>
      <trkpt lat="38.738283" lon="-1.394553">
        <ele>858.607</ele>
        <time>2012-06-13T16:16:34Z</time>
      </trkpt>
      <trkpt lat="38.737730" lon="-1.393824">
        <ele>855.767</ele>
        <time>2012-06-13T16:16:51Z</time>
      </trkpt>
      <trkpt lat="38.737185" lon="-1.393705">
        <ele>852.814</ele>
        <time>2012-06-13T16:17:05Z</time>
      </trkpt>
      <trkpt lat="38.736192" lon="-1.394664">
        <ele>849.067</ele>
        <time>2012-06-13T16:17:37Z</time>
      </trkpt>
      <trkpt lat="38.734857" lon="-1.395195">
        <ele>857.211</ele>
        <time>2012-06-13T16:18:35Z</time>
      </trkpt>
      <trkpt lat="38.733551" lon="-1.393741">
        <ele>869.264</ele>
        <time>2012-06-13T16:20:02Z</time>
      </trkpt>
      <trkpt lat="38.733037" lon="-1.391560">
        <ele>874.594</ele>
        <time>2012-06-13T16:22:35Z</time>
      </trkpt>
      <trkpt lat="38.732289" lon="-1.390215">
        <ele>877.839</ele>
        <time>2012-06-13T16:23:19Z</time>
      </trkpt>
      <trkpt lat="38.731138" lon="-1.389860">
        <ele>878.347</ele>
        <time>2012-06-13T16:23:52Z</time>
      </trkpt>
      <trkpt lat="38.729875" lon="-1.389994">
        <ele>879.329</ele>
        <time>2012-06-13T16:26:45Z</time>
      </trkpt>
      <trkpt lat="38.728719" lon="-1.390655">
        <ele>868.721</ele>
        <time>2012-06-13T16:27:18Z</time>
      </trkpt>
      <trkpt lat="38.727096" lon="-1.392297">
        <ele>864.807</ele>
        <time>2012-06-13T16:28:08Z</time>
      </trkpt>
      <trkpt lat="38.725569" lon="-1.392685">
        <ele>857.277</ele>
        <time>2012-06-13T16:28:38Z</time>
      </trkpt>
      <trkpt lat="38.724320" lon="-1.392579">
        <ele>855.254</ele>
        <time>2012-06-13T16:29:11Z</time>
      </trkpt>
      <trkpt lat="38.723876" lon="-1.393491">
        <ele>854.337</ele>
        <time>2012-06-13T16:29:28Z</time>
      </trkpt>
      <trkpt lat="38.722258" lon="-1.394598">
        <ele>848.531</ele>
        <time>2012-06-13T16:30:03Z</time>
      </trkpt>
      <trkpt lat="38.721150" lon="-1.394775">
        <ele>855.724</ele>
        <time>2012-06-13T16:30:44Z</time>
      </trkpt>
      <trkpt lat="38.718570" lon="-1.396022">
        <ele>862.044</ele>
        <time>2012-06-13T16:32:15Z</time>
      </trkpt>
      <trkpt lat="38.716461" lon="-1.403042">
        <ele>848.539</ele>
        <time>2012-06-13T16:34:00Z</time>
      </trkpt>
      <trkpt lat="38.714332" lon="-1.407826">
        <ele>845.116</ele>
        <time>2012-06-13T16:35:23Z</time>
      </trkpt>
      <trkpt lat="38.713860" lon="-1.409751">
        <ele>848.576</ele>
        <time>2012-06-13T16:36:05Z</time>
      </trkpt>
      <trkpt lat="38.712273" lon="-1.412174">
        <ele>838.413</ele>
        <time>2012-06-13T16:36:46Z</time>
      </trkpt>
      <trkpt lat="38.710756" lon="-1.417207">
        <ele>823.507</ele>
        <time>2012-06-13T16:37:52Z</time>
      </trkpt>
      <trkpt lat="38.709434" lon="-1.417806">
        <ele>824.564</ele>
        <time>2012-06-13T16:38:27Z</time>
      </trkpt>
      <trkpt lat="38.708025" lon="-1.419166">
        <ele>826.441</ele>
        <time>2012-06-13T16:39:12Z</time>
      </trkpt>
      <trkpt lat="38.707492" lon="-1.420013">
        <ele>829.314</ele>
        <time>2012-06-13T16:39:38Z</time>
      </trkpt>
      <trkpt lat="38.703864" lon="-1.422761">
        <ele>821.628</ele>
        <time>2012-06-13T16:41:03Z</time>
      </trkpt>
      <trkpt lat="38.699944" lon="-1.427312">
        <ele>820.161</ele>
        <time>2012-06-13T16:43:04Z</time>
      </trkpt>
      <trkpt lat="38.699314" lon="-1.427440">
        <ele>821.191</ele>
        <time>2012-06-13T16:43:20Z</time>
      </trkpt>
      <trkpt lat="38.696776" lon="-1.429244">
        <ele>818.296</ele>
        <time>2012-06-13T16:44:28Z</time>
      </trkpt>
      <trkpt lat="38.695900" lon="-1.430182">
        <ele>819.232</ele>
        <time>2012-06-13T16:45:26Z</time>
      </trkpt>
      <trkpt lat="38.694909" lon="-1.432450">
        <ele>817.392</ele>
        <time>2012-06-13T16:47:02Z</time>
      </trkpt>
      <trkpt lat="38.692627" lon="-1.432033">
        <ele>820.111</ele>
        <time>2012-06-13T16:53:37Z</time>
      </trkpt>
      <trkpt lat="38.692242" lon="-1.432336">
        <ele>820.107</ele>
        <time>2012-06-13T16:53:53Z</time>
      </trkpt>
      <trkpt lat="38.692045" lon="-1.431732">
        <ele>821.196</ele>
        <time>2012-06-13T16:56:12Z</time>
      </trkpt>
      <trkpt lat="38.692731" lon="-1.431916">
        <ele>831.794</ele>
        <time>2012-06-14T05:23:49Z</time>
      </trkpt>
      <trkpt lat="38.690123" lon="-1.433401">
        <ele>823.557</ele>
        <time>2012-06-14T05:25:24Z</time>
      </trkpt>
      <trkpt lat="38.690476" lon="-1.435366">
        <ele>821.622</ele>
        <time>2012-06-14T05:25:57Z</time>
      </trkpt>
      <trkpt lat="38.690123" lon="-1.436066">
        <ele>815.307</ele>
        <time>2012-06-14T05:26:42Z</time>
      </trkpt>
      <trkpt lat="38.689863" lon="-1.440467">
        <ele>801.452</ele>
        <time>2012-06-14T05:27:49Z</time>
      </trkpt>
      <trkpt lat="38.689530" lon="-1.441435">
        <ele>798.089</ele>
        <time>2012-06-14T05:28:05Z</time>
      </trkpt>
      <trkpt lat="38.689460" lon="-1.445166">
        <ele>788.982</ele>
        <time>2012-06-14T05:28:51Z</time>
      </trkpt>
      <trkpt lat="38.688272" lon="-1.449738">
        <ele>782.736</ele>
        <time>2012-06-14T05:29:56Z</time>
      </trkpt>
      <trkpt lat="38.685941" lon="-1.453010">
        <ele>777.850</ele>
        <time>2012-06-14T05:30:56Z</time>
      </trkpt>
      <trkpt lat="38.684859" lon="-1.455926">
        <ele>765.892</ele>
        <time>2012-06-14T05:31:39Z</time>
      </trkpt>
      <trkpt lat="38.683458" lon="-1.456960">
        <ele>761.079</ele>
        <time>2012-06-14T05:32:08Z</time>
      </trkpt>
      <trkpt lat="38.682374" lon="-1.458515">
        <ele>754.832</ele>
        <time>2012-06-14T05:32:39Z</time>
      </trkpt>
      <trkpt lat="38.682114" lon="-1.459515">
        <ele>750.092</ele>
        <time>2012-06-14T05:33:00Z</time>
      </trkpt>
      <trkpt lat="38.679707" lon="-1.461306">
        <ele>743.211</ele>
        <time>2012-06-14T05:33:58Z</time>
      </trkpt>
      <trkpt lat="38.679300" lon="-1.463072">
        <ele>741.307</ele>
        <time>2012-06-14T05:34:27Z</time>
      </trkpt>
      <trkpt lat="38.678500" lon="-1.464644">
        <ele>739.996</ele>
        <time>2012-06-14T05:34:54Z</time>
      </trkpt>
      <trkpt lat="38.679061" lon="-1.466910">
        <ele>735.123</ele>
        <time>2012-06-14T05:35:25Z</time>
      </trkpt>
      <trkpt lat="38.677844" lon="-1.470818">
        <ele>728.386</ele>
        <time>2012-06-14T05:36:22Z</time>
      </trkpt>
      <trkpt lat="38.676513" lon="-1.472535">
        <ele>725.920</ele>
        <time>2012-06-14T05:36:51Z</time>
      </trkpt>
      <trkpt lat="38.675651" lon="-1.474814">
        <ele>723.184</ele>
        <time>2012-06-14T05:37:22Z</time>
      </trkpt>
      <trkpt lat="38.673615" lon="-1.477610">
        <ele>720.276</ele>
        <time>2012-06-14T05:38:11Z</time>
      </trkpt>
      <trkpt lat="38.671772" lon="-1.478791">
        <ele>718.243</ele>
        <time>2012-06-14T05:38:47Z</time>
      </trkpt>
      <trkpt lat="38.668534" lon="-1.484948">
        <ele>711.097</ele>
        <time>2012-06-14T05:40:28Z</time>
      </trkpt>
      <trkpt lat="38.665004" lon="-1.488474">
        <ele>707.223</ele>
        <time>2012-06-14T05:41:40Z</time>
      </trkpt>
      <trkpt lat="38.661774" lon="-1.490455">
        <ele>703.825</ele>
        <time>2012-06-14T05:42:47Z</time>
      </trkpt>
      <trkpt lat="38.660450" lon="-1.490746">
        <ele>703.807</ele>
        <time>2012-06-14T05:43:12Z</time>
      </trkpt>
      <trkpt lat="38.658235" lon="-1.489915">
        <ele>701.922</ele>
        <time>2012-06-14T05:43:56Z</time>
      </trkpt>
      <trkpt lat="38.656199" lon="-1.488657">
        <ele>702.429</ele>
        <time>2012-06-14T05:45:05Z</time>
      </trkpt>
      <trkpt lat="38.656178" lon="-1.489840">
        <ele>700.532</ele>
        <time>2012-06-14T05:45:33Z</time>
      </trkpt>
      <trkpt lat="38.655819" lon="-1.489849">
        <ele>700.526</ele>
        <time>2012-06-14T05:45:46Z</time>
      </trkpt>
      <trkpt lat="38.652767" lon="-1.492669">
        <ele>695.760</ele>
        <time>2012-06-14T05:47:13Z</time>
      </trkpt>
      <trkpt lat="38.651474" lon="-1.494495">
        <ele>693.722</ele>
        <time>2012-06-14T05:47:59Z</time>
      </trkpt>
      <trkpt lat="38.649410" lon="-1.494991">
        <ele>691.889</ele>
        <time>2012-06-14T05:48:50Z</time>
      </trkpt>
      <trkpt lat="38.645678" lon="-1.496738">
        <ele>687.566</ele>
        <time>2012-06-14T05:50:17Z</time>
      </trkpt>
      <trkpt lat="38.644518" lon="-1.497722">
        <ele>686.529</ele>
        <time>2012-06-14T05:50:50Z</time>
      </trkpt>
      <trkpt lat="38.642743" lon="-1.498461">
        <ele>685.121</ele>
        <time>2012-06-14T05:51:31Z</time>
      </trkpt>
      <trkpt lat="38.641087" lon="-1.498472">
        <ele>691.307</ele>
        <time>2012-06-14T05:52:22Z</time>
      </trkpt>
      <trkpt lat="38.640213" lon="-1.496612">
        <ele>704.379</ele>
        <time>2012-06-14T05:53:59Z</time>
      </trkpt>
      <trkpt lat="38.639750" lon="-1.497372">
        <ele>701.956</ele>
        <time>2012-06-14T05:54:16Z</time>
      </trkpt>
      <trkpt lat="38.640124" lon="-1.505745">
        <ele>705.329</ele>
        <time>2012-06-14T06:05:48Z</time>
      </trkpt>
      <trkpt lat="38.639917" lon="-1.505849">
        <ele>704.813</ele>
        <time>2012-06-14T06:05:54Z</time>
      </trkpt>
      <trkpt lat="38.639136" lon="-1.503735">
        <ele>685.677</ele>
        <time>2012-06-14T06:06:15Z</time>
      </trkpt>
      <trkpt lat="38.637730" lon="-1.502428">
        <ele>676.919</ele>
        <time>2012-06-14T06:06:41Z</time>
      </trkpt>
      <trkpt lat="38.637412" lon="-1.499285">
        <ele>676.456</ele>
        <time>2012-06-14T06:07:32Z</time>
      </trkpt>
      <trkpt lat="38.634311" lon="-1.498769">
        <ele>673.154</ele>
        <time>2012-06-14T06:08:19Z</time>
      </trkpt>
      <trkpt lat="38.631347" lon="-1.499062">
        <ele>668.756</ele>
        <time>2012-06-14T06:09:03Z</time>
      </trkpt>
      <trkpt lat="38.629954" lon="-1.496939">
        <ele>667.811</ele>
        <time>2012-06-14T06:09:35Z</time>
      </trkpt>
      <trkpt lat="38.628872" lon="-1.496617">
        <ele>665.407</ele>
        <time>2012-06-14T06:09:52Z</time>
      </trkpt>
      <trkpt lat="38.627895" lon="-1.497854">
        <ele>663.568</ele>
        <time>2012-06-14T06:10:13Z</time>
      </trkpt>
      <trkpt lat="38.625058" lon="-1.498667">
        <ele>660.135</ele>
        <time>2012-06-14T06:10:56Z</time>
      </trkpt>
      <trkpt lat="38.624211" lon="-1.498433">
        <ele>658.628</ele>
        <time>2012-06-14T06:11:10Z</time>
      </trkpt>
      <trkpt lat="38.623559" lon="-1.497686">
        <ele>658.682</ele>
        <time>2012-06-14T06:11:31Z</time>
      </trkpt>
      <trkpt lat="38.622537" lon="-1.498730">
        <ele>658.686</ele>
        <time>2012-06-14T06:11:57Z</time>
      </trkpt>
      <trkpt lat="38.621800" lon="-1.498640">
        <ele>658.218</ele>
        <time>2012-06-14T06:12:09Z</time>
      </trkpt>
      <trkpt lat="38.619500" lon="-1.499370">
        <ele>653.485</ele>
        <time>2012-06-14T06:12:44Z</time>
      </trkpt>
      <trkpt lat="38.617163" lon="-1.499280">
        <ele>653.473</ele>
        <time>2012-06-14T06:13:30Z</time>
      </trkpt>
      <trkpt lat="38.616861" lon="-1.500261">
        <ele>654.385</ele>
        <time>2012-06-14T06:14:21Z</time>
      </trkpt>
      <trkpt lat="38.614838" lon="-1.500541">
        <ele>648.113</ele>
        <time>2012-06-14T06:15:03Z</time>
      </trkpt>
      <trkpt lat="38.613566" lon="-1.500068">
        <ele>647.107</ele>
        <time>2012-06-14T06:15:56Z</time>
      </trkpt>
      <trkpt lat="38.612034" lon="-1.497787">
        <ele>647.610</ele>
        <time>2012-06-14T06:17:43Z</time>
      </trkpt>
      <trkpt lat="38.609866" lon="-1.496209">
        <ele>647.647</ele>
        <time>2012-06-14T06:18:34Z</time>
      </trkpt>
      <trkpt lat="38.607571" lon="-1.493941">
        <ele>651.440</ele>
        <time>2012-06-14T06:19:35Z</time>
      </trkpt>
      <trkpt lat="38.606781" lon="-1.493850">
        <ele>651.434</ele>
        <time>2012-06-14T06:19:51Z</time>
      </trkpt>
      <trkpt lat="38.602572" lon="-1.489796">
        <ele>643.718</ele>
        <time>2012-06-14T06:21:18Z</time>
      </trkpt>
      <trkpt lat="38.599699" lon="-1.489852">
        <ele>637.050</ele>
        <time>2012-06-14T06:22:03Z</time>
      </trkpt>
      <trkpt lat="38.598692" lon="-1.490637">
        <ele>634.637</ele>
        <time>2012-06-14T06:22:22Z</time>
      </trkpt>
      <trkpt lat="38.597952" lon="-1.490727">
        <ele>633.223</ele>
        <time>2012-06-14T06:22:34Z</time>
      </trkpt>
      <trkpt lat="38.595707" lon="-1.488294">
        <ele>631.283</ele>
        <time>2012-06-14T06:23:45Z</time>
      </trkpt>
      <trkpt lat="38.593140" lon="-1.487632">
        <ele>628.411</ele>
        <time>2012-06-14T06:24:37Z</time>
      </trkpt>
      <trkpt lat="38.591555" lon="-1.488378">
        <ele>627.907</ele>
        <time>2012-06-14T06:25:12Z</time>
      </trkpt>
      <trkpt lat="38.590970" lon="-1.489034">
        <ele>627.935</ele>
        <time>2012-06-14T06:25:29Z</time>
      </trkpt>
      <trkpt lat="38.588596" lon="-1.489298">
        <ele>624.022</ele>
        <time>2012-06-14T06:26:14Z</time>
      </trkpt>
      <trkpt lat="38.582819" lon="-1.487939">
        <ele>617.825</ele>
        <time>2012-06-14T06:28:02Z</time>
      </trkpt>
      <trkpt lat="38.577345" lon="-1.487298">
        <ele>611.179</ele>
        <time>2012-06-14T06:29:35Z</time>
      </trkpt>
      <trkpt lat="38.575882" lon="-1.484993">
        <ele>608.233</ele>
        <time>2012-06-14T06:30:17Z</time>
      </trkpt>
      <trkpt lat="38.574578" lon="-1.483604">
        <ele>607.715</ele>
        <time>2012-06-14T06:30:47Z</time>
      </trkpt>
      <trkpt lat="38.568497" lon="-1.479018">
        <ele>609.122</ele>
        <time>2012-06-14T06:33:13Z</time>
      </trkpt>
      <trkpt lat="38.568035" lon="-1.479686">
        <ele>608.797</ele>
        <time>2012-06-14T06:33:30Z</time>
      </trkpt>
      <trkpt lat="38.561195" lon="-1.480565">
        <ele>604.323</ele>
        <time>2012-06-14T06:36:07Z</time>
      </trkpt>
      <trkpt lat="38.558392" lon="-1.480074">
        <ele>606.725</ele>
        <time>2012-06-14T06:37:11Z</time>
      </trkpt>
      <trkpt lat="38.556543" lon="-1.480841">
        <ele>603.907</ele>
        <time>2012-06-14T06:37:49Z</time>
      </trkpt>
      <trkpt lat="38.554393" lon="-1.479885">
        <ele>603.412</ele>
        <time>2012-06-14T06:38:39Z</time>
      </trkpt>
      <trkpt lat="38.552321" lon="-1.478209">
        <ele>602.939</ele>
        <time>2012-06-14T06:39:32Z</time>
      </trkpt>
      <trkpt lat="38.549266" lon="-1.472291">
        <ele>613.922</ele>
        <time>2012-06-14T06:41:50Z</time>
      </trkpt>
      <trkpt lat="38.541709" lon="-1.459624">
        <ele>652.956</ele>
        <time>2012-06-14T06:48:19Z</time>
      </trkpt>
      <trkpt lat="38.540768" lon="-1.457483">
        <ele>659.190</ele>
        <time>2012-06-14T06:49:18Z</time>
      </trkpt>
      <trkpt lat="38.538464" lon="-1.454713">
        <ele>672.132</ele>
        <time>2012-06-14T06:50:56Z</time>
      </trkpt>
      <trkpt lat="38.537873" lon="-1.452624">
        <ele>676.489</ele>
        <time>2012-06-14T06:51:44Z</time>
      </trkpt>
      <trkpt lat="38.535999" lon="-1.449640">
        <ele>687.597</ele>
        <time>2012-06-14T06:53:10Z</time>
      </trkpt>
      <trkpt lat="38.534674" lon="-1.448367">
        <ele>692.823</ele>
        <time>2012-06-14T06:54:58Z</time>
      </trkpt>
      <trkpt lat="38.533207" lon="-1.448217">
        <ele>699.525</ele>
        <time>2012-06-14T06:55:52Z</time>
      </trkpt>
      <trkpt lat="38.531795" lon="-1.448899">
        <ele>707.207</ele>
        <time>2012-06-14T06:56:47Z</time>
      </trkpt>
      <trkpt lat="38.531347" lon="-1.447909">
        <ele>710.642</ele>
        <time>2012-06-14T06:57:20Z</time>
      </trkpt>
      <trkpt lat="38.531733" lon="-1.445747">
        <ele>723.199</ele>
        <time>2012-06-14T06:58:32Z</time>
      </trkpt>
      <trkpt lat="38.531588" lon="-1.444895">
        <ele>725.972</ele>
        <time>2012-06-14T06:58:58Z</time>
      </trkpt>
      <trkpt lat="38.530986" lon="-1.444220">
        <ele>724.556</ele>
        <time>2012-06-14T06:59:18Z</time>
      </trkpt>
      <trkpt lat="38.531246" lon="-1.441771">
        <ele>731.790</ele>
        <time>2012-06-14T07:00:18Z</time>
      </trkpt>
      <trkpt lat="38.530594" lon="-1.441575">
        <ele>731.272</ele>
        <time>2012-06-14T07:00:35Z</time>
      </trkpt>
      <trkpt lat="38.530823" lon="-1.439284">
        <ele>737.519</ele>
        <time>2012-06-14T07:02:28Z</time>
      </trkpt>
      <trkpt lat="38.531903" lon="-1.437489">
        <ele>737.594</ele>
        <time>2012-06-14T07:03:10Z</time>
      </trkpt>
      <trkpt lat="38.532643" lon="-1.429615">
        <ele>711.057</ele>
        <time>2012-06-14T07:04:32Z</time>
      </trkpt>
      <trkpt lat="38.533721" lon="-1.426228">
        <ele>695.722</ele>
        <time>2012-06-14T07:05:04Z</time>
      </trkpt>
      <trkpt lat="38.534984" lon="-1.424071">
        <ele>688.907</ele>
        <time>2012-06-14T07:05:29Z</time>
      </trkpt>
      <trkpt lat="38.535894" lon="-1.421721">
        <ele>678.412</ele>
        <time>2012-06-14T07:05:53Z</time>
      </trkpt>
      <trkpt lat="38.536820" lon="-1.412053">
        <ele>658.249</ele>
        <time>2012-06-14T07:07:40Z</time>
      </trkpt>
      <trkpt lat="38.536776" lon="-1.407419">
        <ele>648.182</ele>
        <time>2012-06-14T07:08:36Z</time>
      </trkpt>
      <trkpt lat="38.534725" lon="-1.403918">
        <ele>636.546</ele>
        <time>2012-06-14T07:09:22Z</time>
      </trkpt>
      <trkpt lat="38.532615" lon="-1.398978">
        <ele>623.650</ele>
        <time>2012-06-14T07:10:27Z</time>
      </trkpt>
      <trkpt lat="38.529523" lon="-1.395040">
        <ele>610.112</ele>
        <time>2012-06-14T07:11:29Z</time>
      </trkpt>
      <trkpt lat="38.524718" lon="-1.386199">
        <ele>600.039</ele>
        <time>2012-06-14T07:14:11Z</time>
      </trkpt>
      <trkpt lat="38.518481" lon="-1.377557">
        <ele>586.174</ele>
        <time>2012-06-14T07:16:20Z</time>
      </trkpt>
      <trkpt lat="38.514869" lon="-1.370290">
        <ele>577.456</ele>
        <time>2012-06-14T07:17:52Z</time>
      </trkpt>
      <trkpt lat="38.511270" lon="-1.364317">
        <ele>575.521</ele>
        <time>2012-06-14T07:19:15Z</time>
      </trkpt>
      <trkpt lat="38.509803" lon="-1.363097">
        <ele>575.007</ele>
        <time>2012-06-14T07:19:41Z</time>
      </trkpt>
      <trkpt lat="38.506446" lon="-1.357040">
        <ele>569.260</ele>
        <time>2012-06-14T07:21:06Z</time>
      </trkpt>
      <trkpt lat="38.498952" lon="-1.346179">
        <ele>555.327</ele>
        <time>2012-06-14T07:23:43Z</time>
      </trkpt>
      <trkpt lat="38.497994" lon="-1.342042">
        <ele>562.020</ele>
        <time>2012-06-14T07:24:49Z</time>
      </trkpt>
      <trkpt lat="38.495833" lon="-1.337322">
        <ele>566.464</ele>
        <time>2012-06-14T07:26:14Z</time>
      </trkpt>
      <trkpt lat="38.494363" lon="-1.335264">
        <ele>555.828</ele>
        <time>2012-06-14T07:26:40Z</time>
      </trkpt>
      <trkpt lat="38.492853" lon="-1.333948">
        <ele>549.170</ele>
        <time>2012-06-14T07:27:01Z</time>
      </trkpt>
      <trkpt lat="38.490513" lon="-1.329439">
        <ele>538.017</ele>
        <time>2012-06-14T07:27:54Z</time>
      </trkpt>
      <trkpt lat="38.489353" lon="-1.327816">
        <ele>536.121</ele>
        <time>2012-06-14T07:28:22Z</time>
      </trkpt>
      <trkpt lat="38.489576" lon="-1.326742">
        <ele>536.141</ele>
        <time>2012-06-14T07:28:40Z</time>
      </trkpt>
      <trkpt lat="38.488250" lon="-1.323374">
        <ele>542.305</ele>
        <time>2012-06-14T07:29:39Z</time>
      </trkpt>
      <trkpt lat="38.485572" lon="-1.321897">
        <ele>537.007</ele>
        <time>2012-06-14T07:30:25Z</time>
      </trkpt>
      <trkpt lat="38.482876" lon="-1.321542">
        <ele>529.845</ele>
        <time>2012-06-14T07:31:03Z</time>
      </trkpt>
      <trkpt lat="38.476381" lon="-1.322117">
        <ele>508.242</ele>
        <time>2012-06-14T07:38:23Z</time>
      </trkpt>
      <trkpt lat="38.475439" lon="-1.325181">
        <ele>508.225</ele>
        <time>2012-06-14T08:01:52Z</time>
      </trkpt>
      <trkpt lat="38.474319" lon="-1.324952">
        <ele>503.499</ele>
        <time>2012-06-14T08:02:20Z</time>
      </trkpt>
      <trkpt lat="38.473826" lon="-1.329766">
        <ele>509.693</ele>
        <time>2012-06-14T08:05:07Z</time>
      </trkpt>
      <trkpt lat="38.472162" lon="-1.329762">
        <ele>505.325</ele>
        <time>2012-06-14T08:06:35Z</time>
      </trkpt>
      <trkpt lat="38.467147" lon="-1.331345">
        <ele>498.622</ele>
        <time>2012-06-14T08:08:30Z</time>
      </trkpt>
      <trkpt lat="38.466927" lon="-1.330733">
        <ele>498.118</ele>
        <time>2012-06-14T08:08:41Z</time>
      </trkpt>
      <trkpt lat="38.464543" lon="-1.329453">
        <ele>495.298</ele>
        <time>2012-06-14T08:09:26Z</time>
      </trkpt>
      <trkpt lat="38.462223" lon="-1.327621">
        <ele>490.917</ele>
        <time>2012-06-14T08:10:08Z</time>
      </trkpt>
      <trkpt lat="38.459685" lon="-1.324506">
        <ele>485.607</ele>
        <time>2012-06-14T08:11:02Z</time>
      </trkpt>
      <trkpt lat="38.455239" lon="-1.320461">
        <ele>480.364</ele>
        <time>2012-06-14T08:12:27Z</time>
      </trkpt>
      <trkpt lat="38.453439" lon="-1.317941">
        <ele>481.331</ele>
        <time>2012-06-14T08:13:11Z</time>
      </trkpt>
      <trkpt lat="38.440510" lon="-1.314772">
        <ele>544.214</ele>
        <time>2012-06-14T08:19:49Z</time>
      </trkpt>
      <trkpt lat="38.439153" lon="-1.313760">
        <ele>551.588</ele>
        <time>2012-06-14T08:20:52Z</time>
      </trkpt>
      <trkpt lat="38.437003" lon="-1.314048">
        <ele>564.012</ele>
        <time>2012-06-14T08:24:13Z</time>
      </trkpt>
      <trkpt lat="38.435137" lon="-1.313785">
        <ele>576.524</ele>
        <time>2012-06-14T08:25:21Z</time>
      </trkpt>
      <trkpt lat="38.432409" lon="-1.316010">
        <ele>599.021</ele>
        <time>2012-06-14T08:27:26Z</time>
      </trkpt>
      <trkpt lat="38.431290" lon="-1.314630">
        <ele>613.563</ele>
        <time>2012-06-14T08:28:36Z</time>
      </trkpt>
      <trkpt lat="38.430242" lon="-1.315179">
        <ele>627.944</ele>
        <time>2012-06-14T08:29:38Z</time>
      </trkpt>
      <trkpt lat="38.429886" lon="-1.314818">
        <ele>634.118</ele>
        <time>2012-06-14T08:30:02Z</time>
      </trkpt>
      <trkpt lat="38.429292" lon="-1.315420">
        <ele>641.807</ele>
        <time>2012-06-14T08:30:41Z</time>
      </trkpt>
      <trkpt lat="38.428238" lon="-1.315574">
        <ele>658.289</ele>
        <time>2012-06-14T08:32:36Z</time>
      </trkpt>
      <trkpt lat="38.427780" lon="-1.316359">
        <ele>665.986</ele>
        <time>2012-06-14T08:33:34Z</time>
      </trkpt>
      <trkpt lat="38.427691" lon="-1.317632">
        <ele>675.959</ele>
        <time>2012-06-14T08:35:31Z</time>
      </trkpt>
      <trkpt lat="38.426838" lon="-1.319238">
        <ele>701.433</ele>
        <time>2012-06-14T08:42:23Z</time>
      </trkpt>
      <trkpt lat="38.427027" lon="-1.320262">
        <ele>709.617</ele>
        <time>2012-06-14T08:45:05Z</time>
      </trkpt>
      <trkpt lat="38.426580" lon="-1.320898">
        <ele>716.849</ele>
        <time>2012-06-14T08:45:38Z</time>
      </trkpt>
      <trkpt lat="38.424874" lon="-1.327006">
        <ele>743.736</ele>
        <time>2012-06-14T08:49:11Z</time>
      </trkpt>
      <trkpt lat="38.422368" lon="-1.328310">
        <ele>739.456</ele>
        <time>2012-06-14T08:51:09Z</time>
      </trkpt>
      <trkpt lat="38.421410" lon="-1.328275">
        <ele>738.059</ele>
        <time>2012-06-14T08:51:26Z</time>
      </trkpt>
      <trkpt lat="38.419921" lon="-1.329109">
        <ele>734.614</ele>
        <time>2012-06-14T08:51:53Z</time>
      </trkpt>
      <trkpt lat="38.418817" lon="-1.328840">
        <ele>728.807</ele>
        <time>2012-06-14T08:52:10Z</time>
      </trkpt>
      <trkpt lat="38.417630" lon="-1.329090">
        <ele>721.698</ele>
        <time>2012-06-14T08:52:29Z</time>
      </trkpt>
      <trkpt lat="38.417180" lon="-1.328546">
        <ele>717.325</ele>
        <time>2012-06-14T08:52:41Z</time>
      </trkpt>
      <trkpt lat="38.415898" lon="-1.328586">
        <ele>709.688</ele>
        <time>2012-06-14T08:52:59Z</time>
      </trkpt>
      <trkpt lat="38.415007" lon="-1.329491">
        <ele>702.492</ele>
        <time>2012-06-14T08:55:03Z</time>
      </trkpt>
      <trkpt lat="38.415228" lon="-1.329756">
        <ele>700.586</ele>
        <time>2012-06-14T08:57:16Z</time>
      </trkpt>
      <trkpt lat="38.416041" lon="-1.329154">
        <ele>692.318</ele>
        <time>2012-06-14T08:57:36Z</time>
      </trkpt>
      <trkpt lat="38.415310" lon="-1.330396">
        <ele>682.785</ele>
        <time>2012-06-14T08:58:01Z</time>
      </trkpt>
      <trkpt lat="38.412593" lon="-1.328825">
        <ele>665.936</ele>
        <time>2012-06-14T08:58:45Z</time>
      </trkpt>
      <trkpt lat="38.410639" lon="-1.328976">
        <ele>646.617</ele>
        <time>2012-06-14T08:59:19Z</time>
      </trkpt>
      <trkpt lat="38.409024" lon="-1.328371">
        <ele>634.618</ele>
        <time>2012-06-14T08:59:42Z</time>
      </trkpt>
      <trkpt lat="38.408338" lon="-1.327518">
        <ele>631.707</ele>
        <time>2012-06-14T08:59:55Z</time>
      </trkpt>
      <trkpt lat="38.407376" lon="-1.325165">
        <ele>623.636</ele>
        <time>2012-06-14T09:00:24Z</time>
      </trkpt>
      <trkpt lat="38.407078" lon="-1.321255">
        <ele>617.853</ele>
        <time>2012-06-14T09:01:08Z</time>
      </trkpt>
      <trkpt lat="38.405251" lon="-1.318819">
        <ele>615.966</ele>
        <time>2012-06-14T09:01:51Z</time>
      </trkpt>
      <trkpt lat="38.404188" lon="-1.316762">
        <ele>618.850</ele>
        <time>2012-06-14T09:02:33Z</time>
      </trkpt>
      <trkpt lat="38.402047" lon="-1.315916">
        <ele>614.414</ele>
        <time>2012-06-14T09:03:22Z</time>
      </trkpt>
      <trkpt lat="38.399317" lon="-1.316315">
        <ele>601.956</ele>
        <time>2012-06-14T09:04:01Z</time>
      </trkpt>
      <trkpt lat="38.398716" lon="-1.315625">
        <ele>600.073</ele>
        <time>2012-06-14T09:04:15Z</time>
      </trkpt>
      <trkpt lat="38.396900" lon="-1.314711">
        <ele>594.283</ele>
        <time>2012-06-14T09:04:49Z</time>
      </trkpt>
      <trkpt lat="38.396087" lon="-1.313080">
        <ele>595.725</ele>
        <time>2012-06-14T09:05:21Z</time>
      </trkpt>
      <trkpt lat="38.394429" lon="-1.307615">
        <ele>594.717</ele>
        <time>2012-06-14T09:07:09Z</time>
      </trkpt>
      <trkpt lat="38.394679" lon="-1.302965">
        <ele>602.407</ele>
        <time>2012-06-14T09:08:53Z</time>
      </trkpt>
      <trkpt lat="38.393623" lon="-1.301573">
        <ele>601.471</ele>
        <time>2012-06-14T09:09:28Z</time>
      </trkpt>
      <trkpt lat="38.391668" lon="-1.305612">
        <ele>603.498</ele>
        <time>2012-06-14T09:11:06Z</time>
      </trkpt>
      <trkpt lat="38.390121" lon="-1.306791">
        <ele>605.351</ele>
        <time>2012-06-14T09:11:48Z</time>
      </trkpt>
      <trkpt lat="38.389332" lon="-1.308204">
        <ele>605.395</ele>
        <time>2012-06-14T09:12:20Z</time>
      </trkpt>
      <trkpt lat="38.388851" lon="-1.313752">
        <ele>599.089</ele>
        <time>2012-06-14T09:15:31Z</time>
      </trkpt>
      <trkpt lat="38.388862" lon="-1.320287">
        <ele>586.191</ele>
        <time>2012-06-14T09:16:58Z</time>
      </trkpt>
      <trkpt lat="38.388652" lon="-1.321055">
        <ele>581.738</ele>
        <time>2012-06-14T09:17:10Z</time>
      </trkpt>
      <trkpt lat="38.388821" lon="-1.321787">
        <ele>582.755</ele>
        <time>2012-06-14T09:17:22Z</time>
      </trkpt>
      <trkpt lat="38.388501" lon="-1.322850">
        <ele>581.307</ele>
        <time>2012-06-14T09:17:38Z</time>
      </trkpt>
      <trkpt lat="38.388786" lon="-1.326483">
        <ele>575.017</ele>
        <time>2012-06-14T09:18:44Z</time>
      </trkpt>
      <trkpt lat="38.388112" lon="-1.327384">
        <ele>575.007</ele>
        <time>2012-06-14T09:19:13Z</time>
      </trkpt>
      <trkpt lat="38.387633" lon="-1.327173">
        <ele>575.058</ele>
        <time>2012-06-14T09:19:27Z</time>
      </trkpt>
      <trkpt lat="38.387065" lon="-1.327805">
        <ele>576.995</ele>
        <time>2012-06-14T09:19:47Z</time>
      </trkpt>
      <trkpt lat="38.387063" lon="-1.330931">
        <ele>571.618</ele>
        <time>2012-06-14T09:20:40Z</time>
      </trkpt>
      <trkpt lat="38.386456" lon="-1.331258">
        <ele>572.162</ele>
        <time>2012-06-14T09:20:56Z</time>
      </trkpt>
      <trkpt lat="38.385801" lon="-1.331022">
        <ele>573.616</ele>
        <time>2012-06-14T09:21:16Z</time>
      </trkpt>
      <trkpt lat="38.384600" lon="-1.332935">
        <ele>578.948</ele>
        <time>2012-06-14T09:22:09Z</time>
      </trkpt>
      <trkpt lat="38.384130" lon="-1.332702">
        <ele>581.765</ele>
        <time>2012-06-14T09:22:29Z</time>
      </trkpt>
      <trkpt lat="38.384161" lon="-1.333237">
        <ele>582.716</ele>
        <time>2012-06-14T09:22:44Z</time>
      </trkpt>
      <trkpt lat="38.383668" lon="-1.332953">
        <ele>584.676</ele>
        <time>2012-06-14T09:23:03Z</time>
      </trkpt>
      <trkpt lat="38.379982" lon="-1.337780">
        <ele>586.513</ele>
        <time>2012-06-14T09:25:31Z</time>
      </trkpt>
      <trkpt lat="38.379484" lon="-1.337712">
        <ele>590.907</ele>
        <time>2012-06-14T09:25:57Z</time>
      </trkpt>
      <trkpt lat="38.379481" lon="-1.338639">
        <ele>591.894</ele>
        <time>2012-06-14T09:26:21Z</time>
      </trkpt>
      <trkpt lat="38.378732" lon="-1.341051">
        <ele>585.141</ele>
        <time>2012-06-14T09:27:03Z</time>
      </trkpt>
      <trkpt lat="38.379251" lon="-1.341347">
        <ele>581.374</ele>
        <time>2012-06-14T09:27:14Z</time>
      </trkpt>
      <trkpt lat="38.379399" lon="-1.343040">
        <ele>577.468</ele>
        <time>2012-06-14T09:27:39Z</time>
      </trkpt>
      <trkpt lat="38.379104" lon="-1.345634">
        <ele>575.032</ele>
        <time>2012-06-14T09:28:18Z</time>
      </trkpt>
      <trkpt lat="38.377912" lon="-1.346735">
        <ele>572.674</ele>
        <time>2012-06-14T09:28:48Z</time>
      </trkpt>
      <trkpt lat="38.378024" lon="-1.347486">
        <ele>571.651</ele>
        <time>2012-06-14T09:29:01Z</time>
      </trkpt>
      <trkpt lat="38.376498" lon="-1.349372">
        <ele>568.844</ele>
        <time>2012-06-14T09:29:43Z</time>
      </trkpt>
      <trkpt lat="38.376049" lon="-1.350510">
        <ele>568.305</ele>
        <time>2012-06-14T09:30:04Z</time>
      </trkpt>
      <trkpt lat="38.375219" lon="-1.351350">
        <ele>566.415</ele>
        <time>2012-06-14T09:30:26Z</time>
      </trkpt>
      <trkpt lat="38.374852" lon="-1.354125">
        <ele>564.007</ele>
        <time>2012-06-14T09:31:15Z</time>
      </trkpt>
      <trkpt lat="38.373544" lon="-1.353974">
        <ele>564.027</ele>
        <time>2012-06-14T09:35:49Z</time>
      </trkpt>
      <trkpt lat="38.373357" lon="-1.354309">
        <ele>564.034</ele>
        <time>2012-06-14T09:35:57Z</time>
      </trkpt>
      <trkpt lat="38.373555" lon="-1.355189">
        <ele>560.667</ele>
        <time>2012-06-14T09:36:11Z</time>
      </trkpt>
      <trkpt lat="38.372000" lon="-1.358644">
        <ele>559.131</ele>
        <time>2012-06-14T09:37:21Z</time>
      </trkpt>
      <trkpt lat="38.371114" lon="-1.359558">
        <ele>557.245</ele>
        <time>2012-06-14T09:37:46Z</time>
      </trkpt>
      <trkpt lat="38.371393" lon="-1.359914">
        <ele>555.367</ele>
        <time>2012-06-14T09:37:54Z</time>
      </trkpt>
      <trkpt lat="38.371183" lon="-1.361786">
        <ele>549.564</ele>
        <time>2012-06-14T09:38:26Z</time>
      </trkpt>
      <trkpt lat="38.370084" lon="-1.363276">
        <ele>550.041</ele>
        <time>2012-06-14T09:39:02Z</time>
      </trkpt>
      <trkpt lat="38.369601" lon="-1.364873">
        <ele>554.381</ele>
        <time>2012-06-14T09:39:42Z</time>
      </trkpt>
      <trkpt lat="38.366485" lon="-1.367775">
        <ele>549.509</ele>
        <time>2012-06-14T09:41:03Z</time>
      </trkpt>
      <trkpt lat="38.363036" lon="-1.375148">
        <ele>530.807</ele>
        <time>2012-06-14T09:43:04Z</time>
      </trkpt>
      <trkpt lat="38.359628" lon="-1.378691">
        <ele>526.577</ele>
        <time>2012-06-14T09:44:40Z</time>
      </trkpt>
      <trkpt lat="38.358277" lon="-1.382103">
        <ele>516.434</ele>
        <time>2012-06-14T09:45:35Z</time>
      </trkpt>
      <trkpt lat="38.358061" lon="-1.384927">
        <ele>505.857</ele>
        <time>2012-06-14T09:46:11Z</time>
      </trkpt>
      <trkpt lat="38.355753" lon="-1.390182">
        <ele>495.781</ele>
        <time>2012-06-14T09:47:27Z</time>
      </trkpt>
      <trkpt lat="38.353147" lon="-1.391295">
        <ele>494.365</ele>
        <time>2012-06-14T09:48:19Z</time>
      </trkpt>
      <trkpt lat="38.351068" lon="-1.393144">
        <ele>480.867</ele>
        <time>2012-06-14T09:48:54Z</time>
      </trkpt>
      <trkpt lat="38.350362" lon="-1.394466">
        <ele>473.634</ele>
        <time>2012-06-14T09:49:16Z</time>
      </trkpt>
      <trkpt lat="38.350653" lon="-1.397600">
        <ele>460.615</ele>
        <time>2012-06-14T09:50:00Z</time>
      </trkpt>
      <trkpt lat="38.352549" lon="-1.405503">
        <ele>422.665</ele>
        <time>2012-06-14T09:51:37Z</time>
      </trkpt>
      <trkpt lat="38.350963" lon="-1.406476">
        <ele>421.211</ele>
        <time>2012-06-14T09:52:18Z</time>
      </trkpt>
      <trkpt lat="38.348125" lon="-1.409068">
        <ele>408.707</ele>
        <time>2012-06-14T09:53:28Z</time>
      </trkpt>
      <trkpt lat="38.347777" lon="-1.410872">
        <ele>401.524</ele>
        <time>2012-06-14T09:53:53Z</time>
      </trkpt>
      <trkpt lat="38.345312" lon="-1.416880">
        <ele>382.351</ele>
        <time>2012-06-14T09:55:27Z</time>
      </trkpt>
      <trkpt lat="38.345201" lon="-1.418535">
        <ele>379.454</ele>
        <time>2012-06-14T09:55:51Z</time>
      </trkpt>
      <trkpt lat="38.345771" lon="-1.421058">
        <ele>371.718</ele>
        <time>2012-06-14T09:56:25Z</time>
      </trkpt>
      <trkpt lat="38.346366" lon="-1.422327">
        <ele>369.372</ele>
        <time>2012-06-14T09:56:45Z</time>
      </trkpt>
      <trkpt lat="38.345583" lon="-1.425460">
        <ele>364.514</ele>
        <time>2012-06-14T09:57:32Z</time>
      </trkpt>
      <trkpt lat="38.345455" lon="-1.427928">
        <ele>359.711</ele>
        <time>2012-06-14T10:02:41Z</time>
      </trkpt>
      <trkpt lat="38.346488" lon="-1.429075">
        <ele>362.655</ele>
        <time>2012-06-14T10:03:15Z</time>
      </trkpt>
      <trkpt lat="38.346606" lon="-1.429887">
        <ele>363.007</ele>
        <time>2012-06-14T10:03:31Z</time>
      </trkpt>
      <trkpt lat="38.345572" lon="-1.434366">
        <ele>358.217</ele>
        <time>2012-06-14T10:04:49Z</time>
      </trkpt>
      <trkpt lat="38.349811" lon="-1.434669">
        <ele>346.207</ele>
        <time>2012-06-14T10:05:49Z</time>
      </trkpt>
      <trkpt lat="38.354094" lon="-1.437519">
        <ele>355.828</ele>
        <time>2012-06-14T10:07:31Z</time>
      </trkpt>
      <trkpt lat="38.358009" lon="-1.438072">
        <ele>345.775</ele>
        <time>2012-06-14T10:08:27Z</time>
      </trkpt>
      <trkpt lat="38.358346" lon="-1.438404">
        <ele>345.398</ele>
        <time>2012-06-14T10:08:34Z</time>
      </trkpt>
      <trkpt lat="38.358374" lon="-1.439596">
        <ele>347.212</ele>
        <time>2012-06-14T10:08:51Z</time>
      </trkpt>
      <trkpt lat="38.360064" lon="-1.442992">
        <ele>348.676</ele>
        <time>2012-06-14T10:09:50Z</time>
      </trkpt>
      <trkpt lat="38.361221" lon="-1.444157">
        <ele>348.668</ele>
        <time>2012-06-14T10:10:14Z</time>
      </trkpt>
      <trkpt lat="38.362003" lon="-1.445740">
        <ele>349.615</ele>
        <time>2012-06-14T10:10:39Z</time>
      </trkpt>
      <trkpt lat="38.362814" lon="-1.448690">
        <ele>351.031</ele>
        <time>2012-06-14T10:11:25Z</time>
      </trkpt>
      <trkpt lat="38.361661" lon="-1.449371">
        <ele>351.061</ele>
        <time>2012-06-14T10:11:50Z</time>
      </trkpt>
      <trkpt lat="38.358816" lon="-1.449781">
        <ele>347.707</ele>
        <time>2012-06-14T10:12:36Z</time>
      </trkpt>
      <trkpt lat="38.350400" lon="-1.453747">
        <ele>344.807</ele>
        <time>2012-06-14T10:15:12Z</time>
      </trkpt>
      <trkpt lat="38.345687" lon="-1.457277">
        <ele>342.936</ele>
        <time>2012-06-14T10:20:43Z</time>
      </trkpt>
      <trkpt lat="38.340187" lon="-1.458697">
        <ele>339.093</ele>
        <time>2012-06-14T10:22:41Z</time>
      </trkpt>
      <trkpt lat="38.341076" lon="-1.459716">
        <ele>343.356</ele>
        <time>2012-06-14T10:24:03Z</time>
      </trkpt>
      <trkpt lat="38.341920" lon="-1.460090">
        <ele>351.010</ele>
        <time>2012-06-14T10:24:41Z</time>
      </trkpt>
      <trkpt lat="38.342809" lon="-1.461318">
        <ele>353.924</ele>
        <time>2012-06-14T10:25:23Z</time>
      </trkpt>
      <trkpt lat="38.344403" lon="-1.465175">
        <ele>360.276</ele>
        <time>2012-06-14T10:27:25Z</time>
      </trkpt>
      <trkpt lat="38.350225" lon="-1.473489">
        <ele>385.653</ele>
        <time>2012-06-14T10:33:14Z</time>
      </trkpt>
      <trkpt lat="38.351164" lon="-1.474392">
        <ele>390.418</ele>
        <time>2012-06-14T10:33:58Z</time>
      </trkpt>
      <trkpt lat="38.351529" lon="-1.475236">
        <ele>392.498</ele>
        <time>2012-06-14T10:34:24Z</time>
      </trkpt>
      <trkpt lat="38.352583" lon="-1.476218">
        <ele>396.217</ele>
        <time>2012-06-14T10:35:11Z</time>
      </trkpt>
      <trkpt lat="38.354280" lon="-1.476692">
        <ele>400.507</ele>
        <time>2012-06-14T10:36:06Z</time>
      </trkpt>
      <trkpt lat="38.355516" lon="-1.479982">
        <ele>411.674</ele>
        <time>2012-06-14T10:44:01Z</time>
      </trkpt>
      <trkpt lat="38.355428" lon="-1.486461">
        <ele>423.121</ele>
        <time>2012-06-14T10:46:56Z</time>
      </trkpt>
      <trkpt lat="38.355844" lon="-1.487011">
        <ele>424.684</ele>
        <time>2012-06-14T10:47:18Z</time>
      </trkpt>
      <trkpt lat="38.355793" lon="-1.487717">
        <ele>422.698</ele>
        <time>2012-06-14T10:47:30Z</time>
      </trkpt>
      <trkpt lat="38.355260" lon="-1.488138">
        <ele>423.142</ele>
        <time>2012-06-14T10:47:45Z</time>
      </trkpt>
      <trkpt lat="38.354859" lon="-1.494233">
        <ele>431.824</ele>
        <time>2012-06-14T10:50:03Z</time>
      </trkpt>
      <trkpt lat="38.354263" lon="-1.495022">
        <ele>431.841</ele>
        <time>2012-06-14T10:50:25Z</time>
      </trkpt>
      <trkpt lat="38.353679" lon="-1.495155">
        <ele>428.477</ele>
        <time>2012-06-14T10:50:36Z</time>
      </trkpt>
      <trkpt lat="38.352280" lon="-1.496404">
        <ele>421.261</ele>
        <time>2012-06-14T10:51:03Z</time>
      </trkpt>
      <trkpt lat="38.351062" lon="-1.498056">
        <ele>418.827</ele>
        <time>2012-06-14T10:51:38Z</time>
      </trkpt>
      <trkpt lat="38.351113" lon="-1.499020">
        <ele>416.407</ele>
        <time>2012-06-14T10:51:58Z</time>
      </trkpt>
      <trkpt lat="38.349285" lon="-1.499542">
        <ele>416.460</ele>
        <time>2012-06-14T10:52:40Z</time>
      </trkpt>
      <trkpt lat="38.346410" lon="-1.504145">
        <ele>407.347</ele>
        <time>2012-06-14T10:54:13Z</time>
      </trkpt>
      <trkpt lat="38.343377" lon="-1.502148">
        <ele>389.550</ele>
        <time>2012-06-14T10:55:09Z</time>
      </trkpt>
      <trkpt lat="38.341378" lon="-1.501629">
        <ele>379.454</ele>
        <time>2012-06-14T10:55:37Z</time>
      </trkpt>
      <trkpt lat="38.341166" lon="-1.502730">
        <ele>377.548</ele>
        <time>2012-06-14T10:56:03Z</time>
      </trkpt>
      <trkpt lat="38.340620" lon="-1.502919">
        <ele>377.010</ele>
        <time>2012-06-14T10:56:18Z</time>
      </trkpt>
      <trkpt lat="38.333982" lon="-1.509811">
        <ele>357.317</ele>
        <time>2012-06-14T10:58:46Z</time>
      </trkpt>
      <trkpt lat="38.331857" lon="-1.510400">
        <ele>358.776</ele>
        <time>2012-06-14T10:59:42Z</time>
      </trkpt>
      <trkpt lat="38.332565" lon="-1.511602">
        <ele>348.690</ele>
        <time>2012-06-14T11:00:05Z</time>
      </trkpt>
      <trkpt lat="38.332182" lon="-1.513452">
        <ele>337.619</ele>
        <time>2012-06-14T11:00:32Z</time>
      </trkpt>
      <trkpt lat="38.331387" lon="-1.514498">
        <ele>329.907</ele>
        <time>2012-06-14T11:00:48Z</time>
      </trkpt>
      <trkpt lat="38.330431" lon="-1.514671">
        <ele>325.580</ele>
        <time>2012-06-14T11:01:03Z</time>
      </trkpt>
      <trkpt lat="38.330127" lon="-1.515120">
        <ele>323.197</ele>
        <time>2012-06-14T11:01:11Z</time>
      </trkpt>
      <trkpt lat="38.331876" lon="-1.515817">
        <ele>318.310</ele>
        <time>2012-06-14T11:01:51Z</time>
      </trkpt>
      <trkpt lat="38.332276" lon="-1.517662">
        <ele>326.074</ele>
        <time>2012-06-14T11:03:39Z</time>
      </trkpt>
      <trkpt lat="38.332120" lon="-1.517953">
        <ele>326.578</ele>
        <time>2012-06-14T11:03:50Z</time>
      </trkpt>
      <trkpt lat="38.331131" lon="-1.517748">
        <ele>332.890</ele>
        <time>2012-06-14T11:04:39Z</time>
      </trkpt>
      <trkpt lat="38.331083" lon="-1.519407">
        <ele>342.917</ele>
        <time>2012-06-14T11:05:37Z</time>
      </trkpt>
      <trkpt lat="38.330484" lon="-1.521199">
        <ele>352.551</ele>
        <time>2012-06-14T11:06:36Z</time>
      </trkpt>
      <trkpt lat="38.330621" lon="-1.522187">
        <ele>352.901</ele>
        <time>2012-06-14T11:07:00Z</time>
      </trkpt>
      <trkpt lat="38.329647" lon="-1.528280">
        <ele>378.411</ele>
        <time>2012-06-14T11:10:12Z</time>
      </trkpt>
      <trkpt lat="38.328909" lon="-1.529343">
        <ele>380.307</ele>
        <time>2012-06-14T11:13:48Z</time>
      </trkpt>
      <trkpt lat="38.328520" lon="-1.529211">
        <ele>379.938</ele>
        <time>2012-06-14T11:13:58Z</time>
      </trkpt>
      <trkpt lat="38.328397" lon="-1.528278">
        <ele>384.795</ele>
        <time>2012-06-14T11:14:30Z</time>
      </trkpt>
      <trkpt lat="38.325717" lon="-1.531277">
        <ele>409.778</ele>
        <time>2012-06-14T11:17:19Z</time>
      </trkpt>
      <trkpt lat="38.325400" lon="-1.532674">
        <ele>416.952</ele>
        <time>2012-06-14T11:18:15Z</time>
      </trkpt>
      <trkpt lat="38.325699" lon="-1.533005">
        <ele>419.846</ele>
        <time>2012-06-14T11:18:45Z</time>
      </trkpt>
      <trkpt lat="38.326340" lon="-1.532457">
        <ele>423.618</ele>
        <time>2012-06-14T11:20:21Z</time>
      </trkpt>
      <trkpt lat="38.327019" lon="-1.532684">
        <ele>428.945</ele>
        <time>2012-06-14T11:20:51Z</time>
      </trkpt>
      <trkpt lat="38.327478" lon="-1.534013">
        <ele>437.533</ele>
        <time>2012-06-14T11:21:46Z</time>
      </trkpt>
      <trkpt lat="38.328907" lon="-1.534203">
        <ele>449.123</ele>
        <time>2012-06-14T11:23:02Z</time>
      </trkpt>
      <trkpt lat="38.330578" lon="-1.533620">
        <ele>460.615</ele>
        <time>2012-06-14T11:24:21Z</time>
      </trkpt>
      <trkpt lat="38.330810" lon="-1.534398">
        <ele>460.607</ele>
        <time>2012-06-14T11:25:48Z</time>
      </trkpt>
      <trkpt lat="38.331428" lon="-1.534706">
        <ele>458.726</ele>
        <time>2012-06-14T11:27:36Z</time>
      </trkpt>
      <trkpt lat="38.331332" lon="-1.535830">
        <ele>458.253</ele>
        <time>2012-06-14T11:28:49Z</time>
      </trkpt>
      <trkpt lat="38.331658" lon="-1.536687">
        <ele>458.716</ele>
        <time>2012-06-14T11:29:06Z</time>
      </trkpt>
      <trkpt lat="38.331689" lon="-1.538827">
        <ele>464.530</ele>
        <time>2012-06-14T11:29:53Z</time>
      </trkpt>
      <trkpt lat="38.332058" lon="-1.539548">
        <ele>467.344</ele>
        <time>2012-06-14T11:30:17Z</time>
      </trkpt>
      <trkpt lat="38.330711" lon="-1.543367">
        <ele>486.166</ele>
        <time>2012-06-14T11:32:28Z</time>
      </trkpt>
      <trkpt lat="38.330782" lon="-1.544345">
        <ele>494.343</ele>
        <time>2012-06-14T11:33:08Z</time>
      </trkpt>
      <trkpt lat="38.329796" lon="-1.545839">
        <ele>502.431</ele>
        <time>2012-06-14T11:34:12Z</time>
      </trkpt>
      <trkpt lat="38.328525" lon="-1.546706">
        <ele>511.661</ele>
        <time>2012-06-14T11:35:13Z</time>
      </trkpt>
      <trkpt lat="38.328245" lon="-1.548128">
        <ele>514.007</ele>
        <time>2012-06-14T11:36:25Z</time>
      </trkpt>
      <trkpt lat="38.330298" lon="-1.548168">
        <ele>510.107</ele>
        <time>2012-06-14T11:37:09Z</time>
      </trkpt>
      <trkpt lat="38.330469" lon="-1.548572">
        <ele>512.086</ele>
        <time>2012-06-14T11:37:19Z</time>
      </trkpt>
      <trkpt lat="38.320188" lon="-1.560528">
        <ele>506.863</ele>
        <time>2012-06-14T11:41:42Z</time>
      </trkpt>
      <trkpt lat="38.314860" lon="-1.571042">
        <ele>524.536</ele>
        <time>2012-06-14T11:46:12Z</time>
      </trkpt>
      <trkpt lat="38.310877" lon="-1.575202">
        <ele>545.260</ele>
        <time>2012-06-14T11:50:01Z</time>
      </trkpt>
      <trkpt lat="38.309760" lon="-1.577375">
        <ele>558.264</ele>
        <time>2012-06-14T11:51:24Z</time>
      </trkpt>
      <trkpt lat="38.309760" lon="-1.580722">
        <ele>571.236</ele>
        <time>2012-06-14T11:53:12Z</time>
      </trkpt>
      <trkpt lat="38.311272" lon="-1.580225">
        <ele>577.433</ele>
        <time>2012-06-14T11:54:08Z</time>
      </trkpt>
      <trkpt lat="38.311506" lon="-1.580676">
        <ele>582.226</ele>
        <time>2012-06-14T11:54:32Z</time>
      </trkpt>
      <trkpt lat="38.310835" lon="-1.582932">
        <ele>597.147</ele>
        <time>2012-06-14T11:57:18Z</time>
      </trkpt>
      <trkpt lat="38.308743" lon="-1.586207">
        <ele>580.811</ele>
        <time>2012-06-14T11:58:57Z</time>
      </trkpt>
      <trkpt lat="38.308161" lon="-1.587759">
        <ele>570.707</ele>
        <time>2012-06-14T11:59:14Z</time>
      </trkpt>
      <trkpt lat="38.307468" lon="-1.595857">
        <ele>542.885</ele>
        <time>2012-06-14T12:00:32Z</time>
      </trkpt>
      <trkpt lat="38.307501" lon="-1.598958">
        <ele>530.842</ele>
        <time>2012-06-14T12:01:02Z</time>
      </trkpt>
      <trkpt lat="38.305936" lon="-1.605494">
        <ele>511.195</ele>
        <time>2012-06-14T12:02:13Z</time>
      </trkpt>
      <trkpt lat="38.304434" lon="-1.609317">
        <ele>501.599</ele>
        <time>2012-06-14T12:02:53Z</time>
      </trkpt>
      <trkpt lat="38.303926" lon="-1.611798">
        <ele>493.853</ele>
        <time>2012-06-14T12:03:13Z</time>
      </trkpt>
      <trkpt lat="38.304195" lon="-1.618373">
        <ele>474.195</ele>
        <time>2012-06-14T12:04:11Z</time>
      </trkpt>
      <trkpt lat="38.304513" lon="-1.619893">
        <ele>468.832</ele>
        <time>2012-06-14T12:04:24Z</time>
      </trkpt>
      <trkpt lat="38.305465" lon="-1.621458">
        <ele>465.965</ele>
        <time>2012-06-14T12:04:44Z</time>
      </trkpt>
      <trkpt lat="38.304110" lon="-1.626218">
        <ele>459.268</ele>
        <time>2012-06-14T12:05:37Z</time>
      </trkpt>
      <trkpt lat="38.304088" lon="-1.629542">
        <ele>452.414</ele>
        <time>2012-06-14T12:06:13Z</time>
      </trkpt>
      <trkpt lat="38.304556" lon="-1.632217">
        <ele>444.807</ele>
        <time>2012-06-14T12:06:39Z</time>
      </trkpt>
      <trkpt lat="38.304295" lon="-1.634891">
        <ele>442.869</ele>
        <time>2012-06-14T12:07:04Z</time>
      </trkpt>
      <trkpt lat="38.305480" lon="-1.638361">
        <ele>434.266</ele>
        <time>2012-06-14T12:07:44Z</time>
      </trkpt>
      <trkpt lat="38.305350" lon="-1.640518">
        <ele>435.189</ele>
        <time>2012-06-14T12:08:15Z</time>
      </trkpt>
      <trkpt lat="38.304572" lon="-1.642728">
        <ele>448.113</ele>
        <time>2012-06-14T12:09:43Z</time>
      </trkpt>
      <trkpt lat="38.303568" lon="-1.642104">
        <ele>439.977</ele>
        <time>2012-06-14T12:10:00Z</time>
      </trkpt>
      <trkpt lat="38.301711" lon="-1.643356">
        <ele>443.859</ele>
        <time>2012-06-14T12:10:48Z</time>
      </trkpt>
      <trkpt lat="38.301306" lon="-1.646755">
        <ele>444.366</ele>
        <time>2012-06-14T12:11:39Z</time>
      </trkpt>
      <trkpt lat="38.298964" lon="-1.653548">
        <ele>429.441</ele>
        <time>2012-06-14T12:12:52Z</time>
      </trkpt>
      <trkpt lat="38.295991" lon="-1.659220">
        <ele>425.081</ele>
        <time>2012-06-14T12:14:18Z</time>
      </trkpt>
      <trkpt lat="38.294320" lon="-1.661603">
        <ele>429.909</ele>
        <time>2012-06-14T12:15:03Z</time>
      </trkpt>
      <trkpt lat="38.294670" lon="-1.662094">
        <ele>433.207</ele>
        <time>2012-06-14T12:15:27Z</time>
      </trkpt>
      <trkpt lat="38.294127" lon="-1.662885">
        <ele>438.077</ele>
        <time>2012-06-14T12:16:07Z</time>
      </trkpt>
      <trkpt lat="38.293965" lon="-1.667481">
        <ele>419.394</ele>
        <time>2012-06-14T12:19:03Z</time>
      </trkpt>
      <trkpt lat="38.293546" lon="-1.668385">
        <ele>412.567</ele>
        <time>2012-06-14T12:19:14Z</time>
      </trkpt>
      <trkpt lat="38.293553" lon="-1.670747">
        <ele>397.251</ele>
        <time>2012-06-14T12:19:35Z</time>
      </trkpt>
      <trkpt lat="38.292580" lon="-1.672937">
        <ele>391.965</ele>
        <time>2012-06-14T12:19:59Z</time>
      </trkpt>
      <trkpt lat="38.292185" lon="-1.675144">
        <ele>392.477</ele>
        <time>2012-06-14T12:20:26Z</time>
      </trkpt>
      <trkpt lat="38.291281" lon="-1.676371">
        <ele>389.554</ele>
        <time>2012-06-14T12:20:53Z</time>
      </trkpt>
      <trkpt lat="38.290504" lon="-1.675927">
        <ele>385.669</ele>
        <time>2012-06-14T12:21:05Z</time>
      </trkpt>
      <trkpt lat="38.290214" lon="-1.676122">
        <ele>384.204</ele>
        <time>2012-06-14T12:21:12Z</time>
      </trkpt>
      <trkpt lat="38.290253" lon="-1.677234">
        <ele>384.724</ele>
        <time>2012-06-14T12:21:30Z</time>
      </trkpt>
      <trkpt lat="38.289233" lon="-1.678064">
        <ele>380.807</ele>
        <time>2012-06-14T12:21:49Z</time>
      </trkpt>
      <trkpt lat="38.288369" lon="-1.677794">
        <ele>373.619</ele>
        <time>2012-06-14T12:22:04Z</time>
      </trkpt>
      <trkpt lat="38.288165" lon="-1.678229">
        <ele>372.236</ele>
        <time>2012-06-14T12:22:11Z</time>
      </trkpt>
      <trkpt lat="38.289444" lon="-1.679563">
        <ele>366.499</ele>
        <time>2012-06-14T12:22:40Z</time>
      </trkpt>
      <trkpt lat="38.289456" lon="-1.680694">
        <ele>361.183</ele>
        <time>2012-06-14T12:22:51Z</time>
      </trkpt>
      <trkpt lat="38.288332" lon="-1.681658">
        <ele>363.027</ele>
        <time>2012-06-14T12:23:19Z</time>
      </trkpt>
      <trkpt lat="38.287548" lon="-1.681669">
        <ele>364.069</ele>
        <time>2012-06-14T12:23:34Z</time>
      </trkpt>
      <trkpt lat="38.287130" lon="-1.682238">
        <ele>362.626</ele>
        <time>2012-06-14T12:23:48Z</time>
      </trkpt>
      <trkpt lat="38.286423" lon="-1.682031">
        <ele>358.793</ele>
        <time>2012-06-14T12:24:01Z</time>
      </trkpt>
      <trkpt lat="38.285989" lon="-1.682974">
        <ele>365.065</ele>
        <time>2012-06-14T12:24:33Z</time>
      </trkpt>
      <trkpt lat="38.285446" lon="-1.683096">
        <ele>364.521</ele>
        <time>2012-06-14T12:24:50Z</time>
      </trkpt>
      <trkpt lat="38.285409" lon="-1.683782">
        <ele>364.507</ele>
        <time>2012-06-14T12:25:02Z</time>
      </trkpt>
      <trkpt lat="38.284429" lon="-1.683976">
        <ele>362.692</ele>
        <time>2012-06-14T12:25:21Z</time>
      </trkpt>
      <trkpt lat="38.283613" lon="-1.683465">
        <ele>365.459</ele>
        <time>2012-06-14T12:25:41Z</time>
      </trkpt>
      <trkpt lat="38.283195" lon="-1.683585">
        <ele>365.032</ele>
        <time>2012-06-14T12:25:51Z</time>
      </trkpt>
      <trkpt lat="38.282908" lon="-1.682968">
        <ele>359.766</ele>
        <time>2012-06-14T12:26:04Z</time>
      </trkpt>
      <trkpt lat="38.282290" lon="-1.682967">
        <ele>360.290</ele>
        <time>2012-06-14T12:26:18Z</time>
      </trkpt>
      <trkpt lat="38.280827" lon="-1.684298">
        <ele>375.162</ele>
        <time>2012-06-14T12:27:42Z</time>
      </trkpt>
      <trkpt lat="38.281490" lon="-1.684949">
        <ele>379.939</ele>
        <time>2012-06-14T12:28:21Z</time>
      </trkpt>
      <trkpt lat="38.279838" lon="-1.684347">
        <ele>364.099</ele>
        <time>2012-06-14T12:28:53Z</time>
      </trkpt>
      <trkpt lat="38.278374" lon="-1.684974">
        <ele>351.007</ele>
        <time>2012-06-14T12:29:18Z</time>
      </trkpt>
      <trkpt lat="38.277607" lon="-1.684373">
        <ele>351.027</ele>
        <time>2012-06-14T12:29:34Z</time>
      </trkpt>
      <trkpt lat="38.277085" lon="-1.682843">
        <ele>344.807</ele>
        <time>2012-06-14T12:29:58Z</time>
      </trkpt>
      <trkpt lat="38.276338" lon="-1.683282">
        <ele>349.652</ele>
        <time>2012-06-14T12:30:25Z</time>
      </trkpt>
      <trkpt lat="38.275305" lon="-1.683308">
        <ele>356.829</ele>
        <time>2012-06-14T12:31:10Z</time>
      </trkpt>
      <trkpt lat="38.273479" lon="-1.682410">
        <ele>366.962</ele>
        <time>2012-06-14T12:32:48Z</time>
      </trkpt>
      <trkpt lat="38.271757" lon="-1.683186">
        <ele>356.326</ele>
        <time>2012-06-14T12:33:45Z</time>
      </trkpt>
      <trkpt lat="38.270593" lon="-1.682985">
        <ele>350.570</ele>
        <time>2012-06-14T12:34:03Z</time>
      </trkpt>
      <trkpt lat="38.267626" lon="-1.684126">
        <ele>335.262</ele>
        <time>2012-06-14T12:35:15Z</time>
      </trkpt>
      <trkpt lat="38.265985" lon="-1.685223">
        <ele>328.919</ele>
        <time>2012-06-14T12:36:02Z</time>
      </trkpt>
      <trkpt lat="38.263296" lon="-1.685301">
        <ele>323.673</ele>
        <time>2012-06-14T12:37:12Z</time>
      </trkpt>
      <trkpt lat="38.258874" lon="-1.688440">
        <ele>310.285</ele>
        <time>2012-06-14T12:38:44Z</time>
      </trkpt>
      <trkpt lat="38.258998" lon="-1.689949">
        <ele>309.213</ele>
        <time>2012-06-14T12:39:21Z</time>
      </trkpt>
      <trkpt lat="38.255970" lon="-1.691395">
        <ele>303.007</ele>
        <time>2012-06-14T12:40:07Z</time>
      </trkpt>
      <trkpt lat="38.254656" lon="-1.692406">
        <ele>300.670</ele>
        <time>2012-06-14T12:40:30Z</time>
      </trkpt>
      <trkpt lat="38.251766" lon="-1.691813">
        <ele>283.357</ele>
        <time>2012-06-14T12:41:15Z</time>
      </trkpt>
      <trkpt lat="38.247421" lon="-1.694296">
        <ele>273.620</ele>
        <time>2012-06-14T12:44:05Z</time>
      </trkpt>
      <trkpt lat="38.246524" lon="-1.694436">
        <ele>276.574</ele>
        <time>2012-06-14T12:45:13Z</time>
      </trkpt>
      <trkpt lat="38.245762" lon="-1.693731">
        <ele>280.418</ele>
        <time>2012-06-14T12:47:46Z</time>
      </trkpt>
      <trkpt lat="38.245360" lon="-1.694156">
        <ele>285.250</ele>
        <time>2012-06-14T12:48:08Z</time>
      </trkpt>
      <trkpt lat="38.245256" lon="-1.695530">
        <ele>295.797</ele>
        <time>2012-06-14T12:48:58Z</time>
      </trkpt>
      <trkpt lat="38.244878" lon="-1.696230">
        <ele>303.025</ele>
        <time>2012-06-14T12:49:29Z</time>
      </trkpt>
      <trkpt lat="38.244198" lon="-1.696250">
        <ele>305.826</ele>
        <time>2012-06-14T12:49:56Z</time>
      </trkpt>
      <trkpt lat="38.242978" lon="-1.697765">
        <ele>311.108</ele>
        <time>2012-06-14T12:50:47Z</time>
      </trkpt>
      <trkpt lat="38.242328" lon="-1.700874">
        <ele>317.407</ele>
        <time>2012-06-14T12:51:45Z</time>
      </trkpt>
      <trkpt lat="38.242469" lon="-1.702768">
        <ele>313.525</ele>
        <time>2012-06-14T12:52:10Z</time>
      </trkpt>
      <trkpt lat="38.242103" lon="-1.703480">
        <ele>313.532</ele>
        <time>2012-06-14T12:52:19Z</time>
      </trkpt>
      <trkpt lat="38.239241" lon="-1.705526">
        <ele>329.445</ele>
        <time>2012-06-14T12:53:58Z</time>
      </trkpt>
      <trkpt lat="38.238570" lon="-1.704906">
        <ele>334.749</ele>
        <time>2012-06-14T12:54:25Z</time>
      </trkpt>
      <trkpt lat="38.236765" lon="-1.705028">
        <ele>343.863</ele>
        <time>2012-06-14T12:55:36Z</time>
      </trkpt>
      <trkpt lat="38.235821" lon="-1.704154">
        <ele>352.955</ele>
        <time>2012-06-14T12:56:26Z</time>
      </trkpt>
      <trkpt lat="38.234666" lon="-1.702152">
        <ele>348.132</ele>
        <time>2012-06-14T12:57:04Z</time>
      </trkpt>
      <trkpt lat="38.234202" lon="-1.700604">
        <ele>340.916</ele>
        <time>2012-06-14T12:58:09Z</time>
      </trkpt>
      <trkpt lat="38.232690" lon="-1.700566">
        <ele>344.876</ele>
        <time>2012-06-14T12:58:44Z</time>
      </trkpt>
      <trkpt lat="38.230707" lon="-1.699351">
        <ele>351.013</ele>
        <time>2012-06-14T12:59:46Z</time>
      </trkpt>
      <trkpt lat="38.231284" lon="-1.700933">
        <ele>379.407</ele>
        <time>2012-06-14T14:40:22Z</time>
      </trkpt>
      <trkpt lat="38.231391" lon="-1.702735">
        <ele>384.274</ele>
        <time>2012-06-14T14:42:14Z</time>
      </trkpt>
      <trkpt lat="38.233785" lon="-1.707158">
        <ele>396.761</ele>
        <time>2012-06-14T14:44:26Z</time>
      </trkpt>
      <trkpt lat="38.234296" lon="-1.709512">
        <ele>389.534</ele>
        <time>2012-06-14T15:01:40Z</time>
      </trkpt>
      <trkpt lat="38.234089" lon="-1.710476">
        <ele>402.028</ele>
        <time>2012-06-14T15:03:12Z</time>
      </trkpt>
      <trkpt lat="38.234350" lon="-1.712604">
        <ele>404.932</ele>
        <time>2012-06-14T15:04:38Z</time>
      </trkpt>
      <trkpt lat="38.235736" lon="-1.715271">
        <ele>399.164</ele>
        <time>2012-06-14T15:06:10Z</time>
      </trkpt>
      <trkpt lat="38.236451" lon="-1.715421">
        <ele>398.191</ele>
        <time>2012-06-14T15:06:48Z</time>
      </trkpt>
      <trkpt lat="38.236919" lon="-1.716305">
        <ele>394.839</ele>
        <time>2012-06-14T15:07:03Z</time>
      </trkpt>
      <trkpt lat="38.236852" lon="-1.727358">
        <ele>400.501</ele>
        <time>2012-06-14T15:12:10Z</time>
      </trkpt>
      <trkpt lat="38.236572" lon="-1.728234">
        <ele>403.921</ele>
        <time>2012-06-14T15:12:26Z</time>
      </trkpt>
      <trkpt lat="38.235061" lon="-1.730185">
        <ele>415.907</ele>
        <time>2012-06-14T15:14:07Z</time>
      </trkpt>
      <trkpt lat="38.234406" lon="-1.731621">
        <ele>415.046</ele>
        <time>2012-06-14T15:14:40Z</time>
      </trkpt>
      <trkpt lat="38.233086" lon="-1.732460">
        <ele>419.853</ele>
        <time>2012-06-14T15:15:26Z</time>
      </trkpt>
      <trkpt lat="38.231100" lon="-1.732309">
        <ele>421.766</ele>
        <time>2012-06-14T15:16:29Z</time>
      </trkpt>
      <trkpt lat="38.230595" lon="-1.731964">
        <ele>424.120</ele>
        <time>2012-06-14T15:16:52Z</time>
      </trkpt>
      <trkpt lat="38.229977" lon="-1.733921">
        <ele>424.674</ele>
        <time>2012-06-14T15:17:50Z</time>
      </trkpt>
      <trkpt lat="38.229049" lon="-1.734401">
        <ele>422.666</ele>
        <time>2012-06-14T15:18:16Z</time>
      </trkpt>
      <trkpt lat="38.228979" lon="-1.734929">
        <ele>424.193</ele>
        <time>2012-06-14T15:19:43Z</time>
      </trkpt>
      <trkpt lat="38.226661" lon="-1.736183">
        <ele>436.163</ele>
        <time>2012-06-14T15:21:18Z</time>
      </trkpt>
      <trkpt lat="38.226850" lon="-1.737607">
        <ele>437.544</ele>
        <time>2012-06-14T15:21:52Z</time>
      </trkpt>
      <trkpt lat="38.227629" lon="-1.739260">
        <ele>439.018</ele>
        <time>2012-06-14T15:22:30Z</time>
      </trkpt>
      <trkpt lat="38.226984" lon="-1.740628">
        <ele>430.807</ele>
        <time>2012-06-14T15:23:11Z</time>
      </trkpt>
      <trkpt lat="38.225907" lon="-1.740784">
        <ele>427.099</ele>
        <time>2012-06-14T15:23:29Z</time>
      </trkpt>
      <trkpt lat="38.223457" lon="-1.739822">
        <ele>419.326</ele>
        <time>2012-06-14T15:24:16Z</time>
      </trkpt>
      <trkpt lat="38.219243" lon="-1.744806">
        <ele>408.299</ele>
        <time>2012-06-14T15:26:28Z</time>
      </trkpt>
      <trkpt lat="38.216852" lon="-1.753840">
        <ele>430.393</ele>
        <time>2012-06-14T15:34:01Z</time>
      </trkpt>
      <trkpt lat="38.215223" lon="-1.756497">
        <ele>442.857</ele>
        <time>2012-06-14T15:35:36Z</time>
      </trkpt>
      <trkpt lat="38.213217" lon="-1.758327">
        <ele>444.819</ele>
        <time>2012-06-14T15:36:54Z</time>
      </trkpt>
      <trkpt lat="38.212140" lon="-1.760097">
        <ele>439.956</ele>
        <time>2012-06-14T15:37:38Z</time>
      </trkpt>
      <trkpt lat="38.211039" lon="-1.764527">
        <ele>424.128</ele>
        <time>2012-06-14T15:38:50Z</time>
      </trkpt>
      <trkpt lat="38.212634" lon="-1.766525">
        <ele>419.889</ele>
        <time>2012-06-14T15:39:32Z</time>
      </trkpt>
      <trkpt lat="38.212450" lon="-1.768564">
        <ele>422.217</ele>
        <time>2012-06-14T15:40:16Z</time>
      </trkpt>
      <trkpt lat="38.212763" lon="-1.770076">
        <ele>432.307</ele>
        <time>2012-06-14T15:41:09Z</time>
      </trkpt>
      <trkpt lat="38.212564" lon="-1.770764">
        <ele>439.065</ele>
        <time>2012-06-14T15:41:41Z</time>
      </trkpt>
      <trkpt lat="38.212789" lon="-1.773426">
        <ele>422.252</ele>
        <time>2012-06-14T15:42:40Z</time>
      </trkpt>
      <trkpt lat="38.213288" lon="-1.774623">
        <ele>411.165</ele>
        <time>2012-06-14T15:43:04Z</time>
      </trkpt>
      <trkpt lat="38.213161" lon="-1.775330">
        <ele>407.769</ele>
        <time>2012-06-14T15:43:14Z</time>
      </trkpt>
      <trkpt lat="38.211823" lon="-1.776293">
        <ele>404.463</ele>
        <time>2012-06-14T15:43:54Z</time>
      </trkpt>
      <trkpt lat="38.212838" lon="-1.777501">
        <ele>405.325</ele>
        <time>2012-06-14T15:44:41Z</time>
      </trkpt>
      <trkpt lat="38.214127" lon="-1.780853">
        <ele>427.082</ele>
        <time>2012-06-14T15:49:14Z</time>
      </trkpt>
      <trkpt lat="38.215000" lon="-1.782201">
        <ele>435.647</ele>
        <time>2012-06-14T15:50:27Z</time>
      </trkpt>
      <trkpt lat="38.214251" lon="-1.783837">
        <ele>438.029</ele>
        <time>2012-06-14T15:51:21Z</time>
      </trkpt>
      <trkpt lat="38.213395" lon="-1.784217">
        <ele>436.621</ele>
        <time>2012-06-14T15:51:41Z</time>
      </trkpt>
      <trkpt lat="38.212747" lon="-1.783965">
        <ele>439.507</ele>
        <time>2012-06-14T15:52:05Z</time>
      </trkpt>
      <trkpt lat="38.210915" lon="-1.786281">
        <ele>451.027</ele>
        <time>2012-06-14T15:53:51Z</time>
      </trkpt>
      <trkpt lat="38.208931" lon="-1.787660">
        <ele>455.884</ele>
        <time>2012-06-14T15:57:13Z</time>
      </trkpt>
      <trkpt lat="38.208919" lon="-1.789028">
        <ele>456.347</ele>
        <time>2012-06-14T15:57:43Z</time>
      </trkpt>
      <trkpt lat="38.210039" lon="-1.793307">
        <ele>439.081</ele>
        <time>2012-06-14T15:58:45Z</time>
      </trkpt>
      <trkpt lat="38.211120" lon="-1.795234">
        <ele>429.995</ele>
        <time>2012-06-14T15:59:13Z</time>
      </trkpt>
      <trkpt lat="38.212719" lon="-1.796374">
        <ele>416.967</ele>
        <time>2012-06-14T15:59:48Z</time>
      </trkpt>
      <trkpt lat="38.212961" lon="-1.797231">
        <ele>415.024</ele>
        <time>2012-06-14T16:00:06Z</time>
      </trkpt>
      <trkpt lat="38.213547" lon="-1.797377">
        <ele>414.572</ele>
        <time>2012-06-14T16:00:21Z</time>
      </trkpt>
      <trkpt lat="38.211916" lon="-1.797695">
        <ele>416.913</ele>
        <time>2012-06-14T16:42:50Z</time>
      </trkpt>
      <trkpt lat="38.208699" lon="-1.796795">
        <ele>422.214</ele>
        <time>2012-06-14T16:44:08Z</time>
      </trkpt>
      <trkpt lat="38.208053" lon="-1.796299">
        <ele>424.107</ele>
        <time>2012-06-14T16:44:27Z</time>
      </trkpt>
      <trkpt lat="38.206054" lon="-1.796574">
        <ele>434.760</ele>
        <time>2012-06-14T16:45:33Z</time>
      </trkpt>
      <trkpt lat="38.205316" lon="-1.796281">
        <ele>438.597</ele>
        <time>2012-06-14T16:45:58Z</time>
      </trkpt>
      <trkpt lat="38.202677" lon="-1.796370">
        <ele>442.380</ele>
        <time>2012-06-14T16:49:04Z</time>
      </trkpt>
      <trkpt lat="38.201790" lon="-1.796732">
        <ele>445.234</ele>
        <time>2012-06-14T16:49:31Z</time>
      </trkpt>
      <trkpt lat="38.200914" lon="-1.797849">
        <ele>447.688</ele>
        <time>2012-06-14T16:50:01Z</time>
      </trkpt>
      <trkpt lat="38.198963" lon="-1.798529">
        <ele>453.450</ele>
        <time>2012-06-14T16:51:00Z</time>
      </trkpt>
      <trkpt lat="38.198723" lon="-1.800304">
        <ele>451.037</ele>
        <time>2012-06-14T16:53:00Z</time>
      </trkpt>
      <trkpt lat="38.200007" lon="-1.803371">
        <ele>436.655</ele>
        <time>2012-06-14T16:53:25Z</time>
      </trkpt>
      <trkpt lat="38.200968" lon="-1.804694">
        <ele>445.707</ele>
        <time>2012-06-14T16:53:56Z</time>
      </trkpt>
      <trkpt lat="38.201048" lon="-1.805739">
        <ele>450.017</ele>
        <time>2012-06-14T16:54:22Z</time>
      </trkpt>
      <trkpt lat="38.198656" lon="-1.823226">
        <ele>468.307</ele>
        <time>2012-06-14T17:05:45Z</time>
      </trkpt>
      <trkpt lat="38.196207" lon="-1.833466">
        <ele>476.568</ele>
        <time>2012-06-14T17:09:54Z</time>
      </trkpt>
      <trkpt lat="38.196620" lon="-1.835407">
        <ele>478.935</ele>
        <time>2012-06-14T17:10:24Z</time>
      </trkpt>
      <trkpt lat="38.196363" lon="-1.844700">
        <ele>509.668</ele>
        <time>2012-06-14T17:13:32Z</time>
      </trkpt>
      <trkpt lat="38.195460" lon="-1.850619">
        <ele>514.962</ele>
        <time>2012-06-14T17:15:07Z</time>
      </trkpt>
      <trkpt lat="38.193535" lon="-1.856914">
        <ele>523.156</ele>
        <time>2012-06-14T17:16:48Z</time>
      </trkpt>
      <trkpt lat="38.193384" lon="-1.859281">
        <ele>530.898</ele>
        <time>2012-06-14T17:17:38Z</time>
      </trkpt>
      <trkpt lat="38.192154" lon="-1.864237">
        <ele>543.335</ele>
        <time>2012-06-14T17:20:26Z</time>
      </trkpt>
      <trkpt lat="38.192682" lon="-1.871703">
        <ele>571.264</ele>
        <time>2012-06-14T17:23:11Z</time>
      </trkpt>
      <trkpt lat="38.192227" lon="-1.873718">
        <ele>577.406</ele>
        <time>2012-06-14T17:23:55Z</time>
      </trkpt>
      <trkpt lat="38.191954" lon="-1.878046">
        <ele>586.116</ele>
        <time>2012-06-14T17:25:17Z</time>
      </trkpt>
      <trkpt lat="38.187533" lon="-1.888401">
        <ele>613.507</ele>
        <time>2012-06-14T17:31:31Z</time>
      </trkpt>
      <trkpt lat="38.188836" lon="-1.890996">
        <ele>662.519</ele>
        <time>2012-06-15T06:03:32Z</time>
      </trkpt>
      <trkpt lat="38.188780" lon="-1.890947">
        <ele>662.024</ele>
        <time>2012-06-15T06:04:56Z</time>
      </trkpt>
      <trkpt lat="38.188533" lon="-1.890687">
        <ele>659.604</ele>
        <time>2012-06-15T06:05:30Z</time>
      </trkpt>
      <trkpt lat="38.187513" lon="-1.890863">
        <ele>656.714</ele>
        <time>2012-06-15T06:05:59Z</time>
      </trkpt>
      <trkpt lat="38.187437" lon="-1.890526">
        <ele>654.807</ele>
        <time>2012-06-15T06:06:09Z</time>
      </trkpt>
      <trkpt lat="38.187114" lon="-1.890514">
        <ele>653.825</ele>
        <time>2012-06-15T06:06:19Z</time>
      </trkpt>
      <trkpt lat="38.183033" lon="-1.890907">
        <ele>641.392</ele>
        <time>2012-06-15T06:09:45Z</time>
      </trkpt>
      <trkpt lat="38.182629" lon="-1.890750">
        <ele>639.485</ele>
        <time>2012-06-15T06:10:40Z</time>
      </trkpt>
      <trkpt lat="38.181850" lon="-1.889892">
        <ele>638.980</ele>
        <time>2012-06-15T06:10:58Z</time>
      </trkpt>
      <trkpt lat="38.181676" lon="-1.887993">
        <ele>642.820</ele>
        <time>2012-06-15T06:11:36Z</time>
      </trkpt>
      <trkpt lat="38.182911" lon="-1.887360">
        <ele>629.829</ele>
        <time>2012-06-15T06:12:07Z</time>
      </trkpt>
      <trkpt lat="38.182812" lon="-1.886882">
        <ele>629.892</ele>
        <time>2012-06-15T06:12:16Z</time>
      </trkpt>
      <trkpt lat="38.182918" lon="-1.886355">
        <ele>628.457</ele>
        <time>2012-06-15T06:12:36Z</time>
      </trkpt>
      <trkpt lat="38.182762" lon="-1.886397">
        <ele>628.800</ele>
        <time>2012-06-15T06:12:44Z</time>
      </trkpt>
      <trkpt lat="38.182333" lon="-1.885755">
        <ele>630.320</ele>
        <time>2012-06-15T06:13:05Z</time>
      </trkpt>
      <trkpt lat="38.180998" lon="-1.884620">
        <ele>633.207</ele>
        <time>2012-06-15T06:13:58Z</time>
      </trkpt>
      <trkpt lat="38.178986" lon="-1.882135">
        <ele>635.148</ele>
        <time>2012-06-15T06:15:22Z</time>
      </trkpt>
      <trkpt lat="38.178451" lon="-1.880944">
        <ele>638.935</ele>
        <time>2012-06-15T06:16:01Z</time>
      </trkpt>
      <trkpt lat="38.177204" lon="-1.879103">
        <ele>640.428</ele>
        <time>2012-06-15T06:17:07Z</time>
      </trkpt>
      <trkpt lat="38.176763" lon="-1.878928">
        <ele>640.423</ele>
        <time>2012-06-15T06:17:28Z</time>
      </trkpt>
      <trkpt lat="38.175356" lon="-1.876430">
        <ele>637.013</ele>
        <time>2012-06-15T06:18:14Z</time>
      </trkpt>
      <trkpt lat="38.170984" lon="-1.870784">
        <ele>630.392</ele>
        <time>2012-06-15T06:20:12Z</time>
      </trkpt>
      <trkpt lat="38.171541" lon="-1.868921">
        <ele>626.955</ele>
        <time>2012-06-15T06:28:19Z</time>
      </trkpt>
      <trkpt lat="38.171364" lon="-1.866909">
        <ele>625.092</ele>
        <time>2012-06-15T06:45:29Z</time>
      </trkpt>
      <trkpt lat="38.170999" lon="-1.866482">
        <ele>633.773</ele>
        <time>2012-06-15T06:46:31Z</time>
      </trkpt>
      <trkpt lat="38.171250" lon="-1.865800">
        <ele>629.320</ele>
        <time>2012-06-15T06:48:03Z</time>
      </trkpt>
      <trkpt lat="38.171263" lon="-1.864955">
        <ele>622.607</ele>
        <time>2012-06-15T06:50:44Z</time>
      </trkpt>
      <trkpt lat="38.170005" lon="-1.862913">
        <ele>620.292</ele>
        <time>2012-06-15T07:01:22Z</time>
      </trkpt>
      <trkpt lat="38.165253" lon="-1.857216">
        <ele>620.289</ele>
        <time>2012-06-15T07:07:27Z</time>
      </trkpt>
      <trkpt lat="38.164564" lon="-1.856841">
        <ele>620.282</ele>
        <time>2012-06-15T07:07:47Z</time>
      </trkpt>
      <trkpt lat="38.164090" lon="-1.856786">
        <ele>616.877</ele>
        <time>2012-06-15T07:08:08Z</time>
      </trkpt>
      <trkpt lat="38.163914" lon="-1.855481">
        <ele>617.817</ele>
        <time>2012-06-15T07:08:54Z</time>
      </trkpt>
      <trkpt lat="38.163635" lon="-1.855275">
        <ele>618.326</ele>
        <time>2012-06-15T07:09:05Z</time>
      </trkpt>
      <trkpt lat="38.162150" lon="-1.854985">
        <ele>616.329</ele>
        <time>2012-06-15T07:09:39Z</time>
      </trkpt>
      <trkpt lat="38.161533" lon="-1.854097">
        <ele>616.847</ele>
        <time>2012-06-15T07:10:03Z</time>
      </trkpt>
      <trkpt lat="38.156551" lon="-1.852250">
        <ele>616.329</ele>
        <time>2012-06-15T07:12:14Z</time>
      </trkpt>
      <trkpt lat="38.156218" lon="-1.852203">
        <ele>617.821</ele>
        <time>2012-06-15T07:12:25Z</time>
      </trkpt>
      <trkpt lat="38.155092" lon="-1.852697">
        <ele>615.907</ele>
        <time>2012-06-15T07:12:51Z</time>
      </trkpt>
      <trkpt lat="38.153211" lon="-1.851776">
        <ele>614.447</ele>
        <time>2012-06-15T07:13:36Z</time>
      </trkpt>
      <trkpt lat="38.151714" lon="-1.849456">
        <ele>616.384</ele>
        <time>2012-06-15T07:14:32Z</time>
      </trkpt>
      <trkpt lat="38.148397" lon="-1.846231">
        <ele>615.987</ele>
        <time>2012-06-15T07:16:10Z</time>
      </trkpt>
      <trkpt lat="38.147531" lon="-1.846402">
        <ele>615.982</ele>
        <time>2012-06-15T07:17:55Z</time>
      </trkpt>
      <trkpt lat="38.146768" lon="-1.846873">
        <ele>622.182</ele>
        <time>2012-06-15T07:18:29Z</time>
      </trkpt>
      <trkpt lat="38.145478" lon="-1.846987">
        <ele>628.861</ele>
        <time>2012-06-15T07:19:21Z</time>
      </trkpt>
      <trkpt lat="38.143899" lon="-1.848597">
        <ele>634.644</ele>
        <time>2012-06-15T07:20:31Z</time>
      </trkpt>
      <trkpt lat="38.143525" lon="-1.848475">
        <ele>635.666</ele>
        <time>2012-06-15T07:20:43Z</time>
      </trkpt>
      <trkpt lat="38.142726" lon="-1.847810">
        <ele>636.529</ele>
        <time>2012-06-15T07:21:08Z</time>
      </trkpt>
      <trkpt lat="38.139911" lon="-1.845014">
        <ele>635.621</ele>
        <time>2012-06-15T07:22:29Z</time>
      </trkpt>
      <trkpt lat="38.138811" lon="-1.844616">
        <ele>635.607</ele>
        <time>2012-06-15T07:22:55Z</time>
      </trkpt>
      <trkpt lat="38.137612" lon="-1.844427">
        <ele>635.149</ele>
        <time>2012-06-15T07:23:18Z</time>
      </trkpt>
      <trkpt lat="38.136661" lon="-1.843554">
        <ele>635.696</ele>
        <time>2012-06-15T07:23:56Z</time>
      </trkpt>
      <trkpt lat="38.135939" lon="-1.843298">
        <ele>636.149</ele>
        <time>2012-06-15T07:24:23Z</time>
      </trkpt>
      <trkpt lat="38.135494" lon="-1.842649">
        <ele>630.894</ele>
        <time>2012-06-15T07:26:53Z</time>
      </trkpt>
      <trkpt lat="38.133795" lon="-1.841009">
        <ele>613.944</ele>
        <time>2012-06-15T07:28:07Z</time>
      </trkpt>
      <trkpt lat="38.133683" lon="-1.841461">
        <ele>613.013</ele>
        <time>2012-06-15T07:28:22Z</time>
      </trkpt>
      <trkpt lat="38.133527" lon="-1.841481">
        <ele>612.596</ele>
        <time>2012-06-15T07:28:28Z</time>
      </trkpt>
      <trkpt lat="38.132900" lon="-1.840886">
        <ele>613.592</ele>
        <time>2012-06-15T07:28:58Z</time>
      </trkpt>
      <trkpt lat="38.132376" lon="-1.840677">
        <ele>613.973</ele>
        <time>2012-06-15T07:29:12Z</time>
      </trkpt>
      <trkpt lat="38.131897" lon="-1.840808">
        <ele>614.920</ele>
        <time>2012-06-15T07:29:25Z</time>
      </trkpt>
      <trkpt lat="38.131359" lon="-1.841527">
        <ele>614.407</ele>
        <time>2012-06-15T07:29:43Z</time>
      </trkpt>
      <trkpt lat="38.130897" lon="-1.841859">
        <ele>615.412</ele>
        <time>2012-06-15T07:29:58Z</time>
      </trkpt>
      <trkpt lat="38.130298" lon="-1.843006">
        <ele>613.969</ele>
        <time>2012-06-15T07:30:25Z</time>
      </trkpt>
      <trkpt lat="38.129502" lon="-1.842665">
        <ele>612.572</ele>
        <time>2012-06-15T07:30:46Z</time>
      </trkpt>
      <trkpt lat="38.129223" lon="-1.842474">
        <ele>612.537</ele>
        <time>2012-06-15T07:30:53Z</time>
      </trkpt>
      <trkpt lat="38.129121" lon="-1.841198">
        <ele>613.527</ele>
        <time>2012-06-15T07:31:23Z</time>
      </trkpt>
      <trkpt lat="38.127924" lon="-1.838659">
        <ele>611.176</ele>
        <time>2012-06-15T07:32:08Z</time>
      </trkpt>
      <trkpt lat="38.126094" lon="-1.836858">
        <ele>613.969</ele>
        <time>2012-06-15T07:33:47Z</time>
      </trkpt>
      <trkpt lat="38.125098" lon="-1.836552">
        <ele>614.464</ele>
        <time>2012-06-15T07:34:19Z</time>
      </trkpt>
      <trkpt lat="38.124259" lon="-1.835975">
        <ele>612.506</ele>
        <time>2012-06-15T07:34:53Z</time>
      </trkpt>
      <trkpt lat="38.123325" lon="-1.836099">
        <ele>612.016</ele>
        <time>2012-06-15T07:35:20Z</time>
      </trkpt>
      <trkpt lat="38.122590" lon="-1.834981">
        <ele>609.607</ele>
        <time>2012-06-15T07:35:58Z</time>
      </trkpt>
      <trkpt lat="38.122105" lon="-1.834784">
        <ele>609.659</ele>
        <time>2012-06-15T07:36:12Z</time>
      </trkpt>
      <trkpt lat="38.121226" lon="-1.834697">
        <ele>611.126</ele>
        <time>2012-06-15T07:36:51Z</time>
      </trkpt>
      <trkpt lat="38.120899" lon="-1.834501">
        <ele>612.589</ele>
        <time>2012-06-15T07:37:02Z</time>
      </trkpt>
      <trkpt lat="38.120880" lon="-1.834151">
        <ele>612.584</ele>
        <time>2012-06-15T07:37:12Z</time>
      </trkpt>
      <trkpt lat="38.120600" lon="-1.833963">
        <ele>612.564</ele>
        <time>2012-06-15T07:37:22Z</time>
      </trkpt>
      <trkpt lat="38.120272" lon="-1.833915">
        <ele>613.533</ele>
        <time>2012-06-15T07:37:35Z</time>
      </trkpt>
      <trkpt lat="38.119307" lon="-1.834144">
        <ele>617.396</ele>
        <time>2012-06-15T07:38:04Z</time>
      </trkpt>
      <trkpt lat="38.118649" lon="-1.834674">
        <ele>621.239</ele>
        <time>2012-06-15T07:41:32Z</time>
      </trkpt>
      <trkpt lat="38.117860" lon="-1.834647">
        <ele>619.201</ele>
        <time>2012-06-15T07:42:54Z</time>
      </trkpt>
      <trkpt lat="38.116828" lon="-1.832918">
        <ele>630.821</ele>
        <time>2012-06-15T07:44:20Z</time>
      </trkpt>
      <trkpt lat="38.116143" lon="-1.834032">
        <ele>630.307</ele>
        <time>2012-06-15T07:44:50Z</time>
      </trkpt>
      <trkpt lat="38.115381" lon="-1.834403">
        <ele>632.296</ele>
        <time>2012-06-15T07:45:12Z</time>
      </trkpt>
      <trkpt lat="38.114669" lon="-1.833852">
        <ele>627.973</ele>
        <time>2012-06-15T07:45:32Z</time>
      </trkpt>
      <trkpt lat="38.114498" lon="-1.832880">
        <ele>622.116</ele>
        <time>2012-06-15T07:47:11Z</time>
      </trkpt>
      <trkpt lat="38.114204" lon="-1.833051">
        <ele>620.241</ele>
        <time>2012-06-15T07:47:26Z</time>
      </trkpt>
      <trkpt lat="38.113996" lon="-1.832878">
        <ele>618.811</ele>
        <time>2012-06-15T07:47:32Z</time>
      </trkpt>
      <trkpt lat="38.113657" lon="-1.831915">
        <ele>612.010</ele>
        <time>2012-06-15T07:47:49Z</time>
      </trkpt>
      <trkpt lat="38.112695" lon="-1.831330">
        <ele>604.383</ele>
        <time>2012-06-15T07:48:12Z</time>
      </trkpt>
      <trkpt lat="38.112784" lon="-1.831808">
        <ele>601.944</ele>
        <time>2012-06-15T07:48:21Z</time>
      </trkpt>
      <trkpt lat="38.112623" lon="-1.832461">
        <ele>598.605</ele>
        <time>2012-06-15T07:48:34Z</time>
      </trkpt>
      <trkpt lat="38.112139" lon="-1.833099">
        <ele>593.815</ele>
        <time>2012-06-15T07:48:52Z</time>
      </trkpt>
      <trkpt lat="38.112117" lon="-1.833328">
        <ele>592.307</ele>
        <time>2012-06-15T07:48:57Z</time>
      </trkpt>
      <trkpt lat="38.111831" lon="-1.833477">
        <ele>589.447</ele>
        <time>2012-06-15T07:49:06Z</time>
      </trkpt>
      <trkpt lat="38.109748" lon="-1.833021">
        <ele>580.354</ele>
        <time>2012-06-15T07:51:29Z</time>
      </trkpt>
      <trkpt lat="38.108610" lon="-1.835034">
        <ele>579.337</ele>
        <time>2012-06-15T07:55:53Z</time>
      </trkpt>
      <trkpt lat="38.108788" lon="-1.835248">
        <ele>580.352</ele>
        <time>2012-06-15T07:59:21Z</time>
      </trkpt>
      <trkpt lat="38.108903" lon="-1.835970">
        <ele>579.852</ele>
        <time>2012-06-15T07:59:39Z</time>
      </trkpt>
      <trkpt lat="38.108469" lon="-1.837615">
        <ele>577.931</ele>
        <time>2012-06-15T08:00:03Z</time>
      </trkpt>
      <trkpt lat="38.108582" lon="-1.839222">
        <ele>577.444</ele>
        <time>2012-06-15T08:00:29Z</time>
      </trkpt>
      <trkpt lat="38.107809" lon="-1.841388">
        <ele>577.919</ele>
        <time>2012-06-15T08:01:07Z</time>
      </trkpt>
      <trkpt lat="38.107104" lon="-1.842355">
        <ele>579.309</ele>
        <time>2012-06-15T08:01:28Z</time>
      </trkpt>
      <trkpt lat="38.106923" lon="-1.842894">
        <ele>579.819</ele>
        <time>2012-06-15T08:01:38Z</time>
      </trkpt>
      <trkpt lat="38.106866" lon="-1.845339">
        <ele>584.607</ele>
        <time>2012-06-15T08:02:23Z</time>
      </trkpt>
      <trkpt lat="38.106562" lon="-1.847656">
        <ele>588.564</ele>
        <time>2012-06-15T08:03:04Z</time>
      </trkpt>
      <trkpt lat="38.106758" lon="-1.848125">
        <ele>589.461</ele>
        <time>2012-06-15T08:03:15Z</time>
      </trkpt>
      <trkpt lat="38.107444" lon="-1.848939">
        <ele>592.874</ele>
        <time>2012-06-15T08:03:40Z</time>
      </trkpt>
      <trkpt lat="38.108197" lon="-1.850992">
        <ele>598.669</ele>
        <time>2012-06-15T08:04:26Z</time>
      </trkpt>
      <trkpt lat="38.108366" lon="-1.851645">
        <ele>600.039</ele>
        <time>2012-06-15T08:04:40Z</time>
      </trkpt>
      <trkpt lat="38.108180" lon="-1.852074">
        <ele>601.958</ele>
        <time>2012-06-15T08:04:51Z</time>
      </trkpt>
      <trkpt lat="38.108513" lon="-1.853078">
        <ele>604.341</ele>
        <time>2012-06-15T08:05:13Z</time>
      </trkpt>
      <trkpt lat="38.108863" lon="-1.853137">
        <ele>605.882</ele>
        <time>2012-06-15T08:05:26Z</time>
      </trkpt>
      <trkpt lat="38.109322" lon="-1.852855">
        <ele>608.243</ele>
        <time>2012-06-15T08:05:38Z</time>
      </trkpt>
      <trkpt lat="38.109720" lon="-1.853155">
        <ele>613.017</ele>
        <time>2012-06-15T08:05:57Z</time>
      </trkpt>
      <trkpt lat="38.109962" lon="-1.853837">
        <ele>617.807</ele>
        <time>2012-06-15T08:06:20Z</time>
      </trkpt>
      <trkpt lat="38.110604" lon="-1.854717">
        <ele>624.541</ele>
        <time>2012-06-15T08:06:55Z</time>
      </trkpt>
      <trkpt lat="38.110548" lon="-1.855168">
        <ele>625.558</ele>
        <time>2012-06-15T08:07:06Z</time>
      </trkpt>
      <trkpt lat="38.111398" lon="-1.857595">
        <ele>628.431</ele>
        <time>2012-06-15T08:11:08Z</time>
      </trkpt>
      <trkpt lat="38.112143" lon="-1.858094">
        <ele>623.136</ele>
        <time>2012-06-15T08:11:26Z</time>
      </trkpt>
      <trkpt lat="38.111304" lon="-1.859763">
        <ele>628.456</ele>
        <time>2012-06-15T08:12:31Z</time>
      </trkpt>
      <trkpt lat="38.111489" lon="-1.860026">
        <ele>629.395</ele>
        <time>2012-06-15T08:12:45Z</time>
      </trkpt>
      <trkpt lat="38.111075" lon="-1.861113">
        <ele>633.798</ele>
        <time>2012-06-15T08:13:19Z</time>
      </trkpt>
      <trkpt lat="38.109933" lon="-1.861202">
        <ele>623.628</ele>
        <time>2012-06-15T08:13:51Z</time>
      </trkpt>
      <trkpt lat="38.109681" lon="-1.861447">
        <ele>623.189</ele>
        <time>2012-06-15T08:13:59Z</time>
      </trkpt>
      <trkpt lat="38.108170" lon="-1.860950">
        <ele>625.517</ele>
        <time>2012-06-15T08:14:48Z</time>
      </trkpt>
      <trkpt lat="38.108336" lon="-1.860319">
        <ele>642.807</ele>
        <time>2012-06-15T08:56:54Z</time>
      </trkpt>
      <trkpt lat="38.107222" lon="-1.859013">
        <ele>659.665</ele>
        <time>2012-06-15T08:59:22Z</time>
      </trkpt>
      <trkpt lat="38.108145" lon="-1.859214">
        <ele>670.232</ele>
        <time>2012-06-15T09:02:22Z</time>
      </trkpt>
      <trkpt lat="38.108017" lon="-1.858908">
        <ele>673.145</ele>
        <time>2012-06-15T09:03:33Z</time>
      </trkpt>
      <trkpt lat="38.107684" lon="-1.858784">
        <ele>675.570</ele>
        <time>2012-06-15T09:06:18Z</time>
      </trkpt>
    </trkseg>
  </trk>
</gpx>
